<?xml version="1.0" encoding="UTF-8" standalone="no" ?>
<gpx xmlns="http://www.topografix.com/GPX/1/1" xmlns:xsi="http://www.w3.org/2001/XMLSchema-instance" xsi:schemaLocation="http://www.topografix.com/GPX/1/1 http://www.topografix.com/GPX/1/1/gpx.xsd" version="1.1" creator="VisuGPX - https://www.visugpx.com">
  <metadata>
    <name>2018-06-24 Bike ride-Amberieux-Rance O 35km</name>
    <desc><![CDATA[2018-06-24 Bike ride-Amberieux-Rance O 35km]]></desc>
  </metadata>
  <wpt lat="45.92459" lon="4.73711">
    <ele>174</ele>
    <name><![CDATA[2018-06-24 10:36 (Start)]]></name>
  </wpt>
  <wpt lat="45.92463" lon="4.73706">
    <ele>174</ele>
    <name><![CDATA[2018-06-24 10:36 (End)]]></name>
  </wpt>
  <trk>
    <name><![CDATA[2018-06-24 10:36]]></name>
    <trkseg>
      <trkpt lat="45.92459" lon="4.73711">
        <ele>174</ele>
        <time>2018-06-24T08:36:53.44Z</time>
      </trkpt>
      <trkpt lat="45.92463" lon="4.73699">
        <ele>174</ele>
        <time>2018-06-24T08:37:09Z</time>
      </trkpt>
      <trkpt lat="45.92463" lon="4.73696">
        <ele>174</ele>
        <time>2018-06-24T08:37:10Z</time>
      </trkpt>
      <trkpt lat="45.92463" lon="4.73687">
        <ele>174</ele>
        <time>2018-06-24T08:37:13Z</time>
      </trkpt>
      <trkpt lat="45.92463" lon="4.73683">
        <ele>174</ele>
        <time>2018-06-24T08:37:14Z</time>
      </trkpt>
      <trkpt lat="45.92464" lon="4.73678">
        <ele>174</ele>
        <time>2018-06-24T08:37:15Z</time>
      </trkpt>
      <trkpt lat="45.92466" lon="4.73667">
        <ele>174</ele>
        <time>2018-06-24T08:37:16Z</time>
      </trkpt>
      <trkpt lat="45.92467" lon="4.73656">
        <ele>174</ele>
        <time>2018-06-24T08:37:18Z</time>
      </trkpt>
      <trkpt lat="45.92467" lon="4.73653">
        <ele>174</ele>
        <time>2018-06-24T08:37:19Z</time>
      </trkpt>
      <trkpt lat="45.92471" lon="4.73644">
        <ele>174</ele>
        <time>2018-06-24T08:37:22Z</time>
      </trkpt>
      <trkpt lat="45.92474" lon="4.73642">
        <ele>174</ele>
        <time>2018-06-24T08:37:23Z</time>
      </trkpt>
      <trkpt lat="45.92482" lon="4.73639">
        <ele>174</ele>
        <time>2018-06-24T08:37:24Z</time>
      </trkpt>
      <trkpt lat="45.92486" lon="4.7364">
        <ele>174</ele>
        <time>2018-06-24T08:37:25Z</time>
      </trkpt>
      <trkpt lat="45.92495" lon="4.73643">
        <ele>174</ele>
        <time>2018-06-24T08:37:27Z</time>
      </trkpt>
      <trkpt lat="45.92499" lon="4.73643">
        <ele>174</ele>
        <time>2018-06-24T08:37:28Z</time>
      </trkpt>
      <trkpt lat="45.92504" lon="4.73643">
        <ele>174</ele>
        <time>2018-06-24T08:37:29Z</time>
      </trkpt>
      <trkpt lat="45.92509" lon="4.73642">
        <ele>174</ele>
        <time>2018-06-24T08:37:30Z</time>
      </trkpt>
      <trkpt lat="45.92514" lon="4.73643">
        <ele>174</ele>
        <time>2018-06-24T08:37:31Z</time>
      </trkpt>
      <trkpt lat="45.92519" lon="4.7364">
        <ele>173</ele>
        <time>2018-06-24T08:37:32Z</time>
      </trkpt>
      <trkpt lat="45.92524" lon="4.73639">
        <ele>173</ele>
        <time>2018-06-24T08:37:33Z</time>
      </trkpt>
      <trkpt lat="45.92529" lon="4.7364">
        <ele>173</ele>
        <time>2018-06-24T08:37:34Z</time>
      </trkpt>
      <trkpt lat="45.92537" lon="4.73638">
        <ele>173</ele>
        <time>2018-06-24T08:37:36Z</time>
      </trkpt>
      <trkpt lat="45.92543" lon="4.73637">
        <ele>173</ele>
        <time>2018-06-24T08:37:37Z</time>
      </trkpt>
      <trkpt lat="45.92548" lon="4.73636">
        <ele>173</ele>
        <time>2018-06-24T08:37:38Z</time>
      </trkpt>
      <trkpt lat="45.92554" lon="4.73631">
        <ele>173</ele>
        <time>2018-06-24T08:37:39Z</time>
      </trkpt>
      <trkpt lat="45.92559" lon="4.7363">
        <ele>173</ele>
        <time>2018-06-24T08:37:40Z</time>
      </trkpt>
      <trkpt lat="45.92563" lon="4.73629">
        <ele>173</ele>
        <time>2018-06-24T08:37:41Z</time>
      </trkpt>
      <trkpt lat="45.92572" lon="4.73626">
        <ele>173</ele>
        <time>2018-06-24T08:37:43Z</time>
      </trkpt>
      <trkpt lat="45.92576" lon="4.73623">
        <ele>173</ele>
        <time>2018-06-24T08:37:44Z</time>
      </trkpt>
      <trkpt lat="45.9258" lon="4.73623">
        <ele>173</ele>
        <time>2018-06-24T08:37:45Z</time>
      </trkpt>
      <trkpt lat="45.92585" lon="4.73622">
        <ele>173</ele>
        <time>2018-06-24T08:37:46Z</time>
      </trkpt>
      <trkpt lat="45.9259" lon="4.73622">
        <ele>173</ele>
        <time>2018-06-24T08:37:47Z</time>
      </trkpt>
      <trkpt lat="45.92595" lon="4.73622">
        <ele>173</ele>
        <time>2018-06-24T08:37:48Z</time>
      </trkpt>
      <trkpt lat="45.92601" lon="4.73622">
        <ele>173</ele>
        <time>2018-06-24T08:37:49Z</time>
      </trkpt>
      <trkpt lat="45.92608" lon="4.73623">
        <ele>173</ele>
        <time>2018-06-24T08:37:50Z</time>
      </trkpt>
      <trkpt lat="45.92613" lon="4.73626">
        <ele>173</ele>
        <time>2018-06-24T08:37:51Z</time>
      </trkpt>
      <trkpt lat="45.92617" lon="4.73633">
        <ele>173</ele>
        <time>2018-06-24T08:37:52Z</time>
      </trkpt>
      <trkpt lat="45.9262" lon="4.7364">
        <ele>173</ele>
        <time>2018-06-24T08:37:53Z</time>
      </trkpt>
      <trkpt lat="45.92622" lon="4.73646">
        <ele>173</ele>
        <time>2018-06-24T08:37:54Z</time>
      </trkpt>
      <trkpt lat="45.92626" lon="4.73651">
        <ele>173</ele>
        <time>2018-06-24T08:37:55Z</time>
      </trkpt>
      <trkpt lat="45.92629" lon="4.73655">
        <ele>173</ele>
        <time>2018-06-24T08:37:56Z</time>
      </trkpt>
      <trkpt lat="45.92633" lon="4.73665">
        <ele>173</ele>
        <time>2018-06-24T08:37:58Z</time>
      </trkpt>
      <trkpt lat="45.92636" lon="4.7367">
        <ele>173</ele>
        <time>2018-06-24T08:37:59Z</time>
      </trkpt>
      <trkpt lat="45.92641" lon="4.73676">
        <ele>173</ele>
        <time>2018-06-24T08:38:00Z</time>
      </trkpt>
      <trkpt lat="45.92644" lon="4.7368">
        <ele>173</ele>
        <time>2018-06-24T08:38:01Z</time>
      </trkpt>
      <trkpt lat="45.92648" lon="4.73685">
        <ele>173</ele>
        <time>2018-06-24T08:38:02Z</time>
      </trkpt>
      <trkpt lat="45.92652" lon="4.73689">
        <ele>173</ele>
        <time>2018-06-24T08:38:03Z</time>
      </trkpt>
      <trkpt lat="45.92659" lon="4.73695">
        <ele>173</ele>
        <time>2018-06-24T08:38:05Z</time>
      </trkpt>
      <trkpt lat="45.92663" lon="4.737">
        <ele>173</ele>
        <time>2018-06-24T08:38:06Z</time>
      </trkpt>
      <trkpt lat="45.92668" lon="4.73703">
        <ele>174</ele>
        <time>2018-06-24T08:38:07Z</time>
      </trkpt>
      <trkpt lat="45.92673" lon="4.73705">
        <ele>174</ele>
        <time>2018-06-24T08:38:08Z</time>
      </trkpt>
      <trkpt lat="45.92677" lon="4.73707">
        <ele>173</ele>
        <time>2018-06-24T08:38:09Z</time>
      </trkpt>
      <trkpt lat="45.92682" lon="4.73708">
        <ele>173</ele>
        <time>2018-06-24T08:38:10Z</time>
      </trkpt>
      <trkpt lat="45.92688" lon="4.73711">
        <ele>173</ele>
        <time>2018-06-24T08:38:11Z</time>
      </trkpt>
      <trkpt lat="45.92693" lon="4.73713">
        <ele>173</ele>
        <time>2018-06-24T08:38:12Z</time>
      </trkpt>
      <trkpt lat="45.92699" lon="4.73715">
        <ele>173</ele>
        <time>2018-06-24T08:38:13Z</time>
      </trkpt>
      <trkpt lat="45.92704" lon="4.73716">
        <ele>173</ele>
        <time>2018-06-24T08:38:14Z</time>
      </trkpt>
      <trkpt lat="45.9271" lon="4.73718">
        <ele>173</ele>
        <time>2018-06-24T08:38:15Z</time>
      </trkpt>
      <trkpt lat="45.92714" lon="4.73719">
        <ele>173</ele>
        <time>2018-06-24T08:38:16Z</time>
      </trkpt>
      <trkpt lat="45.9272" lon="4.7372">
        <ele>173</ele>
        <time>2018-06-24T08:38:17Z</time>
      </trkpt>
      <trkpt lat="45.92724" lon="4.73722">
        <ele>173</ele>
        <time>2018-06-24T08:38:18Z</time>
      </trkpt>
      <trkpt lat="45.92729" lon="4.73724">
        <ele>173</ele>
        <time>2018-06-24T08:38:19Z</time>
      </trkpt>
      <trkpt lat="45.92733" lon="4.73725">
        <ele>173</ele>
        <time>2018-06-24T08:38:20Z</time>
      </trkpt>
      <trkpt lat="45.92739" lon="4.73729">
        <ele>173</ele>
        <time>2018-06-24T08:38:21Z</time>
      </trkpt>
      <trkpt lat="45.92743" lon="4.7373">
        <ele>173</ele>
        <time>2018-06-24T08:38:22Z</time>
      </trkpt>
      <trkpt lat="45.92752" lon="4.73729">
        <ele>172</ele>
        <time>2018-06-24T08:38:25Z</time>
      </trkpt>
      <trkpt lat="45.92754" lon="4.7373">
        <ele>172</ele>
        <time>2018-06-24T08:38:26Z</time>
      </trkpt>
      <trkpt lat="45.9276" lon="4.73735">
        <ele>172</ele>
        <time>2018-06-24T08:38:28Z</time>
      </trkpt>
      <trkpt lat="45.92763" lon="4.73736">
        <ele>172</ele>
        <time>2018-06-24T08:38:29Z</time>
      </trkpt>
      <trkpt lat="45.92771" lon="4.7374">
        <ele>172</ele>
        <time>2018-06-24T08:38:32Z</time>
      </trkpt>
      <trkpt lat="45.92773" lon="4.73743">
        <ele>172</ele>
        <time>2018-06-24T08:38:33Z</time>
      </trkpt>
      <trkpt lat="45.92776" lon="4.73748">
        <ele>172</ele>
        <time>2018-06-24T08:38:35Z</time>
      </trkpt>
      <trkpt lat="45.92782" lon="4.73756">
        <ele>173</ele>
        <time>2018-06-24T08:38:36Z</time>
      </trkpt>
      <trkpt lat="45.9279" lon="4.73761">
        <ele>173</ele>
        <time>2018-06-24T08:38:38Z</time>
      </trkpt>
      <trkpt lat="45.92794" lon="4.73763">
        <ele>173</ele>
        <time>2018-06-24T08:38:39Z</time>
      </trkpt>
      <trkpt lat="45.92798" lon="4.73765">
        <ele>173</ele>
        <time>2018-06-24T08:38:40Z</time>
      </trkpt>
      <trkpt lat="45.92803" lon="4.73767">
        <ele>173</ele>
        <time>2018-06-24T08:38:41Z</time>
      </trkpt>
      <trkpt lat="45.92808" lon="4.7377">
        <ele>173</ele>
        <time>2018-06-24T08:38:42Z</time>
      </trkpt>
      <trkpt lat="45.92813" lon="4.73773">
        <ele>173</ele>
        <time>2018-06-24T08:38:43Z</time>
      </trkpt>
      <trkpt lat="45.92817" lon="4.73776">
        <ele>173</ele>
        <time>2018-06-24T08:38:44Z</time>
      </trkpt>
      <trkpt lat="45.92823" lon="4.73779">
        <ele>173</ele>
        <time>2018-06-24T08:38:45Z</time>
      </trkpt>
      <trkpt lat="45.92827" lon="4.73782">
        <ele>173</ele>
        <time>2018-06-24T08:38:46Z</time>
      </trkpt>
      <trkpt lat="45.92833" lon="4.73786">
        <ele>173</ele>
        <time>2018-06-24T08:38:47Z</time>
      </trkpt>
      <trkpt lat="45.92837" lon="4.7379">
        <ele>173</ele>
        <time>2018-06-24T08:38:48Z</time>
      </trkpt>
      <trkpt lat="45.92842" lon="4.73794">
        <ele>173</ele>
        <time>2018-06-24T08:38:49Z</time>
      </trkpt>
      <trkpt lat="45.92847" lon="4.73799">
        <ele>173</ele>
        <time>2018-06-24T08:38:50Z</time>
      </trkpt>
      <trkpt lat="45.92851" lon="4.73803">
        <ele>173</ele>
        <time>2018-06-24T08:38:51Z</time>
      </trkpt>
      <trkpt lat="45.92853" lon="4.7381">
        <ele>173</ele>
        <time>2018-06-24T08:38:52Z</time>
      </trkpt>
      <trkpt lat="45.92855" lon="4.73818">
        <ele>173</ele>
        <time>2018-06-24T08:38:53Z</time>
      </trkpt>
      <trkpt lat="45.92857" lon="4.73826">
        <ele>173</ele>
        <time>2018-06-24T08:38:54Z</time>
      </trkpt>
      <trkpt lat="45.92859" lon="4.73832">
        <ele>173</ele>
        <time>2018-06-24T08:38:55Z</time>
      </trkpt>
      <trkpt lat="45.9286" lon="4.73842">
        <ele>173</ele>
        <time>2018-06-24T08:38:56Z</time>
      </trkpt>
      <trkpt lat="45.92863" lon="4.73849">
        <ele>173</ele>
        <time>2018-06-24T08:38:57Z</time>
      </trkpt>
      <trkpt lat="45.92865" lon="4.73857">
        <ele>173</ele>
        <time>2018-06-24T08:38:58Z</time>
      </trkpt>
      <trkpt lat="45.92867" lon="4.73863">
        <ele>173</ele>
        <time>2018-06-24T08:38:59Z</time>
      </trkpt>
      <trkpt lat="45.92869" lon="4.7387">
        <ele>173</ele>
        <time>2018-06-24T08:39:00Z</time>
      </trkpt>
      <trkpt lat="45.92872" lon="4.73878">
        <ele>173</ele>
        <time>2018-06-24T08:39:01Z</time>
      </trkpt>
      <trkpt lat="45.92871" lon="4.73886">
        <ele>173</ele>
        <time>2018-06-24T08:39:02Z</time>
      </trkpt>
      <trkpt lat="45.92873" lon="4.73895">
        <ele>173</ele>
        <time>2018-06-24T08:39:03Z</time>
      </trkpt>
      <trkpt lat="45.92876" lon="4.739">
        <ele>173</ele>
        <time>2018-06-24T08:39:04Z</time>
      </trkpt>
      <trkpt lat="45.92878" lon="4.73907">
        <ele>173</ele>
        <time>2018-06-24T08:39:05Z</time>
      </trkpt>
      <trkpt lat="45.92879" lon="4.73914">
        <ele>173</ele>
        <time>2018-06-24T08:39:06Z</time>
      </trkpt>
      <trkpt lat="45.92879" lon="4.73922">
        <ele>172</ele>
        <time>2018-06-24T08:39:07Z</time>
      </trkpt>
      <trkpt lat="45.9288" lon="4.73934">
        <ele>172</ele>
        <time>2018-06-24T08:39:09Z</time>
      </trkpt>
      <trkpt lat="45.9288" lon="4.73941">
        <ele>172</ele>
        <time>2018-06-24T08:39:10Z</time>
      </trkpt>
      <trkpt lat="45.92882" lon="4.73948">
        <ele>172</ele>
        <time>2018-06-24T08:39:11Z</time>
      </trkpt>
      <trkpt lat="45.92882" lon="4.73954">
        <ele>172</ele>
        <time>2018-06-24T08:39:12Z</time>
      </trkpt>
      <trkpt lat="45.92882" lon="4.7396">
        <ele>172</ele>
        <time>2018-06-24T08:39:13Z</time>
      </trkpt>
      <trkpt lat="45.92882" lon="4.73968">
        <ele>172</ele>
        <time>2018-06-24T08:39:14Z</time>
      </trkpt>
      <trkpt lat="45.92881" lon="4.73974">
        <ele>172</ele>
        <time>2018-06-24T08:39:15Z</time>
      </trkpt>
      <trkpt lat="45.92881" lon="4.73982">
        <ele>172</ele>
        <time>2018-06-24T08:39:16Z</time>
      </trkpt>
      <trkpt lat="45.9288" lon="4.73994">
        <ele>172</ele>
        <time>2018-06-24T08:39:18Z</time>
      </trkpt>
      <trkpt lat="45.92878" lon="4.74">
        <ele>172</ele>
        <time>2018-06-24T08:39:19Z</time>
      </trkpt>
      <trkpt lat="45.92876" lon="4.74012">
        <ele>172</ele>
        <time>2018-06-24T08:39:21Z</time>
      </trkpt>
      <trkpt lat="45.92875" lon="4.74017">
        <ele>172</ele>
        <time>2018-06-24T08:39:22Z</time>
      </trkpt>
      <trkpt lat="45.92873" lon="4.74023">
        <ele>172</ele>
        <time>2018-06-24T08:39:23Z</time>
      </trkpt>
      <trkpt lat="45.92872" lon="4.74032">
        <ele>172</ele>
        <time>2018-06-24T08:39:24Z</time>
      </trkpt>
      <trkpt lat="45.92869" lon="4.74037">
        <ele>172</ele>
        <time>2018-06-24T08:39:25Z</time>
      </trkpt>
      <trkpt lat="45.92866" lon="4.74043">
        <ele>172</ele>
        <time>2018-06-24T08:39:26Z</time>
      </trkpt>
      <trkpt lat="45.92862" lon="4.74049">
        <ele>172</ele>
        <time>2018-06-24T08:39:27Z</time>
      </trkpt>
      <trkpt lat="45.92858" lon="4.74055">
        <ele>172</ele>
        <time>2018-06-24T08:39:28Z</time>
      </trkpt>
      <trkpt lat="45.92853" lon="4.74061">
        <ele>172</ele>
        <time>2018-06-24T08:39:29Z</time>
      </trkpt>
      <trkpt lat="45.92848" lon="4.74066">
        <ele>172</ele>
        <time>2018-06-24T08:39:30Z</time>
      </trkpt>
      <trkpt lat="45.92844" lon="4.74073">
        <ele>172</ele>
        <time>2018-06-24T08:39:31Z</time>
      </trkpt>
      <trkpt lat="45.9284" lon="4.74078">
        <ele>171</ele>
        <time>2018-06-24T08:39:32Z</time>
      </trkpt>
      <trkpt lat="45.92835" lon="4.74083">
        <ele>171</ele>
        <time>2018-06-24T08:39:33Z</time>
      </trkpt>
      <trkpt lat="45.9283" lon="4.74088">
        <ele>171</ele>
        <time>2018-06-24T08:39:34Z</time>
      </trkpt>
      <trkpt lat="45.92826" lon="4.74094">
        <ele>171</ele>
        <time>2018-06-24T08:39:35Z</time>
      </trkpt>
      <trkpt lat="45.92821" lon="4.741">
        <ele>171</ele>
        <time>2018-06-24T08:39:36Z</time>
      </trkpt>
      <trkpt lat="45.92816" lon="4.74105">
        <ele>172</ele>
        <time>2018-06-24T08:39:37Z</time>
      </trkpt>
      <trkpt lat="45.92812" lon="4.7411">
        <ele>172</ele>
        <time>2018-06-24T08:39:38Z</time>
      </trkpt>
      <trkpt lat="45.92807" lon="4.74118">
        <ele>172</ele>
        <time>2018-06-24T08:39:39Z</time>
      </trkpt>
      <trkpt lat="45.92803" lon="4.74123">
        <ele>172</ele>
        <time>2018-06-24T08:39:40Z</time>
      </trkpt>
      <trkpt lat="45.92798" lon="4.74128">
        <ele>172</ele>
        <time>2018-06-24T08:39:41Z</time>
      </trkpt>
      <trkpt lat="45.92794" lon="4.74133">
        <ele>172</ele>
        <time>2018-06-24T08:39:42Z</time>
      </trkpt>
      <trkpt lat="45.9279" lon="4.74138">
        <ele>172</ele>
        <time>2018-06-24T08:39:43Z</time>
      </trkpt>
      <trkpt lat="45.92784" lon="4.74142">
        <ele>172</ele>
        <time>2018-06-24T08:39:44Z</time>
      </trkpt>
      <trkpt lat="45.9278" lon="4.74146">
        <ele>172</ele>
        <time>2018-06-24T08:39:45Z</time>
      </trkpt>
      <trkpt lat="45.92775" lon="4.74151">
        <ele>172</ele>
        <time>2018-06-24T08:39:46Z</time>
      </trkpt>
      <trkpt lat="45.9277" lon="4.74155">
        <ele>172</ele>
        <time>2018-06-24T08:39:47Z</time>
      </trkpt>
      <trkpt lat="45.92766" lon="4.74161">
        <ele>172</ele>
        <time>2018-06-24T08:39:48Z</time>
      </trkpt>
      <trkpt lat="45.92762" lon="4.74168">
        <ele>172</ele>
        <time>2018-06-24T08:39:49Z</time>
      </trkpt>
      <trkpt lat="45.92758" lon="4.74173">
        <ele>172</ele>
        <time>2018-06-24T08:39:50Z</time>
      </trkpt>
      <trkpt lat="45.92753" lon="4.74177">
        <ele>172</ele>
        <time>2018-06-24T08:39:51Z</time>
      </trkpt>
      <trkpt lat="45.92748" lon="4.74183">
        <ele>172</ele>
        <time>2018-06-24T08:39:52Z</time>
      </trkpt>
      <trkpt lat="45.92744" lon="4.74188">
        <ele>172</ele>
        <time>2018-06-24T08:39:53Z</time>
      </trkpt>
      <trkpt lat="45.92739" lon="4.74193">
        <ele>171</ele>
        <time>2018-06-24T08:39:54Z</time>
      </trkpt>
      <trkpt lat="45.92735" lon="4.742">
        <ele>171</ele>
        <time>2018-06-24T08:39:55Z</time>
      </trkpt>
      <trkpt lat="45.9273" lon="4.74205">
        <ele>171</ele>
        <time>2018-06-24T08:39:56Z</time>
      </trkpt>
      <trkpt lat="45.92726" lon="4.74211">
        <ele>171</ele>
        <time>2018-06-24T08:39:57Z</time>
      </trkpt>
      <trkpt lat="45.92721" lon="4.74217">
        <ele>171</ele>
        <time>2018-06-24T08:39:58Z</time>
      </trkpt>
      <trkpt lat="45.92717" lon="4.74223">
        <ele>171</ele>
        <time>2018-06-24T08:39:59Z</time>
      </trkpt>
      <trkpt lat="45.92713" lon="4.74229">
        <ele>171</ele>
        <time>2018-06-24T08:40:00Z</time>
      </trkpt>
      <trkpt lat="45.9271" lon="4.74234">
        <ele>171</ele>
        <time>2018-06-24T08:40:01Z</time>
      </trkpt>
      <trkpt lat="45.92706" lon="4.7424">
        <ele>171</ele>
        <time>2018-06-24T08:40:02Z</time>
      </trkpt>
      <trkpt lat="45.92703" lon="4.74247">
        <ele>171</ele>
        <time>2018-06-24T08:40:03Z</time>
      </trkpt>
      <trkpt lat="45.92699" lon="4.74253">
        <ele>171</ele>
        <time>2018-06-24T08:40:04Z</time>
      </trkpt>
      <trkpt lat="45.92695" lon="4.74259">
        <ele>171</ele>
        <time>2018-06-24T08:40:05Z</time>
      </trkpt>
      <trkpt lat="45.92691" lon="4.74265">
        <ele>171</ele>
        <time>2018-06-24T08:40:06Z</time>
      </trkpt>
      <trkpt lat="45.92687" lon="4.74272">
        <ele>171</ele>
        <time>2018-06-24T08:40:07Z</time>
      </trkpt>
      <trkpt lat="45.92684" lon="4.74278">
        <ele>171</ele>
        <time>2018-06-24T08:40:08Z</time>
      </trkpt>
      <trkpt lat="45.92681" lon="4.74286">
        <ele>171</ele>
        <time>2018-06-24T08:40:09Z</time>
      </trkpt>
      <trkpt lat="45.92677" lon="4.74293">
        <ele>171</ele>
        <time>2018-06-24T08:40:10Z</time>
      </trkpt>
      <trkpt lat="45.92674" lon="4.743">
        <ele>171</ele>
        <time>2018-06-24T08:40:11Z</time>
      </trkpt>
      <trkpt lat="45.9267" lon="4.74306">
        <ele>171</ele>
        <time>2018-06-24T08:40:12Z</time>
      </trkpt>
      <trkpt lat="45.92666" lon="4.74313">
        <ele>171</ele>
        <time>2018-06-24T08:40:13Z</time>
      </trkpt>
      <trkpt lat="45.92663" lon="4.7432">
        <ele>171</ele>
        <time>2018-06-24T08:40:14Z</time>
      </trkpt>
      <trkpt lat="45.92659" lon="4.74328">
        <ele>171</ele>
        <time>2018-06-24T08:40:15Z</time>
      </trkpt>
      <trkpt lat="45.92656" lon="4.74336">
        <ele>171</ele>
        <time>2018-06-24T08:40:16Z</time>
      </trkpt>
      <trkpt lat="45.92652" lon="4.74342">
        <ele>171</ele>
        <time>2018-06-24T08:40:17Z</time>
      </trkpt>
      <trkpt lat="45.92648" lon="4.74349">
        <ele>171</ele>
        <time>2018-06-24T08:40:18Z</time>
      </trkpt>
      <trkpt lat="45.92645" lon="4.74356">
        <ele>171</ele>
        <time>2018-06-24T08:40:19Z</time>
      </trkpt>
      <trkpt lat="45.92641" lon="4.74363">
        <ele>171</ele>
        <time>2018-06-24T08:40:20Z</time>
      </trkpt>
      <trkpt lat="45.92637" lon="4.7437">
        <ele>171</ele>
        <time>2018-06-24T08:40:21Z</time>
      </trkpt>
      <trkpt lat="45.92634" lon="4.74377">
        <ele>170</ele>
        <time>2018-06-24T08:40:22Z</time>
      </trkpt>
      <trkpt lat="45.9263" lon="4.74383">
        <ele>170</ele>
        <time>2018-06-24T08:40:23Z</time>
      </trkpt>
      <trkpt lat="45.92626" lon="4.7439">
        <ele>170</ele>
        <time>2018-06-24T08:40:24Z</time>
      </trkpt>
      <trkpt lat="45.92623" lon="4.74395">
        <ele>170</ele>
        <time>2018-06-24T08:40:25Z</time>
      </trkpt>
      <trkpt lat="45.9262" lon="4.74401">
        <ele>170</ele>
        <time>2018-06-24T08:40:26Z</time>
      </trkpt>
      <trkpt lat="45.92616" lon="4.74408">
        <ele>170</ele>
        <time>2018-06-24T08:40:27Z</time>
      </trkpt>
      <trkpt lat="45.92612" lon="4.74415">
        <ele>170</ele>
        <time>2018-06-24T08:40:28Z</time>
      </trkpt>
      <trkpt lat="45.92608" lon="4.74422">
        <ele>170</ele>
        <time>2018-06-24T08:40:29Z</time>
      </trkpt>
      <trkpt lat="45.92603" lon="4.74429">
        <ele>170</ele>
        <time>2018-06-24T08:40:30Z</time>
      </trkpt>
      <trkpt lat="45.92599" lon="4.74436">
        <ele>170</ele>
        <time>2018-06-24T08:40:31Z</time>
      </trkpt>
      <trkpt lat="45.92594" lon="4.74443">
        <ele>170</ele>
        <time>2018-06-24T08:40:32Z</time>
      </trkpt>
      <trkpt lat="45.9259" lon="4.7445">
        <ele>170</ele>
        <time>2018-06-24T08:40:33Z</time>
      </trkpt>
      <trkpt lat="45.92586" lon="4.74456">
        <ele>170</ele>
        <time>2018-06-24T08:40:34Z</time>
      </trkpt>
      <trkpt lat="45.92583" lon="4.74463">
        <ele>170</ele>
        <time>2018-06-24T08:40:35Z</time>
      </trkpt>
      <trkpt lat="45.92578" lon="4.74469">
        <ele>170</ele>
        <time>2018-06-24T08:40:36Z</time>
      </trkpt>
      <trkpt lat="45.92575" lon="4.74476">
        <ele>170</ele>
        <time>2018-06-24T08:40:37Z</time>
      </trkpt>
      <trkpt lat="45.9257" lon="4.74481">
        <ele>170</ele>
        <time>2018-06-24T08:40:38Z</time>
      </trkpt>
      <trkpt lat="45.92566" lon="4.74488">
        <ele>170</ele>
        <time>2018-06-24T08:40:39Z</time>
      </trkpt>
      <trkpt lat="45.92562" lon="4.74494">
        <ele>170</ele>
        <time>2018-06-24T08:40:40Z</time>
      </trkpt>
      <trkpt lat="45.92558" lon="4.74502">
        <ele>170</ele>
        <time>2018-06-24T08:40:41Z</time>
      </trkpt>
      <trkpt lat="45.92554" lon="4.74509">
        <ele>170</ele>
        <time>2018-06-24T08:40:42Z</time>
      </trkpt>
      <trkpt lat="45.9255" lon="4.74516">
        <ele>170</ele>
        <time>2018-06-24T08:40:43Z</time>
      </trkpt>
      <trkpt lat="45.92547" lon="4.74522">
        <ele>170</ele>
        <time>2018-06-24T08:40:44Z</time>
      </trkpt>
      <trkpt lat="45.92543" lon="4.74528">
        <ele>170</ele>
        <time>2018-06-24T08:40:45Z</time>
      </trkpt>
      <trkpt lat="45.9254" lon="4.74536">
        <ele>171</ele>
        <time>2018-06-24T08:40:46Z</time>
      </trkpt>
      <trkpt lat="45.92536" lon="4.74542">
        <ele>171</ele>
        <time>2018-06-24T08:40:47Z</time>
      </trkpt>
      <trkpt lat="45.92532" lon="4.74548">
        <ele>171</ele>
        <time>2018-06-24T08:40:48Z</time>
      </trkpt>
      <trkpt lat="45.92528" lon="4.74555">
        <ele>171</ele>
        <time>2018-06-24T08:40:49Z</time>
      </trkpt>
      <trkpt lat="45.92523" lon="4.74561">
        <ele>171</ele>
        <time>2018-06-24T08:40:50Z</time>
      </trkpt>
      <trkpt lat="45.92518" lon="4.74567">
        <ele>171</ele>
        <time>2018-06-24T08:40:51Z</time>
      </trkpt>
      <trkpt lat="45.92513" lon="4.74573">
        <ele>171</ele>
        <time>2018-06-24T08:40:52Z</time>
      </trkpt>
      <trkpt lat="45.92509" lon="4.74578">
        <ele>171</ele>
        <time>2018-06-24T08:40:53Z</time>
      </trkpt>
      <trkpt lat="45.92504" lon="4.74584">
        <ele>171</ele>
        <time>2018-06-24T08:40:54Z</time>
      </trkpt>
      <trkpt lat="45.925" lon="4.74587">
        <ele>171</ele>
        <time>2018-06-24T08:40:55Z</time>
      </trkpt>
      <trkpt lat="45.92495" lon="4.74592">
        <ele>171</ele>
        <time>2018-06-24T08:40:56Z</time>
      </trkpt>
      <trkpt lat="45.92491" lon="4.74598">
        <ele>171</ele>
        <time>2018-06-24T08:40:57Z</time>
      </trkpt>
      <trkpt lat="45.92487" lon="4.74604">
        <ele>171</ele>
        <time>2018-06-24T08:40:58Z</time>
      </trkpt>
      <trkpt lat="45.92483" lon="4.74609">
        <ele>171</ele>
        <time>2018-06-24T08:40:59Z</time>
      </trkpt>
      <trkpt lat="45.92479" lon="4.74613">
        <ele>171</ele>
        <time>2018-06-24T08:41:00Z</time>
      </trkpt>
      <trkpt lat="45.92475" lon="4.74619">
        <ele>171</ele>
        <time>2018-06-24T08:41:01Z</time>
      </trkpt>
      <trkpt lat="45.92471" lon="4.74625">
        <ele>171</ele>
        <time>2018-06-24T08:41:02Z</time>
      </trkpt>
      <trkpt lat="45.92467" lon="4.7463">
        <ele>171</ele>
        <time>2018-06-24T08:41:03Z</time>
      </trkpt>
      <trkpt lat="45.92462" lon="4.74636">
        <ele>171</ele>
        <time>2018-06-24T08:41:04Z</time>
      </trkpt>
      <trkpt lat="45.92459" lon="4.74643">
        <ele>171</ele>
        <time>2018-06-24T08:41:05Z</time>
      </trkpt>
      <trkpt lat="45.92455" lon="4.74648">
        <ele>171</ele>
        <time>2018-06-24T08:41:06Z</time>
      </trkpt>
      <trkpt lat="45.92451" lon="4.74654">
        <ele>171</ele>
        <time>2018-06-24T08:41:07Z</time>
      </trkpt>
      <trkpt lat="45.92447" lon="4.74659">
        <ele>171</ele>
        <time>2018-06-24T08:41:08Z</time>
      </trkpt>
      <trkpt lat="45.92442" lon="4.74665">
        <ele>171</ele>
        <time>2018-06-24T08:41:09Z</time>
      </trkpt>
      <trkpt lat="45.92441" lon="4.74679">
        <ele>171</ele>
        <time>2018-06-24T08:41:10Z</time>
      </trkpt>
      <trkpt lat="45.92438" lon="4.74686">
        <ele>171</ele>
        <time>2018-06-24T08:41:11Z</time>
      </trkpt>
      <trkpt lat="45.92434" lon="4.74692">
        <ele>171</ele>
        <time>2018-06-24T08:41:12Z</time>
      </trkpt>
      <trkpt lat="45.9243" lon="4.747">
        <ele>171</ele>
        <time>2018-06-24T08:41:13Z</time>
      </trkpt>
      <trkpt lat="45.92428" lon="4.7471">
        <ele>171</ele>
        <time>2018-06-24T08:41:14Z</time>
      </trkpt>
      <trkpt lat="45.92425" lon="4.74716">
        <ele>171</ele>
        <time>2018-06-24T08:41:15Z</time>
      </trkpt>
      <trkpt lat="45.92422" lon="4.74725">
        <ele>171</ele>
        <time>2018-06-24T08:41:16Z</time>
      </trkpt>
      <trkpt lat="45.92419" lon="4.74732">
        <ele>171</ele>
        <time>2018-06-24T08:41:17Z</time>
      </trkpt>
      <trkpt lat="45.92417" lon="4.74741">
        <ele>172</ele>
        <time>2018-06-24T08:41:18Z</time>
      </trkpt>
      <trkpt lat="45.92415" lon="4.74749">
        <ele>172</ele>
        <time>2018-06-24T08:41:19Z</time>
      </trkpt>
      <trkpt lat="45.92413" lon="4.74757">
        <ele>172</ele>
        <time>2018-06-24T08:41:20Z</time>
      </trkpt>
      <trkpt lat="45.92411" lon="4.74765">
        <ele>172</ele>
        <time>2018-06-24T08:41:21Z</time>
      </trkpt>
      <trkpt lat="45.92409" lon="4.74773">
        <ele>171</ele>
        <time>2018-06-24T08:41:22Z</time>
      </trkpt>
      <trkpt lat="45.92408" lon="4.74781">
        <ele>171</ele>
        <time>2018-06-24T08:41:23Z</time>
      </trkpt>
      <trkpt lat="45.92406" lon="4.74789">
        <ele>171</ele>
        <time>2018-06-24T08:41:24Z</time>
      </trkpt>
      <trkpt lat="45.92404" lon="4.74798">
        <ele>171</ele>
        <time>2018-06-24T08:41:25Z</time>
      </trkpt>
      <trkpt lat="45.92402" lon="4.74806">
        <ele>171</ele>
        <time>2018-06-24T08:41:26Z</time>
      </trkpt>
      <trkpt lat="45.924" lon="4.74814">
        <ele>171</ele>
        <time>2018-06-24T08:41:27Z</time>
      </trkpt>
      <trkpt lat="45.92399" lon="4.74822">
        <ele>171</ele>
        <time>2018-06-24T08:41:28Z</time>
      </trkpt>
      <trkpt lat="45.92397" lon="4.7483">
        <ele>171</ele>
        <time>2018-06-24T08:41:29Z</time>
      </trkpt>
      <trkpt lat="45.92395" lon="4.74838">
        <ele>171</ele>
        <time>2018-06-24T08:41:30Z</time>
      </trkpt>
      <trkpt lat="45.92392" lon="4.74846">
        <ele>171</ele>
        <time>2018-06-24T08:41:31Z</time>
      </trkpt>
      <trkpt lat="45.92389" lon="4.74855">
        <ele>171</ele>
        <time>2018-06-24T08:41:32Z</time>
      </trkpt>
      <trkpt lat="45.92387" lon="4.74863">
        <ele>171</ele>
        <time>2018-06-24T08:41:33Z</time>
      </trkpt>
      <trkpt lat="45.92383" lon="4.74872">
        <ele>171</ele>
        <time>2018-06-24T08:41:34Z</time>
      </trkpt>
      <trkpt lat="45.9238" lon="4.7488">
        <ele>171</ele>
        <time>2018-06-24T08:41:35Z</time>
      </trkpt>
      <trkpt lat="45.92378" lon="4.7489">
        <ele>171</ele>
        <time>2018-06-24T08:41:36Z</time>
      </trkpt>
      <trkpt lat="45.92375" lon="4.74898">
        <ele>171</ele>
        <time>2018-06-24T08:41:37Z</time>
      </trkpt>
      <trkpt lat="45.92372" lon="4.74907">
        <ele>171</ele>
        <time>2018-06-24T08:41:38Z</time>
      </trkpt>
      <trkpt lat="45.92369" lon="4.74914">
        <ele>171</ele>
        <time>2018-06-24T08:41:39Z</time>
      </trkpt>
      <trkpt lat="45.92366" lon="4.74922">
        <ele>170</ele>
        <time>2018-06-24T08:41:40Z</time>
      </trkpt>
      <trkpt lat="45.92363" lon="4.7493">
        <ele>170</ele>
        <time>2018-06-24T08:41:41Z</time>
      </trkpt>
      <trkpt lat="45.9236" lon="4.74938">
        <ele>170</ele>
        <time>2018-06-24T08:41:42Z</time>
      </trkpt>
      <trkpt lat="45.92357" lon="4.74947">
        <ele>170</ele>
        <time>2018-06-24T08:41:43Z</time>
      </trkpt>
      <trkpt lat="45.92353" lon="4.74955">
        <ele>170</ele>
        <time>2018-06-24T08:41:44Z</time>
      </trkpt>
      <trkpt lat="45.9235" lon="4.74963">
        <ele>170</ele>
        <time>2018-06-24T08:41:45Z</time>
      </trkpt>
      <trkpt lat="45.92347" lon="4.74971">
        <ele>170</ele>
        <time>2018-06-24T08:41:46Z</time>
      </trkpt>
      <trkpt lat="45.92343" lon="4.74978">
        <ele>170</ele>
        <time>2018-06-24T08:41:47Z</time>
      </trkpt>
      <trkpt lat="45.92341" lon="4.74986">
        <ele>170</ele>
        <time>2018-06-24T08:41:48Z</time>
      </trkpt>
      <trkpt lat="45.92339" lon="4.74996">
        <ele>170</ele>
        <time>2018-06-24T08:41:49Z</time>
      </trkpt>
      <trkpt lat="45.92335" lon="4.75003">
        <ele>170</ele>
        <time>2018-06-24T08:41:50Z</time>
      </trkpt>
      <trkpt lat="45.92332" lon="4.7501">
        <ele>171</ele>
        <time>2018-06-24T08:41:51Z</time>
      </trkpt>
      <trkpt lat="45.92328" lon="4.75016">
        <ele>171</ele>
        <time>2018-06-24T08:41:52Z</time>
      </trkpt>
      <trkpt lat="45.92324" lon="4.75023">
        <ele>171</ele>
        <time>2018-06-24T08:41:53Z</time>
      </trkpt>
      <trkpt lat="45.9232" lon="4.7503">
        <ele>171</ele>
        <time>2018-06-24T08:41:54Z</time>
      </trkpt>
      <trkpt lat="45.92317" lon="4.75038">
        <ele>171</ele>
        <time>2018-06-24T08:41:55Z</time>
      </trkpt>
      <trkpt lat="45.92313" lon="4.75045">
        <ele>172</ele>
        <time>2018-06-24T08:41:56Z</time>
      </trkpt>
      <trkpt lat="45.92309" lon="4.75052">
        <ele>172</ele>
        <time>2018-06-24T08:41:57Z</time>
      </trkpt>
      <trkpt lat="45.92304" lon="4.75058">
        <ele>172</ele>
        <time>2018-06-24T08:41:58Z</time>
      </trkpt>
      <trkpt lat="45.923" lon="4.75064">
        <ele>172</ele>
        <time>2018-06-24T08:41:59Z</time>
      </trkpt>
      <trkpt lat="45.92295" lon="4.7507">
        <ele>172</ele>
        <time>2018-06-24T08:42:00Z</time>
      </trkpt>
      <trkpt lat="45.9229" lon="4.75076">
        <ele>172</ele>
        <time>2018-06-24T08:42:01Z</time>
      </trkpt>
      <trkpt lat="45.92286" lon="4.75081">
        <ele>172</ele>
        <time>2018-06-24T08:42:02Z</time>
      </trkpt>
      <trkpt lat="45.92282" lon="4.75088">
        <ele>173</ele>
        <time>2018-06-24T08:42:03Z</time>
      </trkpt>
      <trkpt lat="45.92277" lon="4.75093">
        <ele>173</ele>
        <time>2018-06-24T08:42:04Z</time>
      </trkpt>
      <trkpt lat="45.92273" lon="4.75101">
        <ele>173</ele>
        <time>2018-06-24T08:42:05Z</time>
      </trkpt>
      <trkpt lat="45.92268" lon="4.75107">
        <ele>174</ele>
        <time>2018-06-24T08:42:06Z</time>
      </trkpt>
      <trkpt lat="45.92264" lon="4.75112">
        <ele>174</ele>
        <time>2018-06-24T08:42:07Z</time>
      </trkpt>
      <trkpt lat="45.92259" lon="4.75118">
        <ele>174</ele>
        <time>2018-06-24T08:42:08Z</time>
      </trkpt>
      <trkpt lat="45.92254" lon="4.75123">
        <ele>174</ele>
        <time>2018-06-24T08:42:09Z</time>
      </trkpt>
      <trkpt lat="45.9225" lon="4.75129">
        <ele>174</ele>
        <time>2018-06-24T08:42:10Z</time>
      </trkpt>
      <trkpt lat="45.92246" lon="4.75135">
        <ele>174</ele>
        <time>2018-06-24T08:42:11Z</time>
      </trkpt>
      <trkpt lat="45.92242" lon="4.75141">
        <ele>174</ele>
        <time>2018-06-24T08:42:12Z</time>
      </trkpt>
      <trkpt lat="45.92238" lon="4.75147">
        <ele>174</ele>
        <time>2018-06-24T08:42:13Z</time>
      </trkpt>
      <trkpt lat="45.92234" lon="4.75152">
        <ele>174</ele>
        <time>2018-06-24T08:42:14Z</time>
      </trkpt>
      <trkpt lat="45.92231" lon="4.75159">
        <ele>174</ele>
        <time>2018-06-24T08:42:15Z</time>
      </trkpt>
      <trkpt lat="45.92227" lon="4.75169">
        <ele>175</ele>
        <time>2018-06-24T08:42:16Z</time>
      </trkpt>
      <trkpt lat="45.92225" lon="4.75177">
        <ele>175</ele>
        <time>2018-06-24T08:42:17Z</time>
      </trkpt>
      <trkpt lat="45.92222" lon="4.75184">
        <ele>175</ele>
        <time>2018-06-24T08:42:18Z</time>
      </trkpt>
      <trkpt lat="45.9222" lon="4.7519">
        <ele>175</ele>
        <time>2018-06-24T08:42:19Z</time>
      </trkpt>
      <trkpt lat="45.92218" lon="4.75196">
        <ele>175</ele>
        <time>2018-06-24T08:42:20Z</time>
      </trkpt>
      <trkpt lat="45.92216" lon="4.75201">
        <ele>175</ele>
        <time>2018-06-24T08:42:21Z</time>
      </trkpt>
      <trkpt lat="45.92214" lon="4.7521">
        <ele>175</ele>
        <time>2018-06-24T08:42:22Z</time>
      </trkpt>
      <trkpt lat="45.92212" lon="4.75216">
        <ele>175</ele>
        <time>2018-06-24T08:42:23Z</time>
      </trkpt>
      <trkpt lat="45.92211" lon="4.75223">
        <ele>175</ele>
        <time>2018-06-24T08:42:24Z</time>
      </trkpt>
      <trkpt lat="45.92211" lon="4.75232">
        <ele>175</ele>
        <time>2018-06-24T08:42:25Z</time>
      </trkpt>
      <trkpt lat="45.9221" lon="4.75238">
        <ele>175</ele>
        <time>2018-06-24T08:42:26Z</time>
      </trkpt>
      <trkpt lat="45.9221" lon="4.75246">
        <ele>175</ele>
        <time>2018-06-24T08:42:27Z</time>
      </trkpt>
      <trkpt lat="45.9221" lon="4.75252">
        <ele>175</ele>
        <time>2018-06-24T08:42:28Z</time>
      </trkpt>
      <trkpt lat="45.9221" lon="4.75259">
        <ele>176</ele>
        <time>2018-06-24T08:42:29Z</time>
      </trkpt>
      <trkpt lat="45.92209" lon="4.75268">
        <ele>176</ele>
        <time>2018-06-24T08:42:30Z</time>
      </trkpt>
      <trkpt lat="45.9221" lon="4.75278">
        <ele>176</ele>
        <time>2018-06-24T08:42:31Z</time>
      </trkpt>
      <trkpt lat="45.9221" lon="4.75287">
        <ele>176</ele>
        <time>2018-06-24T08:42:32Z</time>
      </trkpt>
      <trkpt lat="45.9221" lon="4.75294">
        <ele>176</ele>
        <time>2018-06-24T08:42:33Z</time>
      </trkpt>
      <trkpt lat="45.92209" lon="4.753">
        <ele>176</ele>
        <time>2018-06-24T08:42:34Z</time>
      </trkpt>
      <trkpt lat="45.92208" lon="4.75309">
        <ele>176</ele>
        <time>2018-06-24T08:42:35Z</time>
      </trkpt>
      <trkpt lat="45.92207" lon="4.75316">
        <ele>176</ele>
        <time>2018-06-24T08:42:36Z</time>
      </trkpt>
      <trkpt lat="45.92206" lon="4.75324">
        <ele>176</ele>
        <time>2018-06-24T08:42:37Z</time>
      </trkpt>
      <trkpt lat="45.92206" lon="4.75333">
        <ele>176</ele>
        <time>2018-06-24T08:42:38Z</time>
      </trkpt>
      <trkpt lat="45.92204" lon="4.75341">
        <ele>177</ele>
        <time>2018-06-24T08:42:39Z</time>
      </trkpt>
      <trkpt lat="45.92202" lon="4.75349">
        <ele>177</ele>
        <time>2018-06-24T08:42:40Z</time>
      </trkpt>
      <trkpt lat="45.922" lon="4.75356">
        <ele>177</ele>
        <time>2018-06-24T08:42:41Z</time>
      </trkpt>
      <trkpt lat="45.92198" lon="4.75363">
        <ele>177</ele>
        <time>2018-06-24T08:42:42Z</time>
      </trkpt>
      <trkpt lat="45.92196" lon="4.7537">
        <ele>177</ele>
        <time>2018-06-24T08:42:43Z</time>
      </trkpt>
      <trkpt lat="45.92193" lon="4.75378">
        <ele>177</ele>
        <time>2018-06-24T08:42:44Z</time>
      </trkpt>
      <trkpt lat="45.9219" lon="4.75386">
        <ele>177</ele>
        <time>2018-06-24T08:42:45Z</time>
      </trkpt>
      <trkpt lat="45.92188" lon="4.75393">
        <ele>177</ele>
        <time>2018-06-24T08:42:46Z</time>
      </trkpt>
      <trkpt lat="45.92185" lon="4.754">
        <ele>177</ele>
        <time>2018-06-24T08:42:47Z</time>
      </trkpt>
      <trkpt lat="45.92182" lon="4.75407">
        <ele>177</ele>
        <time>2018-06-24T08:42:48Z</time>
      </trkpt>
      <trkpt lat="45.92179" lon="4.75416">
        <ele>177</ele>
        <time>2018-06-24T08:42:49Z</time>
      </trkpt>
      <trkpt lat="45.92175" lon="4.75423">
        <ele>177</ele>
        <time>2018-06-24T08:42:50Z</time>
      </trkpt>
      <trkpt lat="45.92171" lon="4.75429">
        <ele>177</ele>
        <time>2018-06-24T08:42:51Z</time>
      </trkpt>
      <trkpt lat="45.92168" lon="4.75437">
        <ele>177</ele>
        <time>2018-06-24T08:42:52Z</time>
      </trkpt>
      <trkpt lat="45.92165" lon="4.75446">
        <ele>177</ele>
        <time>2018-06-24T08:42:53Z</time>
      </trkpt>
      <trkpt lat="45.92162" lon="4.75452">
        <ele>176</ele>
        <time>2018-06-24T08:42:54Z</time>
      </trkpt>
      <trkpt lat="45.92158" lon="4.75459">
        <ele>176</ele>
        <time>2018-06-24T08:42:55Z</time>
      </trkpt>
      <trkpt lat="45.92156" lon="4.75468">
        <ele>176</ele>
        <time>2018-06-24T08:42:56Z</time>
      </trkpt>
      <trkpt lat="45.92153" lon="4.75477">
        <ele>176</ele>
        <time>2018-06-24T08:42:57Z</time>
      </trkpt>
      <trkpt lat="45.9215" lon="4.75487">
        <ele>176</ele>
        <time>2018-06-24T08:42:58Z</time>
      </trkpt>
      <trkpt lat="45.92146" lon="4.75494">
        <ele>175</ele>
        <time>2018-06-24T08:42:59Z</time>
      </trkpt>
      <trkpt lat="45.92143" lon="4.75501">
        <ele>175</ele>
        <time>2018-06-24T08:43:00Z</time>
      </trkpt>
      <trkpt lat="45.92139" lon="4.75507">
        <ele>174</ele>
        <time>2018-06-24T08:43:01Z</time>
      </trkpt>
      <trkpt lat="45.92135" lon="4.75513">
        <ele>174</ele>
        <time>2018-06-24T08:43:02Z</time>
      </trkpt>
      <trkpt lat="45.92131" lon="4.75521">
        <ele>174</ele>
        <time>2018-06-24T08:43:03Z</time>
      </trkpt>
      <trkpt lat="45.92128" lon="4.75527">
        <ele>174</ele>
        <time>2018-06-24T08:43:04Z</time>
      </trkpt>
      <trkpt lat="45.92124" lon="4.75534">
        <ele>174</ele>
        <time>2018-06-24T08:43:05Z</time>
      </trkpt>
      <trkpt lat="45.92121" lon="4.75541">
        <ele>174</ele>
        <time>2018-06-24T08:43:06Z</time>
      </trkpt>
      <trkpt lat="45.92118" lon="4.75548">
        <ele>174</ele>
        <time>2018-06-24T08:43:07Z</time>
      </trkpt>
      <trkpt lat="45.92114" lon="4.75554">
        <ele>174</ele>
        <time>2018-06-24T08:43:08Z</time>
      </trkpt>
      <trkpt lat="45.92111" lon="4.75559">
        <ele>174</ele>
        <time>2018-06-24T08:43:09Z</time>
      </trkpt>
      <trkpt lat="45.92108" lon="4.75566">
        <ele>174</ele>
        <time>2018-06-24T08:43:10Z</time>
      </trkpt>
      <trkpt lat="45.92105" lon="4.75573">
        <ele>174</ele>
        <time>2018-06-24T08:43:11Z</time>
      </trkpt>
      <trkpt lat="45.92107" lon="4.75581">
        <ele>174</ele>
        <time>2018-06-24T08:43:12Z</time>
      </trkpt>
      <trkpt lat="45.92111" lon="4.75589">
        <ele>174</ele>
        <time>2018-06-24T08:43:15Z</time>
      </trkpt>
      <trkpt lat="45.92113" lon="4.7559">
        <ele>174</ele>
        <time>2018-06-24T08:43:16Z</time>
      </trkpt>
      <trkpt lat="45.9212" lon="4.75593">
        <ele>174</ele>
        <time>2018-06-24T08:43:17Z</time>
      </trkpt>
      <trkpt lat="45.92123" lon="4.75597">
        <ele>174</ele>
        <time>2018-06-24T08:43:18Z</time>
      </trkpt>
      <trkpt lat="45.92127" lon="4.756">
        <ele>174</ele>
        <time>2018-06-24T08:43:19Z</time>
      </trkpt>
      <trkpt lat="45.92131" lon="4.75605">
        <ele>174</ele>
        <time>2018-06-24T08:43:20Z</time>
      </trkpt>
      <trkpt lat="45.92135" lon="4.75609">
        <ele>174</ele>
        <time>2018-06-24T08:43:21Z</time>
      </trkpt>
      <trkpt lat="45.92139" lon="4.75613">
        <ele>174</ele>
        <time>2018-06-24T08:43:22Z</time>
      </trkpt>
      <trkpt lat="45.92143" lon="4.75618">
        <ele>174</ele>
        <time>2018-06-24T08:43:23Z</time>
      </trkpt>
      <trkpt lat="45.92147" lon="4.75622">
        <ele>174</ele>
        <time>2018-06-24T08:43:24Z</time>
      </trkpt>
      <trkpt lat="45.92152" lon="4.75624">
        <ele>174</ele>
        <time>2018-06-24T08:43:25Z</time>
      </trkpt>
      <trkpt lat="45.92155" lon="4.7563">
        <ele>174</ele>
        <time>2018-06-24T08:43:26Z</time>
      </trkpt>
      <trkpt lat="45.92159" lon="4.75634">
        <ele>174</ele>
        <time>2018-06-24T08:43:27Z</time>
      </trkpt>
      <trkpt lat="45.92163" lon="4.75637">
        <ele>174</ele>
        <time>2018-06-24T08:43:28Z</time>
      </trkpt>
      <trkpt lat="45.92167" lon="4.75641">
        <ele>174</ele>
        <time>2018-06-24T08:43:29Z</time>
      </trkpt>
      <trkpt lat="45.92171" lon="4.75645">
        <ele>174</ele>
        <time>2018-06-24T08:43:30Z</time>
      </trkpt>
      <trkpt lat="45.92175" lon="4.7565">
        <ele>174</ele>
        <time>2018-06-24T08:43:31Z</time>
      </trkpt>
      <trkpt lat="45.92179" lon="4.75654">
        <ele>174</ele>
        <time>2018-06-24T08:43:32Z</time>
      </trkpt>
      <trkpt lat="45.92183" lon="4.7566">
        <ele>174</ele>
        <time>2018-06-24T08:43:33Z</time>
      </trkpt>
      <trkpt lat="45.92187" lon="4.75664">
        <ele>174</ele>
        <time>2018-06-24T08:43:34Z</time>
      </trkpt>
      <trkpt lat="45.92192" lon="4.75667">
        <ele>174</ele>
        <time>2018-06-24T08:43:35Z</time>
      </trkpt>
      <trkpt lat="45.92196" lon="4.75673">
        <ele>174</ele>
        <time>2018-06-24T08:43:36Z</time>
      </trkpt>
      <trkpt lat="45.922" lon="4.75677">
        <ele>174</ele>
        <time>2018-06-24T08:43:37Z</time>
      </trkpt>
      <trkpt lat="45.92205" lon="4.7568">
        <ele>174</ele>
        <time>2018-06-24T08:43:38Z</time>
      </trkpt>
      <trkpt lat="45.92209" lon="4.75685">
        <ele>174</ele>
        <time>2018-06-24T08:43:39Z</time>
      </trkpt>
      <trkpt lat="45.92213" lon="4.7569">
        <ele>174</ele>
        <time>2018-06-24T08:43:40Z</time>
      </trkpt>
      <trkpt lat="45.9222" lon="4.75696">
        <ele>174</ele>
        <time>2018-06-24T08:43:42Z</time>
      </trkpt>
      <trkpt lat="45.92225" lon="4.757">
        <ele>174</ele>
        <time>2018-06-24T08:43:43Z</time>
      </trkpt>
      <trkpt lat="45.92229" lon="4.75705">
        <ele>174</ele>
        <time>2018-06-24T08:43:44Z</time>
      </trkpt>
      <trkpt lat="45.92232" lon="4.7571">
        <ele>174</ele>
        <time>2018-06-24T08:43:45Z</time>
      </trkpt>
      <trkpt lat="45.92236" lon="4.75717">
        <ele>174</ele>
        <time>2018-06-24T08:43:46Z</time>
      </trkpt>
      <trkpt lat="45.92239" lon="4.75723">
        <ele>174</ele>
        <time>2018-06-24T08:43:47Z</time>
      </trkpt>
      <trkpt lat="45.92241" lon="4.7573">
        <ele>174</ele>
        <time>2018-06-24T08:43:48Z</time>
      </trkpt>
      <trkpt lat="45.92243" lon="4.75737">
        <ele>174</ele>
        <time>2018-06-24T08:43:49Z</time>
      </trkpt>
      <trkpt lat="45.92246" lon="4.75748">
        <ele>174</ele>
        <time>2018-06-24T08:43:51Z</time>
      </trkpt>
      <trkpt lat="45.92248" lon="4.75756">
        <ele>174</ele>
        <time>2018-06-24T08:43:52Z</time>
      </trkpt>
      <trkpt lat="45.9225" lon="4.75767">
        <ele>174</ele>
        <time>2018-06-24T08:43:54Z</time>
      </trkpt>
      <trkpt lat="45.92252" lon="4.75773">
        <ele>174</ele>
        <time>2018-06-24T08:43:55Z</time>
      </trkpt>
      <trkpt lat="45.92255" lon="4.75784">
        <ele>174</ele>
        <time>2018-06-24T08:43:57Z</time>
      </trkpt>
      <trkpt lat="45.92256" lon="4.7579">
        <ele>174</ele>
        <time>2018-06-24T08:43:58Z</time>
      </trkpt>
      <trkpt lat="45.92258" lon="4.75802">
        <ele>174</ele>
        <time>2018-06-24T08:44:00Z</time>
      </trkpt>
      <trkpt lat="45.9226" lon="4.75808">
        <ele>174</ele>
        <time>2018-06-24T08:44:01Z</time>
      </trkpt>
      <trkpt lat="45.92262" lon="4.75814">
        <ele>174</ele>
        <time>2018-06-24T08:44:02Z</time>
      </trkpt>
      <trkpt lat="45.92265" lon="4.7582">
        <ele>174</ele>
        <time>2018-06-24T08:44:03Z</time>
      </trkpt>
      <trkpt lat="45.92269" lon="4.75826">
        <ele>174</ele>
        <time>2018-06-24T08:44:04Z</time>
      </trkpt>
      <trkpt lat="45.92274" lon="4.75831">
        <ele>174</ele>
        <time>2018-06-24T08:44:05Z</time>
      </trkpt>
      <trkpt lat="45.92277" lon="4.75836">
        <ele>173</ele>
        <time>2018-06-24T08:44:06Z</time>
      </trkpt>
      <trkpt lat="45.92283" lon="4.7584">
        <ele>173</ele>
        <time>2018-06-24T08:44:07Z</time>
      </trkpt>
      <trkpt lat="45.92288" lon="4.75843">
        <ele>173</ele>
        <time>2018-06-24T08:44:08Z</time>
      </trkpt>
      <trkpt lat="45.92294" lon="4.75847">
        <ele>173</ele>
        <time>2018-06-24T08:44:09Z</time>
      </trkpt>
      <trkpt lat="45.92299" lon="4.7585">
        <ele>173</ele>
        <time>2018-06-24T08:44:10Z</time>
      </trkpt>
      <trkpt lat="45.92304" lon="4.75851">
        <ele>173</ele>
        <time>2018-06-24T08:44:11Z</time>
      </trkpt>
      <trkpt lat="45.92309" lon="4.75854">
        <ele>173</ele>
        <time>2018-06-24T08:44:12Z</time>
      </trkpt>
      <trkpt lat="45.92314" lon="4.75858">
        <ele>173</ele>
        <time>2018-06-24T08:44:13Z</time>
      </trkpt>
      <trkpt lat="45.9232" lon="4.75861">
        <ele>173</ele>
        <time>2018-06-24T08:44:14Z</time>
      </trkpt>
      <trkpt lat="45.92324" lon="4.75864">
        <ele>173</ele>
        <time>2018-06-24T08:44:15Z</time>
      </trkpt>
      <trkpt lat="45.92329" lon="4.75867">
        <ele>173</ele>
        <time>2018-06-24T08:44:16Z</time>
      </trkpt>
      <trkpt lat="45.92334" lon="4.7587">
        <ele>173</ele>
        <time>2018-06-24T08:44:17Z</time>
      </trkpt>
      <trkpt lat="45.92339" lon="4.75873">
        <ele>173</ele>
        <time>2018-06-24T08:44:18Z</time>
      </trkpt>
      <trkpt lat="45.92344" lon="4.75875">
        <ele>173</ele>
        <time>2018-06-24T08:44:19Z</time>
      </trkpt>
      <trkpt lat="45.92348" lon="4.75878">
        <ele>173</ele>
        <time>2018-06-24T08:44:20Z</time>
      </trkpt>
      <trkpt lat="45.92353" lon="4.75881">
        <ele>173</ele>
        <time>2018-06-24T08:44:21Z</time>
      </trkpt>
      <trkpt lat="45.92357" lon="4.75885">
        <ele>173</ele>
        <time>2018-06-24T08:44:22Z</time>
      </trkpt>
      <trkpt lat="45.92362" lon="4.75888">
        <ele>173</ele>
        <time>2018-06-24T08:44:23Z</time>
      </trkpt>
      <trkpt lat="45.92367" lon="4.75889">
        <ele>173</ele>
        <time>2018-06-24T08:44:24Z</time>
      </trkpt>
      <trkpt lat="45.92371" lon="4.75893">
        <ele>173</ele>
        <time>2018-06-24T08:44:25Z</time>
      </trkpt>
      <trkpt lat="45.92376" lon="4.75895">
        <ele>173</ele>
        <time>2018-06-24T08:44:26Z</time>
      </trkpt>
      <trkpt lat="45.92381" lon="4.75897">
        <ele>173</ele>
        <time>2018-06-24T08:44:27Z</time>
      </trkpt>
      <trkpt lat="45.92386" lon="4.75901">
        <ele>173</ele>
        <time>2018-06-24T08:44:28Z</time>
      </trkpt>
      <trkpt lat="45.9239" lon="4.75904">
        <ele>173</ele>
        <time>2018-06-24T08:44:29Z</time>
      </trkpt>
      <trkpt lat="45.92395" lon="4.75908">
        <ele>173</ele>
        <time>2018-06-24T08:44:30Z</time>
      </trkpt>
      <trkpt lat="45.92401" lon="4.75912">
        <ele>172</ele>
        <time>2018-06-24T08:44:31Z</time>
      </trkpt>
      <trkpt lat="45.92405" lon="4.75915">
        <ele>172</ele>
        <time>2018-06-24T08:44:32Z</time>
      </trkpt>
      <trkpt lat="45.9241" lon="4.75919">
        <ele>172</ele>
        <time>2018-06-24T08:44:33Z</time>
      </trkpt>
      <trkpt lat="45.92416" lon="4.7592">
        <ele>172</ele>
        <time>2018-06-24T08:44:34Z</time>
      </trkpt>
      <trkpt lat="45.92421" lon="4.75923">
        <ele>172</ele>
        <time>2018-06-24T08:44:35Z</time>
      </trkpt>
      <trkpt lat="45.92425" lon="4.75927">
        <ele>172</ele>
        <time>2018-06-24T08:44:36Z</time>
      </trkpt>
      <trkpt lat="45.92429" lon="4.75931">
        <ele>172</ele>
        <time>2018-06-24T08:44:37Z</time>
      </trkpt>
      <trkpt lat="45.92433" lon="4.75933">
        <ele>172</ele>
        <time>2018-06-24T08:44:38Z</time>
      </trkpt>
      <trkpt lat="45.92437" lon="4.75937">
        <ele>172</ele>
        <time>2018-06-24T08:44:39Z</time>
      </trkpt>
      <trkpt lat="45.92445" lon="4.75943">
        <ele>172</ele>
        <time>2018-06-24T08:44:41Z</time>
      </trkpt>
      <trkpt lat="45.92449" lon="4.75946">
        <ele>172</ele>
        <time>2018-06-24T08:44:42Z</time>
      </trkpt>
      <trkpt lat="45.92453" lon="4.7595">
        <ele>172</ele>
        <time>2018-06-24T08:44:43Z</time>
      </trkpt>
      <trkpt lat="45.92458" lon="4.75953">
        <ele>172</ele>
        <time>2018-06-24T08:44:44Z</time>
      </trkpt>
      <trkpt lat="45.92462" lon="4.75956">
        <ele>172</ele>
        <time>2018-06-24T08:44:45Z</time>
      </trkpt>
      <trkpt lat="45.92467" lon="4.7596">
        <ele>172</ele>
        <time>2018-06-24T08:44:46Z</time>
      </trkpt>
      <trkpt lat="45.92471" lon="4.75964">
        <ele>172</ele>
        <time>2018-06-24T08:44:47Z</time>
      </trkpt>
      <trkpt lat="45.92475" lon="4.75967">
        <ele>172</ele>
        <time>2018-06-24T08:44:48Z</time>
      </trkpt>
      <trkpt lat="45.92479" lon="4.7597">
        <ele>172</ele>
        <time>2018-06-24T08:44:49Z</time>
      </trkpt>
      <trkpt lat="45.92484" lon="4.75972">
        <ele>172</ele>
        <time>2018-06-24T08:44:50Z</time>
      </trkpt>
      <trkpt lat="45.92489" lon="4.75976">
        <ele>172</ele>
        <time>2018-06-24T08:44:51Z</time>
      </trkpt>
      <trkpt lat="45.92493" lon="4.75979">
        <ele>172</ele>
        <time>2018-06-24T08:44:52Z</time>
      </trkpt>
      <trkpt lat="45.92496" lon="4.75983">
        <ele>172</ele>
        <time>2018-06-24T08:44:53Z</time>
      </trkpt>
      <trkpt lat="45.92501" lon="4.75987">
        <ele>172</ele>
        <time>2018-06-24T08:44:54Z</time>
      </trkpt>
      <trkpt lat="45.92506" lon="4.7599">
        <ele>172</ele>
        <time>2018-06-24T08:44:55Z</time>
      </trkpt>
      <trkpt lat="45.9251" lon="4.75993">
        <ele>172</ele>
        <time>2018-06-24T08:44:56Z</time>
      </trkpt>
      <trkpt lat="45.92514" lon="4.75997">
        <ele>172</ele>
        <time>2018-06-24T08:44:57Z</time>
      </trkpt>
      <trkpt lat="45.92518" lon="4.75999">
        <ele>172</ele>
        <time>2018-06-24T08:44:58Z</time>
      </trkpt>
      <trkpt lat="45.92522" lon="4.76003">
        <ele>172</ele>
        <time>2018-06-24T08:44:59Z</time>
      </trkpt>
      <trkpt lat="45.92525" lon="4.76007">
        <ele>172</ele>
        <time>2018-06-24T08:45:00Z</time>
      </trkpt>
      <trkpt lat="45.92533" lon="4.76012">
        <ele>172</ele>
        <time>2018-06-24T08:45:02Z</time>
      </trkpt>
      <trkpt lat="45.92537" lon="4.76015">
        <ele>172</ele>
        <time>2018-06-24T08:45:03Z</time>
      </trkpt>
      <trkpt lat="45.92545" lon="4.76023">
        <ele>172</ele>
        <time>2018-06-24T08:45:05Z</time>
      </trkpt>
      <trkpt lat="45.92548" lon="4.76026">
        <ele>172</ele>
        <time>2018-06-24T08:45:06Z</time>
      </trkpt>
      <trkpt lat="45.92553" lon="4.76028">
        <ele>172</ele>
        <time>2018-06-24T08:45:07Z</time>
      </trkpt>
      <trkpt lat="45.92557" lon="4.76031">
        <ele>172</ele>
        <time>2018-06-24T08:45:08Z</time>
      </trkpt>
      <trkpt lat="45.92562" lon="4.76033">
        <ele>172</ele>
        <time>2018-06-24T08:45:09Z</time>
      </trkpt>
      <trkpt lat="45.92567" lon="4.76037">
        <ele>172</ele>
        <time>2018-06-24T08:45:10Z</time>
      </trkpt>
      <trkpt lat="45.92572" lon="4.76039">
        <ele>172</ele>
        <time>2018-06-24T08:45:11Z</time>
      </trkpt>
      <trkpt lat="45.92577" lon="4.76043">
        <ele>171</ele>
        <time>2018-06-24T08:45:12Z</time>
      </trkpt>
      <trkpt lat="45.92581" lon="4.76046">
        <ele>171</ele>
        <time>2018-06-24T08:45:13Z</time>
      </trkpt>
      <trkpt lat="45.92586" lon="4.7605">
        <ele>171</ele>
        <time>2018-06-24T08:45:14Z</time>
      </trkpt>
      <trkpt lat="45.92591" lon="4.76054">
        <ele>171</ele>
        <time>2018-06-24T08:45:15Z</time>
      </trkpt>
      <trkpt lat="45.92596" lon="4.76057">
        <ele>171</ele>
        <time>2018-06-24T08:45:16Z</time>
      </trkpt>
      <trkpt lat="45.92601" lon="4.7606">
        <ele>171</ele>
        <time>2018-06-24T08:45:17Z</time>
      </trkpt>
      <trkpt lat="45.92606" lon="4.76062">
        <ele>171</ele>
        <time>2018-06-24T08:45:18Z</time>
      </trkpt>
      <trkpt lat="45.92611" lon="4.76066">
        <ele>171</ele>
        <time>2018-06-24T08:45:19Z</time>
      </trkpt>
      <trkpt lat="45.92616" lon="4.76069">
        <ele>171</ele>
        <time>2018-06-24T08:45:20Z</time>
      </trkpt>
      <trkpt lat="45.92622" lon="4.76074">
        <ele>171</ele>
        <time>2018-06-24T08:45:21Z</time>
      </trkpt>
      <trkpt lat="45.92628" lon="4.76078">
        <ele>170</ele>
        <time>2018-06-24T08:45:22Z</time>
      </trkpt>
      <trkpt lat="45.92632" lon="4.76081">
        <ele>170</ele>
        <time>2018-06-24T08:45:23Z</time>
      </trkpt>
      <trkpt lat="45.92639" lon="4.76083">
        <ele>170</ele>
        <time>2018-06-24T08:45:24Z</time>
      </trkpt>
      <trkpt lat="45.92645" lon="4.76087">
        <ele>170</ele>
        <time>2018-06-24T08:45:25Z</time>
      </trkpt>
      <trkpt lat="45.92651" lon="4.76091">
        <ele>170</ele>
        <time>2018-06-24T08:45:26Z</time>
      </trkpt>
      <trkpt lat="45.92657" lon="4.76095">
        <ele>170</ele>
        <time>2018-06-24T08:45:27Z</time>
      </trkpt>
      <trkpt lat="45.92664" lon="4.76098">
        <ele>170</ele>
        <time>2018-06-24T08:45:28Z</time>
      </trkpt>
      <trkpt lat="45.92671" lon="4.76102">
        <ele>169</ele>
        <time>2018-06-24T08:45:29Z</time>
      </trkpt>
      <trkpt lat="45.92677" lon="4.76106">
        <ele>169</ele>
        <time>2018-06-24T08:45:30Z</time>
      </trkpt>
      <trkpt lat="45.92684" lon="4.76111">
        <ele>169</ele>
        <time>2018-06-24T08:45:31Z</time>
      </trkpt>
      <trkpt lat="45.92691" lon="4.76115">
        <ele>169</ele>
        <time>2018-06-24T08:45:32Z</time>
      </trkpt>
      <trkpt lat="45.92697" lon="4.7612">
        <ele>169</ele>
        <time>2018-06-24T08:45:33Z</time>
      </trkpt>
      <trkpt lat="45.92704" lon="4.76125">
        <ele>169</ele>
        <time>2018-06-24T08:45:34Z</time>
      </trkpt>
      <trkpt lat="45.9271" lon="4.7613">
        <ele>168</ele>
        <time>2018-06-24T08:45:35Z</time>
      </trkpt>
      <trkpt lat="45.92717" lon="4.76135">
        <ele>168</ele>
        <time>2018-06-24T08:45:36Z</time>
      </trkpt>
      <trkpt lat="45.92723" lon="4.76141">
        <ele>168</ele>
        <time>2018-06-24T08:45:37Z</time>
      </trkpt>
      <trkpt lat="45.92729" lon="4.76146">
        <ele>168</ele>
        <time>2018-06-24T08:45:38Z</time>
      </trkpt>
      <trkpt lat="45.92735" lon="4.76152">
        <ele>168</ele>
        <time>2018-06-24T08:45:39Z</time>
      </trkpt>
      <trkpt lat="45.92741" lon="4.76157">
        <ele>168</ele>
        <time>2018-06-24T08:45:40Z</time>
      </trkpt>
      <trkpt lat="45.92748" lon="4.76162">
        <ele>167</ele>
        <time>2018-06-24T08:45:41Z</time>
      </trkpt>
      <trkpt lat="45.92754" lon="4.76167">
        <ele>167</ele>
        <time>2018-06-24T08:45:42Z</time>
      </trkpt>
      <trkpt lat="45.9276" lon="4.76172">
        <ele>167</ele>
        <time>2018-06-24T08:45:43Z</time>
      </trkpt>
      <trkpt lat="45.92766" lon="4.76177">
        <ele>167</ele>
        <time>2018-06-24T08:45:44Z</time>
      </trkpt>
      <trkpt lat="45.9277" lon="4.76182">
        <ele>167</ele>
        <time>2018-06-24T08:45:45Z</time>
      </trkpt>
      <trkpt lat="45.92776" lon="4.76187">
        <ele>168</ele>
        <time>2018-06-24T08:45:46Z</time>
      </trkpt>
      <trkpt lat="45.92781" lon="4.76191">
        <ele>168</ele>
        <time>2018-06-24T08:45:47Z</time>
      </trkpt>
      <trkpt lat="45.92785" lon="4.76195">
        <ele>168</ele>
        <time>2018-06-24T08:45:48Z</time>
      </trkpt>
      <trkpt lat="45.92789" lon="4.762">
        <ele>168</ele>
        <time>2018-06-24T08:45:49Z</time>
      </trkpt>
      <trkpt lat="45.92792" lon="4.76203">
        <ele>168</ele>
        <time>2018-06-24T08:45:50Z</time>
      </trkpt>
      <trkpt lat="45.92797" lon="4.76208">
        <ele>168</ele>
        <time>2018-06-24T08:45:51Z</time>
      </trkpt>
      <trkpt lat="45.92801" lon="4.76213">
        <ele>168</ele>
        <time>2018-06-24T08:45:52Z</time>
      </trkpt>
      <trkpt lat="45.92807" lon="4.76218">
        <ele>168</ele>
        <time>2018-06-24T08:45:53Z</time>
      </trkpt>
      <trkpt lat="45.92811" lon="4.76223">
        <ele>168</ele>
        <time>2018-06-24T08:45:54Z</time>
      </trkpt>
      <trkpt lat="45.92817" lon="4.76226">
        <ele>168</ele>
        <time>2018-06-24T08:45:55Z</time>
      </trkpt>
      <trkpt lat="45.92822" lon="4.7623">
        <ele>168</ele>
        <time>2018-06-24T08:45:56Z</time>
      </trkpt>
      <trkpt lat="45.92827" lon="4.76235">
        <ele>168</ele>
        <time>2018-06-24T08:45:57Z</time>
      </trkpt>
      <trkpt lat="45.92833" lon="4.7624">
        <ele>169</ele>
        <time>2018-06-24T08:45:58Z</time>
      </trkpt>
      <trkpt lat="45.92838" lon="4.76245">
        <ele>169</ele>
        <time>2018-06-24T08:45:59Z</time>
      </trkpt>
      <trkpt lat="45.92843" lon="4.76249">
        <ele>169</ele>
        <time>2018-06-24T08:46:00Z</time>
      </trkpt>
      <trkpt lat="45.92847" lon="4.76253">
        <ele>169</ele>
        <time>2018-06-24T08:46:01Z</time>
      </trkpt>
      <trkpt lat="45.92853" lon="4.76258">
        <ele>169</ele>
        <time>2018-06-24T08:46:02Z</time>
      </trkpt>
      <trkpt lat="45.92857" lon="4.76264">
        <ele>169</ele>
        <time>2018-06-24T08:46:03Z</time>
      </trkpt>
      <trkpt lat="45.92861" lon="4.76269">
        <ele>169</ele>
        <time>2018-06-24T08:46:04Z</time>
      </trkpt>
      <trkpt lat="45.92865" lon="4.76273">
        <ele>169</ele>
        <time>2018-06-24T08:46:05Z</time>
      </trkpt>
      <trkpt lat="45.9287" lon="4.76278">
        <ele>169</ele>
        <time>2018-06-24T08:46:06Z</time>
      </trkpt>
      <trkpt lat="45.92876" lon="4.76282">
        <ele>169</ele>
        <time>2018-06-24T08:46:07Z</time>
      </trkpt>
      <trkpt lat="45.92881" lon="4.76287">
        <ele>169</ele>
        <time>2018-06-24T08:46:08Z</time>
      </trkpt>
      <trkpt lat="45.92886" lon="4.76292">
        <ele>169</ele>
        <time>2018-06-24T08:46:09Z</time>
      </trkpt>
      <trkpt lat="45.92891" lon="4.76298">
        <ele>169</ele>
        <time>2018-06-24T08:46:10Z</time>
      </trkpt>
      <trkpt lat="45.92895" lon="4.76302">
        <ele>169</ele>
        <time>2018-06-24T08:46:11Z</time>
      </trkpt>
      <trkpt lat="45.92899" lon="4.76308">
        <ele>169</ele>
        <time>2018-06-24T08:46:12Z</time>
      </trkpt>
      <trkpt lat="45.92903" lon="4.76312">
        <ele>169</ele>
        <time>2018-06-24T08:46:13Z</time>
      </trkpt>
      <trkpt lat="45.92908" lon="4.76316">
        <ele>169</ele>
        <time>2018-06-24T08:46:14Z</time>
      </trkpt>
      <trkpt lat="45.92913" lon="4.76321">
        <ele>169</ele>
        <time>2018-06-24T08:46:15Z</time>
      </trkpt>
      <trkpt lat="45.92918" lon="4.76326">
        <ele>169</ele>
        <time>2018-06-24T08:46:16Z</time>
      </trkpt>
      <trkpt lat="45.92923" lon="4.7633">
        <ele>169</ele>
        <time>2018-06-24T08:46:17Z</time>
      </trkpt>
      <trkpt lat="45.92929" lon="4.76336">
        <ele>169</ele>
        <time>2018-06-24T08:46:18Z</time>
      </trkpt>
      <trkpt lat="45.92932" lon="4.76339">
        <ele>169</ele>
        <time>2018-06-24T08:46:19Z</time>
      </trkpt>
      <trkpt lat="45.92936" lon="4.76343">
        <ele>169</ele>
        <time>2018-06-24T08:46:20Z</time>
      </trkpt>
      <trkpt lat="45.92943" lon="4.76349">
        <ele>169</ele>
        <time>2018-06-24T08:46:21Z</time>
      </trkpt>
      <trkpt lat="45.92949" lon="4.76354">
        <ele>169</ele>
        <time>2018-06-24T08:46:22Z</time>
      </trkpt>
      <trkpt lat="45.92953" lon="4.76359">
        <ele>169</ele>
        <time>2018-06-24T08:46:23Z</time>
      </trkpt>
      <trkpt lat="45.92958" lon="4.76363">
        <ele>169</ele>
        <time>2018-06-24T08:46:24Z</time>
      </trkpt>
      <trkpt lat="45.92963" lon="4.76369">
        <ele>169</ele>
        <time>2018-06-24T08:46:25Z</time>
      </trkpt>
      <trkpt lat="45.92969" lon="4.76373">
        <ele>169</ele>
        <time>2018-06-24T08:46:26Z</time>
      </trkpt>
      <trkpt lat="45.92974" lon="4.76378">
        <ele>169</ele>
        <time>2018-06-24T08:46:27Z</time>
      </trkpt>
      <trkpt lat="45.92979" lon="4.76383">
        <ele>169</ele>
        <time>2018-06-24T08:46:28Z</time>
      </trkpt>
      <trkpt lat="45.92984" lon="4.76388">
        <ele>169</ele>
        <time>2018-06-24T08:46:29Z</time>
      </trkpt>
      <trkpt lat="45.92989" lon="4.76395">
        <ele>169</ele>
        <time>2018-06-24T08:46:30Z</time>
      </trkpt>
      <trkpt lat="45.92994" lon="4.76399">
        <ele>169</ele>
        <time>2018-06-24T08:46:31Z</time>
      </trkpt>
      <trkpt lat="45.92998" lon="4.76404">
        <ele>169</ele>
        <time>2018-06-24T08:46:32Z</time>
      </trkpt>
      <trkpt lat="45.93003" lon="4.76411">
        <ele>169</ele>
        <time>2018-06-24T08:46:33Z</time>
      </trkpt>
      <trkpt lat="45.93007" lon="4.76415">
        <ele>169</ele>
        <time>2018-06-24T08:46:34Z</time>
      </trkpt>
      <trkpt lat="45.93013" lon="4.76419">
        <ele>169</ele>
        <time>2018-06-24T08:46:35Z</time>
      </trkpt>
      <trkpt lat="45.93018" lon="4.76423">
        <ele>169</ele>
        <time>2018-06-24T08:46:36Z</time>
      </trkpt>
      <trkpt lat="45.93023" lon="4.76428">
        <ele>169</ele>
        <time>2018-06-24T08:46:37Z</time>
      </trkpt>
      <trkpt lat="45.93028" lon="4.76434">
        <ele>169</ele>
        <time>2018-06-24T08:46:38Z</time>
      </trkpt>
      <trkpt lat="45.93033" lon="4.76439">
        <ele>169</ele>
        <time>2018-06-24T08:46:39Z</time>
      </trkpt>
      <trkpt lat="45.93038" lon="4.76444">
        <ele>169</ele>
        <time>2018-06-24T08:46:40Z</time>
      </trkpt>
      <trkpt lat="45.93043" lon="4.76449">
        <ele>169</ele>
        <time>2018-06-24T08:46:41Z</time>
      </trkpt>
      <trkpt lat="45.93048" lon="4.76453">
        <ele>169</ele>
        <time>2018-06-24T08:46:42Z</time>
      </trkpt>
      <trkpt lat="45.93053" lon="4.76459">
        <ele>169</ele>
        <time>2018-06-24T08:46:43Z</time>
      </trkpt>
      <trkpt lat="45.93058" lon="4.76465">
        <ele>169</ele>
        <time>2018-06-24T08:46:44Z</time>
      </trkpt>
      <trkpt lat="45.93063" lon="4.76471">
        <ele>169</ele>
        <time>2018-06-24T08:46:45Z</time>
      </trkpt>
      <trkpt lat="45.93066" lon="4.76477">
        <ele>169</ele>
        <time>2018-06-24T08:46:46Z</time>
      </trkpt>
      <trkpt lat="45.93072" lon="4.7648">
        <ele>169</ele>
        <time>2018-06-24T08:46:47Z</time>
      </trkpt>
      <trkpt lat="45.93077" lon="4.76484">
        <ele>169</ele>
        <time>2018-06-24T08:46:48Z</time>
      </trkpt>
      <trkpt lat="45.93083" lon="4.7649">
        <ele>170</ele>
        <time>2018-06-24T08:46:49Z</time>
      </trkpt>
      <trkpt lat="45.93088" lon="4.76495">
        <ele>170</ele>
        <time>2018-06-24T08:46:50Z</time>
      </trkpt>
      <trkpt lat="45.9309" lon="4.76498">
        <ele>170</ele>
        <time>2018-06-24T08:46:51Z</time>
      </trkpt>
      <trkpt lat="45.93095" lon="4.76503">
        <ele>170</ele>
        <time>2018-06-24T08:46:52Z</time>
      </trkpt>
      <trkpt lat="45.93099" lon="4.76508">
        <ele>170</ele>
        <time>2018-06-24T08:46:53Z</time>
      </trkpt>
      <trkpt lat="45.93103" lon="4.76512">
        <ele>170</ele>
        <time>2018-06-24T08:46:54Z</time>
      </trkpt>
      <trkpt lat="45.93108" lon="4.76517">
        <ele>170</ele>
        <time>2018-06-24T08:46:55Z</time>
      </trkpt>
      <trkpt lat="45.93112" lon="4.76522">
        <ele>170</ele>
        <time>2018-06-24T08:46:56Z</time>
      </trkpt>
      <trkpt lat="45.93115" lon="4.76526">
        <ele>170</ele>
        <time>2018-06-24T08:46:57Z</time>
      </trkpt>
      <trkpt lat="45.9312" lon="4.7653">
        <ele>170</ele>
        <time>2018-06-24T08:46:58Z</time>
      </trkpt>
      <trkpt lat="45.93124" lon="4.76535">
        <ele>170</ele>
        <time>2018-06-24T08:46:59Z</time>
      </trkpt>
      <trkpt lat="45.9313" lon="4.76539">
        <ele>170</ele>
        <time>2018-06-24T08:47:00Z</time>
      </trkpt>
      <trkpt lat="45.93135" lon="4.76543">
        <ele>170</ele>
        <time>2018-06-24T08:47:01Z</time>
      </trkpt>
      <trkpt lat="45.93139" lon="4.76548">
        <ele>170</ele>
        <time>2018-06-24T08:47:02Z</time>
      </trkpt>
      <trkpt lat="45.93143" lon="4.76552">
        <ele>170</ele>
        <time>2018-06-24T08:47:03Z</time>
      </trkpt>
      <trkpt lat="45.93147" lon="4.76556">
        <ele>170</ele>
        <time>2018-06-24T08:47:04Z</time>
      </trkpt>
      <trkpt lat="45.93151" lon="4.7656">
        <ele>170</ele>
        <time>2018-06-24T08:47:05Z</time>
      </trkpt>
      <trkpt lat="45.93155" lon="4.76564">
        <ele>170</ele>
        <time>2018-06-24T08:47:06Z</time>
      </trkpt>
      <trkpt lat="45.93161" lon="4.76569">
        <ele>170</ele>
        <time>2018-06-24T08:47:07Z</time>
      </trkpt>
      <trkpt lat="45.93166" lon="4.76574">
        <ele>171</ele>
        <time>2018-06-24T08:47:08Z</time>
      </trkpt>
      <trkpt lat="45.93171" lon="4.76579">
        <ele>170</ele>
        <time>2018-06-24T08:47:09Z</time>
      </trkpt>
      <trkpt lat="45.93177" lon="4.76584">
        <ele>171</ele>
        <time>2018-06-24T08:47:10Z</time>
      </trkpt>
      <trkpt lat="45.93183" lon="4.76589">
        <ele>171</ele>
        <time>2018-06-24T08:47:11Z</time>
      </trkpt>
      <trkpt lat="45.93187" lon="4.76593">
        <ele>171</ele>
        <time>2018-06-24T08:47:12Z</time>
      </trkpt>
      <trkpt lat="45.93191" lon="4.76596">
        <ele>170</ele>
        <time>2018-06-24T08:47:13Z</time>
      </trkpt>
      <trkpt lat="45.93196" lon="4.76601">
        <ele>170</ele>
        <time>2018-06-24T08:47:14Z</time>
      </trkpt>
      <trkpt lat="45.932" lon="4.76606">
        <ele>170</ele>
        <time>2018-06-24T08:47:15Z</time>
      </trkpt>
      <trkpt lat="45.93206" lon="4.76612">
        <ele>170</ele>
        <time>2018-06-24T08:47:16Z</time>
      </trkpt>
      <trkpt lat="45.93211" lon="4.76617">
        <ele>170</ele>
        <time>2018-06-24T08:47:17Z</time>
      </trkpt>
      <trkpt lat="45.93216" lon="4.76623">
        <ele>170</ele>
        <time>2018-06-24T08:47:18Z</time>
      </trkpt>
      <trkpt lat="45.9322" lon="4.76629">
        <ele>170</ele>
        <time>2018-06-24T08:47:19Z</time>
      </trkpt>
      <trkpt lat="45.93224" lon="4.76633">
        <ele>171</ele>
        <time>2018-06-24T08:47:20Z</time>
      </trkpt>
      <trkpt lat="45.93232" lon="4.76638">
        <ele>171</ele>
        <time>2018-06-24T08:47:22Z</time>
      </trkpt>
      <trkpt lat="45.93236" lon="4.7664">
        <ele>171</ele>
        <time>2018-06-24T08:47:23Z</time>
      </trkpt>
      <trkpt lat="45.9324" lon="4.76644">
        <ele>171</ele>
        <time>2018-06-24T08:47:24Z</time>
      </trkpt>
      <trkpt lat="45.93245" lon="4.7665">
        <ele>171</ele>
        <time>2018-06-24T08:47:25Z</time>
      </trkpt>
      <trkpt lat="45.93249" lon="4.76654">
        <ele>171</ele>
        <time>2018-06-24T08:47:26Z</time>
      </trkpt>
      <trkpt lat="45.93252" lon="4.76658">
        <ele>171</ele>
        <time>2018-06-24T08:47:27Z</time>
      </trkpt>
      <trkpt lat="45.93256" lon="4.76663">
        <ele>171</ele>
        <time>2018-06-24T08:47:28Z</time>
      </trkpt>
      <trkpt lat="45.93259" lon="4.76667">
        <ele>171</ele>
        <time>2018-06-24T08:47:29Z</time>
      </trkpt>
      <trkpt lat="45.93264" lon="4.76671">
        <ele>172</ele>
        <time>2018-06-24T08:47:30Z</time>
      </trkpt>
      <trkpt lat="45.93268" lon="4.76676">
        <ele>172</ele>
        <time>2018-06-24T08:47:31Z</time>
      </trkpt>
      <trkpt lat="45.93273" lon="4.76682">
        <ele>172</ele>
        <time>2018-06-24T08:47:32Z</time>
      </trkpt>
      <trkpt lat="45.93278" lon="4.76686">
        <ele>172</ele>
        <time>2018-06-24T08:47:33Z</time>
      </trkpt>
      <trkpt lat="45.93283" lon="4.76691">
        <ele>172</ele>
        <time>2018-06-24T08:47:34Z</time>
      </trkpt>
      <trkpt lat="45.93288" lon="4.76695">
        <ele>172</ele>
        <time>2018-06-24T08:47:35Z</time>
      </trkpt>
      <trkpt lat="45.93292" lon="4.76701">
        <ele>172</ele>
        <time>2018-06-24T08:47:36Z</time>
      </trkpt>
      <trkpt lat="45.93296" lon="4.76705">
        <ele>172</ele>
        <time>2018-06-24T08:47:37Z</time>
      </trkpt>
      <trkpt lat="45.93301" lon="4.76709">
        <ele>172</ele>
        <time>2018-06-24T08:47:38Z</time>
      </trkpt>
      <trkpt lat="45.93305" lon="4.76713">
        <ele>172</ele>
        <time>2018-06-24T08:47:39Z</time>
      </trkpt>
      <trkpt lat="45.9331" lon="4.76717">
        <ele>172</ele>
        <time>2018-06-24T08:47:40Z</time>
      </trkpt>
      <trkpt lat="45.93312" lon="4.76722">
        <ele>172</ele>
        <time>2018-06-24T08:47:41Z</time>
      </trkpt>
      <trkpt lat="45.93314" lon="4.76725">
        <ele>172</ele>
        <time>2018-06-24T08:47:42Z</time>
      </trkpt>
      <trkpt lat="45.9332" lon="4.7673">
        <ele>172</ele>
        <time>2018-06-24T08:47:43Z</time>
      </trkpt>
      <trkpt lat="45.93324" lon="4.76733">
        <ele>172</ele>
        <time>2018-06-24T08:47:44Z</time>
      </trkpt>
      <trkpt lat="45.93329" lon="4.76737">
        <ele>172</ele>
        <time>2018-06-24T08:47:45Z</time>
      </trkpt>
      <trkpt lat="45.93333" lon="4.76742">
        <ele>173</ele>
        <time>2018-06-24T08:47:46Z</time>
      </trkpt>
      <trkpt lat="45.93337" lon="4.76746">
        <ele>173</ele>
        <time>2018-06-24T08:47:47Z</time>
      </trkpt>
      <trkpt lat="45.93341" lon="4.76752">
        <ele>173</ele>
        <time>2018-06-24T08:47:48Z</time>
      </trkpt>
      <trkpt lat="45.93346" lon="4.76756">
        <ele>172</ele>
        <time>2018-06-24T08:47:49Z</time>
      </trkpt>
      <trkpt lat="45.93351" lon="4.7676">
        <ele>172</ele>
        <time>2018-06-24T08:47:50Z</time>
      </trkpt>
      <trkpt lat="45.93355" lon="4.76765">
        <ele>172</ele>
        <time>2018-06-24T08:47:51Z</time>
      </trkpt>
      <trkpt lat="45.9336" lon="4.76769">
        <ele>172</ele>
        <time>2018-06-24T08:47:52Z</time>
      </trkpt>
      <trkpt lat="45.93364" lon="4.76774">
        <ele>172</ele>
        <time>2018-06-24T08:47:53Z</time>
      </trkpt>
      <trkpt lat="45.93368" lon="4.76777">
        <ele>172</ele>
        <time>2018-06-24T08:47:54Z</time>
      </trkpt>
      <trkpt lat="45.93373" lon="4.76783">
        <ele>172</ele>
        <time>2018-06-24T08:47:55Z</time>
      </trkpt>
      <trkpt lat="45.93377" lon="4.76788">
        <ele>172</ele>
        <time>2018-06-24T08:47:56Z</time>
      </trkpt>
      <trkpt lat="45.93382" lon="4.76792">
        <ele>172</ele>
        <time>2018-06-24T08:47:57Z</time>
      </trkpt>
      <trkpt lat="45.93387" lon="4.76797">
        <ele>172</ele>
        <time>2018-06-24T08:47:58Z</time>
      </trkpt>
      <trkpt lat="45.93391" lon="4.76803">
        <ele>172</ele>
        <time>2018-06-24T08:47:59Z</time>
      </trkpt>
      <trkpt lat="45.93396" lon="4.76808">
        <ele>172</ele>
        <time>2018-06-24T08:48:00Z</time>
      </trkpt>
      <trkpt lat="45.934" lon="4.76814">
        <ele>172</ele>
        <time>2018-06-24T08:48:01Z</time>
      </trkpt>
      <trkpt lat="45.93404" lon="4.76821">
        <ele>172</ele>
        <time>2018-06-24T08:48:02Z</time>
      </trkpt>
      <trkpt lat="45.93408" lon="4.76827">
        <ele>172</ele>
        <time>2018-06-24T08:48:03Z</time>
      </trkpt>
      <trkpt lat="45.93412" lon="4.76834">
        <ele>172</ele>
        <time>2018-06-24T08:48:04Z</time>
      </trkpt>
      <trkpt lat="45.93415" lon="4.7684">
        <ele>172</ele>
        <time>2018-06-24T08:48:05Z</time>
      </trkpt>
      <trkpt lat="45.93419" lon="4.76847">
        <ele>171</ele>
        <time>2018-06-24T08:48:06Z</time>
      </trkpt>
      <trkpt lat="45.93422" lon="4.76852">
        <ele>171</ele>
        <time>2018-06-24T08:48:07Z</time>
      </trkpt>
      <trkpt lat="45.93425" lon="4.76859">
        <ele>171</ele>
        <time>2018-06-24T08:48:08Z</time>
      </trkpt>
      <trkpt lat="45.93427" lon="4.76865">
        <ele>171</ele>
        <time>2018-06-24T08:48:09Z</time>
      </trkpt>
      <trkpt lat="45.93429" lon="4.76871">
        <ele>171</ele>
        <time>2018-06-24T08:48:10Z</time>
      </trkpt>
      <trkpt lat="45.93433" lon="4.76878">
        <ele>171</ele>
        <time>2018-06-24T08:48:11Z</time>
      </trkpt>
      <trkpt lat="45.93435" lon="4.76884">
        <ele>171</ele>
        <time>2018-06-24T08:48:12Z</time>
      </trkpt>
      <trkpt lat="45.93438" lon="4.76891">
        <ele>170</ele>
        <time>2018-06-24T08:48:13Z</time>
      </trkpt>
      <trkpt lat="45.9344" lon="4.76898">
        <ele>170</ele>
        <time>2018-06-24T08:48:14Z</time>
      </trkpt>
      <trkpt lat="45.93442" lon="4.76905">
        <ele>170</ele>
        <time>2018-06-24T08:48:15Z</time>
      </trkpt>
      <trkpt lat="45.93443" lon="4.76913">
        <ele>170</ele>
        <time>2018-06-24T08:48:16Z</time>
      </trkpt>
      <trkpt lat="45.93445" lon="4.76921">
        <ele>170</ele>
        <time>2018-06-24T08:48:17Z</time>
      </trkpt>
      <trkpt lat="45.93446" lon="4.76929">
        <ele>170</ele>
        <time>2018-06-24T08:48:18Z</time>
      </trkpt>
      <trkpt lat="45.93448" lon="4.76937">
        <ele>170</ele>
        <time>2018-06-24T08:48:19Z</time>
      </trkpt>
      <trkpt lat="45.93449" lon="4.76944">
        <ele>170</ele>
        <time>2018-06-24T08:48:20Z</time>
      </trkpt>
      <trkpt lat="45.93449" lon="4.76952">
        <ele>170</ele>
        <time>2018-06-24T08:48:21Z</time>
      </trkpt>
      <trkpt lat="45.93451" lon="4.7696">
        <ele>170</ele>
        <time>2018-06-24T08:48:22Z</time>
      </trkpt>
      <trkpt lat="45.93453" lon="4.76967">
        <ele>170</ele>
        <time>2018-06-24T08:48:23Z</time>
      </trkpt>
      <trkpt lat="45.93454" lon="4.76974">
        <ele>170</ele>
        <time>2018-06-24T08:48:24Z</time>
      </trkpt>
      <trkpt lat="45.93455" lon="4.76982">
        <ele>170</ele>
        <time>2018-06-24T08:48:25Z</time>
      </trkpt>
      <trkpt lat="45.93457" lon="4.76989">
        <ele>170</ele>
        <time>2018-06-24T08:48:26Z</time>
      </trkpt>
      <trkpt lat="45.93458" lon="4.76997">
        <ele>170</ele>
        <time>2018-06-24T08:48:27Z</time>
      </trkpt>
      <trkpt lat="45.9346" lon="4.77004">
        <ele>170</ele>
        <time>2018-06-24T08:48:28Z</time>
      </trkpt>
      <trkpt lat="45.93461" lon="4.77011">
        <ele>170</ele>
        <time>2018-06-24T08:48:29Z</time>
      </trkpt>
      <trkpt lat="45.93461" lon="4.7702">
        <ele>170</ele>
        <time>2018-06-24T08:48:30Z</time>
      </trkpt>
      <trkpt lat="45.93463" lon="4.77028">
        <ele>170</ele>
        <time>2018-06-24T08:48:31Z</time>
      </trkpt>
      <trkpt lat="45.93464" lon="4.77035">
        <ele>170</ele>
        <time>2018-06-24T08:48:32Z</time>
      </trkpt>
      <trkpt lat="45.93465" lon="4.77043">
        <ele>170</ele>
        <time>2018-06-24T08:48:33Z</time>
      </trkpt>
      <trkpt lat="45.93466" lon="4.7705">
        <ele>170</ele>
        <time>2018-06-24T08:48:34Z</time>
      </trkpt>
      <trkpt lat="45.93468" lon="4.77058">
        <ele>170</ele>
        <time>2018-06-24T08:48:35Z</time>
      </trkpt>
      <trkpt lat="45.9347" lon="4.77066">
        <ele>170</ele>
        <time>2018-06-24T08:48:36Z</time>
      </trkpt>
      <trkpt lat="45.93471" lon="4.77073">
        <ele>170</ele>
        <time>2018-06-24T08:48:37Z</time>
      </trkpt>
      <trkpt lat="45.93472" lon="4.7708">
        <ele>170</ele>
        <time>2018-06-24T08:48:38Z</time>
      </trkpt>
      <trkpt lat="45.93472" lon="4.77087">
        <ele>169</ele>
        <time>2018-06-24T08:48:39Z</time>
      </trkpt>
      <trkpt lat="45.93473" lon="4.77095">
        <ele>169</ele>
        <time>2018-06-24T08:48:40Z</time>
      </trkpt>
      <trkpt lat="45.93475" lon="4.77102">
        <ele>169</ele>
        <time>2018-06-24T08:48:41Z</time>
      </trkpt>
      <trkpt lat="45.93475" lon="4.77109">
        <ele>169</ele>
        <time>2018-06-24T08:48:42Z</time>
      </trkpt>
      <trkpt lat="45.93477" lon="4.77117">
        <ele>169</ele>
        <time>2018-06-24T08:48:43Z</time>
      </trkpt>
      <trkpt lat="45.93479" lon="4.77124">
        <ele>169</ele>
        <time>2018-06-24T08:48:44Z</time>
      </trkpt>
      <trkpt lat="45.9348" lon="4.77132">
        <ele>169</ele>
        <time>2018-06-24T08:48:45Z</time>
      </trkpt>
      <trkpt lat="45.93482" lon="4.7714">
        <ele>169</ele>
        <time>2018-06-24T08:48:46Z</time>
      </trkpt>
      <trkpt lat="45.93483" lon="4.77147">
        <ele>169</ele>
        <time>2018-06-24T08:48:47Z</time>
      </trkpt>
      <trkpt lat="45.93485" lon="4.77155">
        <ele>169</ele>
        <time>2018-06-24T08:48:48Z</time>
      </trkpt>
      <trkpt lat="45.93487" lon="4.77163">
        <ele>169</ele>
        <time>2018-06-24T08:48:49Z</time>
      </trkpt>
      <trkpt lat="45.93488" lon="4.7717">
        <ele>169</ele>
        <time>2018-06-24T08:48:50Z</time>
      </trkpt>
      <trkpt lat="45.9349" lon="4.77178">
        <ele>169</ele>
        <time>2018-06-24T08:48:51Z</time>
      </trkpt>
      <trkpt lat="45.93491" lon="4.77186">
        <ele>169</ele>
        <time>2018-06-24T08:48:52Z</time>
      </trkpt>
      <trkpt lat="45.93493" lon="4.77195">
        <ele>169</ele>
        <time>2018-06-24T08:48:53Z</time>
      </trkpt>
      <trkpt lat="45.93495" lon="4.77202">
        <ele>169</ele>
        <time>2018-06-24T08:48:54Z</time>
      </trkpt>
      <trkpt lat="45.93498" lon="4.7721">
        <ele>169</ele>
        <time>2018-06-24T08:48:55Z</time>
      </trkpt>
      <trkpt lat="45.935" lon="4.77218">
        <ele>169</ele>
        <time>2018-06-24T08:48:56Z</time>
      </trkpt>
      <trkpt lat="45.93502" lon="4.77228">
        <ele>169</ele>
        <time>2018-06-24T08:48:57Z</time>
      </trkpt>
      <trkpt lat="45.93504" lon="4.77236">
        <ele>169</ele>
        <time>2018-06-24T08:48:58Z</time>
      </trkpt>
      <trkpt lat="45.93505" lon="4.77242">
        <ele>170</ele>
        <time>2018-06-24T08:48:59Z</time>
      </trkpt>
      <trkpt lat="45.93506" lon="4.7725">
        <ele>170</ele>
        <time>2018-06-24T08:49:00Z</time>
      </trkpt>
      <trkpt lat="45.93507" lon="4.77258">
        <ele>170</ele>
        <time>2018-06-24T08:49:01Z</time>
      </trkpt>
      <trkpt lat="45.9351" lon="4.77266">
        <ele>170</ele>
        <time>2018-06-24T08:49:02Z</time>
      </trkpt>
      <trkpt lat="45.93512" lon="4.77273">
        <ele>170</ele>
        <time>2018-06-24T08:49:03Z</time>
      </trkpt>
      <trkpt lat="45.93513" lon="4.7728">
        <ele>170</ele>
        <time>2018-06-24T08:49:04Z</time>
      </trkpt>
      <trkpt lat="45.93515" lon="4.77287">
        <ele>170</ele>
        <time>2018-06-24T08:49:05Z</time>
      </trkpt>
      <trkpt lat="45.93516" lon="4.77294">
        <ele>170</ele>
        <time>2018-06-24T08:49:06Z</time>
      </trkpt>
      <trkpt lat="45.93517" lon="4.77301">
        <ele>170</ele>
        <time>2018-06-24T08:49:07Z</time>
      </trkpt>
      <trkpt lat="45.93519" lon="4.77313">
        <ele>170</ele>
        <time>2018-06-24T08:49:09Z</time>
      </trkpt>
      <trkpt lat="45.9352" lon="4.7732">
        <ele>170</ele>
        <time>2018-06-24T08:49:10Z</time>
      </trkpt>
      <trkpt lat="45.93522" lon="4.77325">
        <ele>170</ele>
        <time>2018-06-24T08:49:11Z</time>
      </trkpt>
      <trkpt lat="45.93523" lon="4.77333">
        <ele>170</ele>
        <time>2018-06-24T08:49:12Z</time>
      </trkpt>
      <trkpt lat="45.93525" lon="4.7734">
        <ele>170</ele>
        <time>2018-06-24T08:49:13Z</time>
      </trkpt>
      <trkpt lat="45.93527" lon="4.77348">
        <ele>170</ele>
        <time>2018-06-24T08:49:14Z</time>
      </trkpt>
      <trkpt lat="45.93529" lon="4.77355">
        <ele>170</ele>
        <time>2018-06-24T08:49:15Z</time>
      </trkpt>
      <trkpt lat="45.93531" lon="4.77362">
        <ele>170</ele>
        <time>2018-06-24T08:49:16Z</time>
      </trkpt>
      <trkpt lat="45.93533" lon="4.7737">
        <ele>170</ele>
        <time>2018-06-24T08:49:17Z</time>
      </trkpt>
      <trkpt lat="45.93534" lon="4.77377">
        <ele>170</ele>
        <time>2018-06-24T08:49:18Z</time>
      </trkpt>
      <trkpt lat="45.93537" lon="4.77384">
        <ele>170</ele>
        <time>2018-06-24T08:49:19Z</time>
      </trkpt>
      <trkpt lat="45.93538" lon="4.77391">
        <ele>170</ele>
        <time>2018-06-24T08:49:20Z</time>
      </trkpt>
      <trkpt lat="45.93541" lon="4.774">
        <ele>170</ele>
        <time>2018-06-24T08:49:21Z</time>
      </trkpt>
      <trkpt lat="45.93543" lon="4.77409">
        <ele>170</ele>
        <time>2018-06-24T08:49:22Z</time>
      </trkpt>
      <trkpt lat="45.93545" lon="4.77418">
        <ele>170</ele>
        <time>2018-06-24T08:49:23Z</time>
      </trkpt>
      <trkpt lat="45.93547" lon="4.77425">
        <ele>170</ele>
        <time>2018-06-24T08:49:24Z</time>
      </trkpt>
      <trkpt lat="45.93549" lon="4.77433">
        <ele>169</ele>
        <time>2018-06-24T08:49:25Z</time>
      </trkpt>
      <trkpt lat="45.93551" lon="4.77442">
        <ele>169</ele>
        <time>2018-06-24T08:49:26Z</time>
      </trkpt>
      <trkpt lat="45.93553" lon="4.7745">
        <ele>169</ele>
        <time>2018-06-24T08:49:27Z</time>
      </trkpt>
      <trkpt lat="45.93555" lon="4.77457">
        <ele>169</ele>
        <time>2018-06-24T08:49:28Z</time>
      </trkpt>
      <trkpt lat="45.93555" lon="4.77463">
        <ele>169</ele>
        <time>2018-06-24T08:49:29Z</time>
      </trkpt>
      <trkpt lat="45.93556" lon="4.77471">
        <ele>169</ele>
        <time>2018-06-24T08:49:30Z</time>
      </trkpt>
      <trkpt lat="45.93558" lon="4.77478">
        <ele>169</ele>
        <time>2018-06-24T08:49:31Z</time>
      </trkpt>
      <trkpt lat="45.93558" lon="4.77485">
        <ele>169</ele>
        <time>2018-06-24T08:49:32Z</time>
      </trkpt>
      <trkpt lat="45.93561" lon="4.77497">
        <ele>169</ele>
        <time>2018-06-24T08:49:34Z</time>
      </trkpt>
      <trkpt lat="45.93562" lon="4.77504">
        <ele>169</ele>
        <time>2018-06-24T08:49:35Z</time>
      </trkpt>
      <trkpt lat="45.93564" lon="4.77511">
        <ele>169</ele>
        <time>2018-06-24T08:49:36Z</time>
      </trkpt>
      <trkpt lat="45.93566" lon="4.77519">
        <ele>169</ele>
        <time>2018-06-24T08:49:37Z</time>
      </trkpt>
      <trkpt lat="45.93567" lon="4.77528">
        <ele>169</ele>
        <time>2018-06-24T08:49:38Z</time>
      </trkpt>
      <trkpt lat="45.93569" lon="4.77535">
        <ele>169</ele>
        <time>2018-06-24T08:49:39Z</time>
      </trkpt>
      <trkpt lat="45.93572" lon="4.77543">
        <ele>169</ele>
        <time>2018-06-24T08:49:40Z</time>
      </trkpt>
      <trkpt lat="45.93573" lon="4.77551">
        <ele>169</ele>
        <time>2018-06-24T08:49:41Z</time>
      </trkpt>
      <trkpt lat="45.93575" lon="4.77559">
        <ele>169</ele>
        <time>2018-06-24T08:49:42Z</time>
      </trkpt>
      <trkpt lat="45.93576" lon="4.77567">
        <ele>169</ele>
        <time>2018-06-24T08:49:43Z</time>
      </trkpt>
      <trkpt lat="45.93579" lon="4.77574">
        <ele>170</ele>
        <time>2018-06-24T08:49:44Z</time>
      </trkpt>
      <trkpt lat="45.9358" lon="4.77581">
        <ele>170</ele>
        <time>2018-06-24T08:49:45Z</time>
      </trkpt>
      <trkpt lat="45.93582" lon="4.77589">
        <ele>170</ele>
        <time>2018-06-24T08:49:46Z</time>
      </trkpt>
      <trkpt lat="45.93585" lon="4.77596">
        <ele>170</ele>
        <time>2018-06-24T08:49:47Z</time>
      </trkpt>
      <trkpt lat="45.93587" lon="4.77603">
        <ele>170</ele>
        <time>2018-06-24T08:49:48Z</time>
      </trkpt>
      <trkpt lat="45.9359" lon="4.7761">
        <ele>170</ele>
        <time>2018-06-24T08:49:49Z</time>
      </trkpt>
      <trkpt lat="45.93593" lon="4.77618">
        <ele>170</ele>
        <time>2018-06-24T08:49:50Z</time>
      </trkpt>
      <trkpt lat="45.93596" lon="4.77626">
        <ele>169</ele>
        <time>2018-06-24T08:49:51Z</time>
      </trkpt>
      <trkpt lat="45.93599" lon="4.77633">
        <ele>169</ele>
        <time>2018-06-24T08:49:52Z</time>
      </trkpt>
      <trkpt lat="45.93601" lon="4.7764">
        <ele>169</ele>
        <time>2018-06-24T08:49:53Z</time>
      </trkpt>
      <trkpt lat="45.93604" lon="4.77647">
        <ele>169</ele>
        <time>2018-06-24T08:49:54Z</time>
      </trkpt>
      <trkpt lat="45.93607" lon="4.77654">
        <ele>169</ele>
        <time>2018-06-24T08:49:55Z</time>
      </trkpt>
      <trkpt lat="45.93611" lon="4.77661">
        <ele>169</ele>
        <time>2018-06-24T08:49:56Z</time>
      </trkpt>
      <trkpt lat="45.93613" lon="4.77667">
        <ele>169</ele>
        <time>2018-06-24T08:49:57Z</time>
      </trkpt>
      <trkpt lat="45.93617" lon="4.77673">
        <ele>169</ele>
        <time>2018-06-24T08:49:58Z</time>
      </trkpt>
      <trkpt lat="45.93619" lon="4.77679">
        <ele>169</ele>
        <time>2018-06-24T08:49:59Z</time>
      </trkpt>
      <trkpt lat="45.93622" lon="4.77684">
        <ele>169</ele>
        <time>2018-06-24T08:50:00Z</time>
      </trkpt>
      <trkpt lat="45.93625" lon="4.77689">
        <ele>169</ele>
        <time>2018-06-24T08:50:01Z</time>
      </trkpt>
      <trkpt lat="45.93628" lon="4.77695">
        <ele>169</ele>
        <time>2018-06-24T08:50:02Z</time>
      </trkpt>
      <trkpt lat="45.93631" lon="4.77701">
        <ele>169</ele>
        <time>2018-06-24T08:50:03Z</time>
      </trkpt>
      <trkpt lat="45.93635" lon="4.77711">
        <ele>170</ele>
        <time>2018-06-24T08:50:05Z</time>
      </trkpt>
      <trkpt lat="45.93638" lon="4.77716">
        <ele>170</ele>
        <time>2018-06-24T08:50:06Z</time>
      </trkpt>
      <trkpt lat="45.93643" lon="4.77725">
        <ele>170</ele>
        <time>2018-06-24T08:50:08Z</time>
      </trkpt>
      <trkpt lat="45.93645" lon="4.77729">
        <ele>170</ele>
        <time>2018-06-24T08:50:09Z</time>
      </trkpt>
      <trkpt lat="45.9365" lon="4.77735">
        <ele>170</ele>
        <time>2018-06-24T08:50:11Z</time>
      </trkpt>
      <trkpt lat="45.93653" lon="4.7774">
        <ele>170</ele>
        <time>2018-06-24T08:50:12Z</time>
      </trkpt>
      <trkpt lat="45.93658" lon="4.77748">
        <ele>171</ele>
        <time>2018-06-24T08:50:15Z</time>
      </trkpt>
      <trkpt lat="45.9366" lon="4.7775">
        <ele>171</ele>
        <time>2018-06-24T08:50:16Z</time>
      </trkpt>
      <trkpt lat="45.93666" lon="4.7776">
        <ele>171</ele>
        <time>2018-06-24T08:50:19Z</time>
      </trkpt>
      <trkpt lat="45.93668" lon="4.77763">
        <ele>170</ele>
        <time>2018-06-24T08:50:20Z</time>
      </trkpt>
      <trkpt lat="45.93673" lon="4.7777">
        <ele>170</ele>
        <time>2018-06-24T08:50:22Z</time>
      </trkpt>
      <trkpt lat="45.93675" lon="4.77773">
        <ele>170</ele>
        <time>2018-06-24T08:50:23Z</time>
      </trkpt>
      <trkpt lat="45.9368" lon="4.7778">
        <ele>170</ele>
        <time>2018-06-24T08:50:25Z</time>
      </trkpt>
      <trkpt lat="45.93682" lon="4.77783">
        <ele>170</ele>
        <time>2018-06-24T08:50:26Z</time>
      </trkpt>
      <trkpt lat="45.93687" lon="4.7779">
        <ele>170</ele>
        <time>2018-06-24T08:50:28Z</time>
      </trkpt>
      <trkpt lat="45.93689" lon="4.77793">
        <ele>170</ele>
        <time>2018-06-24T08:50:29Z</time>
      </trkpt>
      <trkpt lat="45.93694" lon="4.778">
        <ele>169</ele>
        <time>2018-06-24T08:50:31Z</time>
      </trkpt>
      <trkpt lat="45.93697" lon="4.77804">
        <ele>169</ele>
        <time>2018-06-24T08:50:32Z</time>
      </trkpt>
      <trkpt lat="45.93704" lon="4.77813">
        <ele>169</ele>
        <time>2018-06-24T08:50:33Z</time>
      </trkpt>
      <trkpt lat="45.93709" lon="4.7782">
        <ele>169</ele>
        <time>2018-06-24T08:50:36Z</time>
      </trkpt>
      <trkpt lat="45.93715" lon="4.77827">
        <ele>169</ele>
        <time>2018-06-24T08:50:37Z</time>
      </trkpt>
      <trkpt lat="45.93721" lon="4.77835">
        <ele>167</ele>
        <time>2018-06-24T08:50:39Z</time>
      </trkpt>
      <trkpt lat="45.93724" lon="4.77838">
        <ele>167</ele>
        <time>2018-06-24T08:50:40Z</time>
      </trkpt>
      <trkpt lat="45.9373" lon="4.77846">
        <ele>167</ele>
        <time>2018-06-24T08:50:42Z</time>
      </trkpt>
      <trkpt lat="45.93733" lon="4.7785">
        <ele>167</ele>
        <time>2018-06-24T08:50:43Z</time>
      </trkpt>
      <trkpt lat="45.93739" lon="4.77858">
        <ele>167</ele>
        <time>2018-06-24T08:50:45Z</time>
      </trkpt>
      <trkpt lat="45.93742" lon="4.77862">
        <ele>167</ele>
        <time>2018-06-24T08:50:46Z</time>
      </trkpt>
      <trkpt lat="45.93748" lon="4.7787">
        <ele>167</ele>
        <time>2018-06-24T08:50:48Z</time>
      </trkpt>
      <trkpt lat="45.93752" lon="4.77874">
        <ele>166</ele>
        <time>2018-06-24T08:50:49Z</time>
      </trkpt>
      <trkpt lat="45.93758" lon="4.77882">
        <ele>166</ele>
        <time>2018-06-24T08:50:51Z</time>
      </trkpt>
      <trkpt lat="45.93761" lon="4.77886">
        <ele>166</ele>
        <time>2018-06-24T08:50:52Z</time>
      </trkpt>
      <trkpt lat="45.93767" lon="4.77888">
        <ele>166</ele>
        <time>2018-06-24T08:50:53Z</time>
      </trkpt>
      <trkpt lat="45.9377" lon="4.77893">
        <ele>166</ele>
        <time>2018-06-24T08:50:54Z</time>
      </trkpt>
      <trkpt lat="45.93773" lon="4.77898">
        <ele>166</ele>
        <time>2018-06-24T08:50:55Z</time>
      </trkpt>
      <trkpt lat="45.93777" lon="4.77903">
        <ele>166</ele>
        <time>2018-06-24T08:50:56Z</time>
      </trkpt>
      <trkpt lat="45.9378" lon="4.77908">
        <ele>166</ele>
        <time>2018-06-24T08:50:57Z</time>
      </trkpt>
      <trkpt lat="45.93783" lon="4.77913">
        <ele>166</ele>
        <time>2018-06-24T08:50:58Z</time>
      </trkpt>
      <trkpt lat="45.93786" lon="4.77917">
        <ele>168</ele>
        <time>2018-06-24T08:50:59Z</time>
      </trkpt>
      <trkpt lat="45.9379" lon="4.77922">
        <ele>168</ele>
        <time>2018-06-24T08:51:00Z</time>
      </trkpt>
      <trkpt lat="45.93793" lon="4.77927">
        <ele>168</ele>
        <time>2018-06-24T08:51:01Z</time>
      </trkpt>
      <trkpt lat="45.93797" lon="4.77932">
        <ele>168</ele>
        <time>2018-06-24T08:51:02Z</time>
      </trkpt>
      <trkpt lat="45.938" lon="4.77937">
        <ele>169</ele>
        <time>2018-06-24T08:51:03Z</time>
      </trkpt>
      <trkpt lat="45.93804" lon="4.77943">
        <ele>169</ele>
        <time>2018-06-24T08:51:04Z</time>
      </trkpt>
      <trkpt lat="45.93808" lon="4.77947">
        <ele>169</ele>
        <time>2018-06-24T08:51:05Z</time>
      </trkpt>
      <trkpt lat="45.93811" lon="4.77951">
        <ele>169</ele>
        <time>2018-06-24T08:51:06Z</time>
      </trkpt>
      <trkpt lat="45.93814" lon="4.77956">
        <ele>170</ele>
        <time>2018-06-24T08:51:07Z</time>
      </trkpt>
      <trkpt lat="45.93818" lon="4.77961">
        <ele>170</ele>
        <time>2018-06-24T08:51:08Z</time>
      </trkpt>
      <trkpt lat="45.93822" lon="4.77965">
        <ele>171</ele>
        <time>2018-06-24T08:51:09Z</time>
      </trkpt>
      <trkpt lat="45.93827" lon="4.7797">
        <ele>172</ele>
        <time>2018-06-24T08:51:10Z</time>
      </trkpt>
      <trkpt lat="45.93831" lon="4.77977">
        <ele>173</ele>
        <time>2018-06-24T08:51:11Z</time>
      </trkpt>
      <trkpt lat="45.93835" lon="4.77982">
        <ele>178</ele>
        <time>2018-06-24T08:51:12Z</time>
      </trkpt>
      <trkpt lat="45.93838" lon="4.77989">
        <ele>179</ele>
        <time>2018-06-24T08:51:13Z</time>
      </trkpt>
      <trkpt lat="45.93841" lon="4.77995">
        <ele>179</ele>
        <time>2018-06-24T08:51:14Z</time>
      </trkpt>
      <trkpt lat="45.93841" lon="4.78008">
        <ele>181</ele>
        <time>2018-06-24T08:51:16Z</time>
      </trkpt>
      <trkpt lat="45.93841" lon="4.78015">
        <ele>181</ele>
        <time>2018-06-24T08:51:17Z</time>
      </trkpt>
      <trkpt lat="45.93843" lon="4.78023">
        <ele>182</ele>
        <time>2018-06-24T08:51:18Z</time>
      </trkpt>
      <trkpt lat="45.93844" lon="4.7803">
        <ele>182</ele>
        <time>2018-06-24T08:51:19Z</time>
      </trkpt>
      <trkpt lat="45.93845" lon="4.78039">
        <ele>182</ele>
        <time>2018-06-24T08:51:20Z</time>
      </trkpt>
      <trkpt lat="45.93846" lon="4.78046">
        <ele>182</ele>
        <time>2018-06-24T08:51:21Z</time>
      </trkpt>
      <trkpt lat="45.93847" lon="4.78053">
        <ele>182</ele>
        <time>2018-06-24T08:51:22Z</time>
      </trkpt>
      <trkpt lat="45.93846" lon="4.7806">
        <ele>182</ele>
        <time>2018-06-24T08:51:23Z</time>
      </trkpt>
      <trkpt lat="45.93843" lon="4.78071">
        <ele>182</ele>
        <time>2018-06-24T08:51:25Z</time>
      </trkpt>
      <trkpt lat="45.93842" lon="4.78078">
        <ele>181</ele>
        <time>2018-06-24T08:51:26Z</time>
      </trkpt>
      <trkpt lat="45.9384" lon="4.78084">
        <ele>182</ele>
        <time>2018-06-24T08:51:27Z</time>
      </trkpt>
      <trkpt lat="45.93838" lon="4.78091">
        <ele>182</ele>
        <time>2018-06-24T08:51:28Z</time>
      </trkpt>
      <trkpt lat="45.93836" lon="4.78097">
        <ele>183</ele>
        <time>2018-06-24T08:51:29Z</time>
      </trkpt>
      <trkpt lat="45.93834" lon="4.78104">
        <ele>183</ele>
        <time>2018-06-24T08:51:30Z</time>
      </trkpt>
      <trkpt lat="45.93832" lon="4.78116">
        <ele>179</ele>
        <time>2018-06-24T08:51:32Z</time>
      </trkpt>
      <trkpt lat="45.93829" lon="4.78121">
        <ele>179</ele>
        <time>2018-06-24T08:51:33Z</time>
      </trkpt>
      <trkpt lat="45.93824" lon="4.78127">
        <ele>180</ele>
        <time>2018-06-24T08:51:35Z</time>
      </trkpt>
      <trkpt lat="45.93823" lon="4.78133">
        <ele>180</ele>
        <time>2018-06-24T08:51:36Z</time>
      </trkpt>
      <trkpt lat="45.9382" lon="4.78145">
        <ele>180</ele>
        <time>2018-06-24T08:51:38Z</time>
      </trkpt>
      <trkpt lat="45.93818" lon="4.78152">
        <ele>180</ele>
        <time>2018-06-24T08:51:39Z</time>
      </trkpt>
      <trkpt lat="45.93817" lon="4.78158">
        <ele>180</ele>
        <time>2018-06-24T08:51:40Z</time>
      </trkpt>
      <trkpt lat="45.93814" lon="4.78165">
        <ele>180</ele>
        <time>2018-06-24T08:51:41Z</time>
      </trkpt>
      <trkpt lat="45.93812" lon="4.78171">
        <ele>182</ele>
        <time>2018-06-24T08:51:42Z</time>
      </trkpt>
      <trkpt lat="45.9381" lon="4.78177">
        <ele>182</ele>
        <time>2018-06-24T08:51:43Z</time>
      </trkpt>
      <trkpt lat="45.93808" lon="4.78188">
        <ele>182</ele>
        <time>2018-06-24T08:51:45Z</time>
      </trkpt>
      <trkpt lat="45.93807" lon="4.78195">
        <ele>182</ele>
        <time>2018-06-24T08:51:46Z</time>
      </trkpt>
      <trkpt lat="45.93806" lon="4.78207">
        <ele>182</ele>
        <time>2018-06-24T08:51:48Z</time>
      </trkpt>
      <trkpt lat="45.93805" lon="4.78213">
        <ele>182</ele>
        <time>2018-06-24T08:51:49Z</time>
      </trkpt>
      <trkpt lat="45.93803" lon="4.78219">
        <ele>182</ele>
        <time>2018-06-24T08:51:50Z</time>
      </trkpt>
      <trkpt lat="45.93801" lon="4.78225">
        <ele>182</ele>
        <time>2018-06-24T08:51:51Z</time>
      </trkpt>
      <trkpt lat="45.93797" lon="4.78231">
        <ele>182</ele>
        <time>2018-06-24T08:51:52Z</time>
      </trkpt>
      <trkpt lat="45.93794" lon="4.78237">
        <ele>182</ele>
        <time>2018-06-24T08:51:53Z</time>
      </trkpt>
      <trkpt lat="45.93792" lon="4.78244">
        <ele>182</ele>
        <time>2018-06-24T08:51:54Z</time>
      </trkpt>
      <trkpt lat="45.93791" lon="4.78251">
        <ele>183</ele>
        <time>2018-06-24T08:51:55Z</time>
      </trkpt>
      <trkpt lat="45.9379" lon="4.78257">
        <ele>183</ele>
        <time>2018-06-24T08:51:56Z</time>
      </trkpt>
      <trkpt lat="45.93789" lon="4.78267">
        <ele>183</ele>
        <time>2018-06-24T08:51:57Z</time>
      </trkpt>
      <trkpt lat="45.93787" lon="4.78274">
        <ele>183</ele>
        <time>2018-06-24T08:51:58Z</time>
      </trkpt>
      <trkpt lat="45.93785" lon="4.7828">
        <ele>183</ele>
        <time>2018-06-24T08:51:59Z</time>
      </trkpt>
      <trkpt lat="45.93783" lon="4.78287">
        <ele>183</ele>
        <time>2018-06-24T08:52:00Z</time>
      </trkpt>
      <trkpt lat="45.93781" lon="4.78294">
        <ele>183</ele>
        <time>2018-06-24T08:52:01Z</time>
      </trkpt>
      <trkpt lat="45.93778" lon="4.78302">
        <ele>183</ele>
        <time>2018-06-24T08:52:02Z</time>
      </trkpt>
      <trkpt lat="45.93776" lon="4.78309">
        <ele>183</ele>
        <time>2018-06-24T08:52:03Z</time>
      </trkpt>
      <trkpt lat="45.93774" lon="4.78315">
        <ele>183</ele>
        <time>2018-06-24T08:52:04Z</time>
      </trkpt>
      <trkpt lat="45.93772" lon="4.78322">
        <ele>183</ele>
        <time>2018-06-24T08:52:05Z</time>
      </trkpt>
      <trkpt lat="45.9377" lon="4.78329">
        <ele>183</ele>
        <time>2018-06-24T08:52:06Z</time>
      </trkpt>
      <trkpt lat="45.93767" lon="4.78335">
        <ele>183</ele>
        <time>2018-06-24T08:52:07Z</time>
      </trkpt>
      <trkpt lat="45.93765" lon="4.78342">
        <ele>183</ele>
        <time>2018-06-24T08:52:08Z</time>
      </trkpt>
      <trkpt lat="45.93765" lon="4.78348">
        <ele>183</ele>
        <time>2018-06-24T08:52:09Z</time>
      </trkpt>
      <trkpt lat="45.93763" lon="4.78356">
        <ele>183</ele>
        <time>2018-06-24T08:52:10Z</time>
      </trkpt>
      <trkpt lat="45.93757" lon="4.78359">
        <ele>183</ele>
        <time>2018-06-24T08:52:11Z</time>
      </trkpt>
      <trkpt lat="45.93755" lon="4.78367">
        <ele>183</ele>
        <time>2018-06-24T08:52:12Z</time>
      </trkpt>
      <trkpt lat="45.93753" lon="4.78374">
        <ele>183</ele>
        <time>2018-06-24T08:52:13Z</time>
      </trkpt>
      <trkpt lat="45.93752" lon="4.78381">
        <ele>183</ele>
        <time>2018-06-24T08:52:14Z</time>
      </trkpt>
      <trkpt lat="45.93749" lon="4.7839">
        <ele>181</ele>
        <time>2018-06-24T08:52:15Z</time>
      </trkpt>
      <trkpt lat="45.93748" lon="4.78397">
        <ele>181</ele>
        <time>2018-06-24T08:52:16Z</time>
      </trkpt>
      <trkpt lat="45.93746" lon="4.78405">
        <ele>181</ele>
        <time>2018-06-24T08:52:17Z</time>
      </trkpt>
      <trkpt lat="45.93743" lon="4.78413">
        <ele>181</ele>
        <time>2018-06-24T08:52:18Z</time>
      </trkpt>
      <trkpt lat="45.93742" lon="4.7842">
        <ele>180</ele>
        <time>2018-06-24T08:52:19Z</time>
      </trkpt>
      <trkpt lat="45.9374" lon="4.78428">
        <ele>180</ele>
        <time>2018-06-24T08:52:20Z</time>
      </trkpt>
      <trkpt lat="45.93739" lon="4.78436">
        <ele>180</ele>
        <time>2018-06-24T08:52:21Z</time>
      </trkpt>
      <trkpt lat="45.93737" lon="4.78443">
        <ele>180</ele>
        <time>2018-06-24T08:52:22Z</time>
      </trkpt>
      <trkpt lat="45.93735" lon="4.78451">
        <ele>180</ele>
        <time>2018-06-24T08:52:23Z</time>
      </trkpt>
      <trkpt lat="45.93734" lon="4.7846">
        <ele>180</ele>
        <time>2018-06-24T08:52:24Z</time>
      </trkpt>
      <trkpt lat="45.93732" lon="4.78469">
        <ele>180</ele>
        <time>2018-06-24T08:52:25Z</time>
      </trkpt>
      <trkpt lat="45.9373" lon="4.78477">
        <ele>180</ele>
        <time>2018-06-24T08:52:26Z</time>
      </trkpt>
      <trkpt lat="45.93727" lon="4.78485">
        <ele>180</ele>
        <time>2018-06-24T08:52:27Z</time>
      </trkpt>
      <trkpt lat="45.93726" lon="4.78495">
        <ele>180</ele>
        <time>2018-06-24T08:52:28Z</time>
      </trkpt>
      <trkpt lat="45.93724" lon="4.78503">
        <ele>179</ele>
        <time>2018-06-24T08:52:29Z</time>
      </trkpt>
      <trkpt lat="45.93721" lon="4.78513">
        <ele>179</ele>
        <time>2018-06-24T08:52:30Z</time>
      </trkpt>
      <trkpt lat="45.93719" lon="4.78522">
        <ele>178</ele>
        <time>2018-06-24T08:52:31Z</time>
      </trkpt>
      <trkpt lat="45.93716" lon="4.7853">
        <ele>178</ele>
        <time>2018-06-24T08:52:32Z</time>
      </trkpt>
      <trkpt lat="45.93714" lon="4.78538">
        <ele>178</ele>
        <time>2018-06-24T08:52:33Z</time>
      </trkpt>
      <trkpt lat="45.93713" lon="4.78546">
        <ele>178</ele>
        <time>2018-06-24T08:52:34Z</time>
      </trkpt>
      <trkpt lat="45.93711" lon="4.78555">
        <ele>178</ele>
        <time>2018-06-24T08:52:35Z</time>
      </trkpt>
      <trkpt lat="45.93709" lon="4.78562">
        <ele>177</ele>
        <time>2018-06-24T08:52:36Z</time>
      </trkpt>
      <trkpt lat="45.93707" lon="4.7857">
        <ele>177</ele>
        <time>2018-06-24T08:52:37Z</time>
      </trkpt>
      <trkpt lat="45.93706" lon="4.78577">
        <ele>177</ele>
        <time>2018-06-24T08:52:38Z</time>
      </trkpt>
      <trkpt lat="45.93705" lon="4.78584">
        <ele>176</ele>
        <time>2018-06-24T08:52:39Z</time>
      </trkpt>
      <trkpt lat="45.93701" lon="4.78596">
        <ele>176</ele>
        <time>2018-06-24T08:52:41Z</time>
      </trkpt>
      <trkpt lat="45.93699" lon="4.78601">
        <ele>176</ele>
        <time>2018-06-24T08:52:42Z</time>
      </trkpt>
      <trkpt lat="45.93698" lon="4.78608">
        <ele>176</ele>
        <time>2018-06-24T08:52:43Z</time>
      </trkpt>
      <trkpt lat="45.93697" lon="4.78614">
        <ele>176</ele>
        <time>2018-06-24T08:52:44Z</time>
      </trkpt>
      <trkpt lat="45.93698" lon="4.7862">
        <ele>176</ele>
        <time>2018-06-24T08:52:45Z</time>
      </trkpt>
      <trkpt lat="45.93702" lon="4.78626">
        <ele>176</ele>
        <time>2018-06-24T08:52:46Z</time>
      </trkpt>
      <trkpt lat="45.9371" lon="4.7863">
        <ele>176</ele>
        <time>2018-06-24T08:52:48Z</time>
      </trkpt>
      <trkpt lat="45.93714" lon="4.7863">
        <ele>176</ele>
        <time>2018-06-24T08:52:49Z</time>
      </trkpt>
      <trkpt lat="45.93721" lon="4.78627">
        <ele>177</ele>
        <time>2018-06-24T08:52:51Z</time>
      </trkpt>
      <trkpt lat="45.93723" lon="4.78626">
        <ele>177</ele>
        <time>2018-06-24T08:52:52Z</time>
      </trkpt>
      <trkpt lat="45.93728" lon="4.78625">
        <ele>177</ele>
        <time>2018-06-24T08:52:54Z</time>
      </trkpt>
      <trkpt lat="45.93735" lon="4.78624">
        <ele>177</ele>
        <time>2018-06-24T08:52:55Z</time>
      </trkpt>
      <trkpt lat="45.93743" lon="4.78623">
        <ele>177</ele>
        <time>2018-06-24T08:52:58Z</time>
      </trkpt>
      <trkpt lat="45.93745" lon="4.78623">
        <ele>177</ele>
        <time>2018-06-24T08:52:59Z</time>
      </trkpt>
      <trkpt lat="45.93751" lon="4.78621">
        <ele>181</ele>
        <time>2018-06-24T08:53:02Z</time>
      </trkpt>
      <trkpt lat="45.93754" lon="4.78621">
        <ele>181</ele>
        <time>2018-06-24T08:53:03Z</time>
      </trkpt>
      <trkpt lat="45.93762" lon="4.78619">
        <ele>181</ele>
        <time>2018-06-24T08:53:07Z</time>
      </trkpt>
      <trkpt lat="45.93764" lon="4.78619">
        <ele>181</ele>
        <time>2018-06-24T08:53:08Z</time>
      </trkpt>
      <trkpt lat="45.93772" lon="4.78617">
        <ele>181</ele>
        <time>2018-06-24T08:53:11Z</time>
      </trkpt>
      <trkpt lat="45.93774" lon="4.78616">
        <ele>181</ele>
        <time>2018-06-24T08:53:12Z</time>
      </trkpt>
      <trkpt lat="45.93783" lon="4.78614">
        <ele>182</ele>
        <time>2018-06-24T08:53:15Z</time>
      </trkpt>
      <trkpt lat="45.93786" lon="4.78613">
        <ele>182</ele>
        <time>2018-06-24T08:53:16Z</time>
      </trkpt>
      <trkpt lat="45.93792" lon="4.78612">
        <ele>182</ele>
        <time>2018-06-24T08:53:18Z</time>
      </trkpt>
      <trkpt lat="45.93801" lon="4.7861">
        <ele>182</ele>
        <time>2018-06-24T08:53:19Z</time>
      </trkpt>
      <trkpt lat="45.9381" lon="4.78608">
        <ele>183</ele>
        <time>2018-06-24T08:53:23Z</time>
      </trkpt>
      <trkpt lat="45.93818" lon="4.78606">
        <ele>183</ele>
        <time>2018-06-24T08:53:24Z</time>
      </trkpt>
      <trkpt lat="45.93826" lon="4.78604">
        <ele>184</ele>
        <time>2018-06-24T08:53:28Z</time>
      </trkpt>
      <trkpt lat="45.93828" lon="4.78603">
        <ele>184</ele>
        <time>2018-06-24T08:53:29Z</time>
      </trkpt>
      <trkpt lat="45.93835" lon="4.78602">
        <ele>187</ele>
        <time>2018-06-24T08:53:32Z</time>
      </trkpt>
      <trkpt lat="45.93838" lon="4.78601">
        <ele>187</ele>
        <time>2018-06-24T08:53:33Z</time>
      </trkpt>
      <trkpt lat="45.93845" lon="4.786">
        <ele>188</ele>
        <time>2018-06-24T08:53:36Z</time>
      </trkpt>
      <trkpt lat="45.93847" lon="4.786">
        <ele>188</ele>
        <time>2018-06-24T08:53:37Z</time>
      </trkpt>
      <trkpt lat="45.93854" lon="4.786">
        <ele>188</ele>
        <time>2018-06-24T08:53:40Z</time>
      </trkpt>
      <trkpt lat="45.93856" lon="4.786">
        <ele>188</ele>
        <time>2018-06-24T08:53:41Z</time>
      </trkpt>
      <trkpt lat="45.93865" lon="4.78599">
        <ele>188</ele>
        <time>2018-06-24T08:53:45Z</time>
      </trkpt>
      <trkpt lat="45.93868" lon="4.78598">
        <ele>188</ele>
        <time>2018-06-24T08:53:46Z</time>
      </trkpt>
      <trkpt lat="45.93875" lon="4.78597">
        <ele>189</ele>
        <time>2018-06-24T08:53:49Z</time>
      </trkpt>
      <trkpt lat="45.93878" lon="4.78596">
        <ele>189</ele>
        <time>2018-06-24T08:53:50Z</time>
      </trkpt>
      <trkpt lat="45.93886" lon="4.78592">
        <ele>189</ele>
        <time>2018-06-24T08:53:54Z</time>
      </trkpt>
      <trkpt lat="45.93888" lon="4.78591">
        <ele>190</ele>
        <time>2018-06-24T08:53:55Z</time>
      </trkpt>
      <trkpt lat="45.93896" lon="4.78588">
        <ele>190</ele>
        <time>2018-06-24T08:53:59Z</time>
      </trkpt>
      <trkpt lat="45.93898" lon="4.78588">
        <ele>190</ele>
        <time>2018-06-24T08:54:00Z</time>
      </trkpt>
      <trkpt lat="45.93905" lon="4.78585">
        <ele>191</ele>
        <time>2018-06-24T08:54:03Z</time>
      </trkpt>
      <trkpt lat="45.93907" lon="4.78585">
        <ele>192</ele>
        <time>2018-06-24T08:54:04Z</time>
      </trkpt>
      <trkpt lat="45.93914" lon="4.78581">
        <ele>193</ele>
        <time>2018-06-24T08:54:07Z</time>
      </trkpt>
      <trkpt lat="45.93916" lon="4.78579">
        <ele>193</ele>
        <time>2018-06-24T08:54:08Z</time>
      </trkpt>
      <trkpt lat="45.93924" lon="4.78573">
        <ele>195</ele>
        <time>2018-06-24T08:54:13Z</time>
      </trkpt>
      <trkpt lat="45.93925" lon="4.78572">
        <ele>195</ele>
        <time>2018-06-24T08:54:14Z</time>
      </trkpt>
      <trkpt lat="45.93932" lon="4.78579">
        <ele>196</ele>
        <time>2018-06-24T08:54:19Z</time>
      </trkpt>
      <trkpt lat="45.93932" lon="4.78582">
        <ele>196</ele>
        <time>2018-06-24T08:54:20Z</time>
      </trkpt>
      <trkpt lat="45.93933" lon="4.78594">
        <ele>195</ele>
        <time>2018-06-24T08:54:21Z</time>
      </trkpt>
      <trkpt lat="45.93932" lon="4.786">
        <ele>195</ele>
        <time>2018-06-24T08:54:22Z</time>
      </trkpt>
      <trkpt lat="45.93932" lon="4.78608">
        <ele>195</ele>
        <time>2018-06-24T08:54:25Z</time>
      </trkpt>
      <trkpt lat="45.93932" lon="4.78618">
        <ele>195</ele>
        <time>2018-06-24T08:54:26Z</time>
      </trkpt>
      <trkpt lat="45.93932" lon="4.78625">
        <ele>195</ele>
        <time>2018-06-24T08:54:28Z</time>
      </trkpt>
      <trkpt lat="45.93933" lon="4.78633">
        <ele>195</ele>
        <time>2018-06-24T08:54:29Z</time>
      </trkpt>
      <trkpt lat="45.93934" lon="4.78645">
        <ele>194</ele>
        <time>2018-06-24T08:54:31Z</time>
      </trkpt>
      <trkpt lat="45.93933" lon="4.78651">
        <ele>194</ele>
        <time>2018-06-24T08:54:32Z</time>
      </trkpt>
      <trkpt lat="45.93933" lon="4.78662">
        <ele>193</ele>
        <time>2018-06-24T08:54:34Z</time>
      </trkpt>
      <trkpt lat="45.93933" lon="4.78668">
        <ele>193</ele>
        <time>2018-06-24T08:54:35Z</time>
      </trkpt>
      <trkpt lat="45.93933" lon="4.7868">
        <ele>193</ele>
        <time>2018-06-24T08:54:38Z</time>
      </trkpt>
      <trkpt lat="45.93932" lon="4.7869">
        <ele>193</ele>
        <time>2018-06-24T08:54:39Z</time>
      </trkpt>
      <trkpt lat="45.93931" lon="4.78703">
        <ele>194</ele>
        <time>2018-06-24T08:54:41Z</time>
      </trkpt>
      <trkpt lat="45.93931" lon="4.78709">
        <ele>194</ele>
        <time>2018-06-24T08:54:42Z</time>
      </trkpt>
      <trkpt lat="45.93931" lon="4.78711">
        <ele>194</ele>
        <time>2018-06-24T08:54:43Z</time>
      </trkpt>
      <trkpt lat="45.93933" lon="4.78722">
        <ele>194</ele>
        <time>2018-06-24T08:54:44Z</time>
      </trkpt>
      <trkpt lat="45.93933" lon="4.78728">
        <ele>193</ele>
        <time>2018-06-24T08:54:45Z</time>
      </trkpt>
      <trkpt lat="45.93933" lon="4.78735">
        <ele>193</ele>
        <time>2018-06-24T08:54:46Z</time>
      </trkpt>
      <trkpt lat="45.93934" lon="4.7874">
        <ele>193</ele>
        <time>2018-06-24T08:54:47Z</time>
      </trkpt>
      <trkpt lat="45.93934" lon="4.78749">
        <ele>193</ele>
        <time>2018-06-24T08:54:48Z</time>
      </trkpt>
      <trkpt lat="45.93936" lon="4.78757">
        <ele>193</ele>
        <time>2018-06-24T08:54:49Z</time>
      </trkpt>
      <trkpt lat="45.93935" lon="4.78763">
        <ele>193</ele>
        <time>2018-06-24T08:54:50Z</time>
      </trkpt>
      <trkpt lat="45.93935" lon="4.7877">
        <ele>193</ele>
        <time>2018-06-24T08:54:51Z</time>
      </trkpt>
      <trkpt lat="45.93934" lon="4.78778">
        <ele>194</ele>
        <time>2018-06-24T08:54:52Z</time>
      </trkpt>
      <trkpt lat="45.93934" lon="4.78785">
        <ele>194</ele>
        <time>2018-06-24T08:54:53Z</time>
      </trkpt>
      <trkpt lat="45.93935" lon="4.78793">
        <ele>194</ele>
        <time>2018-06-24T08:54:54Z</time>
      </trkpt>
      <trkpt lat="45.93935" lon="4.788">
        <ele>194</ele>
        <time>2018-06-24T08:54:55Z</time>
      </trkpt>
      <trkpt lat="45.93933" lon="4.78809">
        <ele>194</ele>
        <time>2018-06-24T08:54:56Z</time>
      </trkpt>
      <trkpt lat="45.93934" lon="4.78816">
        <ele>193</ele>
        <time>2018-06-24T08:54:57Z</time>
      </trkpt>
      <trkpt lat="45.93935" lon="4.78826">
        <ele>193</ele>
        <time>2018-06-24T08:54:58Z</time>
      </trkpt>
      <trkpt lat="45.93936" lon="4.78833">
        <ele>193</ele>
        <time>2018-06-24T08:54:59Z</time>
      </trkpt>
      <trkpt lat="45.93936" lon="4.7884">
        <ele>193</ele>
        <time>2018-06-24T08:55:00Z</time>
      </trkpt>
      <trkpt lat="45.93935" lon="4.78846">
        <ele>193</ele>
        <time>2018-06-24T08:55:01Z</time>
      </trkpt>
      <trkpt lat="45.93934" lon="4.78854">
        <ele>193</ele>
        <time>2018-06-24T08:55:02Z</time>
      </trkpt>
      <trkpt lat="45.93931" lon="4.78864">
        <ele>193</ele>
        <time>2018-06-24T08:55:04Z</time>
      </trkpt>
      <trkpt lat="45.93931" lon="4.7887">
        <ele>193</ele>
        <time>2018-06-24T08:55:05Z</time>
      </trkpt>
      <trkpt lat="45.93932" lon="4.78882">
        <ele>193</ele>
        <time>2018-06-24T08:55:08Z</time>
      </trkpt>
      <trkpt lat="45.93932" lon="4.78893">
        <ele>193</ele>
        <time>2018-06-24T08:55:09Z</time>
      </trkpt>
      <trkpt lat="45.93934" lon="4.78905">
        <ele>193</ele>
        <time>2018-06-24T08:55:11Z</time>
      </trkpt>
      <trkpt lat="45.93935" lon="4.78913">
        <ele>192</ele>
        <time>2018-06-24T08:55:12Z</time>
      </trkpt>
      <trkpt lat="45.93936" lon="4.78925">
        <ele>193</ele>
        <time>2018-06-24T08:55:14Z</time>
      </trkpt>
      <trkpt lat="45.93937" lon="4.78935">
        <ele>193</ele>
        <time>2018-06-24T08:55:15Z</time>
      </trkpt>
      <trkpt lat="45.93939" lon="4.78947">
        <ele>194</ele>
        <time>2018-06-24T08:55:17Z</time>
      </trkpt>
      <trkpt lat="45.93939" lon="4.78953">
        <ele>194</ele>
        <time>2018-06-24T08:55:18Z</time>
      </trkpt>
      <trkpt lat="45.93939" lon="4.78965">
        <ele>194</ele>
        <time>2018-06-24T08:55:20Z</time>
      </trkpt>
      <trkpt lat="45.9394" lon="4.7897">
        <ele>194</ele>
        <time>2018-06-24T08:55:21Z</time>
      </trkpt>
      <trkpt lat="45.93941" lon="4.78983">
        <ele>194</ele>
        <time>2018-06-24T08:55:23Z</time>
      </trkpt>
      <trkpt lat="45.93941" lon="4.78989">
        <ele>193</ele>
        <time>2018-06-24T08:55:24Z</time>
      </trkpt>
      <trkpt lat="45.93941" lon="4.78996">
        <ele>193</ele>
        <time>2018-06-24T08:55:25Z</time>
      </trkpt>
      <trkpt lat="45.93941" lon="4.79003">
        <ele>194</ele>
        <time>2018-06-24T08:55:26Z</time>
      </trkpt>
      <trkpt lat="45.93941" lon="4.79015">
        <ele>194</ele>
        <time>2018-06-24T08:55:28Z</time>
      </trkpt>
      <trkpt lat="45.93941" lon="4.79021">
        <ele>195</ele>
        <time>2018-06-24T08:55:29Z</time>
      </trkpt>
      <trkpt lat="45.93941" lon="4.79029">
        <ele>195</ele>
        <time>2018-06-24T08:55:30Z</time>
      </trkpt>
      <trkpt lat="45.93941" lon="4.79037">
        <ele>195</ele>
        <time>2018-06-24T08:55:31Z</time>
      </trkpt>
      <trkpt lat="45.93941" lon="4.79049">
        <ele>195</ele>
        <time>2018-06-24T08:55:33Z</time>
      </trkpt>
      <trkpt lat="45.93942" lon="4.79055">
        <ele>195</ele>
        <time>2018-06-24T08:55:34Z</time>
      </trkpt>
      <trkpt lat="45.93942" lon="4.79063">
        <ele>195</ele>
        <time>2018-06-24T08:55:35Z</time>
      </trkpt>
      <trkpt lat="45.93943" lon="4.79069">
        <ele>195</ele>
        <time>2018-06-24T08:55:36Z</time>
      </trkpt>
      <trkpt lat="45.93944" lon="4.79078">
        <ele>195</ele>
        <time>2018-06-24T08:55:37Z</time>
      </trkpt>
      <trkpt lat="45.93944" lon="4.79085">
        <ele>196</ele>
        <time>2018-06-24T08:55:38Z</time>
      </trkpt>
      <trkpt lat="45.93945" lon="4.7909">
        <ele>196</ele>
        <time>2018-06-24T08:55:39Z</time>
      </trkpt>
      <trkpt lat="45.93945" lon="4.79098">
        <ele>196</ele>
        <time>2018-06-24T08:55:40Z</time>
      </trkpt>
      <trkpt lat="45.93944" lon="4.79105">
        <ele>196</ele>
        <time>2018-06-24T08:55:41Z</time>
      </trkpt>
      <trkpt lat="45.93945" lon="4.79114">
        <ele>196</ele>
        <time>2018-06-24T08:55:42Z</time>
      </trkpt>
      <trkpt lat="45.93945" lon="4.79121">
        <ele>196</ele>
        <time>2018-06-24T08:55:43Z</time>
      </trkpt>
      <trkpt lat="45.93946" lon="4.79128">
        <ele>197</ele>
        <time>2018-06-24T08:55:44Z</time>
      </trkpt>
      <trkpt lat="45.93947" lon="4.79135">
        <ele>197</ele>
        <time>2018-06-24T08:55:45Z</time>
      </trkpt>
      <trkpt lat="45.93948" lon="4.79142">
        <ele>197</ele>
        <time>2018-06-24T08:55:46Z</time>
      </trkpt>
      <trkpt lat="45.93948" lon="4.79148">
        <ele>196</ele>
        <time>2018-06-24T08:55:47Z</time>
      </trkpt>
      <trkpt lat="45.93948" lon="4.79156">
        <ele>196</ele>
        <time>2018-06-24T08:55:48Z</time>
      </trkpt>
      <trkpt lat="45.93948" lon="4.79162">
        <ele>196</ele>
        <time>2018-06-24T08:55:49Z</time>
      </trkpt>
      <trkpt lat="45.93947" lon="4.79169">
        <ele>196</ele>
        <time>2018-06-24T08:55:50Z</time>
      </trkpt>
      <trkpt lat="45.93947" lon="4.79176">
        <ele>196</ele>
        <time>2018-06-24T08:55:51Z</time>
      </trkpt>
      <trkpt lat="45.93947" lon="4.79184">
        <ele>197</ele>
        <time>2018-06-24T08:55:52Z</time>
      </trkpt>
      <trkpt lat="45.93947" lon="4.79191">
        <ele>197</ele>
        <time>2018-06-24T08:55:53Z</time>
      </trkpt>
      <trkpt lat="45.93948" lon="4.79198">
        <ele>197</ele>
        <time>2018-06-24T08:55:54Z</time>
      </trkpt>
      <trkpt lat="45.93948" lon="4.79204">
        <ele>197</ele>
        <time>2018-06-24T08:55:55Z</time>
      </trkpt>
      <trkpt lat="45.93949" lon="4.79212">
        <ele>197</ele>
        <time>2018-06-24T08:55:56Z</time>
      </trkpt>
      <trkpt lat="45.93949" lon="4.79219">
        <ele>197</ele>
        <time>2018-06-24T08:55:57Z</time>
      </trkpt>
      <trkpt lat="45.93949" lon="4.79226">
        <ele>197</ele>
        <time>2018-06-24T08:55:58Z</time>
      </trkpt>
      <trkpt lat="45.9395" lon="4.79232">
        <ele>197</ele>
        <time>2018-06-24T08:55:59Z</time>
      </trkpt>
      <trkpt lat="45.93951" lon="4.79239">
        <ele>197</ele>
        <time>2018-06-24T08:56:00Z</time>
      </trkpt>
      <trkpt lat="45.9395" lon="4.79245">
        <ele>197</ele>
        <time>2018-06-24T08:56:01Z</time>
      </trkpt>
      <trkpt lat="45.9395" lon="4.79252">
        <ele>197</ele>
        <time>2018-06-24T08:56:02Z</time>
      </trkpt>
      <trkpt lat="45.9395" lon="4.7926">
        <ele>198</ele>
        <time>2018-06-24T08:56:03Z</time>
      </trkpt>
      <trkpt lat="45.93951" lon="4.79266">
        <ele>198</ele>
        <time>2018-06-24T08:56:04Z</time>
      </trkpt>
      <trkpt lat="45.93951" lon="4.79273">
        <ele>198</ele>
        <time>2018-06-24T08:56:05Z</time>
      </trkpt>
      <trkpt lat="45.9395" lon="4.79281">
        <ele>198</ele>
        <time>2018-06-24T08:56:06Z</time>
      </trkpt>
      <trkpt lat="45.9395" lon="4.79287">
        <ele>198</ele>
        <time>2018-06-24T08:56:07Z</time>
      </trkpt>
      <trkpt lat="45.9395" lon="4.79296">
        <ele>198</ele>
        <time>2018-06-24T08:56:08Z</time>
      </trkpt>
      <trkpt lat="45.93951" lon="4.79308">
        <ele>198</ele>
        <time>2018-06-24T08:56:10Z</time>
      </trkpt>
      <trkpt lat="45.93951" lon="4.79315">
        <ele>198</ele>
        <time>2018-06-24T08:56:11Z</time>
      </trkpt>
      <trkpt lat="45.93952" lon="4.79324">
        <ele>198</ele>
        <time>2018-06-24T08:56:12Z</time>
      </trkpt>
      <trkpt lat="45.93952" lon="4.79331">
        <ele>199</ele>
        <time>2018-06-24T08:56:13Z</time>
      </trkpt>
      <trkpt lat="45.93953" lon="4.7934">
        <ele>200</ele>
        <time>2018-06-24T08:56:14Z</time>
      </trkpt>
      <trkpt lat="45.93952" lon="4.79347">
        <ele>200</ele>
        <time>2018-06-24T08:56:15Z</time>
      </trkpt>
      <trkpt lat="45.93952" lon="4.79354">
        <ele>200</ele>
        <time>2018-06-24T08:56:16Z</time>
      </trkpt>
      <trkpt lat="45.93951" lon="4.79362">
        <ele>200</ele>
        <time>2018-06-24T08:56:17Z</time>
      </trkpt>
      <trkpt lat="45.93951" lon="4.79375">
        <ele>201</ele>
        <time>2018-06-24T08:56:19Z</time>
      </trkpt>
      <trkpt lat="45.93951" lon="4.79382">
        <ele>201</ele>
        <time>2018-06-24T08:56:20Z</time>
      </trkpt>
      <trkpt lat="45.93951" lon="4.79394">
        <ele>201</ele>
        <time>2018-06-24T08:56:22Z</time>
      </trkpt>
      <trkpt lat="45.93951" lon="4.79401">
        <ele>201</ele>
        <time>2018-06-24T08:56:23Z</time>
      </trkpt>
      <trkpt lat="45.93951" lon="4.79413">
        <ele>201</ele>
        <time>2018-06-24T08:56:25Z</time>
      </trkpt>
      <trkpt lat="45.9395" lon="4.79418">
        <ele>202</ele>
        <time>2018-06-24T08:56:26Z</time>
      </trkpt>
      <trkpt lat="45.9395" lon="4.79429">
        <ele>202</ele>
        <time>2018-06-24T08:56:28Z</time>
      </trkpt>
      <trkpt lat="45.93949" lon="4.79435">
        <ele>202</ele>
        <time>2018-06-24T08:56:29Z</time>
      </trkpt>
      <trkpt lat="45.93949" lon="4.79446">
        <ele>202</ele>
        <time>2018-06-24T08:56:31Z</time>
      </trkpt>
      <trkpt lat="45.93949" lon="4.79449">
        <ele>202</ele>
        <time>2018-06-24T08:56:32Z</time>
      </trkpt>
      <trkpt lat="45.93948" lon="4.79452">
        <ele>202</ele>
        <time>2018-06-24T08:56:33Z</time>
      </trkpt>
      <trkpt lat="45.93948" lon="4.79462">
        <ele>202</ele>
        <time>2018-06-24T08:56:34Z</time>
      </trkpt>
      <trkpt lat="45.93947" lon="4.79469">
        <ele>202</ele>
        <time>2018-06-24T08:56:35Z</time>
      </trkpt>
      <trkpt lat="45.93948" lon="4.79476">
        <ele>202</ele>
        <time>2018-06-24T08:56:36Z</time>
      </trkpt>
      <trkpt lat="45.93948" lon="4.79488">
        <ele>202</ele>
        <time>2018-06-24T08:56:38Z</time>
      </trkpt>
      <trkpt lat="45.93949" lon="4.79496">
        <ele>202</ele>
        <time>2018-06-24T08:56:39Z</time>
      </trkpt>
      <trkpt lat="45.93949" lon="4.79504">
        <ele>203</ele>
        <time>2018-06-24T08:56:40Z</time>
      </trkpt>
      <trkpt lat="45.93949" lon="4.7951">
        <ele>203</ele>
        <time>2018-06-24T08:56:41Z</time>
      </trkpt>
      <trkpt lat="45.9395" lon="4.7952">
        <ele>204</ele>
        <time>2018-06-24T08:56:43Z</time>
      </trkpt>
      <trkpt lat="45.93951" lon="4.79525">
        <ele>204</ele>
        <time>2018-06-24T08:56:44Z</time>
      </trkpt>
      <trkpt lat="45.93951" lon="4.79532">
        <ele>204</ele>
        <time>2018-06-24T08:56:46Z</time>
      </trkpt>
      <trkpt lat="45.93952" lon="4.79542">
        <ele>205</ele>
        <time>2018-06-24T08:56:47Z</time>
      </trkpt>
      <trkpt lat="45.93952" lon="4.79553">
        <ele>205</ele>
        <time>2018-06-24T08:56:49Z</time>
      </trkpt>
      <trkpt lat="45.93953" lon="4.79559">
        <ele>205</ele>
        <time>2018-06-24T08:56:50Z</time>
      </trkpt>
      <trkpt lat="45.93954" lon="4.79571">
        <ele>205</ele>
        <time>2018-06-24T08:56:52Z</time>
      </trkpt>
      <trkpt lat="45.93955" lon="4.79576">
        <ele>205</ele>
        <time>2018-06-24T08:56:53Z</time>
      </trkpt>
      <trkpt lat="45.93955" lon="4.79586">
        <ele>206</ele>
        <time>2018-06-24T08:56:55Z</time>
      </trkpt>
      <trkpt lat="45.93955" lon="4.79591">
        <ele>206</ele>
        <time>2018-06-24T08:56:56Z</time>
      </trkpt>
      <trkpt lat="45.93956" lon="4.79601">
        <ele>206</ele>
        <time>2018-06-24T08:56:58Z</time>
      </trkpt>
      <trkpt lat="45.93956" lon="4.79606">
        <ele>207</ele>
        <time>2018-06-24T08:56:59Z</time>
      </trkpt>
      <trkpt lat="45.93957" lon="4.79617">
        <ele>207</ele>
        <time>2018-06-24T08:57:01Z</time>
      </trkpt>
      <trkpt lat="45.93957" lon="4.79623">
        <ele>207</ele>
        <time>2018-06-24T08:57:02Z</time>
      </trkpt>
      <trkpt lat="45.93958" lon="4.79635">
        <ele>207</ele>
        <time>2018-06-24T08:57:04Z</time>
      </trkpt>
      <trkpt lat="45.93959" lon="4.7964">
        <ele>207</ele>
        <time>2018-06-24T08:57:05Z</time>
      </trkpt>
      <trkpt lat="45.9396" lon="4.79653">
        <ele>207</ele>
        <time>2018-06-24T08:57:07Z</time>
      </trkpt>
      <trkpt lat="45.9396" lon="4.79655">
        <ele>207</ele>
        <time>2018-06-24T08:57:08Z</time>
      </trkpt>
      <trkpt lat="45.93961" lon="4.79663">
        <ele>207</ele>
        <time>2018-06-24T08:57:09Z</time>
      </trkpt>
      <trkpt lat="45.93961" lon="4.79668">
        <ele>207</ele>
        <time>2018-06-24T08:57:10Z</time>
      </trkpt>
      <trkpt lat="45.93961" lon="4.79679">
        <ele>207</ele>
        <time>2018-06-24T08:57:12Z</time>
      </trkpt>
      <trkpt lat="45.93962" lon="4.79685">
        <ele>207</ele>
        <time>2018-06-24T08:57:13Z</time>
      </trkpt>
      <trkpt lat="45.93963" lon="4.79696">
        <ele>207</ele>
        <time>2018-06-24T08:57:15Z</time>
      </trkpt>
      <trkpt lat="45.93962" lon="4.79704">
        <ele>206</ele>
        <time>2018-06-24T08:57:16Z</time>
      </trkpt>
      <trkpt lat="45.93963" lon="4.79715">
        <ele>206</ele>
        <time>2018-06-24T08:57:18Z</time>
      </trkpt>
      <trkpt lat="45.93963" lon="4.7972">
        <ele>206</ele>
        <time>2018-06-24T08:57:19Z</time>
      </trkpt>
      <trkpt lat="45.93964" lon="4.7973">
        <ele>206</ele>
        <time>2018-06-24T08:57:21Z</time>
      </trkpt>
      <trkpt lat="45.93965" lon="4.79736">
        <ele>206</ele>
        <time>2018-06-24T08:57:22Z</time>
      </trkpt>
      <trkpt lat="45.93966" lon="4.79743">
        <ele>206</ele>
        <time>2018-06-24T08:57:23Z</time>
      </trkpt>
      <trkpt lat="45.93967" lon="4.7975">
        <ele>206</ele>
        <time>2018-06-24T08:57:24Z</time>
      </trkpt>
      <trkpt lat="45.93967" lon="4.79756">
        <ele>206</ele>
        <time>2018-06-24T08:57:25Z</time>
      </trkpt>
      <trkpt lat="45.93968" lon="4.79763">
        <ele>206</ele>
        <time>2018-06-24T08:57:26Z</time>
      </trkpt>
      <trkpt lat="45.93968" lon="4.7977">
        <ele>206</ele>
        <time>2018-06-24T08:57:27Z</time>
      </trkpt>
      <trkpt lat="45.93969" lon="4.79776">
        <ele>206</ele>
        <time>2018-06-24T08:57:28Z</time>
      </trkpt>
      <trkpt lat="45.93968" lon="4.79783">
        <ele>206</ele>
        <time>2018-06-24T08:57:29Z</time>
      </trkpt>
      <trkpt lat="45.93968" lon="4.7979">
        <ele>206</ele>
        <time>2018-06-24T08:57:30Z</time>
      </trkpt>
      <trkpt lat="45.93968" lon="4.79797">
        <ele>206</ele>
        <time>2018-06-24T08:57:31Z</time>
      </trkpt>
      <trkpt lat="45.93967" lon="4.79803">
        <ele>206</ele>
        <time>2018-06-24T08:57:32Z</time>
      </trkpt>
      <trkpt lat="45.93966" lon="4.79809">
        <ele>206</ele>
        <time>2018-06-24T08:57:33Z</time>
      </trkpt>
      <trkpt lat="45.93966" lon="4.79816">
        <ele>206</ele>
        <time>2018-06-24T08:57:34Z</time>
      </trkpt>
      <trkpt lat="45.93965" lon="4.79824">
        <ele>206</ele>
        <time>2018-06-24T08:57:35Z</time>
      </trkpt>
      <trkpt lat="45.93965" lon="4.7983">
        <ele>206</ele>
        <time>2018-06-24T08:57:36Z</time>
      </trkpt>
      <trkpt lat="45.93963" lon="4.79838">
        <ele>206</ele>
        <time>2018-06-24T08:57:37Z</time>
      </trkpt>
      <trkpt lat="45.93962" lon="4.79845">
        <ele>206</ele>
        <time>2018-06-24T08:57:38Z</time>
      </trkpt>
      <trkpt lat="45.93961" lon="4.79853">
        <ele>206</ele>
        <time>2018-06-24T08:57:39Z</time>
      </trkpt>
      <trkpt lat="45.93958" lon="4.7986">
        <ele>206</ele>
        <time>2018-06-24T08:57:40Z</time>
      </trkpt>
      <trkpt lat="45.93957" lon="4.79867">
        <ele>206</ele>
        <time>2018-06-24T08:57:41Z</time>
      </trkpt>
      <trkpt lat="45.93955" lon="4.79875">
        <ele>206</ele>
        <time>2018-06-24T08:57:42Z</time>
      </trkpt>
      <trkpt lat="45.93954" lon="4.79881">
        <ele>206</ele>
        <time>2018-06-24T08:57:43Z</time>
      </trkpt>
      <trkpt lat="45.93953" lon="4.79888">
        <ele>205</ele>
        <time>2018-06-24T08:57:44Z</time>
      </trkpt>
      <trkpt lat="45.9395" lon="4.79895">
        <ele>205</ele>
        <time>2018-06-24T08:57:45Z</time>
      </trkpt>
      <trkpt lat="45.93949" lon="4.79901">
        <ele>205</ele>
        <time>2018-06-24T08:57:46Z</time>
      </trkpt>
      <trkpt lat="45.93947" lon="4.79908">
        <ele>205</ele>
        <time>2018-06-24T08:57:47Z</time>
      </trkpt>
      <trkpt lat="45.93946" lon="4.79914">
        <ele>205</ele>
        <time>2018-06-24T08:57:48Z</time>
      </trkpt>
      <trkpt lat="45.93945" lon="4.79921">
        <ele>205</ele>
        <time>2018-06-24T08:57:49Z</time>
      </trkpt>
      <trkpt lat="45.93944" lon="4.79927">
        <ele>205</ele>
        <time>2018-06-24T08:57:50Z</time>
      </trkpt>
      <trkpt lat="45.93943" lon="4.79934">
        <ele>205</ele>
        <time>2018-06-24T08:57:51Z</time>
      </trkpt>
      <trkpt lat="45.93942" lon="4.79941">
        <ele>205</ele>
        <time>2018-06-24T08:57:52Z</time>
      </trkpt>
      <trkpt lat="45.93941" lon="4.79947">
        <ele>205</ele>
        <time>2018-06-24T08:57:53Z</time>
      </trkpt>
      <trkpt lat="45.9394" lon="4.79954">
        <ele>205</ele>
        <time>2018-06-24T08:57:54Z</time>
      </trkpt>
      <trkpt lat="45.93939" lon="4.7996">
        <ele>205</ele>
        <time>2018-06-24T08:57:55Z</time>
      </trkpt>
      <trkpt lat="45.93939" lon="4.79968">
        <ele>205</ele>
        <time>2018-06-24T08:57:56Z</time>
      </trkpt>
      <trkpt lat="45.93937" lon="4.79976">
        <ele>204</ele>
        <time>2018-06-24T08:57:57Z</time>
      </trkpt>
      <trkpt lat="45.93936" lon="4.79982">
        <ele>204</ele>
        <time>2018-06-24T08:57:58Z</time>
      </trkpt>
      <trkpt lat="45.93933" lon="4.79993">
        <ele>203</ele>
        <time>2018-06-24T08:58:00Z</time>
      </trkpt>
      <trkpt lat="45.93932" lon="4.79999">
        <ele>203</ele>
        <time>2018-06-24T08:58:01Z</time>
      </trkpt>
      <trkpt lat="45.93932" lon="4.80006">
        <ele>204</ele>
        <time>2018-06-24T08:58:02Z</time>
      </trkpt>
      <trkpt lat="45.93931" lon="4.80014">
        <ele>205</ele>
        <time>2018-06-24T08:58:03Z</time>
      </trkpt>
      <trkpt lat="45.93932" lon="4.80024">
        <ele>206</ele>
        <time>2018-06-24T08:58:04Z</time>
      </trkpt>
      <trkpt lat="45.93931" lon="4.80029">
        <ele>206</ele>
        <time>2018-06-24T08:58:05Z</time>
      </trkpt>
      <trkpt lat="45.9393" lon="4.80037">
        <ele>207</ele>
        <time>2018-06-24T08:58:06Z</time>
      </trkpt>
      <trkpt lat="45.9393" lon="4.80043">
        <ele>207</ele>
        <time>2018-06-24T08:58:07Z</time>
      </trkpt>
      <trkpt lat="45.9393" lon="4.80052">
        <ele>207</ele>
        <time>2018-06-24T08:58:08Z</time>
      </trkpt>
      <trkpt lat="45.93931" lon="4.80059">
        <ele>207</ele>
        <time>2018-06-24T08:58:09Z</time>
      </trkpt>
      <trkpt lat="45.9393" lon="4.80072">
        <ele>207</ele>
        <time>2018-06-24T08:58:11Z</time>
      </trkpt>
      <trkpt lat="45.9393" lon="4.80078">
        <ele>207</ele>
        <time>2018-06-24T08:58:12Z</time>
      </trkpt>
      <trkpt lat="45.93931" lon="4.80085">
        <ele>207</ele>
        <time>2018-06-24T08:58:13Z</time>
      </trkpt>
      <trkpt lat="45.93931" lon="4.80094">
        <ele>207</ele>
        <time>2018-06-24T08:58:14Z</time>
      </trkpt>
      <trkpt lat="45.93932" lon="4.80101">
        <ele>208</ele>
        <time>2018-06-24T08:58:15Z</time>
      </trkpt>
      <trkpt lat="45.93933" lon="4.80112">
        <ele>208</ele>
        <time>2018-06-24T08:58:16Z</time>
      </trkpt>
      <trkpt lat="45.93934" lon="4.80124">
        <ele>208</ele>
        <time>2018-06-24T08:58:18Z</time>
      </trkpt>
      <trkpt lat="45.93935" lon="4.80131">
        <ele>208</ele>
        <time>2018-06-24T08:58:19Z</time>
      </trkpt>
      <trkpt lat="45.93935" lon="4.80138">
        <ele>208</ele>
        <time>2018-06-24T08:58:20Z</time>
      </trkpt>
      <trkpt lat="45.93936" lon="4.80145">
        <ele>208</ele>
        <time>2018-06-24T08:58:21Z</time>
      </trkpt>
      <trkpt lat="45.93939" lon="4.80156">
        <ele>208</ele>
        <time>2018-06-24T08:58:23Z</time>
      </trkpt>
      <trkpt lat="45.93941" lon="4.80163">
        <ele>208</ele>
        <time>2018-06-24T08:58:24Z</time>
      </trkpt>
      <trkpt lat="45.93943" lon="4.80171">
        <ele>205</ele>
        <time>2018-06-24T08:58:25Z</time>
      </trkpt>
      <trkpt lat="45.93944" lon="4.80178">
        <ele>205</ele>
        <time>2018-06-24T08:58:26Z</time>
      </trkpt>
      <trkpt lat="45.93946" lon="4.80186">
        <ele>205</ele>
        <time>2018-06-24T08:58:27Z</time>
      </trkpt>
      <trkpt lat="45.93948" lon="4.80193">
        <ele>205</ele>
        <time>2018-06-24T08:58:28Z</time>
      </trkpt>
      <trkpt lat="45.93949" lon="4.80201">
        <ele>205</ele>
        <time>2018-06-24T08:58:29Z</time>
      </trkpt>
      <trkpt lat="45.93952" lon="4.8021">
        <ele>205</ele>
        <time>2018-06-24T08:58:30Z</time>
      </trkpt>
      <trkpt lat="45.93954" lon="4.80217">
        <ele>205</ele>
        <time>2018-06-24T08:58:31Z</time>
      </trkpt>
      <trkpt lat="45.93956" lon="4.80224">
        <ele>205</ele>
        <time>2018-06-24T08:58:32Z</time>
      </trkpt>
      <trkpt lat="45.93958" lon="4.8023">
        <ele>204</ele>
        <time>2018-06-24T08:58:33Z</time>
      </trkpt>
      <trkpt lat="45.9396" lon="4.80238">
        <ele>204</ele>
        <time>2018-06-24T08:58:34Z</time>
      </trkpt>
      <trkpt lat="45.93962" lon="4.80245">
        <ele>204</ele>
        <time>2018-06-24T08:58:35Z</time>
      </trkpt>
      <trkpt lat="45.93963" lon="4.80252">
        <ele>202</ele>
        <time>2018-06-24T08:58:36Z</time>
      </trkpt>
      <trkpt lat="45.93964" lon="4.80259">
        <ele>202</ele>
        <time>2018-06-24T08:58:37Z</time>
      </trkpt>
      <trkpt lat="45.93966" lon="4.80265">
        <ele>202</ele>
        <time>2018-06-24T08:58:38Z</time>
      </trkpt>
      <trkpt lat="45.93969" lon="4.80271">
        <ele>202</ele>
        <time>2018-06-24T08:58:39Z</time>
      </trkpt>
      <trkpt lat="45.9397" lon="4.80277">
        <ele>202</ele>
        <time>2018-06-24T08:58:40Z</time>
      </trkpt>
      <trkpt lat="45.93973" lon="4.80288">
        <ele>203</ele>
        <time>2018-06-24T08:58:42Z</time>
      </trkpt>
      <trkpt lat="45.93975" lon="4.80294">
        <ele>203</ele>
        <time>2018-06-24T08:58:43Z</time>
      </trkpt>
      <trkpt lat="45.93978" lon="4.80303">
        <ele>203</ele>
        <time>2018-06-24T08:58:46Z</time>
      </trkpt>
      <trkpt lat="45.9398" lon="4.80307">
        <ele>203</ele>
        <time>2018-06-24T08:58:47Z</time>
      </trkpt>
      <trkpt lat="45.93982" lon="4.80315">
        <ele>203</ele>
        <time>2018-06-24T08:58:49Z</time>
      </trkpt>
      <trkpt lat="45.93983" lon="4.80319">
        <ele>204</ele>
        <time>2018-06-24T08:58:50Z</time>
      </trkpt>
      <trkpt lat="45.93985" lon="4.80328">
        <ele>204</ele>
        <time>2018-06-24T08:58:52Z</time>
      </trkpt>
      <trkpt lat="45.93986" lon="4.80332">
        <ele>204</ele>
        <time>2018-06-24T08:58:53Z</time>
      </trkpt>
      <trkpt lat="45.93989" lon="4.80344">
        <ele>206</ele>
        <time>2018-06-24T08:58:56Z</time>
      </trkpt>
      <trkpt lat="45.9399" lon="4.80348">
        <ele>206</ele>
        <time>2018-06-24T08:58:57Z</time>
      </trkpt>
      <trkpt lat="45.93993" lon="4.8036">
        <ele>207</ele>
        <time>2018-06-24T08:59:00Z</time>
      </trkpt>
      <trkpt lat="45.93994" lon="4.80364">
        <ele>207</ele>
        <time>2018-06-24T08:59:01Z</time>
      </trkpt>
      <trkpt lat="45.93998" lon="4.80376">
        <ele>208</ele>
        <time>2018-06-24T08:59:04Z</time>
      </trkpt>
      <trkpt lat="45.93999" lon="4.80379">
        <ele>208</ele>
        <time>2018-06-24T08:59:05Z</time>
      </trkpt>
      <trkpt lat="45.94001" lon="4.80387">
        <ele>217</ele>
        <time>2018-06-24T08:59:07Z</time>
      </trkpt>
      <trkpt lat="45.94003" lon="4.80391">
        <ele>217</ele>
        <time>2018-06-24T08:59:08Z</time>
      </trkpt>
      <trkpt lat="45.94006" lon="4.80399">
        <ele>217</ele>
        <time>2018-06-24T08:59:10Z</time>
      </trkpt>
      <trkpt lat="45.94007" lon="4.80403">
        <ele>217</ele>
        <time>2018-06-24T08:59:11Z</time>
      </trkpt>
      <trkpt lat="45.9401" lon="4.80415">
        <ele>217</ele>
        <time>2018-06-24T08:59:14Z</time>
      </trkpt>
      <trkpt lat="45.94011" lon="4.80418">
        <ele>219</ele>
        <time>2018-06-24T08:59:15Z</time>
      </trkpt>
      <trkpt lat="45.94013" lon="4.80429">
        <ele>221</ele>
        <time>2018-06-24T08:59:18Z</time>
      </trkpt>
      <trkpt lat="45.94014" lon="4.80433">
        <ele>221</ele>
        <time>2018-06-24T08:59:19Z</time>
      </trkpt>
      <trkpt lat="45.94015" lon="4.80445">
        <ele>222</ele>
        <time>2018-06-24T08:59:22Z</time>
      </trkpt>
      <trkpt lat="45.94015" lon="4.80449">
        <ele>223</ele>
        <time>2018-06-24T08:59:23Z</time>
      </trkpt>
      <trkpt lat="45.94016" lon="4.80461">
        <ele>223</ele>
        <time>2018-06-24T08:59:26Z</time>
      </trkpt>
      <trkpt lat="45.94016" lon="4.80465">
        <ele>223</ele>
        <time>2018-06-24T08:59:27Z</time>
      </trkpt>
      <trkpt lat="45.94017" lon="4.80477">
        <ele>223</ele>
        <time>2018-06-24T08:59:30Z</time>
      </trkpt>
      <trkpt lat="45.94016" lon="4.80481">
        <ele>223</ele>
        <time>2018-06-24T08:59:31Z</time>
      </trkpt>
      <trkpt lat="45.94016" lon="4.80493">
        <ele>222</ele>
        <time>2018-06-24T08:59:34Z</time>
      </trkpt>
      <trkpt lat="45.94016" lon="4.80497">
        <ele>222</ele>
        <time>2018-06-24T08:59:35Z</time>
      </trkpt>
      <trkpt lat="45.94016" lon="4.80507">
        <ele>223</ele>
        <time>2018-06-24T08:59:38Z</time>
      </trkpt>
      <trkpt lat="45.94016" lon="4.80511">
        <ele>223</ele>
        <time>2018-06-24T08:59:39Z</time>
      </trkpt>
      <trkpt lat="45.94016" lon="4.80523">
        <ele>224</ele>
        <time>2018-06-24T08:59:42Z</time>
      </trkpt>
      <trkpt lat="45.94016" lon="4.80528">
        <ele>224</ele>
        <time>2018-06-24T08:59:43Z</time>
      </trkpt>
      <trkpt lat="45.94016" lon="4.8054">
        <ele>224</ele>
        <time>2018-06-24T08:59:46Z</time>
      </trkpt>
      <trkpt lat="45.94016" lon="4.80545">
        <ele>224</ele>
        <time>2018-06-24T08:59:47Z</time>
      </trkpt>
      <trkpt lat="45.94016" lon="4.80556">
        <ele>224</ele>
        <time>2018-06-24T08:59:50Z</time>
      </trkpt>
      <trkpt lat="45.94016" lon="4.80559">
        <ele>224</ele>
        <time>2018-06-24T08:59:51Z</time>
      </trkpt>
      <trkpt lat="45.94017" lon="4.80571">
        <ele>223</ele>
        <time>2018-06-24T08:59:54Z</time>
      </trkpt>
      <trkpt lat="45.94017" lon="4.80575">
        <ele>223</ele>
        <time>2018-06-24T08:59:55Z</time>
      </trkpt>
      <trkpt lat="45.94017" lon="4.80584">
        <ele>222</ele>
        <time>2018-06-24T08:59:57Z</time>
      </trkpt>
      <trkpt lat="45.94018" lon="4.80592">
        <ele>223</ele>
        <time>2018-06-24T09:00:00Z</time>
      </trkpt>
      <trkpt lat="45.94019" lon="4.80602">
        <ele>223</ele>
        <time>2018-06-24T09:00:02Z</time>
      </trkpt>
      <trkpt lat="45.94019" lon="4.80606">
        <ele>224</ele>
        <time>2018-06-24T09:00:03Z</time>
      </trkpt>
      <trkpt lat="45.9402" lon="4.80618">
        <ele>224</ele>
        <time>2018-06-24T09:00:06Z</time>
      </trkpt>
      <trkpt lat="45.94021" lon="4.80622">
        <ele>224</ele>
        <time>2018-06-24T09:00:07Z</time>
      </trkpt>
      <trkpt lat="45.94022" lon="4.80633">
        <ele>224</ele>
        <time>2018-06-24T09:00:10Z</time>
      </trkpt>
      <trkpt lat="45.94023" lon="4.80636">
        <ele>224</ele>
        <time>2018-06-24T09:00:11Z</time>
      </trkpt>
      <trkpt lat="45.94025" lon="4.80647">
        <ele>224</ele>
        <time>2018-06-24T09:00:14Z</time>
      </trkpt>
      <trkpt lat="45.94026" lon="4.80651">
        <ele>224</ele>
        <time>2018-06-24T09:00:15Z</time>
      </trkpt>
      <trkpt lat="45.94028" lon="4.80663">
        <ele>224</ele>
        <time>2018-06-24T09:00:18Z</time>
      </trkpt>
      <trkpt lat="45.94029" lon="4.80666">
        <ele>224</ele>
        <time>2018-06-24T09:00:19Z</time>
      </trkpt>
      <trkpt lat="45.9403" lon="4.80677">
        <ele>224</ele>
        <time>2018-06-24T09:00:22Z</time>
      </trkpt>
      <trkpt lat="45.9403" lon="4.80681">
        <ele>225</ele>
        <time>2018-06-24T09:00:23Z</time>
      </trkpt>
      <trkpt lat="45.94031" lon="4.80692">
        <ele>225</ele>
        <time>2018-06-24T09:00:26Z</time>
      </trkpt>
      <trkpt lat="45.94031" lon="4.80695">
        <ele>225</ele>
        <time>2018-06-24T09:00:27Z</time>
      </trkpt>
      <trkpt lat="45.94031" lon="4.80705">
        <ele>226</ele>
        <time>2018-06-24T09:00:30Z</time>
      </trkpt>
      <trkpt lat="45.94032" lon="4.80709">
        <ele>226</ele>
        <time>2018-06-24T09:00:31Z</time>
      </trkpt>
      <trkpt lat="45.94033" lon="4.8072">
        <ele>226</ele>
        <time>2018-06-24T09:00:34Z</time>
      </trkpt>
      <trkpt lat="45.94033" lon="4.80724">
        <ele>226</ele>
        <time>2018-06-24T09:00:35Z</time>
      </trkpt>
      <trkpt lat="45.94034" lon="4.80734">
        <ele>226</ele>
        <time>2018-06-24T09:00:38Z</time>
      </trkpt>
      <trkpt lat="45.94034" lon="4.80738">
        <ele>226</ele>
        <time>2018-06-24T09:00:39Z</time>
      </trkpt>
      <trkpt lat="45.94035" lon="4.80748">
        <ele>226</ele>
        <time>2018-06-24T09:00:42Z</time>
      </trkpt>
      <trkpt lat="45.94035" lon="4.80751">
        <ele>227</ele>
        <time>2018-06-24T09:00:43Z</time>
      </trkpt>
      <trkpt lat="45.94037" lon="4.80761">
        <ele>227</ele>
        <time>2018-06-24T09:00:46Z</time>
      </trkpt>
      <trkpt lat="45.94037" lon="4.80765">
        <ele>227</ele>
        <time>2018-06-24T09:00:47Z</time>
      </trkpt>
      <trkpt lat="45.94039" lon="4.80775">
        <ele>228</ele>
        <time>2018-06-24T09:00:50Z</time>
      </trkpt>
      <trkpt lat="45.9404" lon="4.80778">
        <ele>228</ele>
        <time>2018-06-24T09:00:51Z</time>
      </trkpt>
      <trkpt lat="45.94041" lon="4.80788">
        <ele>228</ele>
        <time>2018-06-24T09:00:54Z</time>
      </trkpt>
      <trkpt lat="45.94042" lon="4.80791">
        <ele>228</ele>
        <time>2018-06-24T09:00:55Z</time>
      </trkpt>
      <trkpt lat="45.94043" lon="4.80802">
        <ele>228</ele>
        <time>2018-06-24T09:00:58Z</time>
      </trkpt>
      <trkpt lat="45.94043" lon="4.80806">
        <ele>228</ele>
        <time>2018-06-24T09:00:59Z</time>
      </trkpt>
      <trkpt lat="45.94045" lon="4.80817">
        <ele>229</ele>
        <time>2018-06-24T09:01:02Z</time>
      </trkpt>
      <trkpt lat="45.94046" lon="4.80821">
        <ele>229</ele>
        <time>2018-06-24T09:01:03Z</time>
      </trkpt>
      <trkpt lat="45.94047" lon="4.80832">
        <ele>229</ele>
        <time>2018-06-24T09:01:06Z</time>
      </trkpt>
      <trkpt lat="45.94048" lon="4.80836">
        <ele>230</ele>
        <time>2018-06-24T09:01:07Z</time>
      </trkpt>
      <trkpt lat="45.94049" lon="4.80846">
        <ele>230</ele>
        <time>2018-06-24T09:01:10Z</time>
      </trkpt>
      <trkpt lat="45.9405" lon="4.8085">
        <ele>230</ele>
        <time>2018-06-24T09:01:11Z</time>
      </trkpt>
      <trkpt lat="45.94052" lon="4.8086">
        <ele>230</ele>
        <time>2018-06-24T09:01:14Z</time>
      </trkpt>
      <trkpt lat="45.94052" lon="4.80863">
        <ele>230</ele>
        <time>2018-06-24T09:01:15Z</time>
      </trkpt>
      <trkpt lat="45.94054" lon="4.80874">
        <ele>230</ele>
        <time>2018-06-24T09:01:18Z</time>
      </trkpt>
      <trkpt lat="45.94054" lon="4.80877">
        <ele>230</ele>
        <time>2018-06-24T09:01:19Z</time>
      </trkpt>
      <trkpt lat="45.94055" lon="4.80888">
        <ele>230</ele>
        <time>2018-06-24T09:01:22Z</time>
      </trkpt>
      <trkpt lat="45.94056" lon="4.80891">
        <ele>231</ele>
        <time>2018-06-24T09:01:23Z</time>
      </trkpt>
      <trkpt lat="45.94057" lon="4.80902">
        <ele>231</ele>
        <time>2018-06-24T09:01:26Z</time>
      </trkpt>
      <trkpt lat="45.94057" lon="4.80907">
        <ele>231</ele>
        <time>2018-06-24T09:01:27Z</time>
      </trkpt>
      <trkpt lat="45.94058" lon="4.80918">
        <ele>232</ele>
        <time>2018-06-24T09:01:30Z</time>
      </trkpt>
      <trkpt lat="45.94058" lon="4.80921">
        <ele>232</ele>
        <time>2018-06-24T09:01:31Z</time>
      </trkpt>
      <trkpt lat="45.9406" lon="4.80932">
        <ele>232</ele>
        <time>2018-06-24T09:01:34Z</time>
      </trkpt>
      <trkpt lat="45.9406" lon="4.80936">
        <ele>232</ele>
        <time>2018-06-24T09:01:35Z</time>
      </trkpt>
      <trkpt lat="45.94062" lon="4.80947">
        <ele>232</ele>
        <time>2018-06-24T09:01:38Z</time>
      </trkpt>
      <trkpt lat="45.94062" lon="4.80951">
        <ele>232</ele>
        <time>2018-06-24T09:01:39Z</time>
      </trkpt>
      <trkpt lat="45.94064" lon="4.80963">
        <ele>232</ele>
        <time>2018-06-24T09:01:42Z</time>
      </trkpt>
      <trkpt lat="45.94064" lon="4.80967">
        <ele>232</ele>
        <time>2018-06-24T09:01:43Z</time>
      </trkpt>
      <trkpt lat="45.94066" lon="4.80978">
        <ele>233</ele>
        <time>2018-06-24T09:01:46Z</time>
      </trkpt>
      <trkpt lat="45.94066" lon="4.80982">
        <ele>233</ele>
        <time>2018-06-24T09:01:47Z</time>
      </trkpt>
      <trkpt lat="45.94068" lon="4.80993">
        <ele>235</ele>
        <time>2018-06-24T09:01:50Z</time>
      </trkpt>
      <trkpt lat="45.94069" lon="4.80996">
        <ele>235</ele>
        <time>2018-06-24T09:01:51Z</time>
      </trkpt>
      <trkpt lat="45.94071" lon="4.81008">
        <ele>236</ele>
        <time>2018-06-24T09:01:54Z</time>
      </trkpt>
      <trkpt lat="45.94071" lon="4.81012">
        <ele>235</ele>
        <time>2018-06-24T09:01:55Z</time>
      </trkpt>
      <trkpt lat="45.94073" lon="4.81023">
        <ele>234</ele>
        <time>2018-06-24T09:01:58Z</time>
      </trkpt>
      <trkpt lat="45.94074" lon="4.81027">
        <ele>234</ele>
        <time>2018-06-24T09:01:59Z</time>
      </trkpt>
      <trkpt lat="45.94077" lon="4.81038">
        <ele>233</ele>
        <time>2018-06-24T09:02:02Z</time>
      </trkpt>
      <trkpt lat="45.94078" lon="4.81041">
        <ele>233</ele>
        <time>2018-06-24T09:02:03Z</time>
      </trkpt>
      <trkpt lat="45.94082" lon="4.81051">
        <ele>233</ele>
        <time>2018-06-24T09:02:06Z</time>
      </trkpt>
      <trkpt lat="45.94083" lon="4.81054">
        <ele>234</ele>
        <time>2018-06-24T09:02:07Z</time>
      </trkpt>
      <trkpt lat="45.94086" lon="4.81064">
        <ele>242</ele>
        <time>2018-06-24T09:02:10Z</time>
      </trkpt>
      <trkpt lat="45.94088" lon="4.81067">
        <ele>241</ele>
        <time>2018-06-24T09:02:11Z</time>
      </trkpt>
      <trkpt lat="45.94092" lon="4.81076">
        <ele>240</ele>
        <time>2018-06-24T09:02:14Z</time>
      </trkpt>
      <trkpt lat="45.94093" lon="4.81079">
        <ele>240</ele>
        <time>2018-06-24T09:02:15Z</time>
      </trkpt>
      <trkpt lat="45.94097" lon="4.81088">
        <ele>240</ele>
        <time>2018-06-24T09:02:18Z</time>
      </trkpt>
      <trkpt lat="45.94099" lon="4.81091">
        <ele>240</ele>
        <time>2018-06-24T09:02:19Z</time>
      </trkpt>
      <trkpt lat="45.94104" lon="4.81099">
        <ele>241</ele>
        <time>2018-06-24T09:02:22Z</time>
      </trkpt>
      <trkpt lat="45.94106" lon="4.81102">
        <ele>242</ele>
        <time>2018-06-24T09:02:23Z</time>
      </trkpt>
      <trkpt lat="45.94111" lon="4.81111">
        <ele>242</ele>
        <time>2018-06-24T09:02:26Z</time>
      </trkpt>
      <trkpt lat="45.94112" lon="4.81114">
        <ele>242</ele>
        <time>2018-06-24T09:02:27Z</time>
      </trkpt>
      <trkpt lat="45.94117" lon="4.81123">
        <ele>243</ele>
        <time>2018-06-24T09:02:30Z</time>
      </trkpt>
      <trkpt lat="45.94119" lon="4.81126">
        <ele>243</ele>
        <time>2018-06-24T09:02:31Z</time>
      </trkpt>
      <trkpt lat="45.94123" lon="4.81135">
        <ele>243</ele>
        <time>2018-06-24T09:02:34Z</time>
      </trkpt>
      <trkpt lat="45.94124" lon="4.81138">
        <ele>243</ele>
        <time>2018-06-24T09:02:35Z</time>
      </trkpt>
      <trkpt lat="45.94129" lon="4.81147">
        <ele>243</ele>
        <time>2018-06-24T09:02:38Z</time>
      </trkpt>
      <trkpt lat="45.94131" lon="4.8115">
        <ele>243</ele>
        <time>2018-06-24T09:02:39Z</time>
      </trkpt>
      <trkpt lat="45.94135" lon="4.8116">
        <ele>244</ele>
        <time>2018-06-24T09:02:42Z</time>
      </trkpt>
      <trkpt lat="45.94137" lon="4.81163">
        <ele>244</ele>
        <time>2018-06-24T09:02:43Z</time>
      </trkpt>
      <trkpt lat="45.9414" lon="4.81172">
        <ele>244</ele>
        <time>2018-06-24T09:02:46Z</time>
      </trkpt>
      <trkpt lat="45.94141" lon="4.81175">
        <ele>244</ele>
        <time>2018-06-24T09:02:47Z</time>
      </trkpt>
      <trkpt lat="45.94145" lon="4.81184">
        <ele>244</ele>
        <time>2018-06-24T09:02:50Z</time>
      </trkpt>
      <trkpt lat="45.94146" lon="4.81187">
        <ele>244</ele>
        <time>2018-06-24T09:02:51Z</time>
      </trkpt>
      <trkpt lat="45.9415" lon="4.81197">
        <ele>244</ele>
        <time>2018-06-24T09:02:54Z</time>
      </trkpt>
      <trkpt lat="45.94151" lon="4.812">
        <ele>244</ele>
        <time>2018-06-24T09:02:55Z</time>
      </trkpt>
      <trkpt lat="45.94153" lon="4.81209">
        <ele>244</ele>
        <time>2018-06-24T09:02:58Z</time>
      </trkpt>
      <trkpt lat="45.94154" lon="4.81212">
        <ele>245</ele>
        <time>2018-06-24T09:02:59Z</time>
      </trkpt>
      <trkpt lat="45.94157" lon="4.81222">
        <ele>245</ele>
        <time>2018-06-24T09:03:02Z</time>
      </trkpt>
      <trkpt lat="45.94158" lon="4.81226">
        <ele>245</ele>
        <time>2018-06-24T09:03:03Z</time>
      </trkpt>
      <trkpt lat="45.9416" lon="4.81237">
        <ele>247</ele>
        <time>2018-06-24T09:03:06Z</time>
      </trkpt>
      <trkpt lat="45.9416" lon="4.8124">
        <ele>247</ele>
        <time>2018-06-24T09:03:07Z</time>
      </trkpt>
      <trkpt lat="45.94162" lon="4.81251">
        <ele>249</ele>
        <time>2018-06-24T09:03:10Z</time>
      </trkpt>
      <trkpt lat="45.94162" lon="4.81255">
        <ele>249</ele>
        <time>2018-06-24T09:03:11Z</time>
      </trkpt>
      <trkpt lat="45.94164" lon="4.81266">
        <ele>248</ele>
        <time>2018-06-24T09:03:14Z</time>
      </trkpt>
      <trkpt lat="45.94164" lon="4.8127">
        <ele>248</ele>
        <time>2018-06-24T09:03:15Z</time>
      </trkpt>
      <trkpt lat="45.94165" lon="4.81281">
        <ele>247</ele>
        <time>2018-06-24T09:03:18Z</time>
      </trkpt>
      <trkpt lat="45.94166" lon="4.81285">
        <ele>247</ele>
        <time>2018-06-24T09:03:19Z</time>
      </trkpt>
      <trkpt lat="45.94166" lon="4.81296">
        <ele>247</ele>
        <time>2018-06-24T09:03:22Z</time>
      </trkpt>
      <trkpt lat="45.94167" lon="4.813">
        <ele>248</ele>
        <time>2018-06-24T09:03:23Z</time>
      </trkpt>
      <trkpt lat="45.94167" lon="4.8131">
        <ele>255</ele>
        <time>2018-06-24T09:03:26Z</time>
      </trkpt>
      <trkpt lat="45.94167" lon="4.81313">
        <ele>255</ele>
        <time>2018-06-24T09:03:27Z</time>
      </trkpt>
      <trkpt lat="45.94166" lon="4.81323">
        <ele>250</ele>
        <time>2018-06-24T09:03:30Z</time>
      </trkpt>
      <trkpt lat="45.94165" lon="4.81326">
        <ele>250</ele>
        <time>2018-06-24T09:03:31Z</time>
      </trkpt>
      <trkpt lat="45.94165" lon="4.81339">
        <ele>251</ele>
        <time>2018-06-24T09:03:35Z</time>
      </trkpt>
      <trkpt lat="45.94165" lon="4.81343">
        <ele>251</ele>
        <time>2018-06-24T09:03:36Z</time>
      </trkpt>
      <trkpt lat="45.94164" lon="4.81353">
        <ele>251</ele>
        <time>2018-06-24T09:03:39Z</time>
      </trkpt>
      <trkpt lat="45.94164" lon="4.81356">
        <ele>251</ele>
        <time>2018-06-24T09:03:40Z</time>
      </trkpt>
      <trkpt lat="45.94162" lon="4.81366">
        <ele>251</ele>
        <time>2018-06-24T09:03:43Z</time>
      </trkpt>
      <trkpt lat="45.94161" lon="4.81369">
        <ele>251</ele>
        <time>2018-06-24T09:03:44Z</time>
      </trkpt>
      <trkpt lat="45.94161" lon="4.8138">
        <ele>251</ele>
        <time>2018-06-24T09:03:47Z</time>
      </trkpt>
      <trkpt lat="45.94161" lon="4.81385">
        <ele>251</ele>
        <time>2018-06-24T09:03:48Z</time>
      </trkpt>
      <trkpt lat="45.94161" lon="4.81394">
        <ele>252</ele>
        <time>2018-06-24T09:03:50Z</time>
      </trkpt>
      <trkpt lat="45.94161" lon="4.81398">
        <ele>252</ele>
        <time>2018-06-24T09:03:51Z</time>
      </trkpt>
      <trkpt lat="45.94161" lon="4.81402">
        <ele>253</ele>
        <time>2018-06-24T09:03:52Z</time>
      </trkpt>
      <trkpt lat="45.94161" lon="4.81414">
        <ele>254</ele>
        <time>2018-06-24T09:03:53Z</time>
      </trkpt>
      <trkpt lat="45.9416" lon="4.81424">
        <ele>256</ele>
        <time>2018-06-24T09:03:57Z</time>
      </trkpt>
      <trkpt lat="45.94159" lon="4.81427">
        <ele>256</ele>
        <time>2018-06-24T09:03:58Z</time>
      </trkpt>
      <trkpt lat="45.94157" lon="4.81437">
        <ele>256</ele>
        <time>2018-06-24T09:04:01Z</time>
      </trkpt>
      <trkpt lat="45.94156" lon="4.8144">
        <ele>256</ele>
        <time>2018-06-24T09:04:02Z</time>
      </trkpt>
      <trkpt lat="45.94154" lon="4.8145">
        <ele>257</ele>
        <time>2018-06-24T09:04:05Z</time>
      </trkpt>
      <trkpt lat="45.94153" lon="4.81453">
        <ele>257</ele>
        <time>2018-06-24T09:04:06Z</time>
      </trkpt>
      <trkpt lat="45.94151" lon="4.81463">
        <ele>257</ele>
        <time>2018-06-24T09:04:09Z</time>
      </trkpt>
      <trkpt lat="45.9415" lon="4.81466">
        <ele>257</ele>
        <time>2018-06-24T09:04:10Z</time>
      </trkpt>
      <trkpt lat="45.94148" lon="4.81478">
        <ele>258</ele>
        <time>2018-06-24T09:04:13Z</time>
      </trkpt>
      <trkpt lat="45.94148" lon="4.81483">
        <ele>259</ele>
        <time>2018-06-24T09:04:14Z</time>
      </trkpt>
      <trkpt lat="45.94149" lon="4.81494">
        <ele>259</ele>
        <time>2018-06-24T09:04:17Z</time>
      </trkpt>
      <trkpt lat="45.94149" lon="4.81498">
        <ele>260</ele>
        <time>2018-06-24T09:04:18Z</time>
      </trkpt>
      <trkpt lat="45.94149" lon="4.81507">
        <ele>263</ele>
        <time>2018-06-24T09:04:21Z</time>
      </trkpt>
      <trkpt lat="45.94149" lon="4.81511">
        <ele>263</ele>
        <time>2018-06-24T09:04:22Z</time>
      </trkpt>
      <trkpt lat="45.9415" lon="4.81521">
        <ele>263</ele>
        <time>2018-06-24T09:04:24Z</time>
      </trkpt>
      <trkpt lat="45.9415" lon="4.81525">
        <ele>263</ele>
        <time>2018-06-24T09:04:25Z</time>
      </trkpt>
      <trkpt lat="45.94151" lon="4.81534">
        <ele>264</ele>
        <time>2018-06-24T09:04:27Z</time>
      </trkpt>
      <trkpt lat="45.94151" lon="4.81538">
        <ele>264</ele>
        <time>2018-06-24T09:04:28Z</time>
      </trkpt>
      <trkpt lat="45.94152" lon="4.81548">
        <ele>264</ele>
        <time>2018-06-24T09:04:30Z</time>
      </trkpt>
      <trkpt lat="45.94152" lon="4.81553">
        <ele>264</ele>
        <time>2018-06-24T09:04:31Z</time>
      </trkpt>
      <trkpt lat="45.94152" lon="4.81562">
        <ele>265</ele>
        <time>2018-06-24T09:04:33Z</time>
      </trkpt>
      <trkpt lat="45.94152" lon="4.81567">
        <ele>265</ele>
        <time>2018-06-24T09:04:34Z</time>
      </trkpt>
      <trkpt lat="45.94153" lon="4.81576">
        <ele>266</ele>
        <time>2018-06-24T09:04:36Z</time>
      </trkpt>
      <trkpt lat="45.94155" lon="4.81591">
        <ele>267</ele>
        <time>2018-06-24T09:04:37Z</time>
      </trkpt>
      <trkpt lat="45.94155" lon="4.81603">
        <ele>267</ele>
        <time>2018-06-24T09:04:40Z</time>
      </trkpt>
      <trkpt lat="45.94155" lon="4.81606">
        <ele>267</ele>
        <time>2018-06-24T09:04:41Z</time>
      </trkpt>
      <trkpt lat="45.94157" lon="4.81617">
        <ele>268</ele>
        <time>2018-06-24T09:04:44Z</time>
      </trkpt>
      <trkpt lat="45.94158" lon="4.81621">
        <ele>268</ele>
        <time>2018-06-24T09:04:45Z</time>
      </trkpt>
      <trkpt lat="45.94159" lon="4.8163">
        <ele>268</ele>
        <time>2018-06-24T09:04:47Z</time>
      </trkpt>
      <trkpt lat="45.9416" lon="4.81634">
        <ele>268</ele>
        <time>2018-06-24T09:04:48Z</time>
      </trkpt>
      <trkpt lat="45.94162" lon="4.81647">
        <ele>268</ele>
        <time>2018-06-24T09:04:51Z</time>
      </trkpt>
      <trkpt lat="45.94163" lon="4.81651">
        <ele>268</ele>
        <time>2018-06-24T09:04:52Z</time>
      </trkpt>
      <trkpt lat="45.94165" lon="4.81662">
        <ele>269</ele>
        <time>2018-06-24T09:04:55Z</time>
      </trkpt>
      <trkpt lat="45.94165" lon="4.81666">
        <ele>269</ele>
        <time>2018-06-24T09:04:56Z</time>
      </trkpt>
      <trkpt lat="45.94166" lon="4.81677">
        <ele>269</ele>
        <time>2018-06-24T09:04:59Z</time>
      </trkpt>
      <trkpt lat="45.94167" lon="4.81681">
        <ele>268</ele>
        <time>2018-06-24T09:05:00Z</time>
      </trkpt>
      <trkpt lat="45.9417" lon="4.81691">
        <ele>267</ele>
        <time>2018-06-24T09:05:03Z</time>
      </trkpt>
      <trkpt lat="45.94171" lon="4.81695">
        <ele>267</ele>
        <time>2018-06-24T09:05:04Z</time>
      </trkpt>
      <trkpt lat="45.94176" lon="4.81705">
        <ele>267</ele>
        <time>2018-06-24T09:05:07Z</time>
      </trkpt>
      <trkpt lat="45.94177" lon="4.81707">
        <ele>267</ele>
        <time>2018-06-24T09:05:08Z</time>
      </trkpt>
      <trkpt lat="45.9418" lon="4.81715">
        <ele>267</ele>
        <time>2018-06-24T09:05:11Z</time>
      </trkpt>
      <trkpt lat="45.94181" lon="4.81725">
        <ele>267</ele>
        <time>2018-06-24T09:05:12Z</time>
      </trkpt>
      <trkpt lat="45.94182" lon="4.81736">
        <ele>267</ele>
        <time>2018-06-24T09:05:14Z</time>
      </trkpt>
      <trkpt lat="45.94184" lon="4.81741">
        <ele>267</ele>
        <time>2018-06-24T09:05:15Z</time>
      </trkpt>
      <trkpt lat="45.94185" lon="4.81747">
        <ele>267</ele>
        <time>2018-06-24T09:05:17Z</time>
      </trkpt>
      <trkpt lat="45.94188" lon="4.81756">
        <ele>266</ele>
        <time>2018-06-24T09:05:18Z</time>
      </trkpt>
      <trkpt lat="45.94191" lon="4.81765">
        <ele>266</ele>
        <time>2018-06-24T09:05:20Z</time>
      </trkpt>
      <trkpt lat="45.94193" lon="4.8177">
        <ele>266</ele>
        <time>2018-06-24T09:05:21Z</time>
      </trkpt>
      <trkpt lat="45.94195" lon="4.81781">
        <ele>266</ele>
        <time>2018-06-24T09:05:23Z</time>
      </trkpt>
      <trkpt lat="45.94196" lon="4.81783">
        <ele>266</ele>
        <time>2018-06-24T09:05:24Z</time>
      </trkpt>
      <trkpt lat="45.94197" lon="4.81794">
        <ele>266</ele>
        <time>2018-06-24T09:05:27Z</time>
      </trkpt>
      <trkpt lat="45.94198" lon="4.81806">
        <ele>266</ele>
        <time>2018-06-24T09:05:28Z</time>
      </trkpt>
      <trkpt lat="45.94199" lon="4.81817">
        <ele>266</ele>
        <time>2018-06-24T09:05:30Z</time>
      </trkpt>
      <trkpt lat="45.942" lon="4.81822">
        <ele>266</ele>
        <time>2018-06-24T09:05:31Z</time>
      </trkpt>
      <trkpt lat="45.94202" lon="4.81832">
        <ele>266</ele>
        <time>2018-06-24T09:05:33Z</time>
      </trkpt>
      <trkpt lat="45.94202" lon="4.81835">
        <ele>266</ele>
        <time>2018-06-24T09:05:34Z</time>
      </trkpt>
      <trkpt lat="45.94203" lon="4.81838">
        <ele>266</ele>
        <time>2018-06-24T09:05:35Z</time>
      </trkpt>
      <trkpt lat="45.94205" lon="4.81847">
        <ele>266</ele>
        <time>2018-06-24T09:05:36Z</time>
      </trkpt>
      <trkpt lat="45.94208" lon="4.81858">
        <ele>265</ele>
        <time>2018-06-24T09:05:38Z</time>
      </trkpt>
      <trkpt lat="45.94209" lon="4.81864">
        <ele>265</ele>
        <time>2018-06-24T09:05:39Z</time>
      </trkpt>
      <trkpt lat="45.9421" lon="4.81875">
        <ele>265</ele>
        <time>2018-06-24T09:05:41Z</time>
      </trkpt>
      <trkpt lat="45.94211" lon="4.81881">
        <ele>265</ele>
        <time>2018-06-24T09:05:42Z</time>
      </trkpt>
      <trkpt lat="45.94214" lon="4.81892">
        <ele>265</ele>
        <time>2018-06-24T09:05:44Z</time>
      </trkpt>
      <trkpt lat="45.94215" lon="4.81897">
        <ele>265</ele>
        <time>2018-06-24T09:05:45Z</time>
      </trkpt>
      <trkpt lat="45.94217" lon="4.81907">
        <ele>265</ele>
        <time>2018-06-24T09:05:47Z</time>
      </trkpt>
      <trkpt lat="45.94218" lon="4.81912">
        <ele>265</ele>
        <time>2018-06-24T09:05:48Z</time>
      </trkpt>
      <trkpt lat="45.9422" lon="4.81923">
        <ele>264</ele>
        <time>2018-06-24T09:05:50Z</time>
      </trkpt>
      <trkpt lat="45.94221" lon="4.81929">
        <ele>264</ele>
        <time>2018-06-24T09:05:51Z</time>
      </trkpt>
      <trkpt lat="45.94222" lon="4.81936">
        <ele>264</ele>
        <time>2018-06-24T09:05:52Z</time>
      </trkpt>
      <trkpt lat="45.94222" lon="4.81943">
        <ele>264</ele>
        <time>2018-06-24T09:05:53Z</time>
      </trkpt>
      <trkpt lat="45.94224" lon="4.81955">
        <ele>264</ele>
        <time>2018-06-24T09:05:55Z</time>
      </trkpt>
      <trkpt lat="45.94225" lon="4.81961">
        <ele>264</ele>
        <time>2018-06-24T09:05:56Z</time>
      </trkpt>
      <trkpt lat="45.94227" lon="4.81968">
        <ele>264</ele>
        <time>2018-06-24T09:05:57Z</time>
      </trkpt>
      <trkpt lat="45.94229" lon="4.81974">
        <ele>264</ele>
        <time>2018-06-24T09:05:58Z</time>
      </trkpt>
      <trkpt lat="45.9423" lon="4.81982">
        <ele>263</ele>
        <time>2018-06-24T09:05:59Z</time>
      </trkpt>
      <trkpt lat="45.94232" lon="4.81987">
        <ele>263</ele>
        <time>2018-06-24T09:06:00Z</time>
      </trkpt>
      <trkpt lat="45.94234" lon="4.81998">
        <ele>263</ele>
        <time>2018-06-24T09:06:02Z</time>
      </trkpt>
      <trkpt lat="45.94235" lon="4.82003">
        <ele>263</ele>
        <time>2018-06-24T09:06:03Z</time>
      </trkpt>
      <trkpt lat="45.94238" lon="4.82014">
        <ele>263</ele>
        <time>2018-06-24T09:06:05Z</time>
      </trkpt>
      <trkpt lat="45.94238" lon="4.82021">
        <ele>263</ele>
        <time>2018-06-24T09:06:06Z</time>
      </trkpt>
      <trkpt lat="45.94236" lon="4.82029">
        <ele>263</ele>
        <time>2018-06-24T09:06:08Z</time>
      </trkpt>
      <trkpt lat="45.94235" lon="4.82038">
        <ele>263</ele>
        <time>2018-06-24T09:06:09Z</time>
      </trkpt>
      <trkpt lat="45.94239" lon="4.8205">
        <ele>263</ele>
        <time>2018-06-24T09:06:11Z</time>
      </trkpt>
      <trkpt lat="45.9424" lon="4.8206">
        <ele>263</ele>
        <time>2018-06-24T09:06:12Z</time>
      </trkpt>
      <trkpt lat="45.9424" lon="4.82071">
        <ele>263</ele>
        <time>2018-06-24T09:06:17Z</time>
      </trkpt>
      <trkpt lat="45.94239" lon="4.82074">
        <ele>263</ele>
        <time>2018-06-24T09:06:18Z</time>
      </trkpt>
      <trkpt lat="45.94243" lon="4.82091">
        <ele>263</ele>
        <time>2018-06-24T09:06:19Z</time>
      </trkpt>
      <trkpt lat="45.94243" lon="4.82099">
        <ele>263</ele>
        <time>2018-06-24T09:06:20Z</time>
      </trkpt>
      <trkpt lat="45.94244" lon="4.82105">
        <ele>263</ele>
        <time>2018-06-24T09:06:21Z</time>
      </trkpt>
      <trkpt lat="45.94246" lon="4.82112">
        <ele>263</ele>
        <time>2018-06-24T09:06:22Z</time>
      </trkpt>
      <trkpt lat="45.94248" lon="4.82119">
        <ele>264</ele>
        <time>2018-06-24T09:06:23Z</time>
      </trkpt>
      <trkpt lat="45.94252" lon="4.8213">
        <ele>263</ele>
        <time>2018-06-24T09:06:24Z</time>
      </trkpt>
      <trkpt lat="45.94254" lon="4.82137">
        <ele>263</ele>
        <time>2018-06-24T09:06:25Z</time>
      </trkpt>
      <trkpt lat="45.94256" lon="4.82143">
        <ele>263</ele>
        <time>2018-06-24T09:06:26Z</time>
      </trkpt>
      <trkpt lat="45.94258" lon="4.8215">
        <ele>263</ele>
        <time>2018-06-24T09:06:27Z</time>
      </trkpt>
      <trkpt lat="45.94262" lon="4.8216">
        <ele>263</ele>
        <time>2018-06-24T09:06:28Z</time>
      </trkpt>
      <trkpt lat="45.94264" lon="4.82168">
        <ele>263</ele>
        <time>2018-06-24T09:06:29Z</time>
      </trkpt>
      <trkpt lat="45.94266" lon="4.82174">
        <ele>263</ele>
        <time>2018-06-24T09:06:30Z</time>
      </trkpt>
      <trkpt lat="45.94268" lon="4.82183">
        <ele>264</ele>
        <time>2018-06-24T09:06:31Z</time>
      </trkpt>
      <trkpt lat="45.94269" lon="4.82191">
        <ele>264</ele>
        <time>2018-06-24T09:06:32Z</time>
      </trkpt>
      <trkpt lat="45.9427" lon="4.82198">
        <ele>264</ele>
        <time>2018-06-24T09:06:33Z</time>
      </trkpt>
      <trkpt lat="45.94273" lon="4.8221">
        <ele>264</ele>
        <time>2018-06-24T09:06:35Z</time>
      </trkpt>
      <trkpt lat="45.94273" lon="4.82217">
        <ele>264</ele>
        <time>2018-06-24T09:06:36Z</time>
      </trkpt>
      <trkpt lat="45.94274" lon="4.82224">
        <ele>264</ele>
        <time>2018-06-24T09:06:37Z</time>
      </trkpt>
      <trkpt lat="45.94274" lon="4.8223">
        <ele>264</ele>
        <time>2018-06-24T09:06:38Z</time>
      </trkpt>
      <trkpt lat="45.94275" lon="4.82237">
        <ele>264</ele>
        <time>2018-06-24T09:06:39Z</time>
      </trkpt>
      <trkpt lat="45.94275" lon="4.82244">
        <ele>264</ele>
        <time>2018-06-24T09:06:40Z</time>
      </trkpt>
      <trkpt lat="45.94276" lon="4.82251">
        <ele>265</ele>
        <time>2018-06-24T09:06:41Z</time>
      </trkpt>
      <trkpt lat="45.94276" lon="4.82257">
        <ele>265</ele>
        <time>2018-06-24T09:06:42Z</time>
      </trkpt>
      <trkpt lat="45.94277" lon="4.82264">
        <ele>265</ele>
        <time>2018-06-24T09:06:43Z</time>
      </trkpt>
      <trkpt lat="45.94278" lon="4.82271">
        <ele>265</ele>
        <time>2018-06-24T09:06:44Z</time>
      </trkpt>
      <trkpt lat="45.94279" lon="4.82277">
        <ele>265</ele>
        <time>2018-06-24T09:06:45Z</time>
      </trkpt>
      <trkpt lat="45.9428" lon="4.82284">
        <ele>265</ele>
        <time>2018-06-24T09:06:46Z</time>
      </trkpt>
      <trkpt lat="45.9428" lon="4.82295">
        <ele>265</ele>
        <time>2018-06-24T09:06:48Z</time>
      </trkpt>
      <trkpt lat="45.9428" lon="4.82301">
        <ele>265</ele>
        <time>2018-06-24T09:06:49Z</time>
      </trkpt>
      <trkpt lat="45.9428" lon="4.82308">
        <ele>265</ele>
        <time>2018-06-24T09:06:50Z</time>
      </trkpt>
      <trkpt lat="45.9428" lon="4.82315">
        <ele>265</ele>
        <time>2018-06-24T09:06:51Z</time>
      </trkpt>
      <trkpt lat="45.94282" lon="4.82321">
        <ele>265</ele>
        <time>2018-06-24T09:06:52Z</time>
      </trkpt>
      <trkpt lat="45.94283" lon="4.82328">
        <ele>265</ele>
        <time>2018-06-24T09:06:53Z</time>
      </trkpt>
      <trkpt lat="45.94283" lon="4.82334">
        <ele>264</ele>
        <time>2018-06-24T09:06:54Z</time>
      </trkpt>
      <trkpt lat="45.94285" lon="4.8234">
        <ele>264</ele>
        <time>2018-06-24T09:06:55Z</time>
      </trkpt>
      <trkpt lat="45.94285" lon="4.82353">
        <ele>264</ele>
        <time>2018-06-24T09:06:57Z</time>
      </trkpt>
      <trkpt lat="45.94285" lon="4.82358">
        <ele>264</ele>
        <time>2018-06-24T09:06:58Z</time>
      </trkpt>
      <trkpt lat="45.94285" lon="4.8237">
        <ele>264</ele>
        <time>2018-06-24T09:07:00Z</time>
      </trkpt>
      <trkpt lat="45.94286" lon="4.82378">
        <ele>264</ele>
        <time>2018-06-24T09:07:01Z</time>
      </trkpt>
      <trkpt lat="45.94286" lon="4.82386">
        <ele>264</ele>
        <time>2018-06-24T09:07:02Z</time>
      </trkpt>
      <trkpt lat="45.94286" lon="4.82393">
        <ele>264</ele>
        <time>2018-06-24T09:07:03Z</time>
      </trkpt>
      <trkpt lat="45.94287" lon="4.82403">
        <ele>264</ele>
        <time>2018-06-24T09:07:05Z</time>
      </trkpt>
      <trkpt lat="45.94287" lon="4.82409">
        <ele>264</ele>
        <time>2018-06-24T09:07:06Z</time>
      </trkpt>
      <trkpt lat="45.94288" lon="4.8242">
        <ele>264</ele>
        <time>2018-06-24T09:07:08Z</time>
      </trkpt>
      <trkpt lat="45.94288" lon="4.82426">
        <ele>264</ele>
        <time>2018-06-24T09:07:09Z</time>
      </trkpt>
      <trkpt lat="45.94289" lon="4.82439">
        <ele>264</ele>
        <time>2018-06-24T09:07:11Z</time>
      </trkpt>
      <trkpt lat="45.9429" lon="4.82444">
        <ele>264</ele>
        <time>2018-06-24T09:07:12Z</time>
      </trkpt>
      <trkpt lat="45.9429" lon="4.82456">
        <ele>264</ele>
        <time>2018-06-24T09:07:14Z</time>
      </trkpt>
      <trkpt lat="45.94292" lon="4.82462">
        <ele>264</ele>
        <time>2018-06-24T09:07:15Z</time>
      </trkpt>
      <trkpt lat="45.94293" lon="4.82469">
        <ele>264</ele>
        <time>2018-06-24T09:07:16Z</time>
      </trkpt>
      <trkpt lat="45.94293" lon="4.82476">
        <ele>264</ele>
        <time>2018-06-24T09:07:17Z</time>
      </trkpt>
      <trkpt lat="45.94292" lon="4.82483">
        <ele>264</ele>
        <time>2018-06-24T09:07:18Z</time>
      </trkpt>
      <trkpt lat="45.94293" lon="4.8249">
        <ele>264</ele>
        <time>2018-06-24T09:07:19Z</time>
      </trkpt>
      <trkpt lat="45.94293" lon="4.82496">
        <ele>264</ele>
        <time>2018-06-24T09:07:20Z</time>
      </trkpt>
      <trkpt lat="45.94293" lon="4.82503">
        <ele>264</ele>
        <time>2018-06-24T09:07:21Z</time>
      </trkpt>
      <trkpt lat="45.94293" lon="4.82515">
        <ele>264</ele>
        <time>2018-06-24T09:07:23Z</time>
      </trkpt>
      <trkpt lat="45.94293" lon="4.82521">
        <ele>264</ele>
        <time>2018-06-24T09:07:24Z</time>
      </trkpt>
      <trkpt lat="45.94292" lon="4.82531">
        <ele>264</ele>
        <time>2018-06-24T09:07:26Z</time>
      </trkpt>
      <trkpt lat="45.94293" lon="4.82537">
        <ele>264</ele>
        <time>2018-06-24T09:07:27Z</time>
      </trkpt>
      <trkpt lat="45.94293" lon="4.82547">
        <ele>264</ele>
        <time>2018-06-24T09:07:29Z</time>
      </trkpt>
      <trkpt lat="45.94293" lon="4.82554">
        <ele>264</ele>
        <time>2018-06-24T09:07:30Z</time>
      </trkpt>
      <trkpt lat="45.94292" lon="4.82561">
        <ele>264</ele>
        <time>2018-06-24T09:07:31Z</time>
      </trkpt>
      <trkpt lat="45.94292" lon="4.82568">
        <ele>264</ele>
        <time>2018-06-24T09:07:32Z</time>
      </trkpt>
      <trkpt lat="45.94292" lon="4.82575">
        <ele>265</ele>
        <time>2018-06-24T09:07:33Z</time>
      </trkpt>
      <trkpt lat="45.94291" lon="4.82582">
        <ele>265</ele>
        <time>2018-06-24T09:07:34Z</time>
      </trkpt>
      <trkpt lat="45.94291" lon="4.8259">
        <ele>265</ele>
        <time>2018-06-24T09:07:35Z</time>
      </trkpt>
      <trkpt lat="45.94291" lon="4.82596">
        <ele>265</ele>
        <time>2018-06-24T09:07:36Z</time>
      </trkpt>
      <trkpt lat="45.94291" lon="4.82603">
        <ele>265</ele>
        <time>2018-06-24T09:07:37Z</time>
      </trkpt>
      <trkpt lat="45.94292" lon="4.82612">
        <ele>265</ele>
        <time>2018-06-24T09:07:38Z</time>
      </trkpt>
      <trkpt lat="45.94291" lon="4.82619">
        <ele>265</ele>
        <time>2018-06-24T09:07:39Z</time>
      </trkpt>
      <trkpt lat="45.94291" lon="4.82629">
        <ele>265</ele>
        <time>2018-06-24T09:07:40Z</time>
      </trkpt>
      <trkpt lat="45.94291" lon="4.82635">
        <ele>265</ele>
        <time>2018-06-24T09:07:41Z</time>
      </trkpt>
      <trkpt lat="45.94291" lon="4.82642">
        <ele>265</ele>
        <time>2018-06-24T09:07:42Z</time>
      </trkpt>
      <trkpt lat="45.9429" lon="4.82648">
        <ele>265</ele>
        <time>2018-06-24T09:07:43Z</time>
      </trkpt>
      <trkpt lat="45.9429" lon="4.82655">
        <ele>265</ele>
        <time>2018-06-24T09:07:44Z</time>
      </trkpt>
      <trkpt lat="45.94291" lon="4.82663">
        <ele>265</ele>
        <time>2018-06-24T09:07:45Z</time>
      </trkpt>
      <trkpt lat="45.94291" lon="4.82671">
        <ele>265</ele>
        <time>2018-06-24T09:07:46Z</time>
      </trkpt>
      <trkpt lat="45.94291" lon="4.82684">
        <ele>265</ele>
        <time>2018-06-24T09:07:48Z</time>
      </trkpt>
      <trkpt lat="45.94291" lon="4.8269">
        <ele>265</ele>
        <time>2018-06-24T09:07:49Z</time>
      </trkpt>
      <trkpt lat="45.94292" lon="4.82701">
        <ele>265</ele>
        <time>2018-06-24T09:07:51Z</time>
      </trkpt>
      <trkpt lat="45.94292" lon="4.82707">
        <ele>265</ele>
        <time>2018-06-24T09:07:52Z</time>
      </trkpt>
      <trkpt lat="45.94291" lon="4.82714">
        <ele>265</ele>
        <time>2018-06-24T09:07:53Z</time>
      </trkpt>
      <trkpt lat="45.9429" lon="4.8272">
        <ele>265</ele>
        <time>2018-06-24T09:07:54Z</time>
      </trkpt>
      <trkpt lat="45.9429" lon="4.82727">
        <ele>265</ele>
        <time>2018-06-24T09:07:55Z</time>
      </trkpt>
      <trkpt lat="45.94291" lon="4.82734">
        <ele>265</ele>
        <time>2018-06-24T09:07:56Z</time>
      </trkpt>
      <trkpt lat="45.94293" lon="4.82742">
        <ele>265</ele>
        <time>2018-06-24T09:07:57Z</time>
      </trkpt>
      <trkpt lat="45.94292" lon="4.82748">
        <ele>265</ele>
        <time>2018-06-24T09:07:58Z</time>
      </trkpt>
      <trkpt lat="45.9429" lon="4.82756">
        <ele>265</ele>
        <time>2018-06-24T09:08:00Z</time>
      </trkpt>
      <trkpt lat="45.9429" lon="4.82762">
        <ele>265</ele>
        <time>2018-06-24T09:08:01Z</time>
      </trkpt>
      <trkpt lat="45.94289" lon="4.82775">
        <ele>265</ele>
        <time>2018-06-24T09:08:03Z</time>
      </trkpt>
      <trkpt lat="45.94289" lon="4.82778">
        <ele>265</ele>
        <time>2018-06-24T09:08:04Z</time>
      </trkpt>
      <trkpt lat="45.94289" lon="4.82784">
        <ele>265</ele>
        <time>2018-06-24T09:08:05Z</time>
      </trkpt>
      <trkpt lat="45.94289" lon="4.82793">
        <ele>265</ele>
        <time>2018-06-24T09:08:06Z</time>
      </trkpt>
      <trkpt lat="45.94288" lon="4.828">
        <ele>265</ele>
        <time>2018-06-24T09:08:07Z</time>
      </trkpt>
      <trkpt lat="45.94288" lon="4.82807">
        <ele>265</ele>
        <time>2018-06-24T09:08:08Z</time>
      </trkpt>
      <trkpt lat="45.94288" lon="4.82814">
        <ele>265</ele>
        <time>2018-06-24T09:08:09Z</time>
      </trkpt>
      <trkpt lat="45.94289" lon="4.82822">
        <ele>265</ele>
        <time>2018-06-24T09:08:10Z</time>
      </trkpt>
      <trkpt lat="45.94288" lon="4.82834">
        <ele>265</ele>
        <time>2018-06-24T09:08:12Z</time>
      </trkpt>
      <trkpt lat="45.94287" lon="4.82841">
        <ele>265</ele>
        <time>2018-06-24T09:08:13Z</time>
      </trkpt>
      <trkpt lat="45.94287" lon="4.82848">
        <ele>265</ele>
        <time>2018-06-24T09:08:14Z</time>
      </trkpt>
      <trkpt lat="45.94287" lon="4.82855">
        <ele>265</ele>
        <time>2018-06-24T09:08:15Z</time>
      </trkpt>
      <trkpt lat="45.94283" lon="4.82863">
        <ele>265</ele>
        <time>2018-06-24T09:08:17Z</time>
      </trkpt>
      <trkpt lat="45.94283" lon="4.82871">
        <ele>265</ele>
        <time>2018-06-24T09:08:18Z</time>
      </trkpt>
      <trkpt lat="45.94283" lon="4.82878">
        <ele>265</ele>
        <time>2018-06-24T09:08:19Z</time>
      </trkpt>
      <trkpt lat="45.94283" lon="4.82885">
        <ele>265</ele>
        <time>2018-06-24T09:08:20Z</time>
      </trkpt>
      <trkpt lat="45.94282" lon="4.82897">
        <ele>265</ele>
        <time>2018-06-24T09:08:22Z</time>
      </trkpt>
      <trkpt lat="45.94281" lon="4.82903">
        <ele>265</ele>
        <time>2018-06-24T09:08:23Z</time>
      </trkpt>
      <trkpt lat="45.94282" lon="4.82909">
        <ele>265</ele>
        <time>2018-06-24T09:08:24Z</time>
      </trkpt>
      <trkpt lat="45.94281" lon="4.82917">
        <ele>265</ele>
        <time>2018-06-24T09:08:25Z</time>
      </trkpt>
      <trkpt lat="45.9428" lon="4.82923">
        <ele>265</ele>
        <time>2018-06-24T09:08:26Z</time>
      </trkpt>
      <trkpt lat="45.94278" lon="4.8293">
        <ele>265</ele>
        <time>2018-06-24T09:08:27Z</time>
      </trkpt>
      <trkpt lat="45.94274" lon="4.82938">
        <ele>265</ele>
        <time>2018-06-24T09:08:29Z</time>
      </trkpt>
      <trkpt lat="45.94273" lon="4.82944">
        <ele>265</ele>
        <time>2018-06-24T09:08:30Z</time>
      </trkpt>
      <trkpt lat="45.9427" lon="4.82954">
        <ele>265</ele>
        <time>2018-06-24T09:08:33Z</time>
      </trkpt>
      <trkpt lat="45.94269" lon="4.82959">
        <ele>265</ele>
        <time>2018-06-24T09:08:34Z</time>
      </trkpt>
      <trkpt lat="45.94271" lon="4.82967">
        <ele>265</ele>
        <time>2018-06-24T09:08:36Z</time>
      </trkpt>
      <trkpt lat="45.94277" lon="4.82973">
        <ele>265</ele>
        <time>2018-06-24T09:08:37Z</time>
      </trkpt>
      <trkpt lat="45.94284" lon="4.8298">
        <ele>265</ele>
        <time>2018-06-24T09:08:39Z</time>
      </trkpt>
      <trkpt lat="45.94287" lon="4.82985">
        <ele>265</ele>
        <time>2018-06-24T09:08:40Z</time>
      </trkpt>
      <trkpt lat="45.94289" lon="4.8299">
        <ele>265</ele>
        <time>2018-06-24T09:08:41Z</time>
      </trkpt>
      <trkpt lat="45.94291" lon="4.82997">
        <ele>265</ele>
        <time>2018-06-24T09:08:42Z</time>
      </trkpt>
      <trkpt lat="45.94292" lon="4.83004">
        <ele>266</ele>
        <time>2018-06-24T09:08:43Z</time>
      </trkpt>
      <trkpt lat="45.94294" lon="4.83011">
        <ele>266</ele>
        <time>2018-06-24T09:08:44Z</time>
      </trkpt>
      <trkpt lat="45.94295" lon="4.83018">
        <ele>266</ele>
        <time>2018-06-24T09:08:45Z</time>
      </trkpt>
      <trkpt lat="45.94296" lon="4.83025">
        <ele>266</ele>
        <time>2018-06-24T09:08:46Z</time>
      </trkpt>
      <trkpt lat="45.94299" lon="4.83031">
        <ele>266</ele>
        <time>2018-06-24T09:08:47Z</time>
      </trkpt>
      <trkpt lat="45.943" lon="4.83037">
        <ele>266</ele>
        <time>2018-06-24T09:08:48Z</time>
      </trkpt>
      <trkpt lat="45.94302" lon="4.83044">
        <ele>266</ele>
        <time>2018-06-24T09:08:49Z</time>
      </trkpt>
      <trkpt lat="45.94304" lon="4.8305">
        <ele>266</ele>
        <time>2018-06-24T09:08:50Z</time>
      </trkpt>
      <trkpt lat="45.94305" lon="4.83056">
        <ele>266</ele>
        <time>2018-06-24T09:08:51Z</time>
      </trkpt>
      <trkpt lat="45.94307" lon="4.83063">
        <ele>266</ele>
        <time>2018-06-24T09:08:52Z</time>
      </trkpt>
      <trkpt lat="45.94309" lon="4.83069">
        <ele>266</ele>
        <time>2018-06-24T09:08:53Z</time>
      </trkpt>
      <trkpt lat="45.94311" lon="4.83075">
        <ele>266</ele>
        <time>2018-06-24T09:08:54Z</time>
      </trkpt>
      <trkpt lat="45.94313" lon="4.83082">
        <ele>266</ele>
        <time>2018-06-24T09:08:55Z</time>
      </trkpt>
      <trkpt lat="45.94316" lon="4.83092">
        <ele>266</ele>
        <time>2018-06-24T09:08:56Z</time>
      </trkpt>
      <trkpt lat="45.94318" lon="4.83099">
        <ele>266</ele>
        <time>2018-06-24T09:08:57Z</time>
      </trkpt>
      <trkpt lat="45.9432" lon="4.83106">
        <ele>266</ele>
        <time>2018-06-24T09:08:58Z</time>
      </trkpt>
      <trkpt lat="45.94322" lon="4.83113">
        <ele>266</ele>
        <time>2018-06-24T09:08:59Z</time>
      </trkpt>
      <trkpt lat="45.94325" lon="4.83119">
        <ele>266</ele>
        <time>2018-06-24T09:09:00Z</time>
      </trkpt>
      <trkpt lat="45.94327" lon="4.83126">
        <ele>266</ele>
        <time>2018-06-24T09:09:01Z</time>
      </trkpt>
      <trkpt lat="45.94328" lon="4.83132">
        <ele>266</ele>
        <time>2018-06-24T09:09:02Z</time>
      </trkpt>
      <trkpt lat="45.9433" lon="4.83138">
        <ele>266</ele>
        <time>2018-06-24T09:09:03Z</time>
      </trkpt>
      <trkpt lat="45.94332" lon="4.83144">
        <ele>266</ele>
        <time>2018-06-24T09:09:04Z</time>
      </trkpt>
      <trkpt lat="45.94336" lon="4.83155">
        <ele>266</ele>
        <time>2018-06-24T09:09:06Z</time>
      </trkpt>
      <trkpt lat="45.94339" lon="4.83161">
        <ele>266</ele>
        <time>2018-06-24T09:09:07Z</time>
      </trkpt>
      <trkpt lat="45.94342" lon="4.83173">
        <ele>266</ele>
        <time>2018-06-24T09:09:09Z</time>
      </trkpt>
      <trkpt lat="45.94344" lon="4.83179">
        <ele>266</ele>
        <time>2018-06-24T09:09:10Z</time>
      </trkpt>
      <trkpt lat="45.94348" lon="4.83186">
        <ele>266</ele>
        <time>2018-06-24T09:09:11Z</time>
      </trkpt>
      <trkpt lat="45.94349" lon="4.83191">
        <ele>266</ele>
        <time>2018-06-24T09:09:12Z</time>
      </trkpt>
      <trkpt lat="45.94351" lon="4.83198">
        <ele>266</ele>
        <time>2018-06-24T09:09:13Z</time>
      </trkpt>
      <trkpt lat="45.94354" lon="4.83205">
        <ele>266</ele>
        <time>2018-06-24T09:09:14Z</time>
      </trkpt>
      <trkpt lat="45.94357" lon="4.83213">
        <ele>266</ele>
        <time>2018-06-24T09:09:15Z</time>
      </trkpt>
      <trkpt lat="45.94359" lon="4.8322">
        <ele>266</ele>
        <time>2018-06-24T09:09:16Z</time>
      </trkpt>
      <trkpt lat="45.94362" lon="4.83227">
        <ele>266</ele>
        <time>2018-06-24T09:09:17Z</time>
      </trkpt>
      <trkpt lat="45.94364" lon="4.83234">
        <ele>266</ele>
        <time>2018-06-24T09:09:18Z</time>
      </trkpt>
      <trkpt lat="45.94367" lon="4.8324">
        <ele>265</ele>
        <time>2018-06-24T09:09:19Z</time>
      </trkpt>
      <trkpt lat="45.94369" lon="4.83247">
        <ele>265</ele>
        <time>2018-06-24T09:09:20Z</time>
      </trkpt>
      <trkpt lat="45.94371" lon="4.83255">
        <ele>265</ele>
        <time>2018-06-24T09:09:21Z</time>
      </trkpt>
      <trkpt lat="45.94375" lon="4.83264">
        <ele>264</ele>
        <time>2018-06-24T09:09:22Z</time>
      </trkpt>
      <trkpt lat="45.94377" lon="4.83271">
        <ele>264</ele>
        <time>2018-06-24T09:09:23Z</time>
      </trkpt>
      <trkpt lat="45.94379" lon="4.83278">
        <ele>264</ele>
        <time>2018-06-24T09:09:24Z</time>
      </trkpt>
      <trkpt lat="45.94381" lon="4.83285">
        <ele>264</ele>
        <time>2018-06-24T09:09:25Z</time>
      </trkpt>
      <trkpt lat="45.94384" lon="4.83292">
        <ele>264</ele>
        <time>2018-06-24T09:09:26Z</time>
      </trkpt>
      <trkpt lat="45.94387" lon="4.83298">
        <ele>264</ele>
        <time>2018-06-24T09:09:27Z</time>
      </trkpt>
      <trkpt lat="45.94389" lon="4.83305">
        <ele>264</ele>
        <time>2018-06-24T09:09:28Z</time>
      </trkpt>
      <trkpt lat="45.94391" lon="4.83312">
        <ele>264</ele>
        <time>2018-06-24T09:09:29Z</time>
      </trkpt>
      <trkpt lat="45.94394" lon="4.83319">
        <ele>264</ele>
        <time>2018-06-24T09:09:30Z</time>
      </trkpt>
      <trkpt lat="45.94399" lon="4.83324">
        <ele>264</ele>
        <time>2018-06-24T09:09:31Z</time>
      </trkpt>
      <trkpt lat="45.944" lon="4.8333">
        <ele>264</ele>
        <time>2018-06-24T09:09:32Z</time>
      </trkpt>
      <trkpt lat="45.94402" lon="4.83337">
        <ele>263</ele>
        <time>2018-06-24T09:09:33Z</time>
      </trkpt>
      <trkpt lat="45.94405" lon="4.83343">
        <ele>263</ele>
        <time>2018-06-24T09:09:34Z</time>
      </trkpt>
      <trkpt lat="45.94407" lon="4.83349">
        <ele>263</ele>
        <time>2018-06-24T09:09:35Z</time>
      </trkpt>
      <trkpt lat="45.9441" lon="4.83354">
        <ele>263</ele>
        <time>2018-06-24T09:09:36Z</time>
      </trkpt>
      <trkpt lat="45.94413" lon="4.83361">
        <ele>264</ele>
        <time>2018-06-24T09:09:37Z</time>
      </trkpt>
      <trkpt lat="45.94415" lon="4.83367">
        <ele>264</ele>
        <time>2018-06-24T09:09:38Z</time>
      </trkpt>
      <trkpt lat="45.94417" lon="4.83372">
        <ele>264</ele>
        <time>2018-06-24T09:09:39Z</time>
      </trkpt>
      <trkpt lat="45.9442" lon="4.83378">
        <ele>264</ele>
        <time>2018-06-24T09:09:40Z</time>
      </trkpt>
      <trkpt lat="45.94424" lon="4.83386">
        <ele>264</ele>
        <time>2018-06-24T09:09:41Z</time>
      </trkpt>
      <trkpt lat="45.94427" lon="4.83393">
        <ele>264</ele>
        <time>2018-06-24T09:09:42Z</time>
      </trkpt>
      <trkpt lat="45.9443" lon="4.83399">
        <ele>264</ele>
        <time>2018-06-24T09:09:43Z</time>
      </trkpt>
      <trkpt lat="45.94433" lon="4.83405">
        <ele>264</ele>
        <time>2018-06-24T09:09:44Z</time>
      </trkpt>
      <trkpt lat="45.94436" lon="4.83411">
        <ele>264</ele>
        <time>2018-06-24T09:09:45Z</time>
      </trkpt>
      <trkpt lat="45.94439" lon="4.83417">
        <ele>264</ele>
        <time>2018-06-24T09:09:46Z</time>
      </trkpt>
      <trkpt lat="45.94442" lon="4.83424">
        <ele>264</ele>
        <time>2018-06-24T09:09:47Z</time>
      </trkpt>
      <trkpt lat="45.94445" lon="4.8343">
        <ele>263</ele>
        <time>2018-06-24T09:09:48Z</time>
      </trkpt>
      <trkpt lat="45.94448" lon="4.83437">
        <ele>263</ele>
        <time>2018-06-24T09:09:49Z</time>
      </trkpt>
      <trkpt lat="45.94451" lon="4.83444">
        <ele>263</ele>
        <time>2018-06-24T09:09:50Z</time>
      </trkpt>
      <trkpt lat="45.94454" lon="4.83451">
        <ele>263</ele>
        <time>2018-06-24T09:09:51Z</time>
      </trkpt>
      <trkpt lat="45.94458" lon="4.83457">
        <ele>263</ele>
        <time>2018-06-24T09:09:52Z</time>
      </trkpt>
      <trkpt lat="45.94461" lon="4.83463">
        <ele>263</ele>
        <time>2018-06-24T09:09:53Z</time>
      </trkpt>
      <trkpt lat="45.94466" lon="4.83471">
        <ele>263</ele>
        <time>2018-06-24T09:09:54Z</time>
      </trkpt>
      <trkpt lat="45.94469" lon="4.83478">
        <ele>263</ele>
        <time>2018-06-24T09:09:55Z</time>
      </trkpt>
      <trkpt lat="45.94473" lon="4.83483">
        <ele>263</ele>
        <time>2018-06-24T09:09:56Z</time>
      </trkpt>
      <trkpt lat="45.94476" lon="4.83489">
        <ele>263</ele>
        <time>2018-06-24T09:09:57Z</time>
      </trkpt>
      <trkpt lat="45.94479" lon="4.83494">
        <ele>263</ele>
        <time>2018-06-24T09:09:58Z</time>
      </trkpt>
      <trkpt lat="45.94483" lon="4.835">
        <ele>262</ele>
        <time>2018-06-24T09:09:59Z</time>
      </trkpt>
      <trkpt lat="45.94486" lon="4.83506">
        <ele>262</ele>
        <time>2018-06-24T09:10:00Z</time>
      </trkpt>
      <trkpt lat="45.9449" lon="4.83513">
        <ele>262</ele>
        <time>2018-06-24T09:10:01Z</time>
      </trkpt>
      <trkpt lat="45.94493" lon="4.83518">
        <ele>262</ele>
        <time>2018-06-24T09:10:02Z</time>
      </trkpt>
      <trkpt lat="45.94496" lon="4.83524">
        <ele>262</ele>
        <time>2018-06-24T09:10:03Z</time>
      </trkpt>
      <trkpt lat="45.945" lon="4.83529">
        <ele>262</ele>
        <time>2018-06-24T09:10:04Z</time>
      </trkpt>
      <trkpt lat="45.94502" lon="4.83535">
        <ele>262</ele>
        <time>2018-06-24T09:10:05Z</time>
      </trkpt>
      <trkpt lat="45.94505" lon="4.8354">
        <ele>262</ele>
        <time>2018-06-24T09:10:06Z</time>
      </trkpt>
      <trkpt lat="45.94508" lon="4.83545">
        <ele>261</ele>
        <time>2018-06-24T09:10:07Z</time>
      </trkpt>
      <trkpt lat="45.9451" lon="4.83551">
        <ele>261</ele>
        <time>2018-06-24T09:10:08Z</time>
      </trkpt>
      <trkpt lat="45.94513" lon="4.83557">
        <ele>261</ele>
        <time>2018-06-24T09:10:09Z</time>
      </trkpt>
      <trkpt lat="45.94515" lon="4.83563">
        <ele>261</ele>
        <time>2018-06-24T09:10:10Z</time>
      </trkpt>
      <trkpt lat="45.94518" lon="4.83569">
        <ele>261</ele>
        <time>2018-06-24T09:10:11Z</time>
      </trkpt>
      <trkpt lat="45.94521" lon="4.83575">
        <ele>261</ele>
        <time>2018-06-24T09:10:12Z</time>
      </trkpt>
      <trkpt lat="45.94523" lon="4.83582">
        <ele>261</ele>
        <time>2018-06-24T09:10:13Z</time>
      </trkpt>
      <trkpt lat="45.94526" lon="4.8359">
        <ele>261</ele>
        <time>2018-06-24T09:10:14Z</time>
      </trkpt>
      <trkpt lat="45.94528" lon="4.83598">
        <ele>261</ele>
        <time>2018-06-24T09:10:15Z</time>
      </trkpt>
      <trkpt lat="45.9453" lon="4.83605">
        <ele>261</ele>
        <time>2018-06-24T09:10:16Z</time>
      </trkpt>
      <trkpt lat="45.94531" lon="4.83613">
        <ele>261</ele>
        <time>2018-06-24T09:10:17Z</time>
      </trkpt>
      <trkpt lat="45.94532" lon="4.8362">
        <ele>261</ele>
        <time>2018-06-24T09:10:18Z</time>
      </trkpt>
      <trkpt lat="45.94534" lon="4.83628">
        <ele>261</ele>
        <time>2018-06-24T09:10:19Z</time>
      </trkpt>
      <trkpt lat="45.94536" lon="4.83636">
        <ele>261</ele>
        <time>2018-06-24T09:10:20Z</time>
      </trkpt>
      <trkpt lat="45.94537" lon="4.83642">
        <ele>261</ele>
        <time>2018-06-24T09:10:21Z</time>
      </trkpt>
      <trkpt lat="45.94539" lon="4.83649">
        <ele>261</ele>
        <time>2018-06-24T09:10:22Z</time>
      </trkpt>
      <trkpt lat="45.9454" lon="4.83656">
        <ele>261</ele>
        <time>2018-06-24T09:10:23Z</time>
      </trkpt>
      <trkpt lat="45.94541" lon="4.83663">
        <ele>261</ele>
        <time>2018-06-24T09:10:24Z</time>
      </trkpt>
      <trkpt lat="45.94543" lon="4.83675">
        <ele>262</ele>
        <time>2018-06-24T09:10:26Z</time>
      </trkpt>
      <trkpt lat="45.94543" lon="4.83681">
        <ele>262</ele>
        <time>2018-06-24T09:10:27Z</time>
      </trkpt>
      <trkpt lat="45.94544" lon="4.83687">
        <ele>262</ele>
        <time>2018-06-24T09:10:28Z</time>
      </trkpt>
      <trkpt lat="45.94545" lon="4.83694">
        <ele>262</ele>
        <time>2018-06-24T09:10:29Z</time>
      </trkpt>
      <trkpt lat="45.94546" lon="4.83702">
        <ele>262</ele>
        <time>2018-06-24T09:10:30Z</time>
      </trkpt>
      <trkpt lat="45.94547" lon="4.83709">
        <ele>262</ele>
        <time>2018-06-24T09:10:31Z</time>
      </trkpt>
      <trkpt lat="45.94548" lon="4.83717">
        <ele>262</ele>
        <time>2018-06-24T09:10:32Z</time>
      </trkpt>
      <trkpt lat="45.9455" lon="4.83725">
        <ele>262</ele>
        <time>2018-06-24T09:10:33Z</time>
      </trkpt>
      <trkpt lat="45.94551" lon="4.83732">
        <ele>262</ele>
        <time>2018-06-24T09:10:34Z</time>
      </trkpt>
      <trkpt lat="45.94552" lon="4.83739">
        <ele>262</ele>
        <time>2018-06-24T09:10:35Z</time>
      </trkpt>
      <trkpt lat="45.94553" lon="4.83746">
        <ele>262</ele>
        <time>2018-06-24T09:10:36Z</time>
      </trkpt>
      <trkpt lat="45.94554" lon="4.83754">
        <ele>263</ele>
        <time>2018-06-24T09:10:37Z</time>
      </trkpt>
      <trkpt lat="45.94556" lon="4.83761">
        <ele>263</ele>
        <time>2018-06-24T09:10:38Z</time>
      </trkpt>
      <trkpt lat="45.94557" lon="4.83769">
        <ele>263</ele>
        <time>2018-06-24T09:10:39Z</time>
      </trkpt>
      <trkpt lat="45.94558" lon="4.83777">
        <ele>264</ele>
        <time>2018-06-24T09:10:40Z</time>
      </trkpt>
      <trkpt lat="45.94559" lon="4.83785">
        <ele>264</ele>
        <time>2018-06-24T09:10:41Z</time>
      </trkpt>
      <trkpt lat="45.9456" lon="4.83792">
        <ele>264</ele>
        <time>2018-06-24T09:10:42Z</time>
      </trkpt>
      <trkpt lat="45.94561" lon="4.83799">
        <ele>264</ele>
        <time>2018-06-24T09:10:43Z</time>
      </trkpt>
      <trkpt lat="45.94563" lon="4.83811">
        <ele>264</ele>
        <time>2018-06-24T09:10:45Z</time>
      </trkpt>
      <trkpt lat="45.94565" lon="4.83817">
        <ele>264</ele>
        <time>2018-06-24T09:10:46Z</time>
      </trkpt>
      <trkpt lat="45.94566" lon="4.83823">
        <ele>264</ele>
        <time>2018-06-24T09:10:47Z</time>
      </trkpt>
      <trkpt lat="45.94567" lon="4.8383">
        <ele>265</ele>
        <time>2018-06-24T09:10:48Z</time>
      </trkpt>
      <trkpt lat="45.94568" lon="4.83837">
        <ele>266</ele>
        <time>2018-06-24T09:10:49Z</time>
      </trkpt>
      <trkpt lat="45.94568" lon="4.83844">
        <ele>266</ele>
        <time>2018-06-24T09:10:50Z</time>
      </trkpt>
      <trkpt lat="45.94569" lon="4.8385">
        <ele>266</ele>
        <time>2018-06-24T09:10:51Z</time>
      </trkpt>
      <trkpt lat="45.94571" lon="4.83857">
        <ele>266</ele>
        <time>2018-06-24T09:10:52Z</time>
      </trkpt>
      <trkpt lat="45.94572" lon="4.83869">
        <ele>267</ele>
        <time>2018-06-24T09:10:54Z</time>
      </trkpt>
      <trkpt lat="45.94573" lon="4.83875">
        <ele>267</ele>
        <time>2018-06-24T09:10:55Z</time>
      </trkpt>
      <trkpt lat="45.94575" lon="4.83887">
        <ele>267</ele>
        <time>2018-06-24T09:10:57Z</time>
      </trkpt>
      <trkpt lat="45.94576" lon="4.83893">
        <ele>267</ele>
        <time>2018-06-24T09:10:58Z</time>
      </trkpt>
      <trkpt lat="45.94578" lon="4.83904">
        <ele>268</ele>
        <time>2018-06-24T09:11:00Z</time>
      </trkpt>
      <trkpt lat="45.94579" lon="4.8391">
        <ele>268</ele>
        <time>2018-06-24T09:11:01Z</time>
      </trkpt>
      <trkpt lat="45.94581" lon="4.83921">
        <ele>268</ele>
        <time>2018-06-24T09:11:03Z</time>
      </trkpt>
      <trkpt lat="45.94581" lon="4.83926">
        <ele>268</ele>
        <time>2018-06-24T09:11:04Z</time>
      </trkpt>
      <trkpt lat="45.94583" lon="4.83937">
        <ele>269</ele>
        <time>2018-06-24T09:11:06Z</time>
      </trkpt>
      <trkpt lat="45.94584" lon="4.83942">
        <ele>268</ele>
        <time>2018-06-24T09:11:07Z</time>
      </trkpt>
      <trkpt lat="45.94586" lon="4.83953">
        <ele>268</ele>
        <time>2018-06-24T09:11:09Z</time>
      </trkpt>
      <trkpt lat="45.94587" lon="4.83958">
        <ele>268</ele>
        <time>2018-06-24T09:11:10Z</time>
      </trkpt>
      <trkpt lat="45.94588" lon="4.83968">
        <ele>268</ele>
        <time>2018-06-24T09:11:12Z</time>
      </trkpt>
      <trkpt lat="45.94589" lon="4.83974">
        <ele>268</ele>
        <time>2018-06-24T09:11:13Z</time>
      </trkpt>
      <trkpt lat="45.94591" lon="4.83985">
        <ele>269</ele>
        <time>2018-06-24T09:11:15Z</time>
      </trkpt>
      <trkpt lat="45.94591" lon="4.8399">
        <ele>269</ele>
        <time>2018-06-24T09:11:16Z</time>
      </trkpt>
      <trkpt lat="45.94592" lon="4.84001">
        <ele>269</ele>
        <time>2018-06-24T09:11:18Z</time>
      </trkpt>
      <trkpt lat="45.94593" lon="4.84007">
        <ele>269</ele>
        <time>2018-06-24T09:11:19Z</time>
      </trkpt>
      <trkpt lat="45.94595" lon="4.8402">
        <ele>269</ele>
        <time>2018-06-24T09:11:21Z</time>
      </trkpt>
      <trkpt lat="45.94596" lon="4.84026">
        <ele>269</ele>
        <time>2018-06-24T09:11:22Z</time>
      </trkpt>
      <trkpt lat="45.94599" lon="4.84038">
        <ele>269</ele>
        <time>2018-06-24T09:11:24Z</time>
      </trkpt>
      <trkpt lat="45.94599" lon="4.84044">
        <ele>269</ele>
        <time>2018-06-24T09:11:25Z</time>
      </trkpt>
      <trkpt lat="45.94601" lon="4.84056">
        <ele>269</ele>
        <time>2018-06-24T09:11:27Z</time>
      </trkpt>
      <trkpt lat="45.94602" lon="4.84062">
        <ele>269</ele>
        <time>2018-06-24T09:11:28Z</time>
      </trkpt>
      <trkpt lat="45.94604" lon="4.84074">
        <ele>269</ele>
        <time>2018-06-24T09:11:30Z</time>
      </trkpt>
      <trkpt lat="45.94605" lon="4.84079">
        <ele>269</ele>
        <time>2018-06-24T09:11:31Z</time>
      </trkpt>
      <trkpt lat="45.94607" lon="4.84091">
        <ele>269</ele>
        <time>2018-06-24T09:11:33Z</time>
      </trkpt>
      <trkpt lat="45.94608" lon="4.84099">
        <ele>269</ele>
        <time>2018-06-24T09:11:34Z</time>
      </trkpt>
      <trkpt lat="45.94609" lon="4.84105">
        <ele>269</ele>
        <time>2018-06-24T09:11:35Z</time>
      </trkpt>
      <trkpt lat="45.9461" lon="4.84112">
        <ele>269</ele>
        <time>2018-06-24T09:11:36Z</time>
      </trkpt>
      <trkpt lat="45.94611" lon="4.84118">
        <ele>269</ele>
        <time>2018-06-24T09:11:37Z</time>
      </trkpt>
      <trkpt lat="45.94611" lon="4.84125">
        <ele>269</ele>
        <time>2018-06-24T09:11:38Z</time>
      </trkpt>
      <trkpt lat="45.94613" lon="4.84133">
        <ele>269</ele>
        <time>2018-06-24T09:11:39Z</time>
      </trkpt>
      <trkpt lat="45.94615" lon="4.8414">
        <ele>269</ele>
        <time>2018-06-24T09:11:40Z</time>
      </trkpt>
      <trkpt lat="45.94615" lon="4.84148">
        <ele>269</ele>
        <time>2018-06-24T09:11:41Z</time>
      </trkpt>
      <trkpt lat="45.94617" lon="4.84154">
        <ele>269</ele>
        <time>2018-06-24T09:11:42Z</time>
      </trkpt>
      <trkpt lat="45.94618" lon="4.8416">
        <ele>269</ele>
        <time>2018-06-24T09:11:43Z</time>
      </trkpt>
      <trkpt lat="45.9462" lon="4.84166">
        <ele>269</ele>
        <time>2018-06-24T09:11:44Z</time>
      </trkpt>
      <trkpt lat="45.94621" lon="4.84174">
        <ele>269</ele>
        <time>2018-06-24T09:11:45Z</time>
      </trkpt>
      <trkpt lat="45.94622" lon="4.84181">
        <ele>269</ele>
        <time>2018-06-24T09:11:46Z</time>
      </trkpt>
      <trkpt lat="45.94623" lon="4.84189">
        <ele>269</ele>
        <time>2018-06-24T09:11:47Z</time>
      </trkpt>
      <trkpt lat="45.94624" lon="4.84197">
        <ele>269</ele>
        <time>2018-06-24T09:11:48Z</time>
      </trkpt>
      <trkpt lat="45.94625" lon="4.84205">
        <ele>269</ele>
        <time>2018-06-24T09:11:49Z</time>
      </trkpt>
      <trkpt lat="45.94626" lon="4.84212">
        <ele>269</ele>
        <time>2018-06-24T09:11:50Z</time>
      </trkpt>
      <trkpt lat="45.94627" lon="4.84219">
        <ele>269</ele>
        <time>2018-06-24T09:11:51Z</time>
      </trkpt>
      <trkpt lat="45.94628" lon="4.84225">
        <ele>269</ele>
        <time>2018-06-24T09:11:52Z</time>
      </trkpt>
      <trkpt lat="45.94629" lon="4.84231">
        <ele>269</ele>
        <time>2018-06-24T09:11:53Z</time>
      </trkpt>
      <trkpt lat="45.9463" lon="4.84237">
        <ele>269</ele>
        <time>2018-06-24T09:11:54Z</time>
      </trkpt>
      <trkpt lat="45.94631" lon="4.84243">
        <ele>269</ele>
        <time>2018-06-24T09:11:55Z</time>
      </trkpt>
      <trkpt lat="45.94632" lon="4.8425">
        <ele>269</ele>
        <time>2018-06-24T09:11:56Z</time>
      </trkpt>
      <trkpt lat="45.94633" lon="4.84262">
        <ele>269</ele>
        <time>2018-06-24T09:11:58Z</time>
      </trkpt>
      <trkpt lat="45.94634" lon="4.84269">
        <ele>269</ele>
        <time>2018-06-24T09:11:59Z</time>
      </trkpt>
      <trkpt lat="45.94635" lon="4.84275">
        <ele>269</ele>
        <time>2018-06-24T09:12:00Z</time>
      </trkpt>
      <trkpt lat="45.94637" lon="4.84282">
        <ele>269</ele>
        <time>2018-06-24T09:12:01Z</time>
      </trkpt>
      <trkpt lat="45.94638" lon="4.84288">
        <ele>269</ele>
        <time>2018-06-24T09:12:02Z</time>
      </trkpt>
      <trkpt lat="45.94638" lon="4.84295">
        <ele>269</ele>
        <time>2018-06-24T09:12:03Z</time>
      </trkpt>
      <trkpt lat="45.94641" lon="4.84307">
        <ele>269</ele>
        <time>2018-06-24T09:12:05Z</time>
      </trkpt>
      <trkpt lat="45.94641" lon="4.84312">
        <ele>269</ele>
        <time>2018-06-24T09:12:06Z</time>
      </trkpt>
      <trkpt lat="45.94642" lon="4.84319">
        <ele>269</ele>
        <time>2018-06-24T09:12:07Z</time>
      </trkpt>
      <trkpt lat="45.94643" lon="4.84326">
        <ele>268</ele>
        <time>2018-06-24T09:12:08Z</time>
      </trkpt>
      <trkpt lat="45.94644" lon="4.84333">
        <ele>268</ele>
        <time>2018-06-24T09:12:09Z</time>
      </trkpt>
      <trkpt lat="45.94644" lon="4.8434">
        <ele>268</ele>
        <time>2018-06-24T09:12:10Z</time>
      </trkpt>
      <trkpt lat="45.94645" lon="4.84348">
        <ele>268</ele>
        <time>2018-06-24T09:12:11Z</time>
      </trkpt>
      <trkpt lat="45.94646" lon="4.84355">
        <ele>268</ele>
        <time>2018-06-24T09:12:12Z</time>
      </trkpt>
      <trkpt lat="45.94646" lon="4.84362">
        <ele>268</ele>
        <time>2018-06-24T09:12:13Z</time>
      </trkpt>
      <trkpt lat="45.94647" lon="4.84371">
        <ele>268</ele>
        <time>2018-06-24T09:12:14Z</time>
      </trkpt>
      <trkpt lat="45.94648" lon="4.84379">
        <ele>268</ele>
        <time>2018-06-24T09:12:15Z</time>
      </trkpt>
      <trkpt lat="45.9465" lon="4.84386">
        <ele>268</ele>
        <time>2018-06-24T09:12:16Z</time>
      </trkpt>
      <trkpt lat="45.9465" lon="4.84394">
        <ele>268</ele>
        <time>2018-06-24T09:12:17Z</time>
      </trkpt>
      <trkpt lat="45.94651" lon="4.844">
        <ele>268</ele>
        <time>2018-06-24T09:12:18Z</time>
      </trkpt>
      <trkpt lat="45.94652" lon="4.84408">
        <ele>268</ele>
        <time>2018-06-24T09:12:19Z</time>
      </trkpt>
      <trkpt lat="45.94652" lon="4.84415">
        <ele>268</ele>
        <time>2018-06-24T09:12:20Z</time>
      </trkpt>
      <trkpt lat="45.94653" lon="4.84421">
        <ele>268</ele>
        <time>2018-06-24T09:12:21Z</time>
      </trkpt>
      <trkpt lat="45.94654" lon="4.84428">
        <ele>268</ele>
        <time>2018-06-24T09:12:22Z</time>
      </trkpt>
      <trkpt lat="45.94656" lon="4.84439">
        <ele>268</ele>
        <time>2018-06-24T09:12:24Z</time>
      </trkpt>
      <trkpt lat="45.94657" lon="4.84445">
        <ele>268</ele>
        <time>2018-06-24T09:12:25Z</time>
      </trkpt>
      <trkpt lat="45.94657" lon="4.84451">
        <ele>268</ele>
        <time>2018-06-24T09:12:26Z</time>
      </trkpt>
      <trkpt lat="45.94658" lon="4.84458">
        <ele>268</ele>
        <time>2018-06-24T09:12:27Z</time>
      </trkpt>
      <trkpt lat="45.94658" lon="4.84464">
        <ele>268</ele>
        <time>2018-06-24T09:12:28Z</time>
      </trkpt>
      <trkpt lat="45.94659" lon="4.84471">
        <ele>268</ele>
        <time>2018-06-24T09:12:29Z</time>
      </trkpt>
      <trkpt lat="45.94659" lon="4.84478">
        <ele>268</ele>
        <time>2018-06-24T09:12:30Z</time>
      </trkpt>
      <trkpt lat="45.94659" lon="4.84485">
        <ele>268</ele>
        <time>2018-06-24T09:12:31Z</time>
      </trkpt>
      <trkpt lat="45.94659" lon="4.84492">
        <ele>268</ele>
        <time>2018-06-24T09:12:32Z</time>
      </trkpt>
      <trkpt lat="45.9466" lon="4.84498">
        <ele>268</ele>
        <time>2018-06-24T09:12:33Z</time>
      </trkpt>
      <trkpt lat="45.94661" lon="4.84505">
        <ele>268</ele>
        <time>2018-06-24T09:12:34Z</time>
      </trkpt>
      <trkpt lat="45.94662" lon="4.84511">
        <ele>268</ele>
        <time>2018-06-24T09:12:35Z</time>
      </trkpt>
      <trkpt lat="45.94663" lon="4.84518">
        <ele>268</ele>
        <time>2018-06-24T09:12:36Z</time>
      </trkpt>
      <trkpt lat="45.94663" lon="4.84525">
        <ele>268</ele>
        <time>2018-06-24T09:12:37Z</time>
      </trkpt>
      <trkpt lat="45.94666" lon="4.84534">
        <ele>268</ele>
        <time>2018-06-24T09:12:38Z</time>
      </trkpt>
      <trkpt lat="45.94666" lon="4.84541">
        <ele>268</ele>
        <time>2018-06-24T09:12:39Z</time>
      </trkpt>
      <trkpt lat="45.94667" lon="4.84549">
        <ele>268</ele>
        <time>2018-06-24T09:12:40Z</time>
      </trkpt>
      <trkpt lat="45.94667" lon="4.84558">
        <ele>268</ele>
        <time>2018-06-24T09:12:41Z</time>
      </trkpt>
      <trkpt lat="45.94668" lon="4.84566">
        <ele>268</ele>
        <time>2018-06-24T09:12:42Z</time>
      </trkpt>
      <trkpt lat="45.94667" lon="4.84572">
        <ele>268</ele>
        <time>2018-06-24T09:12:43Z</time>
      </trkpt>
      <trkpt lat="45.94667" lon="4.84579">
        <ele>268</ele>
        <time>2018-06-24T09:12:44Z</time>
      </trkpt>
      <trkpt lat="45.94667" lon="4.84586">
        <ele>268</ele>
        <time>2018-06-24T09:12:45Z</time>
      </trkpt>
      <trkpt lat="45.94668" lon="4.84596">
        <ele>268</ele>
        <time>2018-06-24T09:12:46Z</time>
      </trkpt>
      <trkpt lat="45.9467" lon="4.84602">
        <ele>268</ele>
        <time>2018-06-24T09:12:47Z</time>
      </trkpt>
      <trkpt lat="45.9467" lon="4.84609">
        <ele>268</ele>
        <time>2018-06-24T09:12:48Z</time>
      </trkpt>
      <trkpt lat="45.94669" lon="4.84616">
        <ele>268</ele>
        <time>2018-06-24T09:12:49Z</time>
      </trkpt>
      <trkpt lat="45.9467" lon="4.84622">
        <ele>268</ele>
        <time>2018-06-24T09:12:50Z</time>
      </trkpt>
      <trkpt lat="45.94671" lon="4.84629">
        <ele>268</ele>
        <time>2018-06-24T09:12:51Z</time>
      </trkpt>
      <trkpt lat="45.94671" lon="4.84636">
        <ele>268</ele>
        <time>2018-06-24T09:12:52Z</time>
      </trkpt>
      <trkpt lat="45.94672" lon="4.84643">
        <ele>268</ele>
        <time>2018-06-24T09:12:53Z</time>
      </trkpt>
      <trkpt lat="45.94672" lon="4.84651">
        <ele>268</ele>
        <time>2018-06-24T09:12:54Z</time>
      </trkpt>
      <trkpt lat="45.94668" lon="4.84657">
        <ele>268</ele>
        <time>2018-06-24T09:12:55Z</time>
      </trkpt>
      <trkpt lat="45.94669" lon="4.84664">
        <ele>269</ele>
        <time>2018-06-24T09:12:56Z</time>
      </trkpt>
      <trkpt lat="45.9467" lon="4.84671">
        <ele>269</ele>
        <time>2018-06-24T09:12:57Z</time>
      </trkpt>
      <trkpt lat="45.94671" lon="4.84678">
        <ele>269</ele>
        <time>2018-06-24T09:12:58Z</time>
      </trkpt>
      <trkpt lat="45.94671" lon="4.84684">
        <ele>269</ele>
        <time>2018-06-24T09:12:59Z</time>
      </trkpt>
      <trkpt lat="45.94672" lon="4.84691">
        <ele>269</ele>
        <time>2018-06-24T09:13:00Z</time>
      </trkpt>
      <trkpt lat="45.94672" lon="4.84698">
        <ele>269</ele>
        <time>2018-06-24T09:13:01Z</time>
      </trkpt>
      <trkpt lat="45.94672" lon="4.84706">
        <ele>269</ele>
        <time>2018-06-24T09:13:02Z</time>
      </trkpt>
      <trkpt lat="45.94672" lon="4.84713">
        <ele>269</ele>
        <time>2018-06-24T09:13:03Z</time>
      </trkpt>
      <trkpt lat="45.94672" lon="4.8472">
        <ele>269</ele>
        <time>2018-06-24T09:13:04Z</time>
      </trkpt>
      <trkpt lat="45.94673" lon="4.84727">
        <ele>269</ele>
        <time>2018-06-24T09:13:05Z</time>
      </trkpt>
      <trkpt lat="45.94673" lon="4.84734">
        <ele>269</ele>
        <time>2018-06-24T09:13:06Z</time>
      </trkpt>
      <trkpt lat="45.94672" lon="4.84741">
        <ele>269</ele>
        <time>2018-06-24T09:13:07Z</time>
      </trkpt>
      <trkpt lat="45.94672" lon="4.84748">
        <ele>269</ele>
        <time>2018-06-24T09:13:08Z</time>
      </trkpt>
      <trkpt lat="45.94674" lon="4.84756">
        <ele>269</ele>
        <time>2018-06-24T09:13:09Z</time>
      </trkpt>
      <trkpt lat="45.94673" lon="4.84763">
        <ele>269</ele>
        <time>2018-06-24T09:13:10Z</time>
      </trkpt>
      <trkpt lat="45.94674" lon="4.8477">
        <ele>269</ele>
        <time>2018-06-24T09:13:11Z</time>
      </trkpt>
      <trkpt lat="45.94675" lon="4.84782">
        <ele>269</ele>
        <time>2018-06-24T09:13:13Z</time>
      </trkpt>
      <trkpt lat="45.94675" lon="4.84787">
        <ele>269</ele>
        <time>2018-06-24T09:13:14Z</time>
      </trkpt>
      <trkpt lat="45.94676" lon="4.84793">
        <ele>268</ele>
        <time>2018-06-24T09:13:15Z</time>
      </trkpt>
      <trkpt lat="45.94676" lon="4.848">
        <ele>268</ele>
        <time>2018-06-24T09:13:16Z</time>
      </trkpt>
      <trkpt lat="45.94677" lon="4.84807">
        <ele>268</ele>
        <time>2018-06-24T09:13:17Z</time>
      </trkpt>
      <trkpt lat="45.94678" lon="4.84814">
        <ele>268</ele>
        <time>2018-06-24T09:13:18Z</time>
      </trkpt>
      <trkpt lat="45.94679" lon="4.84821">
        <ele>268</ele>
        <time>2018-06-24T09:13:19Z</time>
      </trkpt>
      <trkpt lat="45.94679" lon="4.84828">
        <ele>268</ele>
        <time>2018-06-24T09:13:20Z</time>
      </trkpt>
      <trkpt lat="45.94679" lon="4.84835">
        <ele>268</ele>
        <time>2018-06-24T09:13:21Z</time>
      </trkpt>
      <trkpt lat="45.94681" lon="4.84841">
        <ele>268</ele>
        <time>2018-06-24T09:13:22Z</time>
      </trkpt>
      <trkpt lat="45.94681" lon="4.84848">
        <ele>268</ele>
        <time>2018-06-24T09:13:23Z</time>
      </trkpt>
      <trkpt lat="45.94682" lon="4.84856">
        <ele>268</ele>
        <time>2018-06-24T09:13:24Z</time>
      </trkpt>
      <trkpt lat="45.94683" lon="4.84863">
        <ele>268</ele>
        <time>2018-06-24T09:13:25Z</time>
      </trkpt>
      <trkpt lat="45.94683" lon="4.8487">
        <ele>268</ele>
        <time>2018-06-24T09:13:26Z</time>
      </trkpt>
      <trkpt lat="45.94686" lon="4.84879">
        <ele>268</ele>
        <time>2018-06-24T09:13:27Z</time>
      </trkpt>
      <trkpt lat="45.94686" lon="4.84886">
        <ele>268</ele>
        <time>2018-06-24T09:13:28Z</time>
      </trkpt>
      <trkpt lat="45.94686" lon="4.84895">
        <ele>268</ele>
        <time>2018-06-24T09:13:29Z</time>
      </trkpt>
      <trkpt lat="45.94687" lon="4.84903">
        <ele>269</ele>
        <time>2018-06-24T09:13:30Z</time>
      </trkpt>
      <trkpt lat="45.94688" lon="4.84911">
        <ele>269</ele>
        <time>2018-06-24T09:13:31Z</time>
      </trkpt>
      <trkpt lat="45.94689" lon="4.84918">
        <ele>269</ele>
        <time>2018-06-24T09:13:32Z</time>
      </trkpt>
      <trkpt lat="45.9469" lon="4.84926">
        <ele>269</ele>
        <time>2018-06-24T09:13:33Z</time>
      </trkpt>
      <trkpt lat="45.94691" lon="4.84936">
        <ele>269</ele>
        <time>2018-06-24T09:13:34Z</time>
      </trkpt>
      <trkpt lat="45.94692" lon="4.84942">
        <ele>269</ele>
        <time>2018-06-24T09:13:35Z</time>
      </trkpt>
      <trkpt lat="45.94693" lon="4.8495">
        <ele>269</ele>
        <time>2018-06-24T09:13:36Z</time>
      </trkpt>
      <trkpt lat="45.94694" lon="4.84957">
        <ele>269</ele>
        <time>2018-06-24T09:13:37Z</time>
      </trkpt>
      <trkpt lat="45.94695" lon="4.84964">
        <ele>269</ele>
        <time>2018-06-24T09:13:38Z</time>
      </trkpt>
      <trkpt lat="45.94696" lon="4.8497">
        <ele>269</ele>
        <time>2018-06-24T09:13:39Z</time>
      </trkpt>
      <trkpt lat="45.94697" lon="4.84977">
        <ele>269</ele>
        <time>2018-06-24T09:13:40Z</time>
      </trkpt>
      <trkpt lat="45.94698" lon="4.84984">
        <ele>269</ele>
        <time>2018-06-24T09:13:41Z</time>
      </trkpt>
      <trkpt lat="45.94699" lon="4.84991">
        <ele>269</ele>
        <time>2018-06-24T09:13:42Z</time>
      </trkpt>
      <trkpt lat="45.947" lon="4.85002">
        <ele>269</ele>
        <time>2018-06-24T09:13:44Z</time>
      </trkpt>
      <trkpt lat="45.94701" lon="4.85009">
        <ele>269</ele>
        <time>2018-06-24T09:13:45Z</time>
      </trkpt>
      <trkpt lat="45.94702" lon="4.85016">
        <ele>269</ele>
        <time>2018-06-24T09:13:46Z</time>
      </trkpt>
      <trkpt lat="45.94701" lon="4.85023">
        <ele>269</ele>
        <time>2018-06-24T09:13:47Z</time>
      </trkpt>
      <trkpt lat="45.94701" lon="4.8503">
        <ele>269</ele>
        <time>2018-06-24T09:13:48Z</time>
      </trkpt>
      <trkpt lat="45.94701" lon="4.85035">
        <ele>269</ele>
        <time>2018-06-24T09:13:49Z</time>
      </trkpt>
      <trkpt lat="45.94702" lon="4.85043">
        <ele>269</ele>
        <time>2018-06-24T09:13:50Z</time>
      </trkpt>
      <trkpt lat="45.94703" lon="4.85051">
        <ele>269</ele>
        <time>2018-06-24T09:13:51Z</time>
      </trkpt>
      <trkpt lat="45.94704" lon="4.85059">
        <ele>269</ele>
        <time>2018-06-24T09:13:52Z</time>
      </trkpt>
      <trkpt lat="45.94705" lon="4.85065">
        <ele>269</ele>
        <time>2018-06-24T09:13:53Z</time>
      </trkpt>
      <trkpt lat="45.94705" lon="4.85072">
        <ele>269</ele>
        <time>2018-06-24T09:13:54Z</time>
      </trkpt>
      <trkpt lat="45.94706" lon="4.8508">
        <ele>269</ele>
        <time>2018-06-24T09:13:55Z</time>
      </trkpt>
      <trkpt lat="45.94708" lon="4.85087">
        <ele>269</ele>
        <time>2018-06-24T09:13:56Z</time>
      </trkpt>
      <trkpt lat="45.94708" lon="4.85093">
        <ele>269</ele>
        <time>2018-06-24T09:13:57Z</time>
      </trkpt>
      <trkpt lat="45.94709" lon="4.85102">
        <ele>269</ele>
        <time>2018-06-24T09:13:58Z</time>
      </trkpt>
      <trkpt lat="45.9471" lon="4.8511">
        <ele>269</ele>
        <time>2018-06-24T09:13:59Z</time>
      </trkpt>
      <trkpt lat="45.9471" lon="4.85117">
        <ele>269</ele>
        <time>2018-06-24T09:14:00Z</time>
      </trkpt>
      <trkpt lat="45.94711" lon="4.85126">
        <ele>269</ele>
        <time>2018-06-24T09:14:01Z</time>
      </trkpt>
      <trkpt lat="45.94713" lon="4.85134">
        <ele>269</ele>
        <time>2018-06-24T09:14:02Z</time>
      </trkpt>
      <trkpt lat="45.94713" lon="4.85142">
        <ele>269</ele>
        <time>2018-06-24T09:14:03Z</time>
      </trkpt>
      <trkpt lat="45.94715" lon="4.85154">
        <ele>269</ele>
        <time>2018-06-24T09:14:05Z</time>
      </trkpt>
      <trkpt lat="45.94716" lon="4.85161">
        <ele>269</ele>
        <time>2018-06-24T09:14:06Z</time>
      </trkpt>
      <trkpt lat="45.94717" lon="4.85168">
        <ele>269</ele>
        <time>2018-06-24T09:14:07Z</time>
      </trkpt>
      <trkpt lat="45.94717" lon="4.85175">
        <ele>269</ele>
        <time>2018-06-24T09:14:08Z</time>
      </trkpt>
      <trkpt lat="45.94718" lon="4.85181">
        <ele>269</ele>
        <time>2018-06-24T09:14:09Z</time>
      </trkpt>
      <trkpt lat="45.94718" lon="4.85188">
        <ele>269</ele>
        <time>2018-06-24T09:14:10Z</time>
      </trkpt>
      <trkpt lat="45.94719" lon="4.85195">
        <ele>269</ele>
        <time>2018-06-24T09:14:11Z</time>
      </trkpt>
      <trkpt lat="45.9472" lon="4.85203">
        <ele>269</ele>
        <time>2018-06-24T09:14:12Z</time>
      </trkpt>
      <trkpt lat="45.9472" lon="4.8521">
        <ele>269</ele>
        <time>2018-06-24T09:14:13Z</time>
      </trkpt>
      <trkpt lat="45.9472" lon="4.85217">
        <ele>269</ele>
        <time>2018-06-24T09:14:14Z</time>
      </trkpt>
      <trkpt lat="45.94721" lon="4.85225">
        <ele>269</ele>
        <time>2018-06-24T09:14:15Z</time>
      </trkpt>
      <trkpt lat="45.94723" lon="4.85231">
        <ele>269</ele>
        <time>2018-06-24T09:14:16Z</time>
      </trkpt>
      <trkpt lat="45.94723" lon="4.85238">
        <ele>269</ele>
        <time>2018-06-24T09:14:17Z</time>
      </trkpt>
      <trkpt lat="45.94724" lon="4.85245">
        <ele>269</ele>
        <time>2018-06-24T09:14:18Z</time>
      </trkpt>
      <trkpt lat="45.94724" lon="4.85252">
        <ele>269</ele>
        <time>2018-06-24T09:14:19Z</time>
      </trkpt>
      <trkpt lat="45.94726" lon="4.85259">
        <ele>269</ele>
        <time>2018-06-24T09:14:20Z</time>
      </trkpt>
      <trkpt lat="45.94727" lon="4.85267">
        <ele>269</ele>
        <time>2018-06-24T09:14:21Z</time>
      </trkpt>
      <trkpt lat="45.94728" lon="4.85274">
        <ele>269</ele>
        <time>2018-06-24T09:14:22Z</time>
      </trkpt>
      <trkpt lat="45.94728" lon="4.85286">
        <ele>269</ele>
        <time>2018-06-24T09:14:24Z</time>
      </trkpt>
      <trkpt lat="45.94729" lon="4.85293">
        <ele>270</ele>
        <time>2018-06-24T09:14:25Z</time>
      </trkpt>
      <trkpt lat="45.94729" lon="4.85299">
        <ele>270</ele>
        <time>2018-06-24T09:14:26Z</time>
      </trkpt>
      <trkpt lat="45.94731" lon="4.85306">
        <ele>270</ele>
        <time>2018-06-24T09:14:27Z</time>
      </trkpt>
      <trkpt lat="45.94731" lon="4.85313">
        <ele>270</ele>
        <time>2018-06-24T09:14:28Z</time>
      </trkpt>
      <trkpt lat="45.94732" lon="4.8532">
        <ele>270</ele>
        <time>2018-06-24T09:14:29Z</time>
      </trkpt>
      <trkpt lat="45.94734" lon="4.85327">
        <ele>270</ele>
        <time>2018-06-24T09:14:30Z</time>
      </trkpt>
      <trkpt lat="45.94735" lon="4.85334">
        <ele>271</ele>
        <time>2018-06-24T09:14:31Z</time>
      </trkpt>
      <trkpt lat="45.94735" lon="4.85341">
        <ele>271</ele>
        <time>2018-06-24T09:14:32Z</time>
      </trkpt>
      <trkpt lat="45.94736" lon="4.85348">
        <ele>271</ele>
        <time>2018-06-24T09:14:33Z</time>
      </trkpt>
      <trkpt lat="45.94737" lon="4.85354">
        <ele>271</ele>
        <time>2018-06-24T09:14:34Z</time>
      </trkpt>
      <trkpt lat="45.94738" lon="4.85361">
        <ele>271</ele>
        <time>2018-06-24T09:14:35Z</time>
      </trkpt>
      <trkpt lat="45.94738" lon="4.85368">
        <ele>271</ele>
        <time>2018-06-24T09:14:36Z</time>
      </trkpt>
      <trkpt lat="45.94739" lon="4.85375">
        <ele>271</ele>
        <time>2018-06-24T09:14:37Z</time>
      </trkpt>
      <trkpt lat="45.94739" lon="4.85382">
        <ele>272</ele>
        <time>2018-06-24T09:14:38Z</time>
      </trkpt>
      <trkpt lat="45.9474" lon="4.8539">
        <ele>272</ele>
        <time>2018-06-24T09:14:39Z</time>
      </trkpt>
      <trkpt lat="45.94741" lon="4.85396">
        <ele>272</ele>
        <time>2018-06-24T09:14:40Z</time>
      </trkpt>
      <trkpt lat="45.94741" lon="4.85405">
        <ele>272</ele>
        <time>2018-06-24T09:14:41Z</time>
      </trkpt>
      <trkpt lat="45.94743" lon="4.85417">
        <ele>273</ele>
        <time>2018-06-24T09:14:43Z</time>
      </trkpt>
      <trkpt lat="45.94744" lon="4.85422">
        <ele>273</ele>
        <time>2018-06-24T09:14:44Z</time>
      </trkpt>
      <trkpt lat="45.94745" lon="4.85434">
        <ele>273</ele>
        <time>2018-06-24T09:14:46Z</time>
      </trkpt>
      <trkpt lat="45.94746" lon="4.8544">
        <ele>274</ele>
        <time>2018-06-24T09:14:47Z</time>
      </trkpt>
      <trkpt lat="45.94747" lon="4.85451">
        <ele>274</ele>
        <time>2018-06-24T09:14:49Z</time>
      </trkpt>
      <trkpt lat="45.94748" lon="4.85456">
        <ele>274</ele>
        <time>2018-06-24T09:14:50Z</time>
      </trkpt>
      <trkpt lat="45.94749" lon="4.85467">
        <ele>274</ele>
        <time>2018-06-24T09:14:52Z</time>
      </trkpt>
      <trkpt lat="45.9475" lon="4.85472">
        <ele>274</ele>
        <time>2018-06-24T09:14:53Z</time>
      </trkpt>
      <trkpt lat="45.94751" lon="4.85482">
        <ele>275</ele>
        <time>2018-06-24T09:14:56Z</time>
      </trkpt>
      <trkpt lat="45.94751" lon="4.85485">
        <ele>276</ele>
        <time>2018-06-24T09:14:57Z</time>
      </trkpt>
      <trkpt lat="45.94752" lon="4.85494">
        <ele>276</ele>
        <time>2018-06-24T09:14:59Z</time>
      </trkpt>
      <trkpt lat="45.94753" lon="4.85498">
        <ele>276</ele>
        <time>2018-06-24T09:15:00Z</time>
      </trkpt>
      <trkpt lat="45.94754" lon="4.85507">
        <ele>277</ele>
        <time>2018-06-24T09:15:02Z</time>
      </trkpt>
      <trkpt lat="45.94755" lon="4.85511">
        <ele>277</ele>
        <time>2018-06-24T09:15:03Z</time>
      </trkpt>
      <trkpt lat="45.94756" lon="4.8552">
        <ele>277</ele>
        <time>2018-06-24T09:15:05Z</time>
      </trkpt>
      <trkpt lat="45.94756" lon="4.85524">
        <ele>277</ele>
        <time>2018-06-24T09:15:06Z</time>
      </trkpt>
      <trkpt lat="45.94758" lon="4.85537">
        <ele>278</ele>
        <time>2018-06-24T09:15:09Z</time>
      </trkpt>
      <trkpt lat="45.94759" lon="4.85541">
        <ele>278</ele>
        <time>2018-06-24T09:15:10Z</time>
      </trkpt>
      <trkpt lat="45.9476" lon="4.85549">
        <ele>278</ele>
        <time>2018-06-24T09:15:12Z</time>
      </trkpt>
      <trkpt lat="45.94761" lon="4.85553">
        <ele>278</ele>
        <time>2018-06-24T09:15:13Z</time>
      </trkpt>
      <trkpt lat="45.94763" lon="4.85565">
        <ele>279</ele>
        <time>2018-06-24T09:15:16Z</time>
      </trkpt>
      <trkpt lat="45.94764" lon="4.85569">
        <ele>279</ele>
        <time>2018-06-24T09:15:17Z</time>
      </trkpt>
      <trkpt lat="45.94765" lon="4.85578">
        <ele>279</ele>
        <time>2018-06-24T09:15:19Z</time>
      </trkpt>
      <trkpt lat="45.94767" lon="4.85582">
        <ele>279</ele>
        <time>2018-06-24T09:15:20Z</time>
      </trkpt>
      <trkpt lat="45.94769" lon="4.85592">
        <ele>280</ele>
        <time>2018-06-24T09:15:22Z</time>
      </trkpt>
      <trkpt lat="45.9477" lon="4.85596">
        <ele>280</ele>
        <time>2018-06-24T09:15:23Z</time>
      </trkpt>
      <trkpt lat="45.94771" lon="4.85606">
        <ele>280</ele>
        <time>2018-06-24T09:15:25Z</time>
      </trkpt>
      <trkpt lat="45.94773" lon="4.85611">
        <ele>280</ele>
        <time>2018-06-24T09:15:26Z</time>
      </trkpt>
      <trkpt lat="45.94775" lon="4.85623">
        <ele>280</ele>
        <time>2018-06-24T09:15:27Z</time>
      </trkpt>
      <trkpt lat="45.94776" lon="4.85626">
        <ele>280</ele>
        <time>2018-06-24T09:15:28Z</time>
      </trkpt>
      <trkpt lat="45.94779" lon="4.85637">
        <ele>281</ele>
        <time>2018-06-24T09:15:31Z</time>
      </trkpt>
      <trkpt lat="45.9478" lon="4.85641">
        <ele>281</ele>
        <time>2018-06-24T09:15:32Z</time>
      </trkpt>
      <trkpt lat="45.94781" lon="4.85646">
        <ele>281</ele>
        <time>2018-06-24T09:15:33Z</time>
      </trkpt>
      <trkpt lat="45.94783" lon="4.85657">
        <ele>281</ele>
        <time>2018-06-24T09:15:34Z</time>
      </trkpt>
      <trkpt lat="45.94785" lon="4.85665">
        <ele>281</ele>
        <time>2018-06-24T09:15:36Z</time>
      </trkpt>
      <trkpt lat="45.94787" lon="4.85673">
        <ele>280</ele>
        <time>2018-06-24T09:15:37Z</time>
      </trkpt>
      <trkpt lat="45.9479" lon="4.85683">
        <ele>280</ele>
        <time>2018-06-24T09:15:39Z</time>
      </trkpt>
      <trkpt lat="45.94791" lon="4.85689">
        <ele>280</ele>
        <time>2018-06-24T09:15:40Z</time>
      </trkpt>
      <trkpt lat="45.94794" lon="4.85701">
        <ele>280</ele>
        <time>2018-06-24T09:15:42Z</time>
      </trkpt>
      <trkpt lat="45.94795" lon="4.85707">
        <ele>280</ele>
        <time>2018-06-24T09:15:43Z</time>
      </trkpt>
      <trkpt lat="45.94797" lon="4.85713">
        <ele>280</ele>
        <time>2018-06-24T09:15:44Z</time>
      </trkpt>
      <trkpt lat="45.94799" lon="4.85719">
        <ele>280</ele>
        <time>2018-06-24T09:15:45Z</time>
      </trkpt>
      <trkpt lat="45.94801" lon="4.85725">
        <ele>280</ele>
        <time>2018-06-24T09:15:46Z</time>
      </trkpt>
      <trkpt lat="45.94802" lon="4.85731">
        <ele>280</ele>
        <time>2018-06-24T09:15:47Z</time>
      </trkpt>
      <trkpt lat="45.94804" lon="4.85738">
        <ele>279</ele>
        <time>2018-06-24T09:15:48Z</time>
      </trkpt>
      <trkpt lat="45.94806" lon="4.85743">
        <ele>279</ele>
        <time>2018-06-24T09:15:49Z</time>
      </trkpt>
      <trkpt lat="45.94808" lon="4.8575">
        <ele>278</ele>
        <time>2018-06-24T09:15:50Z</time>
      </trkpt>
      <trkpt lat="45.9481" lon="4.85756">
        <ele>278</ele>
        <time>2018-06-24T09:15:51Z</time>
      </trkpt>
      <trkpt lat="45.94812" lon="4.85763">
        <ele>278</ele>
        <time>2018-06-24T09:15:52Z</time>
      </trkpt>
      <trkpt lat="45.94814" lon="4.8577">
        <ele>278</ele>
        <time>2018-06-24T09:15:53Z</time>
      </trkpt>
      <trkpt lat="45.94816" lon="4.85777">
        <ele>278</ele>
        <time>2018-06-24T09:15:54Z</time>
      </trkpt>
      <trkpt lat="45.94817" lon="4.85785">
        <ele>278</ele>
        <time>2018-06-24T09:15:55Z</time>
      </trkpt>
      <trkpt lat="45.94818" lon="4.8579">
        <ele>278</ele>
        <time>2018-06-24T09:15:56Z</time>
      </trkpt>
      <trkpt lat="45.94819" lon="4.85797">
        <ele>278</ele>
        <time>2018-06-24T09:15:57Z</time>
      </trkpt>
      <trkpt lat="45.94822" lon="4.85806">
        <ele>278</ele>
        <time>2018-06-24T09:15:58Z</time>
      </trkpt>
      <trkpt lat="45.94824" lon="4.85813">
        <ele>278</ele>
        <time>2018-06-24T09:15:59Z</time>
      </trkpt>
      <trkpt lat="45.94826" lon="4.85819">
        <ele>278</ele>
        <time>2018-06-24T09:16:00Z</time>
      </trkpt>
      <trkpt lat="45.94827" lon="4.85825">
        <ele>277</ele>
        <time>2018-06-24T09:16:01Z</time>
      </trkpt>
      <trkpt lat="45.9483" lon="4.85831">
        <ele>277</ele>
        <time>2018-06-24T09:16:02Z</time>
      </trkpt>
      <trkpt lat="45.94831" lon="4.85837">
        <ele>277</ele>
        <time>2018-06-24T09:16:03Z</time>
      </trkpt>
      <trkpt lat="45.94832" lon="4.85843">
        <ele>277</ele>
        <time>2018-06-24T09:16:04Z</time>
      </trkpt>
      <trkpt lat="45.94834" lon="4.8585">
        <ele>276</ele>
        <time>2018-06-24T09:16:05Z</time>
      </trkpt>
      <trkpt lat="45.94836" lon="4.85856">
        <ele>276</ele>
        <time>2018-06-24T09:16:06Z</time>
      </trkpt>
      <trkpt lat="45.94837" lon="4.85863">
        <ele>276</ele>
        <time>2018-06-24T09:16:07Z</time>
      </trkpt>
      <trkpt lat="45.94839" lon="4.85869">
        <ele>276</ele>
        <time>2018-06-24T09:16:08Z</time>
      </trkpt>
      <trkpt lat="45.94841" lon="4.85874">
        <ele>276</ele>
        <time>2018-06-24T09:16:09Z</time>
      </trkpt>
      <trkpt lat="45.94844" lon="4.8588">
        <ele>276</ele>
        <time>2018-06-24T09:16:10Z</time>
      </trkpt>
      <trkpt lat="45.94846" lon="4.85887">
        <ele>276</ele>
        <time>2018-06-24T09:16:11Z</time>
      </trkpt>
      <trkpt lat="45.94848" lon="4.85895">
        <ele>276</ele>
        <time>2018-06-24T09:16:12Z</time>
      </trkpt>
      <trkpt lat="45.9485" lon="4.85902">
        <ele>276</ele>
        <time>2018-06-24T09:16:13Z</time>
      </trkpt>
      <trkpt lat="45.94852" lon="4.8591">
        <ele>276</ele>
        <time>2018-06-24T09:16:14Z</time>
      </trkpt>
      <trkpt lat="45.94854" lon="4.85919">
        <ele>275</ele>
        <time>2018-06-24T09:16:15Z</time>
      </trkpt>
      <trkpt lat="45.94856" lon="4.85927">
        <ele>275</ele>
        <time>2018-06-24T09:16:16Z</time>
      </trkpt>
      <trkpt lat="45.94858" lon="4.85935">
        <ele>275</ele>
        <time>2018-06-24T09:16:17Z</time>
      </trkpt>
      <trkpt lat="45.9486" lon="4.85943">
        <ele>275</ele>
        <time>2018-06-24T09:16:18Z</time>
      </trkpt>
      <trkpt lat="45.94861" lon="4.85951">
        <ele>275</ele>
        <time>2018-06-24T09:16:19Z</time>
      </trkpt>
      <trkpt lat="45.94863" lon="4.85959">
        <ele>275</ele>
        <time>2018-06-24T09:16:20Z</time>
      </trkpt>
      <trkpt lat="45.94864" lon="4.85967">
        <ele>275</ele>
        <time>2018-06-24T09:16:21Z</time>
      </trkpt>
      <trkpt lat="45.94867" lon="4.85973">
        <ele>275</ele>
        <time>2018-06-24T09:16:22Z</time>
      </trkpt>
      <trkpt lat="45.94869" lon="4.8598">
        <ele>275</ele>
        <time>2018-06-24T09:16:23Z</time>
      </trkpt>
      <trkpt lat="45.94871" lon="4.85987">
        <ele>275</ele>
        <time>2018-06-24T09:16:24Z</time>
      </trkpt>
      <trkpt lat="45.94872" lon="4.85994">
        <ele>275</ele>
        <time>2018-06-24T09:16:25Z</time>
      </trkpt>
      <trkpt lat="45.94873" lon="4.86001">
        <ele>274</ele>
        <time>2018-06-24T09:16:26Z</time>
      </trkpt>
      <trkpt lat="45.94876" lon="4.86008">
        <ele>274</ele>
        <time>2018-06-24T09:16:27Z</time>
      </trkpt>
      <trkpt lat="45.94877" lon="4.86014">
        <ele>274</ele>
        <time>2018-06-24T09:16:28Z</time>
      </trkpt>
      <trkpt lat="45.9488" lon="4.86022">
        <ele>274</ele>
        <time>2018-06-24T09:16:29Z</time>
      </trkpt>
      <trkpt lat="45.94882" lon="4.8603">
        <ele>274</ele>
        <time>2018-06-24T09:16:30Z</time>
      </trkpt>
      <trkpt lat="45.94885" lon="4.86038">
        <ele>274</ele>
        <time>2018-06-24T09:16:31Z</time>
      </trkpt>
      <trkpt lat="45.94887" lon="4.86047">
        <ele>274</ele>
        <time>2018-06-24T09:16:32Z</time>
      </trkpt>
      <trkpt lat="45.94889" lon="4.86055">
        <ele>274</ele>
        <time>2018-06-24T09:16:33Z</time>
      </trkpt>
      <trkpt lat="45.94892" lon="4.86064">
        <ele>274</ele>
        <time>2018-06-24T09:16:34Z</time>
      </trkpt>
      <trkpt lat="45.94895" lon="4.86072">
        <ele>274</ele>
        <time>2018-06-24T09:16:35Z</time>
      </trkpt>
      <trkpt lat="45.94897" lon="4.8608">
        <ele>274</ele>
        <time>2018-06-24T09:16:36Z</time>
      </trkpt>
      <trkpt lat="45.94899" lon="4.86087">
        <ele>274</ele>
        <time>2018-06-24T09:16:37Z</time>
      </trkpt>
      <trkpt lat="45.94901" lon="4.86096">
        <ele>274</ele>
        <time>2018-06-24T09:16:38Z</time>
      </trkpt>
      <trkpt lat="45.94904" lon="4.86103">
        <ele>274</ele>
        <time>2018-06-24T09:16:39Z</time>
      </trkpt>
      <trkpt lat="45.94907" lon="4.8611">
        <ele>274</ele>
        <time>2018-06-24T09:16:40Z</time>
      </trkpt>
      <trkpt lat="45.94912" lon="4.86117">
        <ele>274</ele>
        <time>2018-06-24T09:16:41Z</time>
      </trkpt>
      <trkpt lat="45.94915" lon="4.86124">
        <ele>274</ele>
        <time>2018-06-24T09:16:42Z</time>
      </trkpt>
      <trkpt lat="45.94918" lon="4.86131">
        <ele>273</ele>
        <time>2018-06-24T09:16:43Z</time>
      </trkpt>
      <trkpt lat="45.94921" lon="4.86137">
        <ele>273</ele>
        <time>2018-06-24T09:16:44Z</time>
      </trkpt>
      <trkpt lat="45.94925" lon="4.86142">
        <ele>273</ele>
        <time>2018-06-24T09:16:45Z</time>
      </trkpt>
      <trkpt lat="45.94929" lon="4.86148">
        <ele>273</ele>
        <time>2018-06-24T09:16:46Z</time>
      </trkpt>
      <trkpt lat="45.94933" lon="4.86154">
        <ele>273</ele>
        <time>2018-06-24T09:16:47Z</time>
      </trkpt>
      <trkpt lat="45.94938" lon="4.86159">
        <ele>273</ele>
        <time>2018-06-24T09:16:48Z</time>
      </trkpt>
      <trkpt lat="45.94942" lon="4.86164">
        <ele>273</ele>
        <time>2018-06-24T09:16:49Z</time>
      </trkpt>
      <trkpt lat="45.94948" lon="4.86171">
        <ele>273</ele>
        <time>2018-06-24T09:16:50Z</time>
      </trkpt>
      <trkpt lat="45.94952" lon="4.86177">
        <ele>273</ele>
        <time>2018-06-24T09:16:51Z</time>
      </trkpt>
      <trkpt lat="45.94957" lon="4.86182">
        <ele>273</ele>
        <time>2018-06-24T09:16:52Z</time>
      </trkpt>
      <trkpt lat="45.94962" lon="4.86188">
        <ele>272</ele>
        <time>2018-06-24T09:16:53Z</time>
      </trkpt>
      <trkpt lat="45.94966" lon="4.86194">
        <ele>272</ele>
        <time>2018-06-24T09:16:54Z</time>
      </trkpt>
      <trkpt lat="45.9497" lon="4.862">
        <ele>272</ele>
        <time>2018-06-24T09:16:55Z</time>
      </trkpt>
      <trkpt lat="45.94974" lon="4.86205">
        <ele>272</ele>
        <time>2018-06-24T09:16:56Z</time>
      </trkpt>
      <trkpt lat="45.94979" lon="4.86211">
        <ele>272</ele>
        <time>2018-06-24T09:16:57Z</time>
      </trkpt>
      <trkpt lat="45.94982" lon="4.86216">
        <ele>272</ele>
        <time>2018-06-24T09:16:58Z</time>
      </trkpt>
      <trkpt lat="45.94986" lon="4.86223">
        <ele>272</ele>
        <time>2018-06-24T09:16:59Z</time>
      </trkpt>
      <trkpt lat="45.9499" lon="4.86228">
        <ele>272</ele>
        <time>2018-06-24T09:17:00Z</time>
      </trkpt>
      <trkpt lat="45.94995" lon="4.86234">
        <ele>272</ele>
        <time>2018-06-24T09:17:01Z</time>
      </trkpt>
      <trkpt lat="45.94999" lon="4.86238">
        <ele>272</ele>
        <time>2018-06-24T09:17:02Z</time>
      </trkpt>
      <trkpt lat="45.95004" lon="4.86244">
        <ele>272</ele>
        <time>2018-06-24T09:17:03Z</time>
      </trkpt>
      <trkpt lat="45.95009" lon="4.86249">
        <ele>272</ele>
        <time>2018-06-24T09:17:04Z</time>
      </trkpt>
      <trkpt lat="45.95014" lon="4.86255">
        <ele>272</ele>
        <time>2018-06-24T09:17:05Z</time>
      </trkpt>
      <trkpt lat="45.95018" lon="4.8626">
        <ele>271</ele>
        <time>2018-06-24T09:17:06Z</time>
      </trkpt>
      <trkpt lat="45.95023" lon="4.86266">
        <ele>271</ele>
        <time>2018-06-24T09:17:07Z</time>
      </trkpt>
      <trkpt lat="45.95027" lon="4.86271">
        <ele>271</ele>
        <time>2018-06-24T09:17:08Z</time>
      </trkpt>
      <trkpt lat="45.95032" lon="4.86276">
        <ele>271</ele>
        <time>2018-06-24T09:17:09Z</time>
      </trkpt>
      <trkpt lat="45.95037" lon="4.86282">
        <ele>271</ele>
        <time>2018-06-24T09:17:10Z</time>
      </trkpt>
      <trkpt lat="45.95042" lon="4.86287">
        <ele>271</ele>
        <time>2018-06-24T09:17:11Z</time>
      </trkpt>
      <trkpt lat="45.95047" lon="4.86293">
        <ele>271</ele>
        <time>2018-06-24T09:17:12Z</time>
      </trkpt>
      <trkpt lat="45.95051" lon="4.86298">
        <ele>271</ele>
        <time>2018-06-24T09:17:13Z</time>
      </trkpt>
      <trkpt lat="45.95056" lon="4.86303">
        <ele>271</ele>
        <time>2018-06-24T09:17:14Z</time>
      </trkpt>
      <trkpt lat="45.9506" lon="4.86309">
        <ele>271</ele>
        <time>2018-06-24T09:17:15Z</time>
      </trkpt>
      <trkpt lat="45.95064" lon="4.86314">
        <ele>270</ele>
        <time>2018-06-24T09:17:16Z</time>
      </trkpt>
      <trkpt lat="45.95067" lon="4.86321">
        <ele>270</ele>
        <time>2018-06-24T09:17:17Z</time>
      </trkpt>
      <trkpt lat="45.95072" lon="4.86326">
        <ele>270</ele>
        <time>2018-06-24T09:17:18Z</time>
      </trkpt>
      <trkpt lat="45.95075" lon="4.86333">
        <ele>270</ele>
        <time>2018-06-24T09:17:19Z</time>
      </trkpt>
      <trkpt lat="45.95079" lon="4.86339">
        <ele>270</ele>
        <time>2018-06-24T09:17:20Z</time>
      </trkpt>
      <trkpt lat="45.95084" lon="4.86345">
        <ele>269</ele>
        <time>2018-06-24T09:17:21Z</time>
      </trkpt>
      <trkpt lat="45.95089" lon="4.86351">
        <ele>269</ele>
        <time>2018-06-24T09:17:22Z</time>
      </trkpt>
      <trkpt lat="45.95094" lon="4.86356">
        <ele>269</ele>
        <time>2018-06-24T09:17:23Z</time>
      </trkpt>
      <trkpt lat="45.95098" lon="4.86361">
        <ele>269</ele>
        <time>2018-06-24T09:17:24Z</time>
      </trkpt>
      <trkpt lat="45.95103" lon="4.86367">
        <ele>269</ele>
        <time>2018-06-24T09:17:25Z</time>
      </trkpt>
      <trkpt lat="45.95108" lon="4.86372">
        <ele>269</ele>
        <time>2018-06-24T09:17:26Z</time>
      </trkpt>
      <trkpt lat="45.95112" lon="4.86378">
        <ele>269</ele>
        <time>2018-06-24T09:17:27Z</time>
      </trkpt>
      <trkpt lat="45.95116" lon="4.86383">
        <ele>269</ele>
        <time>2018-06-24T09:17:28Z</time>
      </trkpt>
      <trkpt lat="45.95119" lon="4.86387">
        <ele>269</ele>
        <time>2018-06-24T09:17:29Z</time>
      </trkpt>
      <trkpt lat="45.95124" lon="4.86393">
        <ele>269</ele>
        <time>2018-06-24T09:17:30Z</time>
      </trkpt>
      <trkpt lat="45.95128" lon="4.86397">
        <ele>268</ele>
        <time>2018-06-24T09:17:31Z</time>
      </trkpt>
      <trkpt lat="45.95131" lon="4.86402">
        <ele>268</ele>
        <time>2018-06-24T09:17:32Z</time>
      </trkpt>
      <trkpt lat="45.95136" lon="4.86408">
        <ele>268</ele>
        <time>2018-06-24T09:17:33Z</time>
      </trkpt>
      <trkpt lat="45.9514" lon="4.86412">
        <ele>268</ele>
        <time>2018-06-24T09:17:34Z</time>
      </trkpt>
      <trkpt lat="45.95142" lon="4.86419">
        <ele>268</ele>
        <time>2018-06-24T09:17:35Z</time>
      </trkpt>
      <trkpt lat="45.95145" lon="4.86423">
        <ele>268</ele>
        <time>2018-06-24T09:17:36Z</time>
      </trkpt>
      <trkpt lat="45.95148" lon="4.86427">
        <ele>268</ele>
        <time>2018-06-24T09:17:37Z</time>
      </trkpt>
      <trkpt lat="45.95152" lon="4.86432">
        <ele>268</ele>
        <time>2018-06-24T09:17:38Z</time>
      </trkpt>
      <trkpt lat="45.95157" lon="4.86438">
        <ele>268</ele>
        <time>2018-06-24T09:17:39Z</time>
      </trkpt>
      <trkpt lat="45.95162" lon="4.86443">
        <ele>268</ele>
        <time>2018-06-24T09:17:40Z</time>
      </trkpt>
      <trkpt lat="45.95166" lon="4.86448">
        <ele>269</ele>
        <time>2018-06-24T09:17:41Z</time>
      </trkpt>
      <trkpt lat="45.9517" lon="4.86454">
        <ele>268</ele>
        <time>2018-06-24T09:17:42Z</time>
      </trkpt>
      <trkpt lat="45.95175" lon="4.86459">
        <ele>268</ele>
        <time>2018-06-24T09:17:43Z</time>
      </trkpt>
      <trkpt lat="45.95183" lon="4.86462">
        <ele>268</ele>
        <time>2018-06-24T09:17:44Z</time>
      </trkpt>
      <trkpt lat="45.95187" lon="4.86468">
        <ele>268</ele>
        <time>2018-06-24T09:17:45Z</time>
      </trkpt>
      <trkpt lat="45.95192" lon="4.86474">
        <ele>268</ele>
        <time>2018-06-24T09:17:46Z</time>
      </trkpt>
      <trkpt lat="45.95197" lon="4.86479">
        <ele>268</ele>
        <time>2018-06-24T09:17:47Z</time>
      </trkpt>
      <trkpt lat="45.95201" lon="4.86485">
        <ele>268</ele>
        <time>2018-06-24T09:17:48Z</time>
      </trkpt>
      <trkpt lat="45.95206" lon="4.86491">
        <ele>268</ele>
        <time>2018-06-24T09:17:49Z</time>
      </trkpt>
      <trkpt lat="45.95211" lon="4.86495">
        <ele>268</ele>
        <time>2018-06-24T09:17:50Z</time>
      </trkpt>
      <trkpt lat="45.95216" lon="4.86501">
        <ele>268</ele>
        <time>2018-06-24T09:17:51Z</time>
      </trkpt>
      <trkpt lat="45.95221" lon="4.86507">
        <ele>268</ele>
        <time>2018-06-24T09:17:52Z</time>
      </trkpt>
      <trkpt lat="45.95226" lon="4.86513">
        <ele>268</ele>
        <time>2018-06-24T09:17:53Z</time>
      </trkpt>
      <trkpt lat="45.9523" lon="4.86521">
        <ele>268</ele>
        <time>2018-06-24T09:17:54Z</time>
      </trkpt>
      <trkpt lat="45.95235" lon="4.86529">
        <ele>268</ele>
        <time>2018-06-24T09:17:55Z</time>
      </trkpt>
      <trkpt lat="45.9524" lon="4.86535">
        <ele>268</ele>
        <time>2018-06-24T09:17:56Z</time>
      </trkpt>
      <trkpt lat="45.95244" lon="4.8654">
        <ele>268</ele>
        <time>2018-06-24T09:17:57Z</time>
      </trkpt>
      <trkpt lat="45.9525" lon="4.86547">
        <ele>268</ele>
        <time>2018-06-24T09:17:58Z</time>
      </trkpt>
      <trkpt lat="45.95255" lon="4.86553">
        <ele>267</ele>
        <time>2018-06-24T09:17:59Z</time>
      </trkpt>
      <trkpt lat="45.95258" lon="4.86559">
        <ele>267</ele>
        <time>2018-06-24T09:18:00Z</time>
      </trkpt>
      <trkpt lat="45.9526" lon="4.86564">
        <ele>267</ele>
        <time>2018-06-24T09:18:01Z</time>
      </trkpt>
      <trkpt lat="45.95261" lon="4.86571">
        <ele>267</ele>
        <time>2018-06-24T09:18:02Z</time>
      </trkpt>
      <trkpt lat="45.9526" lon="4.86578">
        <ele>268</ele>
        <time>2018-06-24T09:18:03Z</time>
      </trkpt>
      <trkpt lat="45.95255" lon="4.86587">
        <ele>268</ele>
        <time>2018-06-24T09:18:05Z</time>
      </trkpt>
      <trkpt lat="45.95251" lon="4.8659">
        <ele>268</ele>
        <time>2018-06-24T09:18:06Z</time>
      </trkpt>
      <trkpt lat="45.95243" lon="4.86588">
        <ele>268</ele>
        <time>2018-06-24T09:18:08Z</time>
      </trkpt>
      <trkpt lat="45.95239" lon="4.86588">
        <ele>268</ele>
        <time>2018-06-24T09:18:09Z</time>
      </trkpt>
      <trkpt lat="45.95231" lon="4.86585">
        <ele>269</ele>
        <time>2018-06-24T09:18:11Z</time>
      </trkpt>
      <trkpt lat="45.95227" lon="4.86585">
        <ele>269</ele>
        <time>2018-06-24T09:18:12Z</time>
      </trkpt>
      <trkpt lat="45.95219" lon="4.86584">
        <ele>269</ele>
        <time>2018-06-24T09:18:14Z</time>
      </trkpt>
      <trkpt lat="45.95215" lon="4.86583">
        <ele>268</ele>
        <time>2018-06-24T09:18:15Z</time>
      </trkpt>
      <trkpt lat="45.95208" lon="4.86581">
        <ele>268</ele>
        <time>2018-06-24T09:18:17Z</time>
      </trkpt>
      <trkpt lat="45.95205" lon="4.8658">
        <ele>268</ele>
        <time>2018-06-24T09:18:18Z</time>
      </trkpt>
      <trkpt lat="45.95198" lon="4.86579">
        <ele>268</ele>
        <time>2018-06-24T09:18:20Z</time>
      </trkpt>
      <trkpt lat="45.95194" lon="4.86579">
        <ele>268</ele>
        <time>2018-06-24T09:18:21Z</time>
      </trkpt>
      <trkpt lat="45.95186" lon="4.86579">
        <ele>269</ele>
        <time>2018-06-24T09:18:23Z</time>
      </trkpt>
      <trkpt lat="45.95182" lon="4.86578">
        <ele>269</ele>
        <time>2018-06-24T09:18:24Z</time>
      </trkpt>
      <trkpt lat="45.95173" lon="4.86578">
        <ele>269</ele>
        <time>2018-06-24T09:18:26Z</time>
      </trkpt>
      <trkpt lat="45.95169" lon="4.86579">
        <ele>269</ele>
        <time>2018-06-24T09:18:27Z</time>
      </trkpt>
      <trkpt lat="45.95161" lon="4.86579">
        <ele>269</ele>
        <time>2018-06-24T09:18:29Z</time>
      </trkpt>
      <trkpt lat="45.95156" lon="4.86578">
        <ele>269</ele>
        <time>2018-06-24T09:18:30Z</time>
      </trkpt>
      <trkpt lat="45.95147" lon="4.86578">
        <ele>270</ele>
        <time>2018-06-24T09:18:32Z</time>
      </trkpt>
      <trkpt lat="45.95141" lon="4.86579">
        <ele>270</ele>
        <time>2018-06-24T09:18:33Z</time>
      </trkpt>
      <trkpt lat="45.95133" lon="4.8658">
        <ele>270</ele>
        <time>2018-06-24T09:18:35Z</time>
      </trkpt>
      <trkpt lat="45.95129" lon="4.86581">
        <ele>270</ele>
        <time>2018-06-24T09:18:36Z</time>
      </trkpt>
      <trkpt lat="45.9512" lon="4.86582">
        <ele>270</ele>
        <time>2018-06-24T09:18:38Z</time>
      </trkpt>
      <trkpt lat="45.95115" lon="4.86583">
        <ele>270</ele>
        <time>2018-06-24T09:18:39Z</time>
      </trkpt>
      <trkpt lat="45.95107" lon="4.86584">
        <ele>271</ele>
        <time>2018-06-24T09:18:41Z</time>
      </trkpt>
      <trkpt lat="45.95102" lon="4.86584">
        <ele>271</ele>
        <time>2018-06-24T09:18:42Z</time>
      </trkpt>
      <trkpt lat="45.95098" lon="4.86584">
        <ele>271</ele>
        <time>2018-06-24T09:18:43Z</time>
      </trkpt>
      <trkpt lat="45.95093" lon="4.86585">
        <ele>271</ele>
        <time>2018-06-24T09:18:44Z</time>
      </trkpt>
      <trkpt lat="45.95085" lon="4.86587">
        <ele>271</ele>
        <time>2018-06-24T09:18:46Z</time>
      </trkpt>
      <trkpt lat="45.95081" lon="4.86588">
        <ele>271</ele>
        <time>2018-06-24T09:18:47Z</time>
      </trkpt>
      <trkpt lat="45.95075" lon="4.86589">
        <ele>271</ele>
        <time>2018-06-24T09:18:48Z</time>
      </trkpt>
      <trkpt lat="45.95071" lon="4.86591">
        <ele>272</ele>
        <time>2018-06-24T09:18:49Z</time>
      </trkpt>
      <trkpt lat="45.95063" lon="4.86594">
        <ele>272</ele>
        <time>2018-06-24T09:18:51Z</time>
      </trkpt>
      <trkpt lat="45.95059" lon="4.86595">
        <ele>272</ele>
        <time>2018-06-24T09:18:52Z</time>
      </trkpt>
      <trkpt lat="45.95051" lon="4.86598">
        <ele>272</ele>
        <time>2018-06-24T09:18:54Z</time>
      </trkpt>
      <trkpt lat="45.95046" lon="4.86599">
        <ele>272</ele>
        <time>2018-06-24T09:18:55Z</time>
      </trkpt>
      <trkpt lat="45.95038" lon="4.86604">
        <ele>273</ele>
        <time>2018-06-24T09:18:57Z</time>
      </trkpt>
      <trkpt lat="45.95034" lon="4.86604">
        <ele>273</ele>
        <time>2018-06-24T09:18:58Z</time>
      </trkpt>
      <trkpt lat="45.95026" lon="4.86607">
        <ele>273</ele>
        <time>2018-06-24T09:19:00Z</time>
      </trkpt>
      <trkpt lat="45.95022" lon="4.86608">
        <ele>273</ele>
        <time>2018-06-24T09:19:01Z</time>
      </trkpt>
      <trkpt lat="45.95015" lon="4.8661">
        <ele>273</ele>
        <time>2018-06-24T09:19:03Z</time>
      </trkpt>
      <trkpt lat="45.95011" lon="4.86611">
        <ele>273</ele>
        <time>2018-06-24T09:19:04Z</time>
      </trkpt>
      <trkpt lat="45.95004" lon="4.86612">
        <ele>273</ele>
        <time>2018-06-24T09:19:06Z</time>
      </trkpt>
      <trkpt lat="45.95" lon="4.86612">
        <ele>275</ele>
        <time>2018-06-24T09:19:07Z</time>
      </trkpt>
      <trkpt lat="45.94991" lon="4.86613">
        <ele>275</ele>
        <time>2018-06-24T09:19:09Z</time>
      </trkpt>
      <trkpt lat="45.94987" lon="4.86613">
        <ele>275</ele>
        <time>2018-06-24T09:19:10Z</time>
      </trkpt>
      <trkpt lat="45.9498" lon="4.86615">
        <ele>275</ele>
        <time>2018-06-24T09:19:12Z</time>
      </trkpt>
      <trkpt lat="45.94976" lon="4.86616">
        <ele>275</ele>
        <time>2018-06-24T09:19:13Z</time>
      </trkpt>
      <trkpt lat="45.94969" lon="4.8662">
        <ele>275</ele>
        <time>2018-06-24T09:19:15Z</time>
      </trkpt>
      <trkpt lat="45.94965" lon="4.86623">
        <ele>275</ele>
        <time>2018-06-24T09:19:16Z</time>
      </trkpt>
      <trkpt lat="45.94958" lon="4.86629">
        <ele>276</ele>
        <time>2018-06-24T09:19:18Z</time>
      </trkpt>
      <trkpt lat="45.94954" lon="4.86633">
        <ele>276</ele>
        <time>2018-06-24T09:19:19Z</time>
      </trkpt>
      <trkpt lat="45.94948" lon="4.86642">
        <ele>276</ele>
        <time>2018-06-24T09:19:21Z</time>
      </trkpt>
      <trkpt lat="45.94946" lon="4.86648">
        <ele>276</ele>
        <time>2018-06-24T09:19:22Z</time>
      </trkpt>
      <trkpt lat="45.94943" lon="4.86659">
        <ele>276</ele>
        <time>2018-06-24T09:19:24Z</time>
      </trkpt>
      <trkpt lat="45.94942" lon="4.86665">
        <ele>276</ele>
        <time>2018-06-24T09:19:25Z</time>
      </trkpt>
      <trkpt lat="45.94942" lon="4.86672">
        <ele>276</ele>
        <time>2018-06-24T09:19:26Z</time>
      </trkpt>
      <trkpt lat="45.94942" lon="4.86678">
        <ele>276</ele>
        <time>2018-06-24T09:19:27Z</time>
      </trkpt>
      <trkpt lat="45.94947" lon="4.86687">
        <ele>276</ele>
        <time>2018-06-24T09:19:28Z</time>
      </trkpt>
      <trkpt lat="45.94948" lon="4.86693">
        <ele>275</ele>
        <time>2018-06-24T09:19:29Z</time>
      </trkpt>
      <trkpt lat="45.9495" lon="4.86705">
        <ele>275</ele>
        <time>2018-06-24T09:19:31Z</time>
      </trkpt>
      <trkpt lat="45.94952" lon="4.86712">
        <ele>275</ele>
        <time>2018-06-24T09:19:32Z</time>
      </trkpt>
      <trkpt lat="45.94953" lon="4.86718">
        <ele>275</ele>
        <time>2018-06-24T09:19:33Z</time>
      </trkpt>
      <trkpt lat="45.94955" lon="4.86724">
        <ele>275</ele>
        <time>2018-06-24T09:19:34Z</time>
      </trkpt>
      <trkpt lat="45.94957" lon="4.8673">
        <ele>275</ele>
        <time>2018-06-24T09:19:35Z</time>
      </trkpt>
      <trkpt lat="45.9496" lon="4.86736">
        <ele>275</ele>
        <time>2018-06-24T09:19:36Z</time>
      </trkpt>
      <trkpt lat="45.94962" lon="4.86741">
        <ele>275</ele>
        <time>2018-06-24T09:19:37Z</time>
      </trkpt>
      <trkpt lat="45.94966" lon="4.86747">
        <ele>275</ele>
        <time>2018-06-24T09:19:38Z</time>
      </trkpt>
      <trkpt lat="45.94971" lon="4.86757">
        <ele>275</ele>
        <time>2018-06-24T09:19:40Z</time>
      </trkpt>
      <trkpt lat="45.94974" lon="4.86763">
        <ele>275</ele>
        <time>2018-06-24T09:19:41Z</time>
      </trkpt>
      <trkpt lat="45.94977" lon="4.86768">
        <ele>275</ele>
        <time>2018-06-24T09:19:42Z</time>
      </trkpt>
      <trkpt lat="45.9498" lon="4.86774">
        <ele>275</ele>
        <time>2018-06-24T09:19:43Z</time>
      </trkpt>
      <trkpt lat="45.94984" lon="4.86779">
        <ele>275</ele>
        <time>2018-06-24T09:19:44Z</time>
      </trkpt>
      <trkpt lat="45.94987" lon="4.86785">
        <ele>275</ele>
        <time>2018-06-24T09:19:45Z</time>
      </trkpt>
      <trkpt lat="45.9499" lon="4.86791">
        <ele>276</ele>
        <time>2018-06-24T09:19:46Z</time>
      </trkpt>
      <trkpt lat="45.94993" lon="4.86797">
        <ele>276</ele>
        <time>2018-06-24T09:19:47Z</time>
      </trkpt>
      <trkpt lat="45.94996" lon="4.86802">
        <ele>276</ele>
        <time>2018-06-24T09:19:48Z</time>
      </trkpt>
      <trkpt lat="45.94999" lon="4.86807">
        <ele>276</ele>
        <time>2018-06-24T09:19:49Z</time>
      </trkpt>
      <trkpt lat="45.95002" lon="4.86812">
        <ele>275</ele>
        <time>2018-06-24T09:19:50Z</time>
      </trkpt>
      <trkpt lat="45.95004" lon="4.8682">
        <ele>275</ele>
        <time>2018-06-24T09:19:51Z</time>
      </trkpt>
      <trkpt lat="45.95005" lon="4.86827">
        <ele>275</ele>
        <time>2018-06-24T09:19:52Z</time>
      </trkpt>
      <trkpt lat="45.95008" lon="4.86833">
        <ele>275</ele>
        <time>2018-06-24T09:19:53Z</time>
      </trkpt>
      <trkpt lat="45.9501" lon="4.8684">
        <ele>276</ele>
        <time>2018-06-24T09:19:54Z</time>
      </trkpt>
      <trkpt lat="45.95013" lon="4.86845">
        <ele>275</ele>
        <time>2018-06-24T09:19:55Z</time>
      </trkpt>
      <trkpt lat="45.95017" lon="4.86856">
        <ele>275</ele>
        <time>2018-06-24T09:19:57Z</time>
      </trkpt>
      <trkpt lat="45.95018" lon="4.86862">
        <ele>275</ele>
        <time>2018-06-24T09:19:58Z</time>
      </trkpt>
      <trkpt lat="45.95022" lon="4.86868">
        <ele>275</ele>
        <time>2018-06-24T09:19:59Z</time>
      </trkpt>
      <trkpt lat="45.95024" lon="4.86873">
        <ele>275</ele>
        <time>2018-06-24T09:20:00Z</time>
      </trkpt>
      <trkpt lat="45.95026" lon="4.86879">
        <ele>275</ele>
        <time>2018-06-24T09:20:01Z</time>
      </trkpt>
      <trkpt lat="45.95029" lon="4.86885">
        <ele>275</ele>
        <time>2018-06-24T09:20:02Z</time>
      </trkpt>
      <trkpt lat="45.95031" lon="4.86892">
        <ele>275</ele>
        <time>2018-06-24T09:20:03Z</time>
      </trkpt>
      <trkpt lat="45.95033" lon="4.86898">
        <ele>275</ele>
        <time>2018-06-24T09:20:04Z</time>
      </trkpt>
      <trkpt lat="45.95034" lon="4.86905">
        <ele>275</ele>
        <time>2018-06-24T09:20:05Z</time>
      </trkpt>
      <trkpt lat="45.95036" lon="4.86912">
        <ele>275</ele>
        <time>2018-06-24T09:20:06Z</time>
      </trkpt>
      <trkpt lat="45.95037" lon="4.86918">
        <ele>276</ele>
        <time>2018-06-24T09:20:07Z</time>
      </trkpt>
      <trkpt lat="45.95039" lon="4.86924">
        <ele>276</ele>
        <time>2018-06-24T09:20:08Z</time>
      </trkpt>
      <trkpt lat="45.95041" lon="4.8693">
        <ele>276</ele>
        <time>2018-06-24T09:20:09Z</time>
      </trkpt>
      <trkpt lat="45.95043" lon="4.86936">
        <ele>276</ele>
        <time>2018-06-24T09:20:10Z</time>
      </trkpt>
      <trkpt lat="45.95045" lon="4.86944">
        <ele>276</ele>
        <time>2018-06-24T09:20:11Z</time>
      </trkpt>
      <trkpt lat="45.95047" lon="4.86949">
        <ele>276</ele>
        <time>2018-06-24T09:20:12Z</time>
      </trkpt>
      <trkpt lat="45.95049" lon="4.8696">
        <ele>276</ele>
        <time>2018-06-24T09:20:14Z</time>
      </trkpt>
      <trkpt lat="45.95051" lon="4.86965">
        <ele>276</ele>
        <time>2018-06-24T09:20:15Z</time>
      </trkpt>
      <trkpt lat="45.95055" lon="4.86975">
        <ele>276</ele>
        <time>2018-06-24T09:20:17Z</time>
      </trkpt>
      <trkpt lat="45.95056" lon="4.86981">
        <ele>276</ele>
        <time>2018-06-24T09:20:18Z</time>
      </trkpt>
      <trkpt lat="45.95061" lon="4.86992">
        <ele>276</ele>
        <time>2018-06-24T09:20:20Z</time>
      </trkpt>
      <trkpt lat="45.95063" lon="4.86997">
        <ele>276</ele>
        <time>2018-06-24T09:20:21Z</time>
      </trkpt>
      <trkpt lat="45.95068" lon="4.87007">
        <ele>277</ele>
        <time>2018-06-24T09:20:23Z</time>
      </trkpt>
      <trkpt lat="45.9507" lon="4.87013">
        <ele>277</ele>
        <time>2018-06-24T09:20:24Z</time>
      </trkpt>
      <trkpt lat="45.95075" lon="4.87022">
        <ele>277</ele>
        <time>2018-06-24T09:20:26Z</time>
      </trkpt>
      <trkpt lat="45.95077" lon="4.87024">
        <ele>277</ele>
        <time>2018-06-24T09:20:27Z</time>
      </trkpt>
      <trkpt lat="45.95084" lon="4.87032">
        <ele>277</ele>
        <time>2018-06-24T09:20:29Z</time>
      </trkpt>
      <trkpt lat="45.95087" lon="4.87037">
        <ele>277</ele>
        <time>2018-06-24T09:20:30Z</time>
      </trkpt>
      <trkpt lat="45.95092" lon="4.87046">
        <ele>277</ele>
        <time>2018-06-24T09:20:32Z</time>
      </trkpt>
      <trkpt lat="45.95094" lon="4.87051">
        <ele>277</ele>
        <time>2018-06-24T09:20:33Z</time>
      </trkpt>
      <trkpt lat="45.95097" lon="4.87058">
        <ele>277</ele>
        <time>2018-06-24T09:20:35Z</time>
      </trkpt>
      <trkpt lat="45.951" lon="4.87064">
        <ele>277</ele>
        <time>2018-06-24T09:20:36Z</time>
      </trkpt>
      <trkpt lat="45.95103" lon="4.87074">
        <ele>277</ele>
        <time>2018-06-24T09:20:38Z</time>
      </trkpt>
      <trkpt lat="45.95105" lon="4.8708">
        <ele>277</ele>
        <time>2018-06-24T09:20:39Z</time>
      </trkpt>
      <trkpt lat="45.95107" lon="4.87086">
        <ele>277</ele>
        <time>2018-06-24T09:20:40Z</time>
      </trkpt>
      <trkpt lat="45.95109" lon="4.87093">
        <ele>277</ele>
        <time>2018-06-24T09:20:41Z</time>
      </trkpt>
      <trkpt lat="45.95112" lon="4.87104">
        <ele>277</ele>
        <time>2018-06-24T09:20:43Z</time>
      </trkpt>
      <trkpt lat="45.95113" lon="4.87109">
        <ele>277</ele>
        <time>2018-06-24T09:20:44Z</time>
      </trkpt>
      <trkpt lat="45.95115" lon="4.87115">
        <ele>276</ele>
        <time>2018-06-24T09:20:45Z</time>
      </trkpt>
      <trkpt lat="45.95116" lon="4.87122">
        <ele>276</ele>
        <time>2018-06-24T09:20:46Z</time>
      </trkpt>
      <trkpt lat="45.95117" lon="4.87134">
        <ele>277</ele>
        <time>2018-06-24T09:20:48Z</time>
      </trkpt>
      <trkpt lat="45.95118" lon="4.87141">
        <ele>277</ele>
        <time>2018-06-24T09:20:49Z</time>
      </trkpt>
      <trkpt lat="45.9512" lon="4.87149">
        <ele>277</ele>
        <time>2018-06-24T09:20:50Z</time>
      </trkpt>
      <trkpt lat="45.9512" lon="4.87156">
        <ele>277</ele>
        <time>2018-06-24T09:20:51Z</time>
      </trkpt>
      <trkpt lat="45.95122" lon="4.87162">
        <ele>276</ele>
        <time>2018-06-24T09:20:52Z</time>
      </trkpt>
      <trkpt lat="45.95124" lon="4.87169">
        <ele>276</ele>
        <time>2018-06-24T09:20:53Z</time>
      </trkpt>
      <trkpt lat="45.95126" lon="4.87177">
        <ele>276</ele>
        <time>2018-06-24T09:20:54Z</time>
      </trkpt>
      <trkpt lat="45.95129" lon="4.87184">
        <ele>276</ele>
        <time>2018-06-24T09:20:55Z</time>
      </trkpt>
      <trkpt lat="45.9513" lon="4.87192">
        <ele>276</ele>
        <time>2018-06-24T09:20:56Z</time>
      </trkpt>
      <trkpt lat="45.95131" lon="4.872">
        <ele>276</ele>
        <time>2018-06-24T09:20:57Z</time>
      </trkpt>
      <trkpt lat="45.95133" lon="4.8721">
        <ele>276</ele>
        <time>2018-06-24T09:20:58Z</time>
      </trkpt>
      <trkpt lat="45.95135" lon="4.87219">
        <ele>276</ele>
        <time>2018-06-24T09:20:59Z</time>
      </trkpt>
      <trkpt lat="45.95137" lon="4.87228">
        <ele>276</ele>
        <time>2018-06-24T09:21:00Z</time>
      </trkpt>
      <trkpt lat="45.95139" lon="4.87237">
        <ele>275</ele>
        <time>2018-06-24T09:21:01Z</time>
      </trkpt>
      <trkpt lat="45.9514" lon="4.87246">
        <ele>275</ele>
        <time>2018-06-24T09:21:02Z</time>
      </trkpt>
      <trkpt lat="45.95143" lon="4.87256">
        <ele>274</ele>
        <time>2018-06-24T09:21:03Z</time>
      </trkpt>
      <trkpt lat="45.95145" lon="4.87265">
        <ele>274</ele>
        <time>2018-06-24T09:21:04Z</time>
      </trkpt>
      <trkpt lat="45.95148" lon="4.87275">
        <ele>274</ele>
        <time>2018-06-24T09:21:05Z</time>
      </trkpt>
      <trkpt lat="45.9515" lon="4.87285">
        <ele>274</ele>
        <time>2018-06-24T09:21:06Z</time>
      </trkpt>
      <trkpt lat="45.95151" lon="4.87294">
        <ele>274</ele>
        <time>2018-06-24T09:21:07Z</time>
      </trkpt>
      <trkpt lat="45.95153" lon="4.87304">
        <ele>274</ele>
        <time>2018-06-24T09:21:08Z</time>
      </trkpt>
      <trkpt lat="45.95155" lon="4.87312">
        <ele>273</ele>
        <time>2018-06-24T09:21:09Z</time>
      </trkpt>
      <trkpt lat="45.95157" lon="4.87322">
        <ele>273</ele>
        <time>2018-06-24T09:21:10Z</time>
      </trkpt>
      <trkpt lat="45.95159" lon="4.87332">
        <ele>272</ele>
        <time>2018-06-24T09:21:11Z</time>
      </trkpt>
      <trkpt lat="45.95161" lon="4.87342">
        <ele>272</ele>
        <time>2018-06-24T09:21:12Z</time>
      </trkpt>
      <trkpt lat="45.95164" lon="4.87352">
        <ele>272</ele>
        <time>2018-06-24T09:21:13Z</time>
      </trkpt>
      <trkpt lat="45.95166" lon="4.87361">
        <ele>272</ele>
        <time>2018-06-24T09:21:14Z</time>
      </trkpt>
      <trkpt lat="45.95167" lon="4.87368">
        <ele>271</ele>
        <time>2018-06-24T09:21:15Z</time>
      </trkpt>
      <trkpt lat="45.9517" lon="4.87377">
        <ele>271</ele>
        <time>2018-06-24T09:21:16Z</time>
      </trkpt>
      <trkpt lat="45.95172" lon="4.87385">
        <ele>271</ele>
        <time>2018-06-24T09:21:17Z</time>
      </trkpt>
      <trkpt lat="45.95174" lon="4.87393">
        <ele>271</ele>
        <time>2018-06-24T09:21:18Z</time>
      </trkpt>
      <trkpt lat="45.95176" lon="4.87401">
        <ele>271</ele>
        <time>2018-06-24T09:21:19Z</time>
      </trkpt>
      <trkpt lat="45.95178" lon="4.87409">
        <ele>271</ele>
        <time>2018-06-24T09:21:20Z</time>
      </trkpt>
      <trkpt lat="45.9518" lon="4.87417">
        <ele>271</ele>
        <time>2018-06-24T09:21:21Z</time>
      </trkpt>
      <trkpt lat="45.95183" lon="4.87425">
        <ele>271</ele>
        <time>2018-06-24T09:21:22Z</time>
      </trkpt>
      <trkpt lat="45.95185" lon="4.87433">
        <ele>271</ele>
        <time>2018-06-24T09:21:23Z</time>
      </trkpt>
      <trkpt lat="45.95188" lon="4.87441">
        <ele>272</ele>
        <time>2018-06-24T09:21:24Z</time>
      </trkpt>
      <trkpt lat="45.9519" lon="4.87448">
        <ele>272</ele>
        <time>2018-06-24T09:21:25Z</time>
      </trkpt>
      <trkpt lat="45.95191" lon="4.87456">
        <ele>272</ele>
        <time>2018-06-24T09:21:26Z</time>
      </trkpt>
      <trkpt lat="45.95193" lon="4.87463">
        <ele>272</ele>
        <time>2018-06-24T09:21:27Z</time>
      </trkpt>
      <trkpt lat="45.95195" lon="4.8747">
        <ele>272</ele>
        <time>2018-06-24T09:21:28Z</time>
      </trkpt>
      <trkpt lat="45.95196" lon="4.87477">
        <ele>272</ele>
        <time>2018-06-24T09:21:29Z</time>
      </trkpt>
      <trkpt lat="45.95198" lon="4.87484">
        <ele>272</ele>
        <time>2018-06-24T09:21:30Z</time>
      </trkpt>
      <trkpt lat="45.952" lon="4.87491">
        <ele>272</ele>
        <time>2018-06-24T09:21:31Z</time>
      </trkpt>
      <trkpt lat="45.95202" lon="4.87498">
        <ele>272</ele>
        <time>2018-06-24T09:21:32Z</time>
      </trkpt>
      <trkpt lat="45.95203" lon="4.87505">
        <ele>273</ele>
        <time>2018-06-24T09:21:33Z</time>
      </trkpt>
      <trkpt lat="45.95205" lon="4.87512">
        <ele>273</ele>
        <time>2018-06-24T09:21:34Z</time>
      </trkpt>
      <trkpt lat="45.95206" lon="4.87518">
        <ele>273</ele>
        <time>2018-06-24T09:21:35Z</time>
      </trkpt>
      <trkpt lat="45.95206" lon="4.87526">
        <ele>274</ele>
        <time>2018-06-24T09:21:36Z</time>
      </trkpt>
      <trkpt lat="45.95208" lon="4.87532">
        <ele>274</ele>
        <time>2018-06-24T09:21:37Z</time>
      </trkpt>
      <trkpt lat="45.95209" lon="4.87539">
        <ele>274</ele>
        <time>2018-06-24T09:21:38Z</time>
      </trkpt>
      <trkpt lat="45.9521" lon="4.87545">
        <ele>274</ele>
        <time>2018-06-24T09:21:39Z</time>
      </trkpt>
      <trkpt lat="45.95212" lon="4.87553">
        <ele>274</ele>
        <time>2018-06-24T09:21:40Z</time>
      </trkpt>
      <trkpt lat="45.95212" lon="4.8756">
        <ele>274</ele>
        <time>2018-06-24T09:21:41Z</time>
      </trkpt>
      <trkpt lat="45.95213" lon="4.87567">
        <ele>274</ele>
        <time>2018-06-24T09:21:42Z</time>
      </trkpt>
      <trkpt lat="45.95214" lon="4.87574">
        <ele>274</ele>
        <time>2018-06-24T09:21:43Z</time>
      </trkpt>
      <trkpt lat="45.95214" lon="4.8758">
        <ele>274</ele>
        <time>2018-06-24T09:21:44Z</time>
      </trkpt>
      <trkpt lat="45.95214" lon="4.87587">
        <ele>276</ele>
        <time>2018-06-24T09:21:45Z</time>
      </trkpt>
      <trkpt lat="45.95214" lon="4.876">
        <ele>276</ele>
        <time>2018-06-24T09:21:47Z</time>
      </trkpt>
      <trkpt lat="45.95214" lon="4.87606">
        <ele>276</ele>
        <time>2018-06-24T09:21:48Z</time>
      </trkpt>
      <trkpt lat="45.95215" lon="4.87617">
        <ele>276</ele>
        <time>2018-06-24T09:21:50Z</time>
      </trkpt>
      <trkpt lat="45.95216" lon="4.87622">
        <ele>276</ele>
        <time>2018-06-24T09:21:51Z</time>
      </trkpt>
      <trkpt lat="45.95216" lon="4.87632">
        <ele>276</ele>
        <time>2018-06-24T09:21:53Z</time>
      </trkpt>
      <trkpt lat="45.95217" lon="4.87635">
        <ele>276</ele>
        <time>2018-06-24T09:21:54Z</time>
      </trkpt>
      <trkpt lat="45.95217" lon="4.87643">
        <ele>276</ele>
        <time>2018-06-24T09:21:55Z</time>
      </trkpt>
      <trkpt lat="45.95218" lon="4.87648">
        <ele>276</ele>
        <time>2018-06-24T09:21:56Z</time>
      </trkpt>
      <trkpt lat="45.95219" lon="4.87659">
        <ele>276</ele>
        <time>2018-06-24T09:21:58Z</time>
      </trkpt>
      <trkpt lat="45.9522" lon="4.87665">
        <ele>276</ele>
        <time>2018-06-24T09:21:59Z</time>
      </trkpt>
      <trkpt lat="45.95221" lon="4.87676">
        <ele>278</ele>
        <time>2018-06-24T09:22:01Z</time>
      </trkpt>
      <trkpt lat="45.95222" lon="4.87682">
        <ele>279</ele>
        <time>2018-06-24T09:22:02Z</time>
      </trkpt>
      <trkpt lat="45.95225" lon="4.87692">
        <ele>279</ele>
        <time>2018-06-24T09:22:04Z</time>
      </trkpt>
      <trkpt lat="45.95226" lon="4.87697">
        <ele>279</ele>
        <time>2018-06-24T09:22:05Z</time>
      </trkpt>
      <trkpt lat="45.95227" lon="4.87708">
        <ele>279</ele>
        <time>2018-06-24T09:22:07Z</time>
      </trkpt>
      <trkpt lat="45.95227" lon="4.8771">
        <ele>279</ele>
        <time>2018-06-24T09:22:08Z</time>
      </trkpt>
      <trkpt lat="45.95229" lon="4.87717">
        <ele>279</ele>
        <time>2018-06-24T09:22:10Z</time>
      </trkpt>
      <trkpt lat="45.95231" lon="4.87727">
        <ele>280</ele>
        <time>2018-06-24T09:22:11Z</time>
      </trkpt>
      <trkpt lat="45.95233" lon="4.87736">
        <ele>280</ele>
        <time>2018-06-24T09:22:13Z</time>
      </trkpt>
      <trkpt lat="45.95234" lon="4.87742">
        <ele>280</ele>
        <time>2018-06-24T09:22:14Z</time>
      </trkpt>
      <trkpt lat="45.95236" lon="4.87753">
        <ele>281</ele>
        <time>2018-06-24T09:22:16Z</time>
      </trkpt>
      <trkpt lat="45.95237" lon="4.87758">
        <ele>281</ele>
        <time>2018-06-24T09:22:17Z</time>
      </trkpt>
      <trkpt lat="45.95238" lon="4.87764">
        <ele>281</ele>
        <time>2018-06-24T09:22:18Z</time>
      </trkpt>
      <trkpt lat="45.9524" lon="4.87771">
        <ele>282</ele>
        <time>2018-06-24T09:22:19Z</time>
      </trkpt>
      <trkpt lat="45.95242" lon="4.87778">
        <ele>282</ele>
        <time>2018-06-24T09:22:20Z</time>
      </trkpt>
      <trkpt lat="45.95244" lon="4.87785">
        <ele>282</ele>
        <time>2018-06-24T09:22:21Z</time>
      </trkpt>
      <trkpt lat="45.95245" lon="4.87791">
        <ele>282</ele>
        <time>2018-06-24T09:22:22Z</time>
      </trkpt>
      <trkpt lat="45.95246" lon="4.87798">
        <ele>282</ele>
        <time>2018-06-24T09:22:23Z</time>
      </trkpt>
      <trkpt lat="45.95247" lon="4.87804">
        <ele>282</ele>
        <time>2018-06-24T09:22:24Z</time>
      </trkpt>
      <trkpt lat="45.95247" lon="4.87811">
        <ele>282</ele>
        <time>2018-06-24T09:22:25Z</time>
      </trkpt>
      <trkpt lat="45.95249" lon="4.87822">
        <ele>282</ele>
        <time>2018-06-24T09:22:27Z</time>
      </trkpt>
      <trkpt lat="45.95249" lon="4.87825">
        <ele>282</ele>
        <time>2018-06-24T09:22:28Z</time>
      </trkpt>
      <trkpt lat="45.95251" lon="4.87836">
        <ele>282</ele>
        <time>2018-06-24T09:22:30Z</time>
      </trkpt>
      <trkpt lat="45.95252" lon="4.87844">
        <ele>281</ele>
        <time>2018-06-24T09:22:31Z</time>
      </trkpt>
      <trkpt lat="45.95255" lon="4.87855">
        <ele>281</ele>
        <time>2018-06-24T09:22:34Z</time>
      </trkpt>
      <trkpt lat="45.95255" lon="4.87858">
        <ele>281</ele>
        <time>2018-06-24T09:22:35Z</time>
      </trkpt>
      <trkpt lat="45.95256" lon="4.87862">
        <ele>281</ele>
        <time>2018-06-24T09:22:36Z</time>
      </trkpt>
      <trkpt lat="45.95258" lon="4.87872">
        <ele>281</ele>
        <time>2018-06-24T09:22:37Z</time>
      </trkpt>
      <trkpt lat="45.95261" lon="4.87883">
        <ele>281</ele>
        <time>2018-06-24T09:22:39Z</time>
      </trkpt>
      <trkpt lat="45.95262" lon="4.8789">
        <ele>281</ele>
        <time>2018-06-24T09:22:40Z</time>
      </trkpt>
      <trkpt lat="45.95264" lon="4.87902">
        <ele>281</ele>
        <time>2018-06-24T09:22:42Z</time>
      </trkpt>
      <trkpt lat="45.95265" lon="4.87907">
        <ele>281</ele>
        <time>2018-06-24T09:22:43Z</time>
      </trkpt>
      <trkpt lat="45.95265" lon="4.87918">
        <ele>281</ele>
        <time>2018-06-24T09:22:45Z</time>
      </trkpt>
      <trkpt lat="45.95265" lon="4.87924">
        <ele>281</ele>
        <time>2018-06-24T09:22:46Z</time>
      </trkpt>
      <trkpt lat="45.95264" lon="4.87934">
        <ele>280</ele>
        <time>2018-06-24T09:22:48Z</time>
      </trkpt>
      <trkpt lat="45.95263" lon="4.8794">
        <ele>280</ele>
        <time>2018-06-24T09:22:49Z</time>
      </trkpt>
      <trkpt lat="45.95261" lon="4.87951">
        <ele>280</ele>
        <time>2018-06-24T09:22:51Z</time>
      </trkpt>
      <trkpt lat="45.95259" lon="4.87956">
        <ele>280</ele>
        <time>2018-06-24T09:22:52Z</time>
      </trkpt>
      <trkpt lat="45.95253" lon="4.87966">
        <ele>280</ele>
        <time>2018-06-24T09:22:54Z</time>
      </trkpt>
      <trkpt lat="45.95249" lon="4.87969">
        <ele>282</ele>
        <time>2018-06-24T09:22:55Z</time>
      </trkpt>
      <trkpt lat="45.95244" lon="4.87979">
        <ele>281</ele>
        <time>2018-06-24T09:22:57Z</time>
      </trkpt>
      <trkpt lat="45.9524" lon="4.87983">
        <ele>281</ele>
        <time>2018-06-24T09:22:58Z</time>
      </trkpt>
      <trkpt lat="45.95236" lon="4.87987">
        <ele>281</ele>
        <time>2018-06-24T09:22:59Z</time>
      </trkpt>
      <trkpt lat="45.95233" lon="4.87993">
        <ele>281</ele>
        <time>2018-06-24T09:23:00Z</time>
      </trkpt>
      <trkpt lat="45.95229" lon="4.87997">
        <ele>281</ele>
        <time>2018-06-24T09:23:01Z</time>
      </trkpt>
      <trkpt lat="45.95226" lon="4.88002">
        <ele>281</ele>
        <time>2018-06-24T09:23:02Z</time>
      </trkpt>
      <trkpt lat="45.95221" lon="4.88007">
        <ele>281</ele>
        <time>2018-06-24T09:23:03Z</time>
      </trkpt>
      <trkpt lat="45.95218" lon="4.88012">
        <ele>281</ele>
        <time>2018-06-24T09:23:04Z</time>
      </trkpt>
      <trkpt lat="45.95214" lon="4.88017">
        <ele>281</ele>
        <time>2018-06-24T09:23:05Z</time>
      </trkpt>
      <trkpt lat="45.95211" lon="4.88021">
        <ele>281</ele>
        <time>2018-06-24T09:23:06Z</time>
      </trkpt>
      <trkpt lat="45.95207" lon="4.88027">
        <ele>281</ele>
        <time>2018-06-24T09:23:07Z</time>
      </trkpt>
      <trkpt lat="45.95204" lon="4.88031">
        <ele>281</ele>
        <time>2018-06-24T09:23:08Z</time>
      </trkpt>
      <trkpt lat="45.95201" lon="4.88037">
        <ele>281</ele>
        <time>2018-06-24T09:23:09Z</time>
      </trkpt>
      <trkpt lat="45.95198" lon="4.88043">
        <ele>281</ele>
        <time>2018-06-24T09:23:10Z</time>
      </trkpt>
      <trkpt lat="45.95193" lon="4.88054">
        <ele>281</ele>
        <time>2018-06-24T09:23:12Z</time>
      </trkpt>
      <trkpt lat="45.95192" lon="4.88061">
        <ele>281</ele>
        <time>2018-06-24T09:23:13Z</time>
      </trkpt>
      <trkpt lat="45.95189" lon="4.88072">
        <ele>281</ele>
        <time>2018-06-24T09:23:15Z</time>
      </trkpt>
      <trkpt lat="45.95186" lon="4.8808">
        <ele>281</ele>
        <time>2018-06-24T09:23:16Z</time>
      </trkpt>
      <trkpt lat="45.95184" lon="4.88088">
        <ele>282</ele>
        <time>2018-06-24T09:23:17Z</time>
      </trkpt>
      <trkpt lat="45.95183" lon="4.88095">
        <ele>282</ele>
        <time>2018-06-24T09:23:18Z</time>
      </trkpt>
      <trkpt lat="45.95182" lon="4.88107">
        <ele>282</ele>
        <time>2018-06-24T09:23:20Z</time>
      </trkpt>
      <trkpt lat="45.95181" lon="4.88113">
        <ele>282</ele>
        <time>2018-06-24T09:23:21Z</time>
      </trkpt>
      <trkpt lat="45.95178" lon="4.88125">
        <ele>282</ele>
        <time>2018-06-24T09:23:23Z</time>
      </trkpt>
      <trkpt lat="45.95176" lon="4.88131">
        <ele>282</ele>
        <time>2018-06-24T09:23:24Z</time>
      </trkpt>
      <trkpt lat="45.95174" lon="4.88142">
        <ele>283</ele>
        <time>2018-06-24T09:23:26Z</time>
      </trkpt>
      <trkpt lat="45.95173" lon="4.88147">
        <ele>283</ele>
        <time>2018-06-24T09:23:27Z</time>
      </trkpt>
      <trkpt lat="45.95172" lon="4.8816">
        <ele>284</ele>
        <time>2018-06-24T09:23:32Z</time>
      </trkpt>
      <trkpt lat="45.95174" lon="4.88162">
        <ele>284</ele>
        <time>2018-06-24T09:23:33Z</time>
      </trkpt>
      <trkpt lat="45.9518" lon="4.88166">
        <ele>284</ele>
        <time>2018-06-24T09:23:36Z</time>
      </trkpt>
      <trkpt lat="45.95189" lon="4.88169">
        <ele>285</ele>
        <time>2018-06-24T09:23:37Z</time>
      </trkpt>
      <trkpt lat="45.95195" lon="4.88169">
        <ele>285</ele>
        <time>2018-06-24T09:23:38Z</time>
      </trkpt>
      <trkpt lat="45.95199" lon="4.88168">
        <ele>285</ele>
        <time>2018-06-24T09:23:39Z</time>
      </trkpt>
      <trkpt lat="45.95204" lon="4.88168">
        <ele>285</ele>
        <time>2018-06-24T09:23:40Z</time>
      </trkpt>
      <trkpt lat="45.95208" lon="4.88168">
        <ele>284</ele>
        <time>2018-06-24T09:23:41Z</time>
      </trkpt>
      <trkpt lat="45.95214" lon="4.88168">
        <ele>284</ele>
        <time>2018-06-24T09:23:42Z</time>
      </trkpt>
      <trkpt lat="45.95219" lon="4.88168">
        <ele>284</ele>
        <time>2018-06-24T09:23:43Z</time>
      </trkpt>
      <trkpt lat="45.95225" lon="4.88169">
        <ele>284</ele>
        <time>2018-06-24T09:23:44Z</time>
      </trkpt>
      <trkpt lat="45.9523" lon="4.88168">
        <ele>283</ele>
        <time>2018-06-24T09:23:45Z</time>
      </trkpt>
      <trkpt lat="45.95236" lon="4.88168">
        <ele>283</ele>
        <time>2018-06-24T09:23:46Z</time>
      </trkpt>
      <trkpt lat="45.95242" lon="4.88167">
        <ele>282</ele>
        <time>2018-06-24T09:23:47Z</time>
      </trkpt>
      <trkpt lat="45.95248" lon="4.88167">
        <ele>281</ele>
        <time>2018-06-24T09:23:48Z</time>
      </trkpt>
      <trkpt lat="45.95255" lon="4.88167">
        <ele>281</ele>
        <time>2018-06-24T09:23:49Z</time>
      </trkpt>
      <trkpt lat="45.95262" lon="4.88167">
        <ele>281</ele>
        <time>2018-06-24T09:23:50Z</time>
      </trkpt>
      <trkpt lat="45.95269" lon="4.88168">
        <ele>281</ele>
        <time>2018-06-24T09:23:51Z</time>
      </trkpt>
      <trkpt lat="45.95276" lon="4.88169">
        <ele>281</ele>
        <time>2018-06-24T09:23:52Z</time>
      </trkpt>
      <trkpt lat="45.95283" lon="4.8817">
        <ele>281</ele>
        <time>2018-06-24T09:23:53Z</time>
      </trkpt>
      <trkpt lat="45.9529" lon="4.88172">
        <ele>281</ele>
        <time>2018-06-24T09:23:54Z</time>
      </trkpt>
      <trkpt lat="45.95297" lon="4.88172">
        <ele>281</ele>
        <time>2018-06-24T09:23:55Z</time>
      </trkpt>
      <trkpt lat="45.95304" lon="4.88172">
        <ele>281</ele>
        <time>2018-06-24T09:23:56Z</time>
      </trkpt>
      <trkpt lat="45.95312" lon="4.88174">
        <ele>280</ele>
        <time>2018-06-24T09:23:57Z</time>
      </trkpt>
      <trkpt lat="45.95319" lon="4.88175">
        <ele>280</ele>
        <time>2018-06-24T09:23:58Z</time>
      </trkpt>
      <trkpt lat="45.95327" lon="4.88176">
        <ele>279</ele>
        <time>2018-06-24T09:23:59Z</time>
      </trkpt>
      <trkpt lat="45.95334" lon="4.88175">
        <ele>278</ele>
        <time>2018-06-24T09:24:00Z</time>
      </trkpt>
      <trkpt lat="45.95341" lon="4.88175">
        <ele>278</ele>
        <time>2018-06-24T09:24:01Z</time>
      </trkpt>
      <trkpt lat="45.9535" lon="4.88174">
        <ele>278</ele>
        <time>2018-06-24T09:24:02Z</time>
      </trkpt>
      <trkpt lat="45.95357" lon="4.88172">
        <ele>278</ele>
        <time>2018-06-24T09:24:03Z</time>
      </trkpt>
      <trkpt lat="45.95362" lon="4.88171">
        <ele>278</ele>
        <time>2018-06-24T09:24:04Z</time>
      </trkpt>
      <trkpt lat="45.95369" lon="4.88169">
        <ele>278</ele>
        <time>2018-06-24T09:24:05Z</time>
      </trkpt>
      <trkpt lat="45.95376" lon="4.88167">
        <ele>278</ele>
        <time>2018-06-24T09:24:06Z</time>
      </trkpt>
      <trkpt lat="45.95383" lon="4.88165">
        <ele>276</ele>
        <time>2018-06-24T09:24:07Z</time>
      </trkpt>
      <trkpt lat="45.95389" lon="4.88165">
        <ele>276</ele>
        <time>2018-06-24T09:24:08Z</time>
      </trkpt>
      <trkpt lat="45.95395" lon="4.88164">
        <ele>276</ele>
        <time>2018-06-24T09:24:09Z</time>
      </trkpt>
      <trkpt lat="45.954" lon="4.88164">
        <ele>276</ele>
        <time>2018-06-24T09:24:10Z</time>
      </trkpt>
      <trkpt lat="45.95405" lon="4.8816">
        <ele>276</ele>
        <time>2018-06-24T09:24:11Z</time>
      </trkpt>
      <trkpt lat="45.95412" lon="4.88157">
        <ele>276</ele>
        <time>2018-06-24T09:24:12Z</time>
      </trkpt>
      <trkpt lat="45.95417" lon="4.88154">
        <ele>276</ele>
        <time>2018-06-24T09:24:13Z</time>
      </trkpt>
      <trkpt lat="45.95422" lon="4.88152">
        <ele>276</ele>
        <time>2018-06-24T09:24:14Z</time>
      </trkpt>
      <trkpt lat="45.95427" lon="4.88149">
        <ele>276</ele>
        <time>2018-06-24T09:24:15Z</time>
      </trkpt>
      <trkpt lat="45.95432" lon="4.88147">
        <ele>276</ele>
        <time>2018-06-24T09:24:16Z</time>
      </trkpt>
      <trkpt lat="45.95436" lon="4.88147">
        <ele>276</ele>
        <time>2018-06-24T09:24:17Z</time>
      </trkpt>
      <trkpt lat="45.95442" lon="4.88145">
        <ele>276</ele>
        <time>2018-06-24T09:24:18Z</time>
      </trkpt>
      <trkpt lat="45.95446" lon="4.88143">
        <ele>276</ele>
        <time>2018-06-24T09:24:19Z</time>
      </trkpt>
      <trkpt lat="45.95452" lon="4.88137">
        <ele>276</ele>
        <time>2018-06-24T09:24:20Z</time>
      </trkpt>
      <trkpt lat="45.95457" lon="4.88135">
        <ele>276</ele>
        <time>2018-06-24T09:24:21Z</time>
      </trkpt>
      <trkpt lat="45.95462" lon="4.88133">
        <ele>276</ele>
        <time>2018-06-24T09:24:22Z</time>
      </trkpt>
      <trkpt lat="45.95467" lon="4.8813">
        <ele>276</ele>
        <time>2018-06-24T09:24:23Z</time>
      </trkpt>
      <trkpt lat="45.95472" lon="4.88129">
        <ele>276</ele>
        <time>2018-06-24T09:24:24Z</time>
      </trkpt>
      <trkpt lat="45.95477" lon="4.88127">
        <ele>276</ele>
        <time>2018-06-24T09:24:25Z</time>
      </trkpt>
      <trkpt lat="45.95481" lon="4.88125">
        <ele>276</ele>
        <time>2018-06-24T09:24:26Z</time>
      </trkpt>
      <trkpt lat="45.95486" lon="4.88123">
        <ele>276</ele>
        <time>2018-06-24T09:24:27Z</time>
      </trkpt>
      <trkpt lat="45.95491" lon="4.88121">
        <ele>276</ele>
        <time>2018-06-24T09:24:28Z</time>
      </trkpt>
      <trkpt lat="45.95495" lon="4.88118">
        <ele>276</ele>
        <time>2018-06-24T09:24:29Z</time>
      </trkpt>
      <trkpt lat="45.955" lon="4.88117">
        <ele>276</ele>
        <time>2018-06-24T09:24:30Z</time>
      </trkpt>
      <trkpt lat="45.95504" lon="4.88115">
        <ele>276</ele>
        <time>2018-06-24T09:24:31Z</time>
      </trkpt>
      <trkpt lat="45.95511" lon="4.88111">
        <ele>276</ele>
        <time>2018-06-24T09:24:33Z</time>
      </trkpt>
      <trkpt lat="45.95516" lon="4.88109">
        <ele>276</ele>
        <time>2018-06-24T09:24:34Z</time>
      </trkpt>
      <trkpt lat="45.9552" lon="4.88106">
        <ele>277</ele>
        <time>2018-06-24T09:24:35Z</time>
      </trkpt>
      <trkpt lat="45.95525" lon="4.88104">
        <ele>277</ele>
        <time>2018-06-24T09:24:36Z</time>
      </trkpt>
      <trkpt lat="45.95533" lon="4.88102">
        <ele>277</ele>
        <time>2018-06-24T09:24:38Z</time>
      </trkpt>
      <trkpt lat="45.95539" lon="4.881">
        <ele>277</ele>
        <time>2018-06-24T09:24:39Z</time>
      </trkpt>
      <trkpt lat="45.95547" lon="4.88097">
        <ele>277</ele>
        <time>2018-06-24T09:24:41Z</time>
      </trkpt>
      <trkpt lat="45.95551" lon="4.88095">
        <ele>277</ele>
        <time>2018-06-24T09:24:42Z</time>
      </trkpt>
      <trkpt lat="45.95555" lon="4.88093">
        <ele>277</ele>
        <time>2018-06-24T09:24:43Z</time>
      </trkpt>
      <trkpt lat="45.9556" lon="4.88092">
        <ele>277</ele>
        <time>2018-06-24T09:24:44Z</time>
      </trkpt>
      <trkpt lat="45.95564" lon="4.88089">
        <ele>277</ele>
        <time>2018-06-24T09:24:45Z</time>
      </trkpt>
      <trkpt lat="45.95568" lon="4.88086">
        <ele>277</ele>
        <time>2018-06-24T09:24:46Z</time>
      </trkpt>
      <trkpt lat="45.95575" lon="4.88082">
        <ele>277</ele>
        <time>2018-06-24T09:24:48Z</time>
      </trkpt>
      <trkpt lat="45.95579" lon="4.88079">
        <ele>277</ele>
        <time>2018-06-24T09:24:49Z</time>
      </trkpt>
      <trkpt lat="45.95587" lon="4.88075">
        <ele>277</ele>
        <time>2018-06-24T09:24:51Z</time>
      </trkpt>
      <trkpt lat="45.95591" lon="4.88071">
        <ele>278</ele>
        <time>2018-06-24T09:24:52Z</time>
      </trkpt>
      <trkpt lat="45.95598" lon="4.88064">
        <ele>278</ele>
        <time>2018-06-24T09:24:54Z</time>
      </trkpt>
      <trkpt lat="45.95603" lon="4.88063">
        <ele>278</ele>
        <time>2018-06-24T09:24:55Z</time>
      </trkpt>
      <trkpt lat="45.95608" lon="4.88059">
        <ele>278</ele>
        <time>2018-06-24T09:24:56Z</time>
      </trkpt>
      <trkpt lat="45.95612" lon="4.88055">
        <ele>278</ele>
        <time>2018-06-24T09:24:57Z</time>
      </trkpt>
      <trkpt lat="45.95616" lon="4.88051">
        <ele>278</ele>
        <time>2018-06-24T09:24:58Z</time>
      </trkpt>
      <trkpt lat="45.9562" lon="4.88047">
        <ele>278</ele>
        <time>2018-06-24T09:24:59Z</time>
      </trkpt>
      <trkpt lat="45.95625" lon="4.88043">
        <ele>278</ele>
        <time>2018-06-24T09:25:00Z</time>
      </trkpt>
      <trkpt lat="45.95628" lon="4.8804">
        <ele>279</ele>
        <time>2018-06-24T09:25:01Z</time>
      </trkpt>
      <trkpt lat="45.95635" lon="4.88033">
        <ele>279</ele>
        <time>2018-06-24T09:25:03Z</time>
      </trkpt>
      <trkpt lat="45.9564" lon="4.88028">
        <ele>279</ele>
        <time>2018-06-24T09:25:04Z</time>
      </trkpt>
      <trkpt lat="45.95645" lon="4.88021">
        <ele>279</ele>
        <time>2018-06-24T09:25:06Z</time>
      </trkpt>
      <trkpt lat="45.95648" lon="4.88018">
        <ele>279</ele>
        <time>2018-06-24T09:25:07Z</time>
      </trkpt>
      <trkpt lat="45.95656" lon="4.88012">
        <ele>280</ele>
        <time>2018-06-24T09:25:09Z</time>
      </trkpt>
      <trkpt lat="45.95659" lon="4.8801">
        <ele>280</ele>
        <time>2018-06-24T09:25:10Z</time>
      </trkpt>
      <trkpt lat="45.95667" lon="4.88007">
        <ele>281</ele>
        <time>2018-06-24T09:25:12Z</time>
      </trkpt>
      <trkpt lat="45.9567" lon="4.88004">
        <ele>281</ele>
        <time>2018-06-24T09:25:13Z</time>
      </trkpt>
      <trkpt lat="45.95678" lon="4.87996">
        <ele>282</ele>
        <time>2018-06-24T09:25:15Z</time>
      </trkpt>
      <trkpt lat="45.95679" lon="4.87994">
        <ele>282</ele>
        <time>2018-06-24T09:25:16Z</time>
      </trkpt>
      <trkpt lat="45.95686" lon="4.87987">
        <ele>282</ele>
        <time>2018-06-24T09:25:19Z</time>
      </trkpt>
      <trkpt lat="45.95693" lon="4.87981">
        <ele>282</ele>
        <time>2018-06-24T09:25:20Z</time>
      </trkpt>
      <trkpt lat="45.95698" lon="4.87974">
        <ele>283</ele>
        <time>2018-06-24T09:25:22Z</time>
      </trkpt>
      <trkpt lat="45.957" lon="4.87973">
        <ele>283</ele>
        <time>2018-06-24T09:25:23Z</time>
      </trkpt>
      <trkpt lat="45.95706" lon="4.87968">
        <ele>283</ele>
        <time>2018-06-24T09:25:26Z</time>
      </trkpt>
      <trkpt lat="45.95708" lon="4.87966">
        <ele>283</ele>
        <time>2018-06-24T09:25:27Z</time>
      </trkpt>
      <trkpt lat="45.95713" lon="4.87961">
        <ele>283</ele>
        <time>2018-06-24T09:25:29Z</time>
      </trkpt>
      <trkpt lat="45.95716" lon="4.87958">
        <ele>283</ele>
        <time>2018-06-24T09:25:30Z</time>
      </trkpt>
      <trkpt lat="45.95721" lon="4.87952">
        <ele>283</ele>
        <time>2018-06-24T09:25:32Z</time>
      </trkpt>
      <trkpt lat="45.95723" lon="4.8795">
        <ele>283</ele>
        <time>2018-06-24T09:25:33Z</time>
      </trkpt>
      <trkpt lat="45.95729" lon="4.87944">
        <ele>283</ele>
        <time>2018-06-24T09:25:35Z</time>
      </trkpt>
      <trkpt lat="45.95731" lon="4.87942">
        <ele>283</ele>
        <time>2018-06-24T09:25:36Z</time>
      </trkpt>
      <trkpt lat="45.95737" lon="4.87937">
        <ele>284</ele>
        <time>2018-06-24T09:25:38Z</time>
      </trkpt>
      <trkpt lat="45.9574" lon="4.87934">
        <ele>284</ele>
        <time>2018-06-24T09:25:39Z</time>
      </trkpt>
      <trkpt lat="45.95746" lon="4.8793">
        <ele>284</ele>
        <time>2018-06-24T09:25:41Z</time>
      </trkpt>
      <trkpt lat="45.95748" lon="4.87927">
        <ele>284</ele>
        <time>2018-06-24T09:25:42Z</time>
      </trkpt>
      <trkpt lat="45.95755" lon="4.87922">
        <ele>286</ele>
        <time>2018-06-24T09:25:45Z</time>
      </trkpt>
      <trkpt lat="45.95758" lon="4.8792">
        <ele>286</ele>
        <time>2018-06-24T09:25:46Z</time>
      </trkpt>
      <trkpt lat="45.95765" lon="4.87913">
        <ele>286</ele>
        <time>2018-06-24T09:25:49Z</time>
      </trkpt>
      <trkpt lat="45.95767" lon="4.87911">
        <ele>286</ele>
        <time>2018-06-24T09:25:50Z</time>
      </trkpt>
      <trkpt lat="45.95773" lon="4.87906">
        <ele>286</ele>
        <time>2018-06-24T09:25:53Z</time>
      </trkpt>
      <trkpt lat="45.95776" lon="4.87904">
        <ele>286</ele>
        <time>2018-06-24T09:25:54Z</time>
      </trkpt>
      <trkpt lat="45.95783" lon="4.87899">
        <ele>286</ele>
        <time>2018-06-24T09:25:58Z</time>
      </trkpt>
      <trkpt lat="45.95785" lon="4.87898">
        <ele>286</ele>
        <time>2018-06-24T09:25:59Z</time>
      </trkpt>
      <trkpt lat="45.95791" lon="4.87894">
        <ele>286</ele>
        <time>2018-06-24T09:26:02Z</time>
      </trkpt>
      <trkpt lat="45.95793" lon="4.87893">
        <ele>286</ele>
        <time>2018-06-24T09:26:03Z</time>
      </trkpt>
      <trkpt lat="45.95799" lon="4.8789">
        <ele>287</ele>
        <time>2018-06-24T09:26:06Z</time>
      </trkpt>
      <trkpt lat="45.95801" lon="4.87888">
        <ele>287</ele>
        <time>2018-06-24T09:26:07Z</time>
      </trkpt>
      <trkpt lat="45.95809" lon="4.87885">
        <ele>287</ele>
        <time>2018-06-24T09:26:10Z</time>
      </trkpt>
      <trkpt lat="45.95811" lon="4.87884">
        <ele>287</ele>
        <time>2018-06-24T09:26:11Z</time>
      </trkpt>
      <trkpt lat="45.95819" lon="4.87881">
        <ele>287</ele>
        <time>2018-06-24T09:26:14Z</time>
      </trkpt>
      <trkpt lat="45.95822" lon="4.8788">
        <ele>287</ele>
        <time>2018-06-24T09:26:15Z</time>
      </trkpt>
      <trkpt lat="45.95829" lon="4.87878">
        <ele>287</ele>
        <time>2018-06-24T09:26:18Z</time>
      </trkpt>
      <trkpt lat="45.95831" lon="4.87877">
        <ele>287</ele>
        <time>2018-06-24T09:26:19Z</time>
      </trkpt>
      <trkpt lat="45.95837" lon="4.87875">
        <ele>289</ele>
        <time>2018-06-24T09:26:21Z</time>
      </trkpt>
      <trkpt lat="45.95845" lon="4.87869">
        <ele>289</ele>
        <time>2018-06-24T09:26:22Z</time>
      </trkpt>
      <trkpt lat="45.95848" lon="4.8786">
        <ele>289</ele>
        <time>2018-06-24T09:26:23Z</time>
      </trkpt>
      <trkpt lat="45.95852" lon="4.87857">
        <ele>289</ele>
        <time>2018-06-24T09:26:24Z</time>
      </trkpt>
      <trkpt lat="45.95857" lon="4.8785">
        <ele>289</ele>
        <time>2018-06-24T09:26:26Z</time>
      </trkpt>
      <trkpt lat="45.95862" lon="4.87847">
        <ele>289</ele>
        <time>2018-06-24T09:26:27Z</time>
      </trkpt>
      <trkpt lat="45.95865" lon="4.87841">
        <ele>289</ele>
        <time>2018-06-24T09:26:28Z</time>
      </trkpt>
      <trkpt lat="45.95868" lon="4.87836">
        <ele>289</ele>
        <time>2018-06-24T09:26:29Z</time>
      </trkpt>
      <trkpt lat="45.95873" lon="4.87833">
        <ele>288</ele>
        <time>2018-06-24T09:26:30Z</time>
      </trkpt>
      <trkpt lat="45.95876" lon="4.8783">
        <ele>288</ele>
        <time>2018-06-24T09:26:31Z</time>
      </trkpt>
      <trkpt lat="45.95881" lon="4.87827">
        <ele>288</ele>
        <time>2018-06-24T09:26:32Z</time>
      </trkpt>
      <trkpt lat="45.95885" lon="4.87823">
        <ele>288</ele>
        <time>2018-06-24T09:26:33Z</time>
      </trkpt>
      <trkpt lat="45.95891" lon="4.87816">
        <ele>288</ele>
        <time>2018-06-24T09:26:35Z</time>
      </trkpt>
      <trkpt lat="45.95895" lon="4.87812">
        <ele>288</ele>
        <time>2018-06-24T09:26:36Z</time>
      </trkpt>
      <trkpt lat="45.95898" lon="4.87807">
        <ele>288</ele>
        <time>2018-06-24T09:26:37Z</time>
      </trkpt>
      <trkpt lat="45.95902" lon="4.87803">
        <ele>288</ele>
        <time>2018-06-24T09:26:38Z</time>
      </trkpt>
      <trkpt lat="45.95908" lon="4.87794">
        <ele>288</ele>
        <time>2018-06-24T09:26:40Z</time>
      </trkpt>
      <trkpt lat="45.95911" lon="4.87788">
        <ele>288</ele>
        <time>2018-06-24T09:26:41Z</time>
      </trkpt>
      <trkpt lat="45.95915" lon="4.87785">
        <ele>288</ele>
        <time>2018-06-24T09:26:42Z</time>
      </trkpt>
      <trkpt lat="45.95918" lon="4.87778">
        <ele>289</ele>
        <time>2018-06-24T09:26:43Z</time>
      </trkpt>
      <trkpt lat="45.95924" lon="4.87769">
        <ele>289</ele>
        <time>2018-06-24T09:26:45Z</time>
      </trkpt>
      <trkpt lat="45.95926" lon="4.87766">
        <ele>289</ele>
        <time>2018-06-24T09:26:46Z</time>
      </trkpt>
      <trkpt lat="45.95931" lon="4.87755">
        <ele>288</ele>
        <time>2018-06-24T09:26:48Z</time>
      </trkpt>
      <trkpt lat="45.95933" lon="4.8775">
        <ele>288</ele>
        <time>2018-06-24T09:26:49Z</time>
      </trkpt>
      <trkpt lat="45.95938" lon="4.87743">
        <ele>288</ele>
        <time>2018-06-24T09:26:51Z</time>
      </trkpt>
      <trkpt lat="45.9594" lon="4.87738">
        <ele>288</ele>
        <time>2018-06-24T09:26:52Z</time>
      </trkpt>
      <trkpt lat="45.95945" lon="4.8773">
        <ele>289</ele>
        <time>2018-06-24T09:26:54Z</time>
      </trkpt>
      <trkpt lat="45.95948" lon="4.87725">
        <ele>289</ele>
        <time>2018-06-24T09:26:55Z</time>
      </trkpt>
      <trkpt lat="45.95954" lon="4.87717">
        <ele>289</ele>
        <time>2018-06-24T09:26:57Z</time>
      </trkpt>
      <trkpt lat="45.95956" lon="4.87712">
        <ele>289</ele>
        <time>2018-06-24T09:26:58Z</time>
      </trkpt>
      <trkpt lat="45.9596" lon="4.87708">
        <ele>289</ele>
        <time>2018-06-24T09:26:59Z</time>
      </trkpt>
      <trkpt lat="45.95964" lon="4.87704">
        <ele>289</ele>
        <time>2018-06-24T09:27:00Z</time>
      </trkpt>
      <trkpt lat="45.95967" lon="4.87699">
        <ele>289</ele>
        <time>2018-06-24T09:27:01Z</time>
      </trkpt>
      <trkpt lat="45.95971" lon="4.87696">
        <ele>289</ele>
        <time>2018-06-24T09:27:02Z</time>
      </trkpt>
      <trkpt lat="45.95975" lon="4.87692">
        <ele>289</ele>
        <time>2018-06-24T09:27:03Z</time>
      </trkpt>
      <trkpt lat="45.95979" lon="4.87688">
        <ele>289</ele>
        <time>2018-06-24T09:27:04Z</time>
      </trkpt>
      <trkpt lat="45.95983" lon="4.87684">
        <ele>289</ele>
        <time>2018-06-24T09:27:05Z</time>
      </trkpt>
      <trkpt lat="45.95986" lon="4.8768">
        <ele>289</ele>
        <time>2018-06-24T09:27:06Z</time>
      </trkpt>
      <trkpt lat="45.95994" lon="4.87673">
        <ele>290</ele>
        <time>2018-06-24T09:27:08Z</time>
      </trkpt>
      <trkpt lat="45.95997" lon="4.8767">
        <ele>290</ele>
        <time>2018-06-24T09:27:09Z</time>
      </trkpt>
      <trkpt lat="45.96004" lon="4.87663">
        <ele>290</ele>
        <time>2018-06-24T09:27:11Z</time>
      </trkpt>
      <trkpt lat="45.96007" lon="4.8766">
        <ele>290</ele>
        <time>2018-06-24T09:27:12Z</time>
      </trkpt>
      <trkpt lat="45.96013" lon="4.87652">
        <ele>289</ele>
        <time>2018-06-24T09:27:14Z</time>
      </trkpt>
      <trkpt lat="45.96016" lon="4.87647">
        <ele>289</ele>
        <time>2018-06-24T09:27:15Z</time>
      </trkpt>
      <trkpt lat="45.96021" lon="4.87643">
        <ele>289</ele>
        <time>2018-06-24T09:27:16Z</time>
      </trkpt>
      <trkpt lat="45.96025" lon="4.87638">
        <ele>289</ele>
        <time>2018-06-24T09:27:17Z</time>
      </trkpt>
      <trkpt lat="45.96029" lon="4.87634">
        <ele>289</ele>
        <time>2018-06-24T09:27:18Z</time>
      </trkpt>
      <trkpt lat="45.96034" lon="4.87631">
        <ele>289</ele>
        <time>2018-06-24T09:27:19Z</time>
      </trkpt>
      <trkpt lat="45.96038" lon="4.87628">
        <ele>289</ele>
        <time>2018-06-24T09:27:20Z</time>
      </trkpt>
      <trkpt lat="45.9604" lon="4.87622">
        <ele>289</ele>
        <time>2018-06-24T09:27:21Z</time>
      </trkpt>
      <trkpt lat="45.96047" lon="4.87614">
        <ele>289</ele>
        <time>2018-06-24T09:27:23Z</time>
      </trkpt>
      <trkpt lat="45.96053" lon="4.87608">
        <ele>289</ele>
        <time>2018-06-24T09:27:24Z</time>
      </trkpt>
      <trkpt lat="45.96057" lon="4.87605">
        <ele>289</ele>
        <time>2018-06-24T09:27:25Z</time>
      </trkpt>
      <trkpt lat="45.96062" lon="4.876">
        <ele>288</ele>
        <time>2018-06-24T09:27:26Z</time>
      </trkpt>
      <trkpt lat="45.96066" lon="4.87595">
        <ele>288</ele>
        <time>2018-06-24T09:27:27Z</time>
      </trkpt>
      <trkpt lat="45.96069" lon="4.87592">
        <ele>288</ele>
        <time>2018-06-24T09:27:28Z</time>
      </trkpt>
      <trkpt lat="45.96073" lon="4.87588">
        <ele>288</ele>
        <time>2018-06-24T09:27:29Z</time>
      </trkpt>
      <trkpt lat="45.96077" lon="4.87583">
        <ele>288</ele>
        <time>2018-06-24T09:27:30Z</time>
      </trkpt>
      <trkpt lat="45.9608" lon="4.87579">
        <ele>288</ele>
        <time>2018-06-24T09:27:31Z</time>
      </trkpt>
      <trkpt lat="45.96084" lon="4.87575">
        <ele>288</ele>
        <time>2018-06-24T09:27:32Z</time>
      </trkpt>
      <trkpt lat="45.96088" lon="4.87567">
        <ele>287</ele>
        <time>2018-06-24T09:27:33Z</time>
      </trkpt>
      <trkpt lat="45.96092" lon="4.87563">
        <ele>287</ele>
        <time>2018-06-24T09:27:34Z</time>
      </trkpt>
      <trkpt lat="45.96098" lon="4.87555">
        <ele>287</ele>
        <time>2018-06-24T09:27:36Z</time>
      </trkpt>
      <trkpt lat="45.96102" lon="4.87551">
        <ele>287</ele>
        <time>2018-06-24T09:27:37Z</time>
      </trkpt>
      <trkpt lat="45.96105" lon="4.87546">
        <ele>287</ele>
        <time>2018-06-24T09:27:38Z</time>
      </trkpt>
      <trkpt lat="45.9611" lon="4.8754">
        <ele>287</ele>
        <time>2018-06-24T09:27:39Z</time>
      </trkpt>
      <trkpt lat="45.96114" lon="4.87534">
        <ele>287</ele>
        <time>2018-06-24T09:27:40Z</time>
      </trkpt>
      <trkpt lat="45.96117" lon="4.8753">
        <ele>287</ele>
        <time>2018-06-24T09:27:41Z</time>
      </trkpt>
      <trkpt lat="45.96122" lon="4.87526">
        <ele>286</ele>
        <time>2018-06-24T09:27:42Z</time>
      </trkpt>
      <trkpt lat="45.96126" lon="4.87522">
        <ele>286</ele>
        <time>2018-06-24T09:27:43Z</time>
      </trkpt>
      <trkpt lat="45.96131" lon="4.87518">
        <ele>286</ele>
        <time>2018-06-24T09:27:44Z</time>
      </trkpt>
      <trkpt lat="45.96135" lon="4.87512">
        <ele>286</ele>
        <time>2018-06-24T09:27:45Z</time>
      </trkpt>
      <trkpt lat="45.96139" lon="4.87507">
        <ele>286</ele>
        <time>2018-06-24T09:27:46Z</time>
      </trkpt>
      <trkpt lat="45.96143" lon="4.87502">
        <ele>286</ele>
        <time>2018-06-24T09:27:47Z</time>
      </trkpt>
      <trkpt lat="45.96148" lon="4.87498">
        <ele>285</ele>
        <time>2018-06-24T09:27:48Z</time>
      </trkpt>
      <trkpt lat="45.96152" lon="4.87493">
        <ele>285</ele>
        <time>2018-06-24T09:27:49Z</time>
      </trkpt>
      <trkpt lat="45.96157" lon="4.87486">
        <ele>285</ele>
        <time>2018-06-24T09:27:50Z</time>
      </trkpt>
      <trkpt lat="45.96161" lon="4.87482">
        <ele>285</ele>
        <time>2018-06-24T09:27:51Z</time>
      </trkpt>
      <trkpt lat="45.96166" lon="4.87476">
        <ele>285</ele>
        <time>2018-06-24T09:27:52Z</time>
      </trkpt>
      <trkpt lat="45.9617" lon="4.87471">
        <ele>284</ele>
        <time>2018-06-24T09:27:53Z</time>
      </trkpt>
      <trkpt lat="45.96174" lon="4.87466">
        <ele>284</ele>
        <time>2018-06-24T09:27:54Z</time>
      </trkpt>
      <trkpt lat="45.96179" lon="4.8746">
        <ele>284</ele>
        <time>2018-06-24T09:27:55Z</time>
      </trkpt>
      <trkpt lat="45.96185" lon="4.87456">
        <ele>284</ele>
        <time>2018-06-24T09:27:56Z</time>
      </trkpt>
      <trkpt lat="45.96189" lon="4.8745">
        <ele>284</ele>
        <time>2018-06-24T09:27:57Z</time>
      </trkpt>
      <trkpt lat="45.96194" lon="4.87446">
        <ele>284</ele>
        <time>2018-06-24T09:27:58Z</time>
      </trkpt>
      <trkpt lat="45.96198" lon="4.87441">
        <ele>284</ele>
        <time>2018-06-24T09:27:59Z</time>
      </trkpt>
      <trkpt lat="45.96202" lon="4.87436">
        <ele>284</ele>
        <time>2018-06-24T09:28:00Z</time>
      </trkpt>
      <trkpt lat="45.96206" lon="4.87432">
        <ele>284</ele>
        <time>2018-06-24T09:28:01Z</time>
      </trkpt>
      <trkpt lat="45.96211" lon="4.87426">
        <ele>284</ele>
        <time>2018-06-24T09:28:02Z</time>
      </trkpt>
      <trkpt lat="45.96214" lon="4.87419">
        <ele>284</ele>
        <time>2018-06-24T09:28:03Z</time>
      </trkpt>
      <trkpt lat="45.96218" lon="4.87414">
        <ele>283</ele>
        <time>2018-06-24T09:28:04Z</time>
      </trkpt>
      <trkpt lat="45.96223" lon="4.87408">
        <ele>283</ele>
        <time>2018-06-24T09:28:05Z</time>
      </trkpt>
      <trkpt lat="45.96226" lon="4.87404">
        <ele>283</ele>
        <time>2018-06-24T09:28:06Z</time>
      </trkpt>
      <trkpt lat="45.96229" lon="4.87399">
        <ele>283</ele>
        <time>2018-06-24T09:28:07Z</time>
      </trkpt>
      <trkpt lat="45.96234" lon="4.87394">
        <ele>283</ele>
        <time>2018-06-24T09:28:08Z</time>
      </trkpt>
      <trkpt lat="45.96238" lon="4.87391">
        <ele>283</ele>
        <time>2018-06-24T09:28:09Z</time>
      </trkpt>
      <trkpt lat="45.96242" lon="4.87385">
        <ele>283</ele>
        <time>2018-06-24T09:28:10Z</time>
      </trkpt>
      <trkpt lat="45.96246" lon="4.87381">
        <ele>283</ele>
        <time>2018-06-24T09:28:11Z</time>
      </trkpt>
      <trkpt lat="45.96249" lon="4.87376">
        <ele>283</ele>
        <time>2018-06-24T09:28:12Z</time>
      </trkpt>
      <trkpt lat="45.96253" lon="4.87372">
        <ele>283</ele>
        <time>2018-06-24T09:28:13Z</time>
      </trkpt>
      <trkpt lat="45.96257" lon="4.87368">
        <ele>283</ele>
        <time>2018-06-24T09:28:14Z</time>
      </trkpt>
      <trkpt lat="45.9626" lon="4.87362">
        <ele>283</ele>
        <time>2018-06-24T09:28:15Z</time>
      </trkpt>
      <trkpt lat="45.96263" lon="4.87357">
        <ele>283</ele>
        <time>2018-06-24T09:28:16Z</time>
      </trkpt>
      <trkpt lat="45.96267" lon="4.87349">
        <ele>283</ele>
        <time>2018-06-24T09:28:17Z</time>
      </trkpt>
      <trkpt lat="45.96272" lon="4.87342">
        <ele>283</ele>
        <time>2018-06-24T09:28:18Z</time>
      </trkpt>
      <trkpt lat="45.96276" lon="4.87338">
        <ele>283</ele>
        <time>2018-06-24T09:28:19Z</time>
      </trkpt>
      <trkpt lat="45.9628" lon="4.87333">
        <ele>283</ele>
        <time>2018-06-24T09:28:20Z</time>
      </trkpt>
      <trkpt lat="45.96284" lon="4.87329">
        <ele>283</ele>
        <time>2018-06-24T09:28:21Z</time>
      </trkpt>
      <trkpt lat="45.96288" lon="4.87325">
        <ele>283</ele>
        <time>2018-06-24T09:28:22Z</time>
      </trkpt>
      <trkpt lat="45.96292" lon="4.8732">
        <ele>283</ele>
        <time>2018-06-24T09:28:23Z</time>
      </trkpt>
      <trkpt lat="45.96296" lon="4.87314">
        <ele>283</ele>
        <time>2018-06-24T09:28:24Z</time>
      </trkpt>
      <trkpt lat="45.963" lon="4.87309">
        <ele>283</ele>
        <time>2018-06-24T09:28:25Z</time>
      </trkpt>
      <trkpt lat="45.96303" lon="4.87304">
        <ele>283</ele>
        <time>2018-06-24T09:28:26Z</time>
      </trkpt>
      <trkpt lat="45.96307" lon="4.87296">
        <ele>283</ele>
        <time>2018-06-24T09:28:27Z</time>
      </trkpt>
      <trkpt lat="45.96311" lon="4.87291">
        <ele>283</ele>
        <time>2018-06-24T09:28:28Z</time>
      </trkpt>
      <trkpt lat="45.96316" lon="4.87286">
        <ele>283</ele>
        <time>2018-06-24T09:28:29Z</time>
      </trkpt>
      <trkpt lat="45.9632" lon="4.87281">
        <ele>283</ele>
        <time>2018-06-24T09:28:30Z</time>
      </trkpt>
      <trkpt lat="45.96324" lon="4.87276">
        <ele>283</ele>
        <time>2018-06-24T09:28:31Z</time>
      </trkpt>
      <trkpt lat="45.96328" lon="4.87272">
        <ele>283</ele>
        <time>2018-06-24T09:28:32Z</time>
      </trkpt>
      <trkpt lat="45.96331" lon="4.87266">
        <ele>283</ele>
        <time>2018-06-24T09:28:33Z</time>
      </trkpt>
      <trkpt lat="45.96336" lon="4.87263">
        <ele>283</ele>
        <time>2018-06-24T09:28:34Z</time>
      </trkpt>
      <trkpt lat="45.96341" lon="4.87257">
        <ele>283</ele>
        <time>2018-06-24T09:28:35Z</time>
      </trkpt>
      <trkpt lat="45.96344" lon="4.87252">
        <ele>283</ele>
        <time>2018-06-24T09:28:36Z</time>
      </trkpt>
      <trkpt lat="45.96348" lon="4.87249">
        <ele>283</ele>
        <time>2018-06-24T09:28:37Z</time>
      </trkpt>
      <trkpt lat="45.96351" lon="4.87243">
        <ele>282</ele>
        <time>2018-06-24T09:28:38Z</time>
      </trkpt>
      <trkpt lat="45.96354" lon="4.87238">
        <ele>282</ele>
        <time>2018-06-24T09:28:39Z</time>
      </trkpt>
      <trkpt lat="45.96358" lon="4.87234">
        <ele>282</ele>
        <time>2018-06-24T09:28:40Z</time>
      </trkpt>
      <trkpt lat="45.96362" lon="4.87228">
        <ele>282</ele>
        <time>2018-06-24T09:28:41Z</time>
      </trkpt>
      <trkpt lat="45.96366" lon="4.87223">
        <ele>282</ele>
        <time>2018-06-24T09:28:42Z</time>
      </trkpt>
      <trkpt lat="45.9637" lon="4.87218">
        <ele>282</ele>
        <time>2018-06-24T09:28:43Z</time>
      </trkpt>
      <trkpt lat="45.96374" lon="4.87211">
        <ele>282</ele>
        <time>2018-06-24T09:28:44Z</time>
      </trkpt>
      <trkpt lat="45.96377" lon="4.87206">
        <ele>282</ele>
        <time>2018-06-24T09:28:45Z</time>
      </trkpt>
      <trkpt lat="45.96382" lon="4.87201">
        <ele>282</ele>
        <time>2018-06-24T09:28:46Z</time>
      </trkpt>
      <trkpt lat="45.96386" lon="4.87195">
        <ele>282</ele>
        <time>2018-06-24T09:28:47Z</time>
      </trkpt>
      <trkpt lat="45.9639" lon="4.8719">
        <ele>282</ele>
        <time>2018-06-24T09:28:48Z</time>
      </trkpt>
      <trkpt lat="45.96394" lon="4.87186">
        <ele>282</ele>
        <time>2018-06-24T09:28:49Z</time>
      </trkpt>
      <trkpt lat="45.96398" lon="4.87182">
        <ele>282</ele>
        <time>2018-06-24T09:28:50Z</time>
      </trkpt>
      <trkpt lat="45.96402" lon="4.87177">
        <ele>282</ele>
        <time>2018-06-24T09:28:51Z</time>
      </trkpt>
      <trkpt lat="45.96404" lon="4.87172">
        <ele>281</ele>
        <time>2018-06-24T09:28:52Z</time>
      </trkpt>
      <trkpt lat="45.96408" lon="4.87167">
        <ele>281</ele>
        <time>2018-06-24T09:28:53Z</time>
      </trkpt>
      <trkpt lat="45.96413" lon="4.87163">
        <ele>281</ele>
        <time>2018-06-24T09:28:54Z</time>
      </trkpt>
      <trkpt lat="45.96416" lon="4.87159">
        <ele>281</ele>
        <time>2018-06-24T09:28:55Z</time>
      </trkpt>
      <trkpt lat="45.9642" lon="4.87153">
        <ele>281</ele>
        <time>2018-06-24T09:28:56Z</time>
      </trkpt>
      <trkpt lat="45.96423" lon="4.87148">
        <ele>281</ele>
        <time>2018-06-24T09:28:57Z</time>
      </trkpt>
      <trkpt lat="45.96426" lon="4.87142">
        <ele>281</ele>
        <time>2018-06-24T09:28:58Z</time>
      </trkpt>
      <trkpt lat="45.9643" lon="4.87137">
        <ele>281</ele>
        <time>2018-06-24T09:28:59Z</time>
      </trkpt>
      <trkpt lat="45.96435" lon="4.87133">
        <ele>281</ele>
        <time>2018-06-24T09:29:00Z</time>
      </trkpt>
      <trkpt lat="45.96438" lon="4.87129">
        <ele>281</ele>
        <time>2018-06-24T09:29:01Z</time>
      </trkpt>
      <trkpt lat="45.96442" lon="4.87124">
        <ele>281</ele>
        <time>2018-06-24T09:29:02Z</time>
      </trkpt>
      <trkpt lat="45.96444" lon="4.87119">
        <ele>281</ele>
        <time>2018-06-24T09:29:03Z</time>
      </trkpt>
      <trkpt lat="45.96448" lon="4.87113">
        <ele>281</ele>
        <time>2018-06-24T09:29:04Z</time>
      </trkpt>
      <trkpt lat="45.96453" lon="4.8711">
        <ele>281</ele>
        <time>2018-06-24T09:29:05Z</time>
      </trkpt>
      <trkpt lat="45.96458" lon="4.87104">
        <ele>281</ele>
        <time>2018-06-24T09:29:06Z</time>
      </trkpt>
      <trkpt lat="45.96462" lon="4.871">
        <ele>282</ele>
        <time>2018-06-24T09:29:07Z</time>
      </trkpt>
      <trkpt lat="45.96469" lon="4.87093">
        <ele>282</ele>
        <time>2018-06-24T09:29:09Z</time>
      </trkpt>
      <trkpt lat="45.96474" lon="4.87087">
        <ele>282</ele>
        <time>2018-06-24T09:29:10Z</time>
      </trkpt>
      <trkpt lat="45.96477" lon="4.87082">
        <ele>282</ele>
        <time>2018-06-24T09:29:11Z</time>
      </trkpt>
      <trkpt lat="45.9648" lon="4.87077">
        <ele>282</ele>
        <time>2018-06-24T09:29:12Z</time>
      </trkpt>
      <trkpt lat="45.96485" lon="4.87072">
        <ele>282</ele>
        <time>2018-06-24T09:29:14Z</time>
      </trkpt>
      <trkpt lat="45.96488" lon="4.87069">
        <ele>282</ele>
        <time>2018-06-24T09:29:15Z</time>
      </trkpt>
      <trkpt lat="45.96495" lon="4.87061">
        <ele>282</ele>
        <time>2018-06-24T09:29:17Z</time>
      </trkpt>
      <trkpt lat="45.96498" lon="4.87057">
        <ele>281</ele>
        <time>2018-06-24T09:29:18Z</time>
      </trkpt>
      <trkpt lat="45.96503" lon="4.87049">
        <ele>282</ele>
        <time>2018-06-24T09:29:21Z</time>
      </trkpt>
      <trkpt lat="45.96505" lon="4.87047">
        <ele>282</ele>
        <time>2018-06-24T09:29:22Z</time>
      </trkpt>
      <trkpt lat="45.96513" lon="4.87045">
        <ele>283</ele>
        <time>2018-06-24T09:29:26Z</time>
      </trkpt>
      <trkpt lat="45.96516" lon="4.87047">
        <ele>283</ele>
        <time>2018-06-24T09:29:27Z</time>
      </trkpt>
      <trkpt lat="45.96521" lon="4.87057">
        <ele>283</ele>
        <time>2018-06-24T09:29:30Z</time>
      </trkpt>
      <trkpt lat="45.96523" lon="4.8706">
        <ele>283</ele>
        <time>2018-06-24T09:29:31Z</time>
      </trkpt>
      <trkpt lat="45.9653" lon="4.87068">
        <ele>283</ele>
        <time>2018-06-24T09:29:34Z</time>
      </trkpt>
      <trkpt lat="45.96533" lon="4.87068">
        <ele>283</ele>
        <time>2018-06-24T09:29:35Z</time>
      </trkpt>
      <trkpt lat="45.9654" lon="4.87063">
        <ele>283</ele>
        <time>2018-06-24T09:29:41Z</time>
      </trkpt>
      <trkpt lat="45.96541" lon="4.87063">
        <ele>283</ele>
        <time>2018-06-24T09:29:42Z</time>
      </trkpt>
      <trkpt lat="45.96545" lon="4.87074">
        <ele>283</ele>
        <time>2018-06-24T09:29:48Z</time>
      </trkpt>
      <trkpt lat="45.96547" lon="4.87075">
        <ele>283</ele>
        <time>2018-06-24T09:29:49Z</time>
      </trkpt>
      <trkpt lat="45.96555" lon="4.87076">
        <ele>283</ele>
        <time>2018-06-24T09:29:54Z</time>
      </trkpt>
      <trkpt lat="45.96558" lon="4.87074">
        <ele>283</ele>
        <time>2018-06-24T09:29:55Z</time>
      </trkpt>
      <trkpt lat="45.96562" lon="4.87068">
        <ele>283</ele>
        <time>2018-06-24T09:29:57Z</time>
      </trkpt>
      <trkpt lat="45.96564" lon="4.87063">
        <ele>283</ele>
        <time>2018-06-24T09:29:58Z</time>
      </trkpt>
      <trkpt lat="45.96565" lon="4.87053">
        <ele>283</ele>
        <time>2018-06-24T09:30:00Z</time>
      </trkpt>
      <trkpt lat="45.96564" lon="4.87048">
        <ele>283</ele>
        <time>2018-06-24T09:30:01Z</time>
      </trkpt>
      <trkpt lat="45.96562" lon="4.87035">
        <ele>283</ele>
        <time>2018-06-24T09:30:02Z</time>
      </trkpt>
      <trkpt lat="45.96558" lon="4.87027">
        <ele>283</ele>
        <time>2018-06-24T09:30:05Z</time>
      </trkpt>
      <trkpt lat="45.96556" lon="4.87025">
        <ele>283</ele>
        <time>2018-06-24T09:30:06Z</time>
      </trkpt>
      <trkpt lat="45.96548" lon="4.87022">
        <ele>283</ele>
        <time>2018-06-24T09:30:10Z</time>
      </trkpt>
      <trkpt lat="45.96546" lon="4.87023">
        <ele>283</ele>
        <time>2018-06-24T09:30:11Z</time>
      </trkpt>
      <trkpt lat="45.96538" lon="4.87027">
        <ele>283</ele>
        <time>2018-06-24T09:30:15Z</time>
      </trkpt>
      <trkpt lat="45.96537" lon="4.87028">
        <ele>283</ele>
        <time>2018-06-24T09:30:16Z</time>
      </trkpt>
      <trkpt lat="45.96546" lon="4.87026">
        <ele>283</ele>
        <time>2018-06-24T09:40:20Z</time>
      </trkpt>
      <trkpt lat="45.96548" lon="4.87025">
        <ele>283</ele>
        <time>2018-06-24T09:40:21Z</time>
      </trkpt>
      <trkpt lat="45.96551" lon="4.87015">
        <ele>283</ele>
        <time>2018-06-24T09:40:25Z</time>
      </trkpt>
      <trkpt lat="45.96551" lon="4.87012">
        <ele>283</ele>
        <time>2018-06-24T09:40:26Z</time>
      </trkpt>
      <trkpt lat="45.96551" lon="4.87002">
        <ele>283</ele>
        <time>2018-06-24T09:40:29Z</time>
      </trkpt>
      <trkpt lat="45.96552" lon="4.86998">
        <ele>283</ele>
        <time>2018-06-24T09:40:30Z</time>
      </trkpt>
      <trkpt lat="45.96552" lon="4.86995">
        <ele>283</ele>
        <time>2018-06-24T09:40:31Z</time>
      </trkpt>
      <trkpt lat="45.96556" lon="4.86985">
        <ele>283</ele>
        <time>2018-06-24T09:40:32Z</time>
      </trkpt>
      <trkpt lat="45.96562" lon="4.86978">
        <ele>284</ele>
        <time>2018-06-24T09:40:37Z</time>
      </trkpt>
      <trkpt lat="45.96564" lon="4.86976">
        <ele>284</ele>
        <time>2018-06-24T09:40:38Z</time>
      </trkpt>
      <trkpt lat="45.96568" lon="4.86968">
        <ele>284</ele>
        <time>2018-06-24T09:40:41Z</time>
      </trkpt>
      <trkpt lat="45.9657" lon="4.86964">
        <ele>284</ele>
        <time>2018-06-24T09:40:42Z</time>
      </trkpt>
      <trkpt lat="45.96574" lon="4.86956">
        <ele>284</ele>
        <time>2018-06-24T09:40:44Z</time>
      </trkpt>
      <trkpt lat="45.96576" lon="4.86953">
        <ele>284</ele>
        <time>2018-06-24T09:40:45Z</time>
      </trkpt>
      <trkpt lat="45.9658" lon="4.86946">
        <ele>284</ele>
        <time>2018-06-24T09:40:47Z</time>
      </trkpt>
      <trkpt lat="45.96582" lon="4.86942">
        <ele>284</ele>
        <time>2018-06-24T09:40:48Z</time>
      </trkpt>
      <trkpt lat="45.96586" lon="4.86935">
        <ele>286</ele>
        <time>2018-06-24T09:40:50Z</time>
      </trkpt>
      <trkpt lat="45.96588" lon="4.86932">
        <ele>286</ele>
        <time>2018-06-24T09:40:51Z</time>
      </trkpt>
      <trkpt lat="45.96592" lon="4.86925">
        <ele>286</ele>
        <time>2018-06-24T09:40:53Z</time>
      </trkpt>
      <trkpt lat="45.96594" lon="4.86922">
        <ele>286</ele>
        <time>2018-06-24T09:40:54Z</time>
      </trkpt>
      <trkpt lat="45.96598" lon="4.86915">
        <ele>286</ele>
        <time>2018-06-24T09:40:56Z</time>
      </trkpt>
      <trkpt lat="45.966" lon="4.86911">
        <ele>286</ele>
        <time>2018-06-24T09:40:57Z</time>
      </trkpt>
      <trkpt lat="45.96605" lon="4.86901">
        <ele>286</ele>
        <time>2018-06-24T09:41:00Z</time>
      </trkpt>
      <trkpt lat="45.96607" lon="4.86898">
        <ele>286</ele>
        <time>2018-06-24T09:41:01Z</time>
      </trkpt>
      <trkpt lat="45.96612" lon="4.86889">
        <ele>287</ele>
        <time>2018-06-24T09:41:04Z</time>
      </trkpt>
      <trkpt lat="45.96614" lon="4.86885">
        <ele>287</ele>
        <time>2018-06-24T09:41:05Z</time>
      </trkpt>
      <trkpt lat="45.96617" lon="4.86881">
        <ele>287</ele>
        <time>2018-06-24T09:41:06Z</time>
      </trkpt>
      <trkpt lat="45.96623" lon="4.86869">
        <ele>287</ele>
        <time>2018-06-24T09:41:07Z</time>
      </trkpt>
      <trkpt lat="45.96628" lon="4.86862">
        <ele>287</ele>
        <time>2018-06-24T09:41:10Z</time>
      </trkpt>
      <trkpt lat="45.96633" lon="4.86853">
        <ele>287</ele>
        <time>2018-06-24T09:41:11Z</time>
      </trkpt>
      <trkpt lat="45.96637" lon="4.86844">
        <ele>287</ele>
        <time>2018-06-24T09:41:14Z</time>
      </trkpt>
      <trkpt lat="45.96641" lon="4.86837">
        <ele>287</ele>
        <time>2018-06-24T09:41:15Z</time>
      </trkpt>
      <trkpt lat="45.96644" lon="4.86832">
        <ele>288</ele>
        <time>2018-06-24T09:41:16Z</time>
      </trkpt>
      <trkpt lat="45.96648" lon="4.86826">
        <ele>288</ele>
        <time>2018-06-24T09:41:17Z</time>
      </trkpt>
      <trkpt lat="45.96654" lon="4.86817">
        <ele>288</ele>
        <time>2018-06-24T09:41:19Z</time>
      </trkpt>
      <trkpt lat="45.96657" lon="4.86813">
        <ele>288</ele>
        <time>2018-06-24T09:41:20Z</time>
      </trkpt>
      <trkpt lat="45.96662" lon="4.86803">
        <ele>288</ele>
        <time>2018-06-24T09:41:22Z</time>
      </trkpt>
      <trkpt lat="45.96665" lon="4.86799">
        <ele>288</ele>
        <time>2018-06-24T09:41:23Z</time>
      </trkpt>
      <trkpt lat="45.9667" lon="4.86789">
        <ele>289</ele>
        <time>2018-06-24T09:41:25Z</time>
      </trkpt>
      <trkpt lat="45.96674" lon="4.86782">
        <ele>289</ele>
        <time>2018-06-24T09:41:26Z</time>
      </trkpt>
      <trkpt lat="45.96677" lon="4.86773">
        <ele>289</ele>
        <time>2018-06-24T09:41:28Z</time>
      </trkpt>
      <trkpt lat="45.96682" lon="4.86769">
        <ele>289</ele>
        <time>2018-06-24T09:41:29Z</time>
      </trkpt>
      <trkpt lat="45.96687" lon="4.8676">
        <ele>289</ele>
        <time>2018-06-24T09:41:31Z</time>
      </trkpt>
      <trkpt lat="45.96689" lon="4.86756">
        <ele>289</ele>
        <time>2018-06-24T09:41:32Z</time>
      </trkpt>
      <trkpt lat="45.96695" lon="4.86746">
        <ele>289</ele>
        <time>2018-06-24T09:41:34Z</time>
      </trkpt>
      <trkpt lat="45.96698" lon="4.86742">
        <ele>289</ele>
        <time>2018-06-24T09:41:35Z</time>
      </trkpt>
      <trkpt lat="45.967" lon="4.86736">
        <ele>289</ele>
        <time>2018-06-24T09:41:36Z</time>
      </trkpt>
      <trkpt lat="45.96703" lon="4.86732">
        <ele>289</ele>
        <time>2018-06-24T09:41:37Z</time>
      </trkpt>
      <trkpt lat="45.96709" lon="4.86724">
        <ele>289</ele>
        <time>2018-06-24T09:41:39Z</time>
      </trkpt>
      <trkpt lat="45.96713" lon="4.86717">
        <ele>289</ele>
        <time>2018-06-24T09:41:40Z</time>
      </trkpt>
      <trkpt lat="45.96718" lon="4.86708">
        <ele>289</ele>
        <time>2018-06-24T09:41:42Z</time>
      </trkpt>
      <trkpt lat="45.9672" lon="4.86704">
        <ele>289</ele>
        <time>2018-06-24T09:41:43Z</time>
      </trkpt>
      <trkpt lat="45.96725" lon="4.86696">
        <ele>289</ele>
        <time>2018-06-24T09:41:45Z</time>
      </trkpt>
      <trkpt lat="45.96727" lon="4.86692">
        <ele>289</ele>
        <time>2018-06-24T09:41:46Z</time>
      </trkpt>
      <trkpt lat="45.96732" lon="4.86684">
        <ele>289</ele>
        <time>2018-06-24T09:41:48Z</time>
      </trkpt>
      <trkpt lat="45.96734" lon="4.8668">
        <ele>290</ele>
        <time>2018-06-24T09:41:49Z</time>
      </trkpt>
      <trkpt lat="45.96739" lon="4.86673">
        <ele>290</ele>
        <time>2018-06-24T09:41:51Z</time>
      </trkpt>
      <trkpt lat="45.96742" lon="4.86668">
        <ele>290</ele>
        <time>2018-06-24T09:41:52Z</time>
      </trkpt>
      <trkpt lat="45.96747" lon="4.8666">
        <ele>290</ele>
        <time>2018-06-24T09:41:54Z</time>
      </trkpt>
      <trkpt lat="45.96749" lon="4.86658">
        <ele>290</ele>
        <time>2018-06-24T09:41:55Z</time>
      </trkpt>
      <trkpt lat="45.96754" lon="4.8665">
        <ele>290</ele>
        <time>2018-06-24T09:41:58Z</time>
      </trkpt>
      <trkpt lat="45.96758" lon="4.86641">
        <ele>290</ele>
        <time>2018-06-24T09:41:59Z</time>
      </trkpt>
      <trkpt lat="45.96763" lon="4.86632">
        <ele>289</ele>
        <time>2018-06-24T09:42:01Z</time>
      </trkpt>
      <trkpt lat="45.96765" lon="4.86627">
        <ele>289</ele>
        <time>2018-06-24T09:42:02Z</time>
      </trkpt>
      <trkpt lat="45.9677" lon="4.86619">
        <ele>289</ele>
        <time>2018-06-24T09:42:04Z</time>
      </trkpt>
      <trkpt lat="45.96773" lon="4.86615">
        <ele>289</ele>
        <time>2018-06-24T09:42:05Z</time>
      </trkpt>
      <trkpt lat="45.96779" lon="4.86606">
        <ele>289</ele>
        <time>2018-06-24T09:42:07Z</time>
      </trkpt>
      <trkpt lat="45.96781" lon="4.86601">
        <ele>289</ele>
        <time>2018-06-24T09:42:08Z</time>
      </trkpt>
      <trkpt lat="45.96787" lon="4.86592">
        <ele>289</ele>
        <time>2018-06-24T09:42:10Z</time>
      </trkpt>
      <trkpt lat="45.9679" lon="4.86588">
        <ele>289</ele>
        <time>2018-06-24T09:42:11Z</time>
      </trkpt>
      <trkpt lat="45.96794" lon="4.86579">
        <ele>290</ele>
        <time>2018-06-24T09:42:13Z</time>
      </trkpt>
      <trkpt lat="45.96797" lon="4.86575">
        <ele>290</ele>
        <time>2018-06-24T09:42:14Z</time>
      </trkpt>
      <trkpt lat="45.96802" lon="4.86566">
        <ele>290</ele>
        <time>2018-06-24T09:42:16Z</time>
      </trkpt>
      <trkpt lat="45.96804" lon="4.86561">
        <ele>290</ele>
        <time>2018-06-24T09:42:17Z</time>
      </trkpt>
      <trkpt lat="45.96808" lon="4.86554">
        <ele>290</ele>
        <time>2018-06-24T09:42:19Z</time>
      </trkpt>
      <trkpt lat="45.96812" lon="4.86549">
        <ele>290</ele>
        <time>2018-06-24T09:42:20Z</time>
      </trkpt>
      <trkpt lat="45.96817" lon="4.86541">
        <ele>290</ele>
        <time>2018-06-24T09:42:22Z</time>
      </trkpt>
      <trkpt lat="45.9682" lon="4.86537">
        <ele>290</ele>
        <time>2018-06-24T09:42:23Z</time>
      </trkpt>
      <trkpt lat="45.96825" lon="4.86528">
        <ele>289</ele>
        <time>2018-06-24T09:42:25Z</time>
      </trkpt>
      <trkpt lat="45.96827" lon="4.86524">
        <ele>289</ele>
        <time>2018-06-24T09:42:26Z</time>
      </trkpt>
      <trkpt lat="45.96831" lon="4.86516">
        <ele>289</ele>
        <time>2018-06-24T09:42:28Z</time>
      </trkpt>
      <trkpt lat="45.96834" lon="4.8651">
        <ele>289</ele>
        <time>2018-06-24T09:42:29Z</time>
      </trkpt>
      <trkpt lat="45.96838" lon="4.86499">
        <ele>289</ele>
        <time>2018-06-24T09:42:33Z</time>
      </trkpt>
      <trkpt lat="45.96842" lon="4.86489">
        <ele>289</ele>
        <time>2018-06-24T09:42:34Z</time>
      </trkpt>
      <trkpt lat="45.96847" lon="4.86479">
        <ele>289</ele>
        <time>2018-06-24T09:42:36Z</time>
      </trkpt>
      <trkpt lat="45.96849" lon="4.86474">
        <ele>289</ele>
        <time>2018-06-24T09:42:37Z</time>
      </trkpt>
      <trkpt lat="45.96852" lon="4.86462">
        <ele>289</ele>
        <time>2018-06-24T09:42:39Z</time>
      </trkpt>
      <trkpt lat="45.96853" lon="4.86457">
        <ele>289</ele>
        <time>2018-06-24T09:42:40Z</time>
      </trkpt>
      <trkpt lat="45.96855" lon="4.86451">
        <ele>289</ele>
        <time>2018-06-24T09:42:41Z</time>
      </trkpt>
      <trkpt lat="45.96856" lon="4.86444">
        <ele>289</ele>
        <time>2018-06-24T09:42:42Z</time>
      </trkpt>
      <trkpt lat="45.96859" lon="4.86437">
        <ele>290</ele>
        <time>2018-06-24T09:42:43Z</time>
      </trkpt>
      <trkpt lat="45.96861" lon="4.86432">
        <ele>290</ele>
        <time>2018-06-24T09:42:44Z</time>
      </trkpt>
      <trkpt lat="45.96862" lon="4.86424">
        <ele>290</ele>
        <time>2018-06-24T09:42:45Z</time>
      </trkpt>
      <trkpt lat="45.96863" lon="4.86416">
        <ele>290</ele>
        <time>2018-06-24T09:42:46Z</time>
      </trkpt>
      <trkpt lat="45.96864" lon="4.86409">
        <ele>290</ele>
        <time>2018-06-24T09:42:47Z</time>
      </trkpt>
      <trkpt lat="45.96865" lon="4.86402">
        <ele>290</ele>
        <time>2018-06-24T09:42:48Z</time>
      </trkpt>
      <trkpt lat="45.96866" lon="4.86396">
        <ele>290</ele>
        <time>2018-06-24T09:42:49Z</time>
      </trkpt>
      <trkpt lat="45.96867" lon="4.86389">
        <ele>290</ele>
        <time>2018-06-24T09:42:50Z</time>
      </trkpt>
      <trkpt lat="45.96865" lon="4.86379">
        <ele>290</ele>
        <time>2018-06-24T09:42:52Z</time>
      </trkpt>
      <trkpt lat="45.96866" lon="4.86373">
        <ele>290</ele>
        <time>2018-06-24T09:42:53Z</time>
      </trkpt>
      <trkpt lat="45.96867" lon="4.86362">
        <ele>290</ele>
        <time>2018-06-24T09:42:55Z</time>
      </trkpt>
      <trkpt lat="45.96868" lon="4.86356">
        <ele>290</ele>
        <time>2018-06-24T09:42:56Z</time>
      </trkpt>
      <trkpt lat="45.96869" lon="4.86345">
        <ele>290</ele>
        <time>2018-06-24T09:42:58Z</time>
      </trkpt>
      <trkpt lat="45.9687" lon="4.86338">
        <ele>290</ele>
        <time>2018-06-24T09:42:59Z</time>
      </trkpt>
      <trkpt lat="45.96871" lon="4.86331">
        <ele>289</ele>
        <time>2018-06-24T09:43:00Z</time>
      </trkpt>
      <trkpt lat="45.96873" lon="4.86326">
        <ele>289</ele>
        <time>2018-06-24T09:43:01Z</time>
      </trkpt>
      <trkpt lat="45.96873" lon="4.86319">
        <ele>289</ele>
        <time>2018-06-24T09:43:02Z</time>
      </trkpt>
      <trkpt lat="45.96874" lon="4.86312">
        <ele>289</ele>
        <time>2018-06-24T09:43:03Z</time>
      </trkpt>
      <trkpt lat="45.96875" lon="4.86305">
        <ele>289</ele>
        <time>2018-06-24T09:43:04Z</time>
      </trkpt>
      <trkpt lat="45.96876" lon="4.86299">
        <ele>289</ele>
        <time>2018-06-24T09:43:05Z</time>
      </trkpt>
      <trkpt lat="45.96879" lon="4.86287">
        <ele>289</ele>
        <time>2018-06-24T09:43:07Z</time>
      </trkpt>
      <trkpt lat="45.9688" lon="4.86281">
        <ele>289</ele>
        <time>2018-06-24T09:43:08Z</time>
      </trkpt>
      <trkpt lat="45.9688" lon="4.86271">
        <ele>288</ele>
        <time>2018-06-24T09:43:10Z</time>
      </trkpt>
      <trkpt lat="45.96882" lon="4.86264">
        <ele>288</ele>
        <time>2018-06-24T09:43:11Z</time>
      </trkpt>
      <trkpt lat="45.96883" lon="4.86252">
        <ele>288</ele>
        <time>2018-06-24T09:43:13Z</time>
      </trkpt>
      <trkpt lat="45.96885" lon="4.86245">
        <ele>288</ele>
        <time>2018-06-24T09:43:14Z</time>
      </trkpt>
      <trkpt lat="45.96886" lon="4.86239">
        <ele>288</ele>
        <time>2018-06-24T09:43:15Z</time>
      </trkpt>
      <trkpt lat="45.96887" lon="4.86231">
        <ele>288</ele>
        <time>2018-06-24T09:43:16Z</time>
      </trkpt>
      <trkpt lat="45.96887" lon="4.86225">
        <ele>289</ele>
        <time>2018-06-24T09:43:17Z</time>
      </trkpt>
      <trkpt lat="45.96889" lon="4.86218">
        <ele>289</ele>
        <time>2018-06-24T09:43:18Z</time>
      </trkpt>
      <trkpt lat="45.96891" lon="4.86206">
        <ele>289</ele>
        <time>2018-06-24T09:43:20Z</time>
      </trkpt>
      <trkpt lat="45.9689" lon="4.86196">
        <ele>289</ele>
        <time>2018-06-24T09:43:21Z</time>
      </trkpt>
      <trkpt lat="45.96891" lon="4.8619">
        <ele>289</ele>
        <time>2018-06-24T09:43:22Z</time>
      </trkpt>
      <trkpt lat="45.96892" lon="4.86183">
        <ele>289</ele>
        <time>2018-06-24T09:43:23Z</time>
      </trkpt>
      <trkpt lat="45.96894" lon="4.86174">
        <ele>288</ele>
        <time>2018-06-24T09:43:24Z</time>
      </trkpt>
      <trkpt lat="45.96894" lon="4.86165">
        <ele>289</ele>
        <time>2018-06-24T09:43:25Z</time>
      </trkpt>
      <trkpt lat="45.96895" lon="4.86158">
        <ele>289</ele>
        <time>2018-06-24T09:43:26Z</time>
      </trkpt>
      <trkpt lat="45.96896" lon="4.86149">
        <ele>289</ele>
        <time>2018-06-24T09:43:27Z</time>
      </trkpt>
      <trkpt lat="45.96898" lon="4.86142">
        <ele>289</ele>
        <time>2018-06-24T09:43:28Z</time>
      </trkpt>
      <trkpt lat="45.96898" lon="4.86134">
        <ele>289</ele>
        <time>2018-06-24T09:43:29Z</time>
      </trkpt>
      <trkpt lat="45.96899" lon="4.86126">
        <ele>289</ele>
        <time>2018-06-24T09:43:30Z</time>
      </trkpt>
      <trkpt lat="45.969" lon="4.86119">
        <ele>289</ele>
        <time>2018-06-24T09:43:31Z</time>
      </trkpt>
      <trkpt lat="45.969" lon="4.86111">
        <ele>289</ele>
        <time>2018-06-24T09:43:32Z</time>
      </trkpt>
      <trkpt lat="45.96901" lon="4.86102">
        <ele>289</ele>
        <time>2018-06-24T09:43:33Z</time>
      </trkpt>
      <trkpt lat="45.96902" lon="4.86095">
        <ele>288</ele>
        <time>2018-06-24T09:43:34Z</time>
      </trkpt>
      <trkpt lat="45.96902" lon="4.86086">
        <ele>288</ele>
        <time>2018-06-24T09:43:35Z</time>
      </trkpt>
      <trkpt lat="45.96903" lon="4.86079">
        <ele>288</ele>
        <time>2018-06-24T09:43:36Z</time>
      </trkpt>
      <trkpt lat="45.96904" lon="4.86071">
        <ele>288</ele>
        <time>2018-06-24T09:43:37Z</time>
      </trkpt>
      <trkpt lat="45.96904" lon="4.86063">
        <ele>288</ele>
        <time>2018-06-24T09:43:38Z</time>
      </trkpt>
      <trkpt lat="45.96905" lon="4.86056">
        <ele>289</ele>
        <time>2018-06-24T09:43:39Z</time>
      </trkpt>
      <trkpt lat="45.96905" lon="4.86048">
        <ele>289</ele>
        <time>2018-06-24T09:43:40Z</time>
      </trkpt>
      <trkpt lat="45.96908" lon="4.86041">
        <ele>289</ele>
        <time>2018-06-24T09:43:41Z</time>
      </trkpt>
      <trkpt lat="45.96909" lon="4.86031">
        <ele>289</ele>
        <time>2018-06-24T09:43:42Z</time>
      </trkpt>
      <trkpt lat="45.96909" lon="4.86025">
        <ele>289</ele>
        <time>2018-06-24T09:43:43Z</time>
      </trkpt>
      <trkpt lat="45.96913" lon="4.86018">
        <ele>289</ele>
        <time>2018-06-24T09:43:44Z</time>
      </trkpt>
      <trkpt lat="45.96915" lon="4.86012">
        <ele>288</ele>
        <time>2018-06-24T09:43:45Z</time>
      </trkpt>
      <trkpt lat="45.96916" lon="4.86007">
        <ele>288</ele>
        <time>2018-06-24T09:43:46Z</time>
      </trkpt>
      <trkpt lat="45.96917" lon="4.85998">
        <ele>288</ele>
        <time>2018-06-24T09:43:47Z</time>
      </trkpt>
      <trkpt lat="45.96919" lon="4.85991">
        <ele>288</ele>
        <time>2018-06-24T09:43:48Z</time>
      </trkpt>
      <trkpt lat="45.96921" lon="4.85981">
        <ele>287</ele>
        <time>2018-06-24T09:43:49Z</time>
      </trkpt>
      <trkpt lat="45.96923" lon="4.85973">
        <ele>287</ele>
        <time>2018-06-24T09:43:50Z</time>
      </trkpt>
      <trkpt lat="45.96926" lon="4.85965">
        <ele>287</ele>
        <time>2018-06-24T09:43:51Z</time>
      </trkpt>
      <trkpt lat="45.96928" lon="4.85957">
        <ele>287</ele>
        <time>2018-06-24T09:43:52Z</time>
      </trkpt>
      <trkpt lat="45.96929" lon="4.85949">
        <ele>287</ele>
        <time>2018-06-24T09:43:53Z</time>
      </trkpt>
      <trkpt lat="45.96931" lon="4.85941">
        <ele>286</ele>
        <time>2018-06-24T09:43:54Z</time>
      </trkpt>
      <trkpt lat="45.96933" lon="4.85933">
        <ele>286</ele>
        <time>2018-06-24T09:43:55Z</time>
      </trkpt>
      <trkpt lat="45.96937" lon="4.85926">
        <ele>286</ele>
        <time>2018-06-24T09:43:56Z</time>
      </trkpt>
      <trkpt lat="45.96938" lon="4.85918">
        <ele>286</ele>
        <time>2018-06-24T09:43:57Z</time>
      </trkpt>
      <trkpt lat="45.96941" lon="4.8591">
        <ele>286</ele>
        <time>2018-06-24T09:43:58Z</time>
      </trkpt>
      <trkpt lat="45.96942" lon="4.85903">
        <ele>285</ele>
        <time>2018-06-24T09:43:59Z</time>
      </trkpt>
      <trkpt lat="45.96944" lon="4.85897">
        <ele>285</ele>
        <time>2018-06-24T09:44:00Z</time>
      </trkpt>
      <trkpt lat="45.96946" lon="4.85889">
        <ele>285</ele>
        <time>2018-06-24T09:44:01Z</time>
      </trkpt>
      <trkpt lat="45.96948" lon="4.85881">
        <ele>285</ele>
        <time>2018-06-24T09:44:02Z</time>
      </trkpt>
      <trkpt lat="45.96951" lon="4.85873">
        <ele>285</ele>
        <time>2018-06-24T09:44:03Z</time>
      </trkpt>
      <trkpt lat="45.96952" lon="4.85863">
        <ele>285</ele>
        <time>2018-06-24T09:44:04Z</time>
      </trkpt>
      <trkpt lat="45.96954" lon="4.85855">
        <ele>285</ele>
        <time>2018-06-24T09:44:05Z</time>
      </trkpt>
      <trkpt lat="45.96957" lon="4.85845">
        <ele>285</ele>
        <time>2018-06-24T09:44:06Z</time>
      </trkpt>
      <trkpt lat="45.96959" lon="4.85837">
        <ele>285</ele>
        <time>2018-06-24T09:44:07Z</time>
      </trkpt>
      <trkpt lat="45.96961" lon="4.8583">
        <ele>285</ele>
        <time>2018-06-24T09:44:08Z</time>
      </trkpt>
      <trkpt lat="45.96963" lon="4.85822">
        <ele>285</ele>
        <time>2018-06-24T09:44:09Z</time>
      </trkpt>
      <trkpt lat="45.96965" lon="4.85814">
        <ele>285</ele>
        <time>2018-06-24T09:44:10Z</time>
      </trkpt>
      <trkpt lat="45.96965" lon="4.85808">
        <ele>285</ele>
        <time>2018-06-24T09:44:11Z</time>
      </trkpt>
      <trkpt lat="45.96967" lon="4.85801">
        <ele>285</ele>
        <time>2018-06-24T09:44:12Z</time>
      </trkpt>
      <trkpt lat="45.96969" lon="4.85794">
        <ele>285</ele>
        <time>2018-06-24T09:44:13Z</time>
      </trkpt>
      <trkpt lat="45.96971" lon="4.85788">
        <ele>285</ele>
        <time>2018-06-24T09:44:14Z</time>
      </trkpt>
      <trkpt lat="45.96972" lon="4.85782">
        <ele>285</ele>
        <time>2018-06-24T09:44:15Z</time>
      </trkpt>
      <trkpt lat="45.96974" lon="4.85776">
        <ele>285</ele>
        <time>2018-06-24T09:44:16Z</time>
      </trkpt>
      <trkpt lat="45.96975" lon="4.85769">
        <ele>285</ele>
        <time>2018-06-24T09:44:17Z</time>
      </trkpt>
      <trkpt lat="45.96976" lon="4.85762">
        <ele>285</ele>
        <time>2018-06-24T09:44:18Z</time>
      </trkpt>
      <trkpt lat="45.96978" lon="4.85754">
        <ele>285</ele>
        <time>2018-06-24T09:44:19Z</time>
      </trkpt>
      <trkpt lat="45.96981" lon="4.85748">
        <ele>285</ele>
        <time>2018-06-24T09:44:20Z</time>
      </trkpt>
      <trkpt lat="45.96984" lon="4.85742">
        <ele>285</ele>
        <time>2018-06-24T09:44:21Z</time>
      </trkpt>
      <trkpt lat="45.96986" lon="4.85736">
        <ele>285</ele>
        <time>2018-06-24T09:44:22Z</time>
      </trkpt>
      <trkpt lat="45.96989" lon="4.8573">
        <ele>285</ele>
        <time>2018-06-24T09:44:23Z</time>
      </trkpt>
      <trkpt lat="45.96991" lon="4.85722">
        <ele>285</ele>
        <time>2018-06-24T09:44:24Z</time>
      </trkpt>
      <trkpt lat="45.96992" lon="4.85715">
        <ele>285</ele>
        <time>2018-06-24T09:44:25Z</time>
      </trkpt>
      <trkpt lat="45.96995" lon="4.85707">
        <ele>285</ele>
        <time>2018-06-24T09:44:26Z</time>
      </trkpt>
      <trkpt lat="45.96997" lon="4.85699">
        <ele>285</ele>
        <time>2018-06-24T09:44:27Z</time>
      </trkpt>
      <trkpt lat="45.96998" lon="4.85692">
        <ele>285</ele>
        <time>2018-06-24T09:44:28Z</time>
      </trkpt>
      <trkpt lat="45.97" lon="4.85685">
        <ele>285</ele>
        <time>2018-06-24T09:44:29Z</time>
      </trkpt>
      <trkpt lat="45.97004" lon="4.85677">
        <ele>285</ele>
        <time>2018-06-24T09:44:30Z</time>
      </trkpt>
      <trkpt lat="45.97006" lon="4.85669">
        <ele>285</ele>
        <time>2018-06-24T09:44:31Z</time>
      </trkpt>
      <trkpt lat="45.97008" lon="4.85661">
        <ele>285</ele>
        <time>2018-06-24T09:44:32Z</time>
      </trkpt>
      <trkpt lat="45.9701" lon="4.85652">
        <ele>285</ele>
        <time>2018-06-24T09:44:33Z</time>
      </trkpt>
      <trkpt lat="45.97011" lon="4.85643">
        <ele>284</ele>
        <time>2018-06-24T09:44:34Z</time>
      </trkpt>
      <trkpt lat="45.97013" lon="4.85635">
        <ele>284</ele>
        <time>2018-06-24T09:44:35Z</time>
      </trkpt>
      <trkpt lat="45.97016" lon="4.85626">
        <ele>284</ele>
        <time>2018-06-24T09:44:36Z</time>
      </trkpt>
      <trkpt lat="45.97018" lon="4.85617">
        <ele>284</ele>
        <time>2018-06-24T09:44:37Z</time>
      </trkpt>
      <trkpt lat="45.97021" lon="4.85608">
        <ele>284</ele>
        <time>2018-06-24T09:44:38Z</time>
      </trkpt>
      <trkpt lat="45.97023" lon="4.856">
        <ele>284</ele>
        <time>2018-06-24T09:44:39Z</time>
      </trkpt>
      <trkpt lat="45.97026" lon="4.85592">
        <ele>284</ele>
        <time>2018-06-24T09:44:40Z</time>
      </trkpt>
      <trkpt lat="45.97028" lon="4.85583">
        <ele>283</ele>
        <time>2018-06-24T09:44:41Z</time>
      </trkpt>
      <trkpt lat="45.97031" lon="4.85575">
        <ele>283</ele>
        <time>2018-06-24T09:44:42Z</time>
      </trkpt>
      <trkpt lat="45.97034" lon="4.85567">
        <ele>283</ele>
        <time>2018-06-24T09:44:43Z</time>
      </trkpt>
      <trkpt lat="45.97037" lon="4.85559">
        <ele>283</ele>
        <time>2018-06-24T09:44:44Z</time>
      </trkpt>
      <trkpt lat="45.97039" lon="4.85549">
        <ele>282</ele>
        <time>2018-06-24T09:44:45Z</time>
      </trkpt>
      <trkpt lat="45.97041" lon="4.8554">
        <ele>282</ele>
        <time>2018-06-24T09:44:46Z</time>
      </trkpt>
      <trkpt lat="45.97043" lon="4.85532">
        <ele>282</ele>
        <time>2018-06-24T09:44:47Z</time>
      </trkpt>
      <trkpt lat="45.97046" lon="4.85524">
        <ele>282</ele>
        <time>2018-06-24T09:44:48Z</time>
      </trkpt>
      <trkpt lat="45.97049" lon="4.85515">
        <ele>282</ele>
        <time>2018-06-24T09:44:49Z</time>
      </trkpt>
      <trkpt lat="45.97051" lon="4.85508">
        <ele>282</ele>
        <time>2018-06-24T09:44:50Z</time>
      </trkpt>
      <trkpt lat="45.97054" lon="4.855">
        <ele>281</ele>
        <time>2018-06-24T09:44:51Z</time>
      </trkpt>
      <trkpt lat="45.97057" lon="4.85492">
        <ele>281</ele>
        <time>2018-06-24T09:44:52Z</time>
      </trkpt>
      <trkpt lat="45.97061" lon="4.85484">
        <ele>281</ele>
        <time>2018-06-24T09:44:53Z</time>
      </trkpt>
      <trkpt lat="45.97064" lon="4.85474">
        <ele>281</ele>
        <time>2018-06-24T09:44:54Z</time>
      </trkpt>
      <trkpt lat="45.97068" lon="4.85464">
        <ele>281</ele>
        <time>2018-06-24T09:44:55Z</time>
      </trkpt>
      <trkpt lat="45.97071" lon="4.85455">
        <ele>281</ele>
        <time>2018-06-24T09:44:56Z</time>
      </trkpt>
      <trkpt lat="45.97072" lon="4.85446">
        <ele>281</ele>
        <time>2018-06-24T09:44:57Z</time>
      </trkpt>
      <trkpt lat="45.97074" lon="4.85438">
        <ele>281</ele>
        <time>2018-06-24T09:44:58Z</time>
      </trkpt>
      <trkpt lat="45.97076" lon="4.85429">
        <ele>281</ele>
        <time>2018-06-24T09:44:59Z</time>
      </trkpt>
      <trkpt lat="45.97079" lon="4.85421">
        <ele>280</ele>
        <time>2018-06-24T09:45:00Z</time>
      </trkpt>
      <trkpt lat="45.97082" lon="4.85412">
        <ele>280</ele>
        <time>2018-06-24T09:45:01Z</time>
      </trkpt>
      <trkpt lat="45.97084" lon="4.85403">
        <ele>280</ele>
        <time>2018-06-24T09:45:02Z</time>
      </trkpt>
      <trkpt lat="45.97087" lon="4.85394">
        <ele>280</ele>
        <time>2018-06-24T09:45:03Z</time>
      </trkpt>
      <trkpt lat="45.97089" lon="4.85386">
        <ele>280</ele>
        <time>2018-06-24T09:45:04Z</time>
      </trkpt>
      <trkpt lat="45.97091" lon="4.85378">
        <ele>280</ele>
        <time>2018-06-24T09:45:05Z</time>
      </trkpt>
      <trkpt lat="45.97094" lon="4.8537">
        <ele>280</ele>
        <time>2018-06-24T09:45:06Z</time>
      </trkpt>
      <trkpt lat="45.97097" lon="4.85362">
        <ele>280</ele>
        <time>2018-06-24T09:45:07Z</time>
      </trkpt>
      <trkpt lat="45.97099" lon="4.85352">
        <ele>280</ele>
        <time>2018-06-24T09:45:08Z</time>
      </trkpt>
      <trkpt lat="45.97102" lon="4.85345">
        <ele>280</ele>
        <time>2018-06-24T09:45:09Z</time>
      </trkpt>
      <trkpt lat="45.97105" lon="4.85337">
        <ele>280</ele>
        <time>2018-06-24T09:45:10Z</time>
      </trkpt>
      <trkpt lat="45.97108" lon="4.85328">
        <ele>280</ele>
        <time>2018-06-24T09:45:11Z</time>
      </trkpt>
      <trkpt lat="45.9711" lon="4.85321">
        <ele>280</ele>
        <time>2018-06-24T09:45:12Z</time>
      </trkpt>
      <trkpt lat="45.97113" lon="4.85314">
        <ele>280</ele>
        <time>2018-06-24T09:45:13Z</time>
      </trkpt>
      <trkpt lat="45.97117" lon="4.85306">
        <ele>280</ele>
        <time>2018-06-24T09:45:14Z</time>
      </trkpt>
      <trkpt lat="45.97121" lon="4.85298">
        <ele>280</ele>
        <time>2018-06-24T09:45:15Z</time>
      </trkpt>
      <trkpt lat="45.97124" lon="4.85291">
        <ele>280</ele>
        <time>2018-06-24T09:45:16Z</time>
      </trkpt>
      <trkpt lat="45.97127" lon="4.85284">
        <ele>279</ele>
        <time>2018-06-24T09:45:17Z</time>
      </trkpt>
      <trkpt lat="45.9713" lon="4.85277">
        <ele>279</ele>
        <time>2018-06-24T09:45:18Z</time>
      </trkpt>
      <trkpt lat="45.97135" lon="4.85269">
        <ele>279</ele>
        <time>2018-06-24T09:45:19Z</time>
      </trkpt>
      <trkpt lat="45.97138" lon="4.85261">
        <ele>279</ele>
        <time>2018-06-24T09:45:20Z</time>
      </trkpt>
      <trkpt lat="45.97142" lon="4.85251">
        <ele>279</ele>
        <time>2018-06-24T09:45:21Z</time>
      </trkpt>
      <trkpt lat="45.97147" lon="4.85243">
        <ele>279</ele>
        <time>2018-06-24T09:45:22Z</time>
      </trkpt>
      <trkpt lat="45.97151" lon="4.85236">
        <ele>279</ele>
        <time>2018-06-24T09:45:23Z</time>
      </trkpt>
      <trkpt lat="45.97155" lon="4.85228">
        <ele>279</ele>
        <time>2018-06-24T09:45:24Z</time>
      </trkpt>
      <trkpt lat="45.97159" lon="4.8522">
        <ele>279</ele>
        <time>2018-06-24T09:45:25Z</time>
      </trkpt>
      <trkpt lat="45.97162" lon="4.85212">
        <ele>279</ele>
        <time>2018-06-24T09:45:26Z</time>
      </trkpt>
      <trkpt lat="45.97166" lon="4.85205">
        <ele>279</ele>
        <time>2018-06-24T09:45:27Z</time>
      </trkpt>
      <trkpt lat="45.97169" lon="4.85196">
        <ele>278</ele>
        <time>2018-06-24T09:45:28Z</time>
      </trkpt>
      <trkpt lat="45.97172" lon="4.85189">
        <ele>278</ele>
        <time>2018-06-24T09:45:29Z</time>
      </trkpt>
      <trkpt lat="45.97176" lon="4.85183">
        <ele>278</ele>
        <time>2018-06-24T09:45:30Z</time>
      </trkpt>
      <trkpt lat="45.9718" lon="4.85174">
        <ele>278</ele>
        <time>2018-06-24T09:45:31Z</time>
      </trkpt>
      <trkpt lat="45.97186" lon="4.85165">
        <ele>278</ele>
        <time>2018-06-24T09:45:32Z</time>
      </trkpt>
      <trkpt lat="45.97189" lon="4.85158">
        <ele>278</ele>
        <time>2018-06-24T09:45:33Z</time>
      </trkpt>
      <trkpt lat="45.97194" lon="4.8515">
        <ele>278</ele>
        <time>2018-06-24T09:45:34Z</time>
      </trkpt>
      <trkpt lat="45.97197" lon="4.85142">
        <ele>278</ele>
        <time>2018-06-24T09:45:35Z</time>
      </trkpt>
      <trkpt lat="45.97201" lon="4.85135">
        <ele>278</ele>
        <time>2018-06-24T09:45:36Z</time>
      </trkpt>
      <trkpt lat="45.97204" lon="4.85129">
        <ele>278</ele>
        <time>2018-06-24T09:45:37Z</time>
      </trkpt>
      <trkpt lat="45.97208" lon="4.85122">
        <ele>278</ele>
        <time>2018-06-24T09:45:38Z</time>
      </trkpt>
      <trkpt lat="45.97211" lon="4.85115">
        <ele>278</ele>
        <time>2018-06-24T09:45:39Z</time>
      </trkpt>
      <trkpt lat="45.97214" lon="4.85107">
        <ele>278</ele>
        <time>2018-06-24T09:45:40Z</time>
      </trkpt>
      <trkpt lat="45.97218" lon="4.85101">
        <ele>278</ele>
        <time>2018-06-24T09:45:41Z</time>
      </trkpt>
      <trkpt lat="45.9722" lon="4.85094">
        <ele>278</ele>
        <time>2018-06-24T09:45:42Z</time>
      </trkpt>
      <trkpt lat="45.97223" lon="4.85088">
        <ele>278</ele>
        <time>2018-06-24T09:45:43Z</time>
      </trkpt>
      <trkpt lat="45.97226" lon="4.8508">
        <ele>278</ele>
        <time>2018-06-24T09:45:44Z</time>
      </trkpt>
      <trkpt lat="45.9723" lon="4.85071">
        <ele>278</ele>
        <time>2018-06-24T09:45:45Z</time>
      </trkpt>
      <trkpt lat="45.97234" lon="4.85063">
        <ele>278</ele>
        <time>2018-06-24T09:45:46Z</time>
      </trkpt>
      <trkpt lat="45.97238" lon="4.85055">
        <ele>279</ele>
        <time>2018-06-24T09:45:47Z</time>
      </trkpt>
      <trkpt lat="45.97242" lon="4.85047">
        <ele>279</ele>
        <time>2018-06-24T09:45:48Z</time>
      </trkpt>
      <trkpt lat="45.97245" lon="4.8504">
        <ele>279</ele>
        <time>2018-06-24T09:45:49Z</time>
      </trkpt>
      <trkpt lat="45.97249" lon="4.85031">
        <ele>279</ele>
        <time>2018-06-24T09:45:50Z</time>
      </trkpt>
      <trkpt lat="45.97252" lon="4.85024">
        <ele>279</ele>
        <time>2018-06-24T09:45:51Z</time>
      </trkpt>
      <trkpt lat="45.97255" lon="4.85018">
        <ele>279</ele>
        <time>2018-06-24T09:45:52Z</time>
      </trkpt>
      <trkpt lat="45.97257" lon="4.85011">
        <ele>279</ele>
        <time>2018-06-24T09:45:53Z</time>
      </trkpt>
      <trkpt lat="45.97261" lon="4.85007">
        <ele>279</ele>
        <time>2018-06-24T09:45:54Z</time>
      </trkpt>
      <trkpt lat="45.97265" lon="4.85002">
        <ele>279</ele>
        <time>2018-06-24T09:45:55Z</time>
      </trkpt>
      <trkpt lat="45.97268" lon="4.84995">
        <ele>279</ele>
        <time>2018-06-24T09:45:56Z</time>
      </trkpt>
      <trkpt lat="45.97271" lon="4.84988">
        <ele>279</ele>
        <time>2018-06-24T09:45:57Z</time>
      </trkpt>
      <trkpt lat="45.97274" lon="4.84982">
        <ele>278</ele>
        <time>2018-06-24T09:45:58Z</time>
      </trkpt>
      <trkpt lat="45.97276" lon="4.84975">
        <ele>278</ele>
        <time>2018-06-24T09:45:59Z</time>
      </trkpt>
      <trkpt lat="45.97277" lon="4.8497">
        <ele>278</ele>
        <time>2018-06-24T09:46:00Z</time>
      </trkpt>
      <trkpt lat="45.97281" lon="4.84964">
        <ele>278</ele>
        <time>2018-06-24T09:46:01Z</time>
      </trkpt>
      <trkpt lat="45.97284" lon="4.84957">
        <ele>278</ele>
        <time>2018-06-24T09:46:02Z</time>
      </trkpt>
      <trkpt lat="45.97287" lon="4.8495">
        <ele>278</ele>
        <time>2018-06-24T09:46:03Z</time>
      </trkpt>
      <trkpt lat="45.97291" lon="4.84942">
        <ele>278</ele>
        <time>2018-06-24T09:46:04Z</time>
      </trkpt>
      <trkpt lat="45.97295" lon="4.84937">
        <ele>278</ele>
        <time>2018-06-24T09:46:05Z</time>
      </trkpt>
      <trkpt lat="45.973" lon="4.8493">
        <ele>278</ele>
        <time>2018-06-24T09:46:06Z</time>
      </trkpt>
      <trkpt lat="45.97304" lon="4.84923">
        <ele>278</ele>
        <time>2018-06-24T09:46:07Z</time>
      </trkpt>
      <trkpt lat="45.97308" lon="4.84917">
        <ele>278</ele>
        <time>2018-06-24T09:46:08Z</time>
      </trkpt>
      <trkpt lat="45.97312" lon="4.84909">
        <ele>278</ele>
        <time>2018-06-24T09:46:09Z</time>
      </trkpt>
      <trkpt lat="45.97317" lon="4.84902">
        <ele>278</ele>
        <time>2018-06-24T09:46:10Z</time>
      </trkpt>
      <trkpt lat="45.97321" lon="4.84895">
        <ele>278</ele>
        <time>2018-06-24T09:46:11Z</time>
      </trkpt>
      <trkpt lat="45.97325" lon="4.84891">
        <ele>278</ele>
        <time>2018-06-24T09:46:12Z</time>
      </trkpt>
      <trkpt lat="45.97329" lon="4.84887">
        <ele>278</ele>
        <time>2018-06-24T09:46:13Z</time>
      </trkpt>
      <trkpt lat="45.97333" lon="4.8488">
        <ele>278</ele>
        <time>2018-06-24T09:46:14Z</time>
      </trkpt>
      <trkpt lat="45.97337" lon="4.84875">
        <ele>277</ele>
        <time>2018-06-24T09:46:15Z</time>
      </trkpt>
      <trkpt lat="45.9734" lon="4.8487">
        <ele>277</ele>
        <time>2018-06-24T09:46:16Z</time>
      </trkpt>
      <trkpt lat="45.97345" lon="4.84863">
        <ele>277</ele>
        <time>2018-06-24T09:46:17Z</time>
      </trkpt>
      <trkpt lat="45.97348" lon="4.84857">
        <ele>277</ele>
        <time>2018-06-24T09:46:18Z</time>
      </trkpt>
      <trkpt lat="45.97351" lon="4.8485">
        <ele>277</ele>
        <time>2018-06-24T09:46:19Z</time>
      </trkpt>
      <trkpt lat="45.97356" lon="4.84843">
        <ele>277</ele>
        <time>2018-06-24T09:46:20Z</time>
      </trkpt>
      <trkpt lat="45.97359" lon="4.84835">
        <ele>277</ele>
        <time>2018-06-24T09:46:21Z</time>
      </trkpt>
      <trkpt lat="45.97361" lon="4.84826">
        <ele>278</ele>
        <time>2018-06-24T09:46:22Z</time>
      </trkpt>
      <trkpt lat="45.97365" lon="4.8482">
        <ele>278</ele>
        <time>2018-06-24T09:46:23Z</time>
      </trkpt>
      <trkpt lat="45.97367" lon="4.84813">
        <ele>277</ele>
        <time>2018-06-24T09:46:24Z</time>
      </trkpt>
      <trkpt lat="45.9737" lon="4.84806">
        <ele>277</ele>
        <time>2018-06-24T09:46:25Z</time>
      </trkpt>
      <trkpt lat="45.97373" lon="4.84795">
        <ele>278</ele>
        <time>2018-06-24T09:46:26Z</time>
      </trkpt>
      <trkpt lat="45.97375" lon="4.84788">
        <ele>278</ele>
        <time>2018-06-24T09:46:27Z</time>
      </trkpt>
      <trkpt lat="45.97378" lon="4.84781">
        <ele>278</ele>
        <time>2018-06-24T09:46:28Z</time>
      </trkpt>
      <trkpt lat="45.97381" lon="4.84774">
        <ele>278</ele>
        <time>2018-06-24T09:46:29Z</time>
      </trkpt>
      <trkpt lat="45.97382" lon="4.84769">
        <ele>278</ele>
        <time>2018-06-24T09:46:30Z</time>
      </trkpt>
      <trkpt lat="45.97384" lon="4.84762">
        <ele>278</ele>
        <time>2018-06-24T09:46:31Z</time>
      </trkpt>
      <trkpt lat="45.97386" lon="4.84753">
        <ele>277</ele>
        <time>2018-06-24T09:46:32Z</time>
      </trkpt>
      <trkpt lat="45.97389" lon="4.84747">
        <ele>278</ele>
        <time>2018-06-24T09:46:33Z</time>
      </trkpt>
      <trkpt lat="45.97393" lon="4.84736">
        <ele>278</ele>
        <time>2018-06-24T09:46:35Z</time>
      </trkpt>
      <trkpt lat="45.97396" lon="4.84731">
        <ele>278</ele>
        <time>2018-06-24T09:46:36Z</time>
      </trkpt>
      <trkpt lat="45.97399" lon="4.84726">
        <ele>278</ele>
        <time>2018-06-24T09:46:37Z</time>
      </trkpt>
      <trkpt lat="45.97403" lon="4.84722">
        <ele>278</ele>
        <time>2018-06-24T09:46:38Z</time>
      </trkpt>
      <trkpt lat="45.9741" lon="4.84715">
        <ele>278</ele>
        <time>2018-06-24T09:46:40Z</time>
      </trkpt>
      <trkpt lat="45.97415" lon="4.84712">
        <ele>278</ele>
        <time>2018-06-24T09:46:41Z</time>
      </trkpt>
      <trkpt lat="45.9742" lon="4.84709">
        <ele>276</ele>
        <time>2018-06-24T09:46:42Z</time>
      </trkpt>
      <trkpt lat="45.97425" lon="4.84705">
        <ele>276</ele>
        <time>2018-06-24T09:46:43Z</time>
      </trkpt>
      <trkpt lat="45.9743" lon="4.84702">
        <ele>276</ele>
        <time>2018-06-24T09:46:44Z</time>
      </trkpt>
      <trkpt lat="45.97434" lon="4.84698">
        <ele>276</ele>
        <time>2018-06-24T09:46:45Z</time>
      </trkpt>
      <trkpt lat="45.97439" lon="4.84694">
        <ele>276</ele>
        <time>2018-06-24T09:46:46Z</time>
      </trkpt>
      <trkpt lat="45.97444" lon="4.84692">
        <ele>276</ele>
        <time>2018-06-24T09:46:47Z</time>
      </trkpt>
      <trkpt lat="45.97449" lon="4.84689">
        <ele>276</ele>
        <time>2018-06-24T09:46:48Z</time>
      </trkpt>
      <trkpt lat="45.97454" lon="4.84684">
        <ele>276</ele>
        <time>2018-06-24T09:46:49Z</time>
      </trkpt>
      <trkpt lat="45.9746" lon="4.84683">
        <ele>276</ele>
        <time>2018-06-24T09:46:50Z</time>
      </trkpt>
      <trkpt lat="45.97465" lon="4.8468">
        <ele>276</ele>
        <time>2018-06-24T09:46:51Z</time>
      </trkpt>
      <trkpt lat="45.97471" lon="4.84676">
        <ele>276</ele>
        <time>2018-06-24T09:46:52Z</time>
      </trkpt>
      <trkpt lat="45.97475" lon="4.84673">
        <ele>276</ele>
        <time>2018-06-24T09:46:53Z</time>
      </trkpt>
      <trkpt lat="45.9748" lon="4.84669">
        <ele>276</ele>
        <time>2018-06-24T09:46:54Z</time>
      </trkpt>
      <trkpt lat="45.97485" lon="4.84666">
        <ele>275</ele>
        <time>2018-06-24T09:46:55Z</time>
      </trkpt>
      <trkpt lat="45.9749" lon="4.84662">
        <ele>275</ele>
        <time>2018-06-24T09:46:56Z</time>
      </trkpt>
      <trkpt lat="45.97495" lon="4.84654">
        <ele>275</ele>
        <time>2018-06-24T09:46:57Z</time>
      </trkpt>
      <trkpt lat="45.97501" lon="4.84651">
        <ele>275</ele>
        <time>2018-06-24T09:46:58Z</time>
      </trkpt>
      <trkpt lat="45.97506" lon="4.84648">
        <ele>275</ele>
        <time>2018-06-24T09:46:59Z</time>
      </trkpt>
      <trkpt lat="45.97511" lon="4.84644">
        <ele>275</ele>
        <time>2018-06-24T09:47:00Z</time>
      </trkpt>
      <trkpt lat="45.97516" lon="4.84641">
        <ele>275</ele>
        <time>2018-06-24T09:47:01Z</time>
      </trkpt>
      <trkpt lat="45.97522" lon="4.84636">
        <ele>275</ele>
        <time>2018-06-24T09:47:02Z</time>
      </trkpt>
      <trkpt lat="45.97527" lon="4.84633">
        <ele>275</ele>
        <time>2018-06-24T09:47:03Z</time>
      </trkpt>
      <trkpt lat="45.97531" lon="4.84629">
        <ele>275</ele>
        <time>2018-06-24T09:47:04Z</time>
      </trkpt>
      <trkpt lat="45.97536" lon="4.84625">
        <ele>275</ele>
        <time>2018-06-24T09:47:05Z</time>
      </trkpt>
      <trkpt lat="45.9754" lon="4.84622">
        <ele>275</ele>
        <time>2018-06-24T09:47:06Z</time>
      </trkpt>
      <trkpt lat="45.97545" lon="4.84618">
        <ele>274</ele>
        <time>2018-06-24T09:47:07Z</time>
      </trkpt>
      <trkpt lat="45.97549" lon="4.84615">
        <ele>274</ele>
        <time>2018-06-24T09:47:08Z</time>
      </trkpt>
      <trkpt lat="45.97553" lon="4.84609">
        <ele>274</ele>
        <time>2018-06-24T09:47:09Z</time>
      </trkpt>
      <trkpt lat="45.97557" lon="4.84606">
        <ele>274</ele>
        <time>2018-06-24T09:47:10Z</time>
      </trkpt>
      <trkpt lat="45.97561" lon="4.84603">
        <ele>274</ele>
        <time>2018-06-24T09:47:11Z</time>
      </trkpt>
      <trkpt lat="45.97569" lon="4.84597">
        <ele>274</ele>
        <time>2018-06-24T09:47:13Z</time>
      </trkpt>
      <trkpt lat="45.97573" lon="4.84593">
        <ele>274</ele>
        <time>2018-06-24T09:47:14Z</time>
      </trkpt>
      <trkpt lat="45.97576" lon="4.84589">
        <ele>274</ele>
        <time>2018-06-24T09:47:15Z</time>
      </trkpt>
      <trkpt lat="45.9758" lon="4.84584">
        <ele>274</ele>
        <time>2018-06-24T09:47:16Z</time>
      </trkpt>
      <trkpt lat="45.97584" lon="4.84579">
        <ele>274</ele>
        <time>2018-06-24T09:47:17Z</time>
      </trkpt>
      <trkpt lat="45.9759" lon="4.84572">
        <ele>274</ele>
        <time>2018-06-24T09:47:18Z</time>
      </trkpt>
      <trkpt lat="45.97594" lon="4.84566">
        <ele>274</ele>
        <time>2018-06-24T09:47:19Z</time>
      </trkpt>
      <trkpt lat="45.97598" lon="4.84559">
        <ele>275</ele>
        <time>2018-06-24T09:47:20Z</time>
      </trkpt>
      <trkpt lat="45.97604" lon="4.84551">
        <ele>275</ele>
        <time>2018-06-24T09:47:21Z</time>
      </trkpt>
      <trkpt lat="45.97608" lon="4.84546">
        <ele>275</ele>
        <time>2018-06-24T09:47:22Z</time>
      </trkpt>
      <trkpt lat="45.97612" lon="4.8454">
        <ele>275</ele>
        <time>2018-06-24T09:47:23Z</time>
      </trkpt>
      <trkpt lat="45.97616" lon="4.84535">
        <ele>275</ele>
        <time>2018-06-24T09:47:24Z</time>
      </trkpt>
      <trkpt lat="45.9762" lon="4.8453">
        <ele>275</ele>
        <time>2018-06-24T09:47:25Z</time>
      </trkpt>
      <trkpt lat="45.97626" lon="4.84523">
        <ele>275</ele>
        <time>2018-06-24T09:47:26Z</time>
      </trkpt>
      <trkpt lat="45.97631" lon="4.84518">
        <ele>275</ele>
        <time>2018-06-24T09:47:27Z</time>
      </trkpt>
      <trkpt lat="45.97635" lon="4.84512">
        <ele>275</ele>
        <time>2018-06-24T09:47:28Z</time>
      </trkpt>
      <trkpt lat="45.97639" lon="4.84507">
        <ele>275</ele>
        <time>2018-06-24T09:47:29Z</time>
      </trkpt>
      <trkpt lat="45.97643" lon="4.84503">
        <ele>275</ele>
        <time>2018-06-24T09:47:30Z</time>
      </trkpt>
      <trkpt lat="45.97647" lon="4.84498">
        <ele>275</ele>
        <time>2018-06-24T09:47:31Z</time>
      </trkpt>
      <trkpt lat="45.97651" lon="4.84494">
        <ele>275</ele>
        <time>2018-06-24T09:47:32Z</time>
      </trkpt>
      <trkpt lat="45.97656" lon="4.84489">
        <ele>275</ele>
        <time>2018-06-24T09:47:33Z</time>
      </trkpt>
      <trkpt lat="45.9766" lon="4.84484">
        <ele>275</ele>
        <time>2018-06-24T09:47:34Z</time>
      </trkpt>
      <trkpt lat="45.97665" lon="4.8448">
        <ele>276</ele>
        <time>2018-06-24T09:47:35Z</time>
      </trkpt>
      <trkpt lat="45.97668" lon="4.84477">
        <ele>276</ele>
        <time>2018-06-24T09:47:36Z</time>
      </trkpt>
      <trkpt lat="45.97673" lon="4.84473">
        <ele>276</ele>
        <time>2018-06-24T09:47:37Z</time>
      </trkpt>
      <trkpt lat="45.97678" lon="4.8447">
        <ele>277</ele>
        <time>2018-06-24T09:47:38Z</time>
      </trkpt>
      <trkpt lat="45.97683" lon="4.84466">
        <ele>277</ele>
        <time>2018-06-24T09:47:39Z</time>
      </trkpt>
      <trkpt lat="45.97688" lon="4.84462">
        <ele>277</ele>
        <time>2018-06-24T09:47:40Z</time>
      </trkpt>
      <trkpt lat="45.97693" lon="4.84459">
        <ele>277</ele>
        <time>2018-06-24T09:47:41Z</time>
      </trkpt>
      <trkpt lat="45.97698" lon="4.84457">
        <ele>277</ele>
        <time>2018-06-24T09:47:42Z</time>
      </trkpt>
      <trkpt lat="45.97702" lon="4.84454">
        <ele>277</ele>
        <time>2018-06-24T09:47:43Z</time>
      </trkpt>
      <trkpt lat="45.97707" lon="4.84452">
        <ele>277</ele>
        <time>2018-06-24T09:47:44Z</time>
      </trkpt>
      <trkpt lat="45.97712" lon="4.84451">
        <ele>277</ele>
        <time>2018-06-24T09:47:45Z</time>
      </trkpt>
      <trkpt lat="45.97716" lon="4.84448">
        <ele>277</ele>
        <time>2018-06-24T09:47:46Z</time>
      </trkpt>
      <trkpt lat="45.97721" lon="4.84445">
        <ele>277</ele>
        <time>2018-06-24T09:47:47Z</time>
      </trkpt>
      <trkpt lat="45.97725" lon="4.84441">
        <ele>277</ele>
        <time>2018-06-24T09:47:48Z</time>
      </trkpt>
      <trkpt lat="45.97733" lon="4.84438">
        <ele>277</ele>
        <time>2018-06-24T09:47:50Z</time>
      </trkpt>
      <trkpt lat="45.97738" lon="4.84437">
        <ele>277</ele>
        <time>2018-06-24T09:47:51Z</time>
      </trkpt>
      <trkpt lat="45.97742" lon="4.84435">
        <ele>277</ele>
        <time>2018-06-24T09:47:52Z</time>
      </trkpt>
      <trkpt lat="45.97747" lon="4.84432">
        <ele>278</ele>
        <time>2018-06-24T09:47:53Z</time>
      </trkpt>
      <trkpt lat="45.97752" lon="4.84431">
        <ele>277</ele>
        <time>2018-06-24T09:47:54Z</time>
      </trkpt>
      <trkpt lat="45.97757" lon="4.84429">
        <ele>277</ele>
        <time>2018-06-24T09:47:55Z</time>
      </trkpt>
      <trkpt lat="45.97763" lon="4.84428">
        <ele>277</ele>
        <time>2018-06-24T09:47:56Z</time>
      </trkpt>
      <trkpt lat="45.97768" lon="4.84426">
        <ele>277</ele>
        <time>2018-06-24T09:47:57Z</time>
      </trkpt>
      <trkpt lat="45.97774" lon="4.84425">
        <ele>277</ele>
        <time>2018-06-24T09:47:58Z</time>
      </trkpt>
      <trkpt lat="45.97779" lon="4.84423">
        <ele>277</ele>
        <time>2018-06-24T09:47:59Z</time>
      </trkpt>
      <trkpt lat="45.97785" lon="4.84421">
        <ele>277</ele>
        <time>2018-06-24T09:48:00Z</time>
      </trkpt>
      <trkpt lat="45.9779" lon="4.84419">
        <ele>277</ele>
        <time>2018-06-24T09:48:01Z</time>
      </trkpt>
      <trkpt lat="45.97795" lon="4.84417">
        <ele>277</ele>
        <time>2018-06-24T09:48:02Z</time>
      </trkpt>
      <trkpt lat="45.978" lon="4.84415">
        <ele>277</ele>
        <time>2018-06-24T09:48:03Z</time>
      </trkpt>
      <trkpt lat="45.97805" lon="4.84414">
        <ele>277</ele>
        <time>2018-06-24T09:48:04Z</time>
      </trkpt>
      <trkpt lat="45.97809" lon="4.84412">
        <ele>277</ele>
        <time>2018-06-24T09:48:05Z</time>
      </trkpt>
      <trkpt lat="45.97814" lon="4.84409">
        <ele>276</ele>
        <time>2018-06-24T09:48:06Z</time>
      </trkpt>
      <trkpt lat="45.97818" lon="4.84406">
        <ele>276</ele>
        <time>2018-06-24T09:48:07Z</time>
      </trkpt>
      <trkpt lat="45.97822" lon="4.84403">
        <ele>276</ele>
        <time>2018-06-24T09:48:08Z</time>
      </trkpt>
      <trkpt lat="45.97827" lon="4.844">
        <ele>276</ele>
        <time>2018-06-24T09:48:09Z</time>
      </trkpt>
      <trkpt lat="45.97832" lon="4.84397">
        <ele>276</ele>
        <time>2018-06-24T09:48:10Z</time>
      </trkpt>
      <trkpt lat="45.97836" lon="4.84394">
        <ele>276</ele>
        <time>2018-06-24T09:48:11Z</time>
      </trkpt>
      <trkpt lat="45.97843" lon="4.84388">
        <ele>276</ele>
        <time>2018-06-24T09:48:13Z</time>
      </trkpt>
      <trkpt lat="45.97847" lon="4.84385">
        <ele>276</ele>
        <time>2018-06-24T09:48:14Z</time>
      </trkpt>
      <trkpt lat="45.97851" lon="4.84381">
        <ele>276</ele>
        <time>2018-06-24T09:48:15Z</time>
      </trkpt>
      <trkpt lat="45.97856" lon="4.84377">
        <ele>276</ele>
        <time>2018-06-24T09:48:16Z</time>
      </trkpt>
      <trkpt lat="45.97859" lon="4.84372">
        <ele>276</ele>
        <time>2018-06-24T09:48:17Z</time>
      </trkpt>
      <trkpt lat="45.97863" lon="4.84369">
        <ele>276</ele>
        <time>2018-06-24T09:48:18Z</time>
      </trkpt>
      <trkpt lat="45.97866" lon="4.84364">
        <ele>276</ele>
        <time>2018-06-24T09:48:19Z</time>
      </trkpt>
      <trkpt lat="45.9787" lon="4.8436">
        <ele>276</ele>
        <time>2018-06-24T09:48:20Z</time>
      </trkpt>
      <trkpt lat="45.97877" lon="4.84352">
        <ele>275</ele>
        <time>2018-06-24T09:48:22Z</time>
      </trkpt>
      <trkpt lat="45.9788" lon="4.84346">
        <ele>275</ele>
        <time>2018-06-24T09:48:23Z</time>
      </trkpt>
      <trkpt lat="45.97883" lon="4.8434">
        <ele>275</ele>
        <time>2018-06-24T09:48:24Z</time>
      </trkpt>
      <trkpt lat="45.97887" lon="4.84334">
        <ele>275</ele>
        <time>2018-06-24T09:48:25Z</time>
      </trkpt>
      <trkpt lat="45.9789" lon="4.84329">
        <ele>275</ele>
        <time>2018-06-24T09:48:26Z</time>
      </trkpt>
      <trkpt lat="45.97893" lon="4.84324">
        <ele>275</ele>
        <time>2018-06-24T09:48:27Z</time>
      </trkpt>
      <trkpt lat="45.97896" lon="4.84319">
        <ele>275</ele>
        <time>2018-06-24T09:48:28Z</time>
      </trkpt>
      <trkpt lat="45.97899" lon="4.84315">
        <ele>275</ele>
        <time>2018-06-24T09:48:29Z</time>
      </trkpt>
      <trkpt lat="45.97905" lon="4.84308">
        <ele>275</ele>
        <time>2018-06-24T09:48:31Z</time>
      </trkpt>
      <trkpt lat="45.97908" lon="4.84304">
        <ele>275</ele>
        <time>2018-06-24T09:48:32Z</time>
      </trkpt>
      <trkpt lat="45.97911" lon="4.84298">
        <ele>275</ele>
        <time>2018-06-24T09:48:33Z</time>
      </trkpt>
      <trkpt lat="45.97914" lon="4.84291">
        <ele>275</ele>
        <time>2018-06-24T09:48:34Z</time>
      </trkpt>
      <trkpt lat="45.97919" lon="4.84282">
        <ele>275</ele>
        <time>2018-06-24T09:48:36Z</time>
      </trkpt>
      <trkpt lat="45.97922" lon="4.84278">
        <ele>275</ele>
        <time>2018-06-24T09:48:37Z</time>
      </trkpt>
      <trkpt lat="45.97926" lon="4.84274">
        <ele>275</ele>
        <time>2018-06-24T09:48:38Z</time>
      </trkpt>
      <trkpt lat="45.9793" lon="4.84271">
        <ele>275</ele>
        <time>2018-06-24T09:48:39Z</time>
      </trkpt>
      <trkpt lat="45.97936" lon="4.84263">
        <ele>275</ele>
        <time>2018-06-24T09:48:41Z</time>
      </trkpt>
      <trkpt lat="45.9794" lon="4.84259">
        <ele>275</ele>
        <time>2018-06-24T09:48:42Z</time>
      </trkpt>
      <trkpt lat="45.97947" lon="4.84252">
        <ele>275</ele>
        <time>2018-06-24T09:48:44Z</time>
      </trkpt>
      <trkpt lat="45.97951" lon="4.84248">
        <ele>275</ele>
        <time>2018-06-24T09:48:45Z</time>
      </trkpt>
      <trkpt lat="45.97955" lon="4.84244">
        <ele>275</ele>
        <time>2018-06-24T09:48:46Z</time>
      </trkpt>
      <trkpt lat="45.9796" lon="4.84242">
        <ele>274</ele>
        <time>2018-06-24T09:48:47Z</time>
      </trkpt>
      <trkpt lat="45.97964" lon="4.84238">
        <ele>274</ele>
        <time>2018-06-24T09:48:48Z</time>
      </trkpt>
      <trkpt lat="45.97967" lon="4.84234">
        <ele>274</ele>
        <time>2018-06-24T09:48:49Z</time>
      </trkpt>
      <trkpt lat="45.97971" lon="4.84229">
        <ele>274</ele>
        <time>2018-06-24T09:48:50Z</time>
      </trkpt>
      <trkpt lat="45.97975" lon="4.84225">
        <ele>274</ele>
        <time>2018-06-24T09:48:51Z</time>
      </trkpt>
      <trkpt lat="45.97981" lon="4.84221">
        <ele>274</ele>
        <time>2018-06-24T09:48:52Z</time>
      </trkpt>
      <trkpt lat="45.97985" lon="4.84217">
        <ele>274</ele>
        <time>2018-06-24T09:48:53Z</time>
      </trkpt>
      <trkpt lat="45.97989" lon="4.84213">
        <ele>274</ele>
        <time>2018-06-24T09:48:54Z</time>
      </trkpt>
      <trkpt lat="45.97994" lon="4.84209">
        <ele>274</ele>
        <time>2018-06-24T09:48:55Z</time>
      </trkpt>
      <trkpt lat="45.97998" lon="4.84205">
        <ele>274</ele>
        <time>2018-06-24T09:48:56Z</time>
      </trkpt>
      <trkpt lat="45.98003" lon="4.842">
        <ele>274</ele>
        <time>2018-06-24T09:48:57Z</time>
      </trkpt>
      <trkpt lat="45.98007" lon="4.84196">
        <ele>274</ele>
        <time>2018-06-24T09:48:58Z</time>
      </trkpt>
      <trkpt lat="45.98012" lon="4.84192">
        <ele>274</ele>
        <time>2018-06-24T09:48:59Z</time>
      </trkpt>
      <trkpt lat="45.98017" lon="4.84186">
        <ele>274</ele>
        <time>2018-06-24T09:49:00Z</time>
      </trkpt>
      <trkpt lat="45.98022" lon="4.84181">
        <ele>274</ele>
        <time>2018-06-24T09:49:01Z</time>
      </trkpt>
      <trkpt lat="45.98026" lon="4.84176">
        <ele>274</ele>
        <time>2018-06-24T09:49:02Z</time>
      </trkpt>
      <trkpt lat="45.98032" lon="4.84172">
        <ele>273</ele>
        <time>2018-06-24T09:49:03Z</time>
      </trkpt>
      <trkpt lat="45.98037" lon="4.84168">
        <ele>273</ele>
        <time>2018-06-24T09:49:04Z</time>
      </trkpt>
      <trkpt lat="45.98041" lon="4.84163">
        <ele>273</ele>
        <time>2018-06-24T09:49:05Z</time>
      </trkpt>
      <trkpt lat="45.98046" lon="4.84159">
        <ele>273</ele>
        <time>2018-06-24T09:49:06Z</time>
      </trkpt>
      <trkpt lat="45.9805" lon="4.84155">
        <ele>273</ele>
        <time>2018-06-24T09:49:07Z</time>
      </trkpt>
      <trkpt lat="45.98058" lon="4.84151">
        <ele>273</ele>
        <time>2018-06-24T09:49:09Z</time>
      </trkpt>
      <trkpt lat="45.98062" lon="4.84147">
        <ele>273</ele>
        <time>2018-06-24T09:49:10Z</time>
      </trkpt>
      <trkpt lat="45.98065" lon="4.84143">
        <ele>273</ele>
        <time>2018-06-24T09:49:11Z</time>
      </trkpt>
      <trkpt lat="45.98069" lon="4.84137">
        <ele>273</ele>
        <time>2018-06-24T09:49:12Z</time>
      </trkpt>
      <trkpt lat="45.98073" lon="4.84133">
        <ele>273</ele>
        <time>2018-06-24T09:49:13Z</time>
      </trkpt>
      <trkpt lat="45.98077" lon="4.84129">
        <ele>273</ele>
        <time>2018-06-24T09:49:14Z</time>
      </trkpt>
      <trkpt lat="45.98082" lon="4.84125">
        <ele>273</ele>
        <time>2018-06-24T09:49:15Z</time>
      </trkpt>
      <trkpt lat="45.98086" lon="4.84121">
        <ele>273</ele>
        <time>2018-06-24T09:49:16Z</time>
      </trkpt>
      <trkpt lat="45.9809" lon="4.84116">
        <ele>273</ele>
        <time>2018-06-24T09:49:17Z</time>
      </trkpt>
      <trkpt lat="45.98095" lon="4.84112">
        <ele>273</ele>
        <time>2018-06-24T09:49:18Z</time>
      </trkpt>
      <trkpt lat="45.98099" lon="4.84107">
        <ele>273</ele>
        <time>2018-06-24T09:49:19Z</time>
      </trkpt>
      <trkpt lat="45.98104" lon="4.84104">
        <ele>273</ele>
        <time>2018-06-24T09:49:20Z</time>
      </trkpt>
      <trkpt lat="45.98109" lon="4.84099">
        <ele>273</ele>
        <time>2018-06-24T09:49:21Z</time>
      </trkpt>
      <trkpt lat="45.98113" lon="4.84094">
        <ele>273</ele>
        <time>2018-06-24T09:49:22Z</time>
      </trkpt>
      <trkpt lat="45.98118" lon="4.84089">
        <ele>273</ele>
        <time>2018-06-24T09:49:23Z</time>
      </trkpt>
      <trkpt lat="45.98122" lon="4.84085">
        <ele>273</ele>
        <time>2018-06-24T09:49:24Z</time>
      </trkpt>
      <trkpt lat="45.98127" lon="4.8408">
        <ele>273</ele>
        <time>2018-06-24T09:49:25Z</time>
      </trkpt>
      <trkpt lat="45.98131" lon="4.84076">
        <ele>273</ele>
        <time>2018-06-24T09:49:26Z</time>
      </trkpt>
      <trkpt lat="45.98136" lon="4.84069">
        <ele>273</ele>
        <time>2018-06-24T09:49:27Z</time>
      </trkpt>
      <trkpt lat="45.9814" lon="4.84065">
        <ele>273</ele>
        <time>2018-06-24T09:49:28Z</time>
      </trkpt>
      <trkpt lat="45.98143" lon="4.84061">
        <ele>273</ele>
        <time>2018-06-24T09:49:29Z</time>
      </trkpt>
      <trkpt lat="45.98147" lon="4.84056">
        <ele>273</ele>
        <time>2018-06-24T09:49:30Z</time>
      </trkpt>
      <trkpt lat="45.98151" lon="4.84051">
        <ele>273</ele>
        <time>2018-06-24T09:49:31Z</time>
      </trkpt>
      <trkpt lat="45.98156" lon="4.84046">
        <ele>273</ele>
        <time>2018-06-24T09:49:32Z</time>
      </trkpt>
      <trkpt lat="45.98163" lon="4.84039">
        <ele>273</ele>
        <time>2018-06-24T09:49:34Z</time>
      </trkpt>
      <trkpt lat="45.98165" lon="4.84032">
        <ele>273</ele>
        <time>2018-06-24T09:49:35Z</time>
      </trkpt>
      <trkpt lat="45.98169" lon="4.84026">
        <ele>273</ele>
        <time>2018-06-24T09:49:36Z</time>
      </trkpt>
      <trkpt lat="45.98172" lon="4.8402">
        <ele>273</ele>
        <time>2018-06-24T09:49:37Z</time>
      </trkpt>
      <trkpt lat="45.98176" lon="4.84014">
        <ele>273</ele>
        <time>2018-06-24T09:49:38Z</time>
      </trkpt>
      <trkpt lat="45.9818" lon="4.84009">
        <ele>273</ele>
        <time>2018-06-24T09:49:39Z</time>
      </trkpt>
      <trkpt lat="45.98183" lon="4.84003">
        <ele>273</ele>
        <time>2018-06-24T09:49:40Z</time>
      </trkpt>
      <trkpt lat="45.98186" lon="4.83997">
        <ele>273</ele>
        <time>2018-06-24T09:49:41Z</time>
      </trkpt>
      <trkpt lat="45.98191" lon="4.83989">
        <ele>273</ele>
        <time>2018-06-24T09:49:42Z</time>
      </trkpt>
      <trkpt lat="45.98192" lon="4.83983">
        <ele>273</ele>
        <time>2018-06-24T09:49:43Z</time>
      </trkpt>
      <trkpt lat="45.98195" lon="4.83978">
        <ele>273</ele>
        <time>2018-06-24T09:49:44Z</time>
      </trkpt>
      <trkpt lat="45.98198" lon="4.83971">
        <ele>273</ele>
        <time>2018-06-24T09:49:45Z</time>
      </trkpt>
      <trkpt lat="45.982" lon="4.83963">
        <ele>273</ele>
        <time>2018-06-24T09:49:46Z</time>
      </trkpt>
      <trkpt lat="45.98203" lon="4.83953">
        <ele>273</ele>
        <time>2018-06-24T09:49:47Z</time>
      </trkpt>
      <trkpt lat="45.98205" lon="4.83945">
        <ele>273</ele>
        <time>2018-06-24T09:49:48Z</time>
      </trkpt>
      <trkpt lat="45.98207" lon="4.83938">
        <ele>273</ele>
        <time>2018-06-24T09:49:49Z</time>
      </trkpt>
      <trkpt lat="45.98211" lon="4.83928">
        <ele>273</ele>
        <time>2018-06-24T09:49:50Z</time>
      </trkpt>
      <trkpt lat="45.98214" lon="4.8392">
        <ele>273</ele>
        <time>2018-06-24T09:49:51Z</time>
      </trkpt>
      <trkpt lat="45.98217" lon="4.83913">
        <ele>273</ele>
        <time>2018-06-24T09:49:52Z</time>
      </trkpt>
      <trkpt lat="45.9822" lon="4.83906">
        <ele>273</ele>
        <time>2018-06-24T09:49:53Z</time>
      </trkpt>
      <trkpt lat="45.98222" lon="4.83899">
        <ele>272</ele>
        <time>2018-06-24T09:49:54Z</time>
      </trkpt>
      <trkpt lat="45.98224" lon="4.83892">
        <ele>272</ele>
        <time>2018-06-24T09:49:55Z</time>
      </trkpt>
      <trkpt lat="45.98228" lon="4.83882">
        <ele>272</ele>
        <time>2018-06-24T09:49:57Z</time>
      </trkpt>
      <trkpt lat="45.9823" lon="4.83876">
        <ele>272</ele>
        <time>2018-06-24T09:49:58Z</time>
      </trkpt>
      <trkpt lat="45.98233" lon="4.83868">
        <ele>272</ele>
        <time>2018-06-24T09:49:59Z</time>
      </trkpt>
      <trkpt lat="45.98236" lon="4.8386">
        <ele>272</ele>
        <time>2018-06-24T09:50:00Z</time>
      </trkpt>
      <trkpt lat="45.98238" lon="4.83853">
        <ele>272</ele>
        <time>2018-06-24T09:50:01Z</time>
      </trkpt>
      <trkpt lat="45.98241" lon="4.83845">
        <ele>272</ele>
        <time>2018-06-24T09:50:02Z</time>
      </trkpt>
      <trkpt lat="45.98244" lon="4.83838">
        <ele>272</ele>
        <time>2018-06-24T09:50:03Z</time>
      </trkpt>
      <trkpt lat="45.98246" lon="4.83831">
        <ele>272</ele>
        <time>2018-06-24T09:50:04Z</time>
      </trkpt>
      <trkpt lat="45.98248" lon="4.83824">
        <ele>272</ele>
        <time>2018-06-24T09:50:05Z</time>
      </trkpt>
      <trkpt lat="45.98251" lon="4.83817">
        <ele>272</ele>
        <time>2018-06-24T09:50:06Z</time>
      </trkpt>
      <trkpt lat="45.98252" lon="4.83808">
        <ele>272</ele>
        <time>2018-06-24T09:50:07Z</time>
      </trkpt>
      <trkpt lat="45.98255" lon="4.83802">
        <ele>272</ele>
        <time>2018-06-24T09:50:08Z</time>
      </trkpt>
      <trkpt lat="45.9826" lon="4.83792">
        <ele>272</ele>
        <time>2018-06-24T09:50:10Z</time>
      </trkpt>
      <trkpt lat="45.98263" lon="4.83784">
        <ele>272</ele>
        <time>2018-06-24T09:50:11Z</time>
      </trkpt>
      <trkpt lat="45.98265" lon="4.83778">
        <ele>272</ele>
        <time>2018-06-24T09:50:12Z</time>
      </trkpt>
      <trkpt lat="45.98268" lon="4.83772">
        <ele>272</ele>
        <time>2018-06-24T09:50:13Z</time>
      </trkpt>
      <trkpt lat="45.9827" lon="4.83765">
        <ele>272</ele>
        <time>2018-06-24T09:50:14Z</time>
      </trkpt>
      <trkpt lat="45.98271" lon="4.83758">
        <ele>272</ele>
        <time>2018-06-24T09:50:15Z</time>
      </trkpt>
      <trkpt lat="45.98273" lon="4.83751">
        <ele>272</ele>
        <time>2018-06-24T09:50:16Z</time>
      </trkpt>
      <trkpt lat="45.98275" lon="4.83743">
        <ele>272</ele>
        <time>2018-06-24T09:50:17Z</time>
      </trkpt>
      <trkpt lat="45.98278" lon="4.83736">
        <ele>272</ele>
        <time>2018-06-24T09:50:18Z</time>
      </trkpt>
      <trkpt lat="45.9828" lon="4.83728">
        <ele>272</ele>
        <time>2018-06-24T09:50:19Z</time>
      </trkpt>
      <trkpt lat="45.98283" lon="4.83722">
        <ele>272</ele>
        <time>2018-06-24T09:50:20Z</time>
      </trkpt>
      <trkpt lat="45.98286" lon="4.83713">
        <ele>272</ele>
        <time>2018-06-24T09:50:21Z</time>
      </trkpt>
      <trkpt lat="45.98288" lon="4.83706">
        <ele>272</ele>
        <time>2018-06-24T09:50:22Z</time>
      </trkpt>
      <trkpt lat="45.9829" lon="4.837">
        <ele>272</ele>
        <time>2018-06-24T09:50:23Z</time>
      </trkpt>
      <trkpt lat="45.98293" lon="4.83693">
        <ele>272</ele>
        <time>2018-06-24T09:50:24Z</time>
      </trkpt>
      <trkpt lat="45.98295" lon="4.83689">
        <ele>272</ele>
        <time>2018-06-24T09:50:25Z</time>
      </trkpt>
      <trkpt lat="45.98298" lon="4.83683">
        <ele>272</ele>
        <time>2018-06-24T09:50:26Z</time>
      </trkpt>
      <trkpt lat="45.983" lon="4.83676">
        <ele>272</ele>
        <time>2018-06-24T09:50:27Z</time>
      </trkpt>
      <trkpt lat="45.98304" lon="4.83668">
        <ele>272</ele>
        <time>2018-06-24T09:50:28Z</time>
      </trkpt>
      <trkpt lat="45.98308" lon="4.83661">
        <ele>271</ele>
        <time>2018-06-24T09:50:29Z</time>
      </trkpt>
      <trkpt lat="45.9831" lon="4.83651">
        <ele>271</ele>
        <time>2018-06-24T09:50:30Z</time>
      </trkpt>
      <trkpt lat="45.98313" lon="4.83644">
        <ele>271</ele>
        <time>2018-06-24T09:50:31Z</time>
      </trkpt>
      <trkpt lat="45.98317" lon="4.83637">
        <ele>271</ele>
        <time>2018-06-24T09:50:32Z</time>
      </trkpt>
      <trkpt lat="45.9832" lon="4.83629">
        <ele>271</ele>
        <time>2018-06-24T09:50:33Z</time>
      </trkpt>
      <trkpt lat="45.98324" lon="4.83621">
        <ele>271</ele>
        <time>2018-06-24T09:50:34Z</time>
      </trkpt>
      <trkpt lat="45.98327" lon="4.83614">
        <ele>271</ele>
        <time>2018-06-24T09:50:35Z</time>
      </trkpt>
      <trkpt lat="45.98332" lon="4.83608">
        <ele>271</ele>
        <time>2018-06-24T09:50:36Z</time>
      </trkpt>
      <trkpt lat="45.98336" lon="4.83601">
        <ele>270</ele>
        <time>2018-06-24T09:50:37Z</time>
      </trkpt>
      <trkpt lat="45.9834" lon="4.83595">
        <ele>270</ele>
        <time>2018-06-24T09:50:38Z</time>
      </trkpt>
      <trkpt lat="45.98345" lon="4.8359">
        <ele>270</ele>
        <time>2018-06-24T09:50:39Z</time>
      </trkpt>
      <trkpt lat="45.98349" lon="4.83584">
        <ele>270</ele>
        <time>2018-06-24T09:50:40Z</time>
      </trkpt>
      <trkpt lat="45.98353" lon="4.83578">
        <ele>269</ele>
        <time>2018-06-24T09:50:41Z</time>
      </trkpt>
      <trkpt lat="45.98357" lon="4.83571">
        <ele>269</ele>
        <time>2018-06-24T09:50:42Z</time>
      </trkpt>
      <trkpt lat="45.98363" lon="4.83563">
        <ele>269</ele>
        <time>2018-06-24T09:50:43Z</time>
      </trkpt>
      <trkpt lat="45.98368" lon="4.83556">
        <ele>269</ele>
        <time>2018-06-24T09:50:44Z</time>
      </trkpt>
      <trkpt lat="45.98372" lon="4.8355">
        <ele>269</ele>
        <time>2018-06-24T09:50:45Z</time>
      </trkpt>
      <trkpt lat="45.98377" lon="4.83543">
        <ele>269</ele>
        <time>2018-06-24T09:50:46Z</time>
      </trkpt>
      <trkpt lat="45.98382" lon="4.83533">
        <ele>269</ele>
        <time>2018-06-24T09:50:47Z</time>
      </trkpt>
      <trkpt lat="45.98386" lon="4.83528">
        <ele>269</ele>
        <time>2018-06-24T09:50:48Z</time>
      </trkpt>
      <trkpt lat="45.98389" lon="4.83524">
        <ele>269</ele>
        <time>2018-06-24T09:50:49Z</time>
      </trkpt>
      <trkpt lat="45.98392" lon="4.83519">
        <ele>269</ele>
        <time>2018-06-24T09:50:50Z</time>
      </trkpt>
      <trkpt lat="45.98396" lon="4.83514">
        <ele>269</ele>
        <time>2018-06-24T09:50:51Z</time>
      </trkpt>
      <trkpt lat="45.98399" lon="4.83509">
        <ele>269</ele>
        <time>2018-06-24T09:50:52Z</time>
      </trkpt>
      <trkpt lat="45.98403" lon="4.83505">
        <ele>268</ele>
        <time>2018-06-24T09:50:53Z</time>
      </trkpt>
      <trkpt lat="45.98407" lon="4.83499">
        <ele>268</ele>
        <time>2018-06-24T09:50:54Z</time>
      </trkpt>
      <trkpt lat="45.9841" lon="4.83494">
        <ele>268</ele>
        <time>2018-06-24T09:50:55Z</time>
      </trkpt>
      <trkpt lat="45.98414" lon="4.83489">
        <ele>268</ele>
        <time>2018-06-24T09:50:56Z</time>
      </trkpt>
      <trkpt lat="45.98418" lon="4.83484">
        <ele>268</ele>
        <time>2018-06-24T09:50:57Z</time>
      </trkpt>
      <trkpt lat="45.98423" lon="4.83478">
        <ele>268</ele>
        <time>2018-06-24T09:50:58Z</time>
      </trkpt>
      <trkpt lat="45.98427" lon="4.83472">
        <ele>268</ele>
        <time>2018-06-24T09:50:59Z</time>
      </trkpt>
      <trkpt lat="45.9843" lon="4.83468">
        <ele>268</ele>
        <time>2018-06-24T09:51:00Z</time>
      </trkpt>
      <trkpt lat="45.98435" lon="4.83462">
        <ele>268</ele>
        <time>2018-06-24T09:51:01Z</time>
      </trkpt>
      <trkpt lat="45.98439" lon="4.83456">
        <ele>268</ele>
        <time>2018-06-24T09:51:02Z</time>
      </trkpt>
      <trkpt lat="45.98444" lon="4.8345">
        <ele>268</ele>
        <time>2018-06-24T09:51:03Z</time>
      </trkpt>
      <trkpt lat="45.98448" lon="4.83444">
        <ele>268</ele>
        <time>2018-06-24T09:51:04Z</time>
      </trkpt>
      <trkpt lat="45.98453" lon="4.83438">
        <ele>268</ele>
        <time>2018-06-24T09:51:05Z</time>
      </trkpt>
      <trkpt lat="45.98457" lon="4.83433">
        <ele>268</ele>
        <time>2018-06-24T09:51:06Z</time>
      </trkpt>
      <trkpt lat="45.98461" lon="4.83427">
        <ele>268</ele>
        <time>2018-06-24T09:51:07Z</time>
      </trkpt>
      <trkpt lat="45.98467" lon="4.83418">
        <ele>269</ele>
        <time>2018-06-24T09:51:09Z</time>
      </trkpt>
      <trkpt lat="45.98471" lon="4.83414">
        <ele>269</ele>
        <time>2018-06-24T09:51:10Z</time>
      </trkpt>
      <trkpt lat="45.98475" lon="4.83409">
        <ele>269</ele>
        <time>2018-06-24T09:51:11Z</time>
      </trkpt>
      <trkpt lat="45.98478" lon="4.83404">
        <ele>269</ele>
        <time>2018-06-24T09:51:12Z</time>
      </trkpt>
      <trkpt lat="45.98482" lon="4.83399">
        <ele>269</ele>
        <time>2018-06-24T09:51:13Z</time>
      </trkpt>
      <trkpt lat="45.98487" lon="4.83394">
        <ele>269</ele>
        <time>2018-06-24T09:51:14Z</time>
      </trkpt>
      <trkpt lat="45.98491" lon="4.83388">
        <ele>269</ele>
        <time>2018-06-24T09:51:15Z</time>
      </trkpt>
      <trkpt lat="45.98495" lon="4.83382">
        <ele>269</ele>
        <time>2018-06-24T09:51:16Z</time>
      </trkpt>
      <trkpt lat="45.98499" lon="4.83377">
        <ele>269</ele>
        <time>2018-06-24T09:51:17Z</time>
      </trkpt>
      <trkpt lat="45.98503" lon="4.83372">
        <ele>269</ele>
        <time>2018-06-24T09:51:18Z</time>
      </trkpt>
      <trkpt lat="45.98507" lon="4.83365">
        <ele>269</ele>
        <time>2018-06-24T09:51:19Z</time>
      </trkpt>
      <trkpt lat="45.9851" lon="4.8336">
        <ele>269</ele>
        <time>2018-06-24T09:51:20Z</time>
      </trkpt>
      <trkpt lat="45.98514" lon="4.83356">
        <ele>269</ele>
        <time>2018-06-24T09:51:21Z</time>
      </trkpt>
      <trkpt lat="45.98518" lon="4.83351">
        <ele>270</ele>
        <time>2018-06-24T09:51:22Z</time>
      </trkpt>
      <trkpt lat="45.98522" lon="4.83347">
        <ele>269</ele>
        <time>2018-06-24T09:51:23Z</time>
      </trkpt>
      <trkpt lat="45.98526" lon="4.83341">
        <ele>269</ele>
        <time>2018-06-24T09:51:24Z</time>
      </trkpt>
      <trkpt lat="45.98529" lon="4.83336">
        <ele>269</ele>
        <time>2018-06-24T09:51:25Z</time>
      </trkpt>
      <trkpt lat="45.98533" lon="4.83332">
        <ele>269</ele>
        <time>2018-06-24T09:51:26Z</time>
      </trkpt>
      <trkpt lat="45.98537" lon="4.83327">
        <ele>269</ele>
        <time>2018-06-24T09:51:27Z</time>
      </trkpt>
      <trkpt lat="45.9854" lon="4.83322">
        <ele>269</ele>
        <time>2018-06-24T09:51:28Z</time>
      </trkpt>
      <trkpt lat="45.98543" lon="4.83317">
        <ele>269</ele>
        <time>2018-06-24T09:51:29Z</time>
      </trkpt>
      <trkpt lat="45.98546" lon="4.83313">
        <ele>269</ele>
        <time>2018-06-24T09:51:30Z</time>
      </trkpt>
      <trkpt lat="45.9855" lon="4.83307">
        <ele>269</ele>
        <time>2018-06-24T09:51:31Z</time>
      </trkpt>
      <trkpt lat="45.98554" lon="4.83302">
        <ele>269</ele>
        <time>2018-06-24T09:51:32Z</time>
      </trkpt>
      <trkpt lat="45.98558" lon="4.83298">
        <ele>269</ele>
        <time>2018-06-24T09:51:33Z</time>
      </trkpt>
      <trkpt lat="45.98562" lon="4.83292">
        <ele>269</ele>
        <time>2018-06-24T09:51:34Z</time>
      </trkpt>
      <trkpt lat="45.98566" lon="4.83287">
        <ele>269</ele>
        <time>2018-06-24T09:51:35Z</time>
      </trkpt>
      <trkpt lat="45.98569" lon="4.83281">
        <ele>269</ele>
        <time>2018-06-24T09:51:36Z</time>
      </trkpt>
      <trkpt lat="45.98572" lon="4.83276">
        <ele>269</ele>
        <time>2018-06-24T09:51:37Z</time>
      </trkpt>
      <trkpt lat="45.98575" lon="4.8327">
        <ele>269</ele>
        <time>2018-06-24T09:51:38Z</time>
      </trkpt>
      <trkpt lat="45.98578" lon="4.83267">
        <ele>269</ele>
        <time>2018-06-24T09:51:39Z</time>
      </trkpt>
      <trkpt lat="45.98582" lon="4.83262">
        <ele>268</ele>
        <time>2018-06-24T09:51:40Z</time>
      </trkpt>
      <trkpt lat="45.98586" lon="4.83257">
        <ele>268</ele>
        <time>2018-06-24T09:51:41Z</time>
      </trkpt>
      <trkpt lat="45.9859" lon="4.83252">
        <ele>268</ele>
        <time>2018-06-24T09:51:42Z</time>
      </trkpt>
      <trkpt lat="45.98595" lon="4.83244">
        <ele>268</ele>
        <time>2018-06-24T09:51:43Z</time>
      </trkpt>
      <trkpt lat="45.98598" lon="4.83239">
        <ele>268</ele>
        <time>2018-06-24T09:51:44Z</time>
      </trkpt>
      <trkpt lat="45.98601" lon="4.83235">
        <ele>268</ele>
        <time>2018-06-24T09:51:45Z</time>
      </trkpt>
      <trkpt lat="45.98605" lon="4.83231">
        <ele>267</ele>
        <time>2018-06-24T09:51:46Z</time>
      </trkpt>
      <trkpt lat="45.98611" lon="4.83225">
        <ele>267</ele>
        <time>2018-06-24T09:51:47Z</time>
      </trkpt>
      <trkpt lat="45.98615" lon="4.8322">
        <ele>267</ele>
        <time>2018-06-24T09:51:48Z</time>
      </trkpt>
      <trkpt lat="45.98618" lon="4.83216">
        <ele>267</ele>
        <time>2018-06-24T09:51:49Z</time>
      </trkpt>
      <trkpt lat="45.98624" lon="4.83209">
        <ele>267</ele>
        <time>2018-06-24T09:51:50Z</time>
      </trkpt>
      <trkpt lat="45.98628" lon="4.83203">
        <ele>267</ele>
        <time>2018-06-24T09:51:51Z</time>
      </trkpt>
      <trkpt lat="45.98632" lon="4.83199">
        <ele>267</ele>
        <time>2018-06-24T09:51:52Z</time>
      </trkpt>
      <trkpt lat="45.98636" lon="4.83194">
        <ele>267</ele>
        <time>2018-06-24T09:51:53Z</time>
      </trkpt>
      <trkpt lat="45.9864" lon="4.83189">
        <ele>267</ele>
        <time>2018-06-24T09:51:54Z</time>
      </trkpt>
      <trkpt lat="45.98644" lon="4.83187">
        <ele>267</ele>
        <time>2018-06-24T09:51:55Z</time>
      </trkpt>
      <trkpt lat="45.98648" lon="4.83182">
        <ele>267</ele>
        <time>2018-06-24T09:51:56Z</time>
      </trkpt>
      <trkpt lat="45.98652" lon="4.83177">
        <ele>267</ele>
        <time>2018-06-24T09:51:57Z</time>
      </trkpt>
      <trkpt lat="45.98657" lon="4.83172">
        <ele>266</ele>
        <time>2018-06-24T09:51:58Z</time>
      </trkpt>
      <trkpt lat="45.98661" lon="4.83168">
        <ele>266</ele>
        <time>2018-06-24T09:51:59Z</time>
      </trkpt>
      <trkpt lat="45.98666" lon="4.83165">
        <ele>266</ele>
        <time>2018-06-24T09:52:00Z</time>
      </trkpt>
      <trkpt lat="45.9867" lon="4.83161">
        <ele>266</ele>
        <time>2018-06-24T09:52:01Z</time>
      </trkpt>
      <trkpt lat="45.98676" lon="4.83157">
        <ele>266</ele>
        <time>2018-06-24T09:52:02Z</time>
      </trkpt>
      <trkpt lat="45.98681" lon="4.83153">
        <ele>266</ele>
        <time>2018-06-24T09:52:03Z</time>
      </trkpt>
      <trkpt lat="45.98685" lon="4.8315">
        <ele>266</ele>
        <time>2018-06-24T09:52:04Z</time>
      </trkpt>
      <trkpt lat="45.9869" lon="4.83146">
        <ele>266</ele>
        <time>2018-06-24T09:52:05Z</time>
      </trkpt>
      <trkpt lat="45.98695" lon="4.83141">
        <ele>266</ele>
        <time>2018-06-24T09:52:06Z</time>
      </trkpt>
      <trkpt lat="45.987" lon="4.83137">
        <ele>266</ele>
        <time>2018-06-24T09:52:07Z</time>
      </trkpt>
      <trkpt lat="45.98706" lon="4.83132">
        <ele>266</ele>
        <time>2018-06-24T09:52:08Z</time>
      </trkpt>
      <trkpt lat="45.98711" lon="4.83128">
        <ele>266</ele>
        <time>2018-06-24T09:52:09Z</time>
      </trkpt>
      <trkpt lat="45.98716" lon="4.83123">
        <ele>266</ele>
        <time>2018-06-24T09:52:10Z</time>
      </trkpt>
      <trkpt lat="45.98721" lon="4.83119">
        <ele>267</ele>
        <time>2018-06-24T09:52:11Z</time>
      </trkpt>
      <trkpt lat="45.98727" lon="4.83114">
        <ele>267</ele>
        <time>2018-06-24T09:52:12Z</time>
      </trkpt>
      <trkpt lat="45.98732" lon="4.83111">
        <ele>267</ele>
        <time>2018-06-24T09:52:13Z</time>
      </trkpt>
      <trkpt lat="45.98736" lon="4.83105">
        <ele>267</ele>
        <time>2018-06-24T09:52:14Z</time>
      </trkpt>
      <trkpt lat="45.9874" lon="4.831">
        <ele>267</ele>
        <time>2018-06-24T09:52:15Z</time>
      </trkpt>
      <trkpt lat="45.98745" lon="4.83097">
        <ele>267</ele>
        <time>2018-06-24T09:52:16Z</time>
      </trkpt>
      <trkpt lat="45.9875" lon="4.83093">
        <ele>266</ele>
        <time>2018-06-24T09:52:17Z</time>
      </trkpt>
      <trkpt lat="45.98755" lon="4.83089">
        <ele>266</ele>
        <time>2018-06-24T09:52:18Z</time>
      </trkpt>
      <trkpt lat="45.9876" lon="4.83085">
        <ele>266</ele>
        <time>2018-06-24T09:52:19Z</time>
      </trkpt>
      <trkpt lat="45.98765" lon="4.83082">
        <ele>266</ele>
        <time>2018-06-24T09:52:20Z</time>
      </trkpt>
      <trkpt lat="45.98769" lon="4.83078">
        <ele>266</ele>
        <time>2018-06-24T09:52:21Z</time>
      </trkpt>
      <trkpt lat="45.98774" lon="4.83075">
        <ele>265</ele>
        <time>2018-06-24T09:52:22Z</time>
      </trkpt>
      <trkpt lat="45.98779" lon="4.83071">
        <ele>265</ele>
        <time>2018-06-24T09:52:23Z</time>
      </trkpt>
      <trkpt lat="45.98784" lon="4.83067">
        <ele>265</ele>
        <time>2018-06-24T09:52:24Z</time>
      </trkpt>
      <trkpt lat="45.98789" lon="4.83063">
        <ele>265</ele>
        <time>2018-06-24T09:52:25Z</time>
      </trkpt>
      <trkpt lat="45.98795" lon="4.83059">
        <ele>264</ele>
        <time>2018-06-24T09:52:26Z</time>
      </trkpt>
      <trkpt lat="45.988" lon="4.83055">
        <ele>264</ele>
        <time>2018-06-24T09:52:27Z</time>
      </trkpt>
      <trkpt lat="45.98805" lon="4.8305">
        <ele>264</ele>
        <time>2018-06-24T09:52:28Z</time>
      </trkpt>
      <trkpt lat="45.9881" lon="4.83049">
        <ele>264</ele>
        <time>2018-06-24T09:52:29Z</time>
      </trkpt>
      <trkpt lat="45.98815" lon="4.83043">
        <ele>264</ele>
        <time>2018-06-24T09:52:30Z</time>
      </trkpt>
      <trkpt lat="45.98819" lon="4.83039">
        <ele>264</ele>
        <time>2018-06-24T09:52:31Z</time>
      </trkpt>
      <trkpt lat="45.98825" lon="4.83034">
        <ele>264</ele>
        <time>2018-06-24T09:52:32Z</time>
      </trkpt>
      <trkpt lat="45.98831" lon="4.8303">
        <ele>264</ele>
        <time>2018-06-24T09:52:33Z</time>
      </trkpt>
      <trkpt lat="45.98836" lon="4.83026">
        <ele>261</ele>
        <time>2018-06-24T09:52:34Z</time>
      </trkpt>
      <trkpt lat="45.98842" lon="4.83021">
        <ele>261</ele>
        <time>2018-06-24T09:52:35Z</time>
      </trkpt>
      <trkpt lat="45.98847" lon="4.83016">
        <ele>261</ele>
        <time>2018-06-24T09:52:36Z</time>
      </trkpt>
      <trkpt lat="45.98853" lon="4.83013">
        <ele>261</ele>
        <time>2018-06-24T09:52:37Z</time>
      </trkpt>
      <trkpt lat="45.9886" lon="4.83009">
        <ele>260</ele>
        <time>2018-06-24T09:52:38Z</time>
      </trkpt>
      <trkpt lat="45.98866" lon="4.83005">
        <ele>260</ele>
        <time>2018-06-24T09:52:39Z</time>
      </trkpt>
      <trkpt lat="45.98872" lon="4.83">
        <ele>260</ele>
        <time>2018-06-24T09:52:40Z</time>
      </trkpt>
      <trkpt lat="45.98879" lon="4.82995">
        <ele>260</ele>
        <time>2018-06-24T09:52:41Z</time>
      </trkpt>
      <trkpt lat="45.98885" lon="4.8299">
        <ele>259</ele>
        <time>2018-06-24T09:52:42Z</time>
      </trkpt>
      <trkpt lat="45.98895" lon="4.82982">
        <ele>259</ele>
        <time>2018-06-24T09:52:43Z</time>
      </trkpt>
      <trkpt lat="45.98903" lon="4.82976">
        <ele>259</ele>
        <time>2018-06-24T09:52:44Z</time>
      </trkpt>
      <trkpt lat="45.98911" lon="4.8297">
        <ele>258</ele>
        <time>2018-06-24T09:52:45Z</time>
      </trkpt>
      <trkpt lat="45.98918" lon="4.82963">
        <ele>255</ele>
        <time>2018-06-24T09:52:46Z</time>
      </trkpt>
      <trkpt lat="45.98923" lon="4.82953">
        <ele>255</ele>
        <time>2018-06-24T09:52:47Z</time>
      </trkpt>
      <trkpt lat="45.98929" lon="4.82943">
        <ele>255</ele>
        <time>2018-06-24T09:52:48Z</time>
      </trkpt>
      <trkpt lat="45.98935" lon="4.82932">
        <ele>255</ele>
        <time>2018-06-24T09:52:49Z</time>
      </trkpt>
      <trkpt lat="45.9894" lon="4.8292">
        <ele>255</ele>
        <time>2018-06-24T09:52:50Z</time>
      </trkpt>
      <trkpt lat="45.98946" lon="4.82907">
        <ele>253</ele>
        <time>2018-06-24T09:52:51Z</time>
      </trkpt>
      <trkpt lat="45.98952" lon="4.8289">
        <ele>253</ele>
        <time>2018-06-24T09:52:52Z</time>
      </trkpt>
      <trkpt lat="45.98959" lon="4.82876">
        <ele>253</ele>
        <time>2018-06-24T09:52:53Z</time>
      </trkpt>
      <trkpt lat="45.98965" lon="4.82862">
        <ele>252</ele>
        <time>2018-06-24T09:52:54Z</time>
      </trkpt>
      <trkpt lat="45.9897" lon="4.82848">
        <ele>251</ele>
        <time>2018-06-24T09:52:55Z</time>
      </trkpt>
      <trkpt lat="45.98977" lon="4.82833">
        <ele>249</ele>
        <time>2018-06-24T09:52:56Z</time>
      </trkpt>
      <trkpt lat="45.98982" lon="4.82816">
        <ele>248</ele>
        <time>2018-06-24T09:52:57Z</time>
      </trkpt>
      <trkpt lat="45.98989" lon="4.82801">
        <ele>248</ele>
        <time>2018-06-24T09:52:58Z</time>
      </trkpt>
      <trkpt lat="45.98997" lon="4.82786">
        <ele>247</ele>
        <time>2018-06-24T09:52:59Z</time>
      </trkpt>
      <trkpt lat="45.99003" lon="4.8277">
        <ele>241</ele>
        <time>2018-06-24T09:53:00Z</time>
      </trkpt>
      <trkpt lat="45.9901" lon="4.82754">
        <ele>241</ele>
        <time>2018-06-24T09:53:01Z</time>
      </trkpt>
      <trkpt lat="45.99017" lon="4.82738">
        <ele>239</ele>
        <time>2018-06-24T09:53:02Z</time>
      </trkpt>
      <trkpt lat="45.99022" lon="4.82723">
        <ele>239</ele>
        <time>2018-06-24T09:53:03Z</time>
      </trkpt>
      <trkpt lat="45.99029" lon="4.82708">
        <ele>238</ele>
        <time>2018-06-24T09:53:04Z</time>
      </trkpt>
      <trkpt lat="45.99035" lon="4.82693">
        <ele>238</ele>
        <time>2018-06-24T09:53:05Z</time>
      </trkpt>
      <trkpt lat="45.99041" lon="4.82678">
        <ele>238</ele>
        <time>2018-06-24T09:53:06Z</time>
      </trkpt>
      <trkpt lat="45.99046" lon="4.82664">
        <ele>236</ele>
        <time>2018-06-24T09:53:07Z</time>
      </trkpt>
      <trkpt lat="45.99053" lon="4.8265">
        <ele>236</ele>
        <time>2018-06-24T09:53:08Z</time>
      </trkpt>
      <trkpt lat="45.99058" lon="4.82638">
        <ele>236</ele>
        <time>2018-06-24T09:53:09Z</time>
      </trkpt>
      <trkpt lat="45.99063" lon="4.82627">
        <ele>236</ele>
        <time>2018-06-24T09:53:10Z</time>
      </trkpt>
      <trkpt lat="45.99068" lon="4.82616">
        <ele>236</ele>
        <time>2018-06-24T09:53:11Z</time>
      </trkpt>
      <trkpt lat="45.9907" lon="4.82606">
        <ele>236</ele>
        <time>2018-06-24T09:53:12Z</time>
      </trkpt>
      <trkpt lat="45.99073" lon="4.82598">
        <ele>235</ele>
        <time>2018-06-24T09:53:13Z</time>
      </trkpt>
      <trkpt lat="45.99076" lon="4.8259">
        <ele>235</ele>
        <time>2018-06-24T09:53:14Z</time>
      </trkpt>
      <trkpt lat="45.99077" lon="4.82584">
        <ele>235</ele>
        <time>2018-06-24T09:53:15Z</time>
      </trkpt>
      <trkpt lat="45.99076" lon="4.82572">
        <ele>235</ele>
        <time>2018-06-24T09:53:17Z</time>
      </trkpt>
      <trkpt lat="45.99073" lon="4.82568">
        <ele>235</ele>
        <time>2018-06-24T09:53:18Z</time>
      </trkpt>
      <trkpt lat="45.99065" lon="4.82565">
        <ele>235</ele>
        <time>2018-06-24T09:53:20Z</time>
      </trkpt>
      <trkpt lat="45.99059" lon="4.82564">
        <ele>235</ele>
        <time>2018-06-24T09:53:21Z</time>
      </trkpt>
      <trkpt lat="45.99054" lon="4.82563">
        <ele>235</ele>
        <time>2018-06-24T09:53:22Z</time>
      </trkpt>
      <trkpt lat="45.9905" lon="4.8256">
        <ele>235</ele>
        <time>2018-06-24T09:53:23Z</time>
      </trkpt>
      <trkpt lat="45.99046" lon="4.82557">
        <ele>235</ele>
        <time>2018-06-24T09:53:24Z</time>
      </trkpt>
      <trkpt lat="45.99041" lon="4.82554">
        <ele>235</ele>
        <time>2018-06-24T09:53:25Z</time>
      </trkpt>
      <trkpt lat="45.99035" lon="4.82546">
        <ele>235</ele>
        <time>2018-06-24T09:53:27Z</time>
      </trkpt>
      <trkpt lat="45.9903" lon="4.82541">
        <ele>235</ele>
        <time>2018-06-24T09:53:28Z</time>
      </trkpt>
      <trkpt lat="45.99026" lon="4.82536">
        <ele>235</ele>
        <time>2018-06-24T09:53:29Z</time>
      </trkpt>
      <trkpt lat="45.99022" lon="4.8253">
        <ele>235</ele>
        <time>2018-06-24T09:53:30Z</time>
      </trkpt>
      <trkpt lat="45.99017" lon="4.82525">
        <ele>235</ele>
        <time>2018-06-24T09:53:31Z</time>
      </trkpt>
      <trkpt lat="45.99014" lon="4.82518">
        <ele>235</ele>
        <time>2018-06-24T09:53:32Z</time>
      </trkpt>
      <trkpt lat="45.9901" lon="4.82512">
        <ele>235</ele>
        <time>2018-06-24T09:53:33Z</time>
      </trkpt>
      <trkpt lat="45.99008" lon="4.82506">
        <ele>235</ele>
        <time>2018-06-24T09:53:34Z</time>
      </trkpt>
      <trkpt lat="45.99004" lon="4.82495">
        <ele>235</ele>
        <time>2018-06-24T09:53:36Z</time>
      </trkpt>
      <trkpt lat="45.99003" lon="4.82491">
        <ele>235</ele>
        <time>2018-06-24T09:53:37Z</time>
      </trkpt>
      <trkpt lat="45.98999" lon="4.82479">
        <ele>236</ele>
        <time>2018-06-24T09:53:39Z</time>
      </trkpt>
      <trkpt lat="45.98996" lon="4.82473">
        <ele>236</ele>
        <time>2018-06-24T09:53:40Z</time>
      </trkpt>
      <trkpt lat="45.98995" lon="4.82467">
        <ele>236</ele>
        <time>2018-06-24T09:53:41Z</time>
      </trkpt>
      <trkpt lat="45.98993" lon="4.82459">
        <ele>236</ele>
        <time>2018-06-24T09:53:42Z</time>
      </trkpt>
      <trkpt lat="45.98991" lon="4.82452">
        <ele>236</ele>
        <time>2018-06-24T09:53:43Z</time>
      </trkpt>
      <trkpt lat="45.98989" lon="4.82445">
        <ele>236</ele>
        <time>2018-06-24T09:53:44Z</time>
      </trkpt>
      <trkpt lat="45.98988" lon="4.82437">
        <ele>236</ele>
        <time>2018-06-24T09:53:45Z</time>
      </trkpt>
      <trkpt lat="45.98986" lon="4.8243">
        <ele>235</ele>
        <time>2018-06-24T09:53:46Z</time>
      </trkpt>
      <trkpt lat="45.98984" lon="4.82421">
        <ele>235</ele>
        <time>2018-06-24T09:53:47Z</time>
      </trkpt>
      <trkpt lat="45.98982" lon="4.82414">
        <ele>235</ele>
        <time>2018-06-24T09:53:48Z</time>
      </trkpt>
      <trkpt lat="45.98981" lon="4.82407">
        <ele>235</ele>
        <time>2018-06-24T09:53:49Z</time>
      </trkpt>
      <trkpt lat="45.98978" lon="4.824">
        <ele>235</ele>
        <time>2018-06-24T09:53:50Z</time>
      </trkpt>
      <trkpt lat="45.98977" lon="4.82393">
        <ele>235</ele>
        <time>2018-06-24T09:53:51Z</time>
      </trkpt>
      <trkpt lat="45.98974" lon="4.82388">
        <ele>235</ele>
        <time>2018-06-24T09:53:52Z</time>
      </trkpt>
      <trkpt lat="45.98972" lon="4.82382">
        <ele>235</ele>
        <time>2018-06-24T09:53:53Z</time>
      </trkpt>
      <trkpt lat="45.9897" lon="4.82375">
        <ele>235</ele>
        <time>2018-06-24T09:53:54Z</time>
      </trkpt>
      <trkpt lat="45.98967" lon="4.82367">
        <ele>235</ele>
        <time>2018-06-24T09:53:55Z</time>
      </trkpt>
      <trkpt lat="45.98964" lon="4.82359">
        <ele>235</ele>
        <time>2018-06-24T09:53:56Z</time>
      </trkpt>
      <trkpt lat="45.98962" lon="4.82353">
        <ele>235</ele>
        <time>2018-06-24T09:53:57Z</time>
      </trkpt>
      <trkpt lat="45.98959" lon="4.82345">
        <ele>235</ele>
        <time>2018-06-24T09:53:58Z</time>
      </trkpt>
      <trkpt lat="45.98955" lon="4.82338">
        <ele>235</ele>
        <time>2018-06-24T09:53:59Z</time>
      </trkpt>
      <trkpt lat="45.98952" lon="4.82331">
        <ele>234</ele>
        <time>2018-06-24T09:54:00Z</time>
      </trkpt>
      <trkpt lat="45.98949" lon="4.82325">
        <ele>234</ele>
        <time>2018-06-24T09:54:01Z</time>
      </trkpt>
      <trkpt lat="45.98945" lon="4.8232">
        <ele>234</ele>
        <time>2018-06-24T09:54:02Z</time>
      </trkpt>
      <trkpt lat="45.98941" lon="4.82315">
        <ele>234</ele>
        <time>2018-06-24T09:54:03Z</time>
      </trkpt>
      <trkpt lat="45.98937" lon="4.82311">
        <ele>234</ele>
        <time>2018-06-24T09:54:04Z</time>
      </trkpt>
      <trkpt lat="45.98933" lon="4.82306">
        <ele>234</ele>
        <time>2018-06-24T09:54:05Z</time>
      </trkpt>
      <trkpt lat="45.98929" lon="4.82301">
        <ele>234</ele>
        <time>2018-06-24T09:54:06Z</time>
      </trkpt>
      <trkpt lat="45.98925" lon="4.82296">
        <ele>234</ele>
        <time>2018-06-24T09:54:07Z</time>
      </trkpt>
      <trkpt lat="45.98922" lon="4.82292">
        <ele>234</ele>
        <time>2018-06-24T09:54:08Z</time>
      </trkpt>
      <trkpt lat="45.98918" lon="4.82288">
        <ele>234</ele>
        <time>2018-06-24T09:54:09Z</time>
      </trkpt>
      <trkpt lat="45.98913" lon="4.82283">
        <ele>236</ele>
        <time>2018-06-24T09:54:10Z</time>
      </trkpt>
      <trkpt lat="45.98909" lon="4.82279">
        <ele>236</ele>
        <time>2018-06-24T09:54:11Z</time>
      </trkpt>
      <trkpt lat="45.98905" lon="4.82273">
        <ele>236</ele>
        <time>2018-06-24T09:54:12Z</time>
      </trkpt>
      <trkpt lat="45.98901" lon="4.82266">
        <ele>236</ele>
        <time>2018-06-24T09:54:13Z</time>
      </trkpt>
      <trkpt lat="45.98897" lon="4.8226">
        <ele>236</ele>
        <time>2018-06-24T09:54:14Z</time>
      </trkpt>
      <trkpt lat="45.98894" lon="4.82253">
        <ele>236</ele>
        <time>2018-06-24T09:54:15Z</time>
      </trkpt>
      <trkpt lat="45.9889" lon="4.82246">
        <ele>235</ele>
        <time>2018-06-24T09:54:16Z</time>
      </trkpt>
      <trkpt lat="45.98886" lon="4.82239">
        <ele>235</ele>
        <time>2018-06-24T09:54:17Z</time>
      </trkpt>
      <trkpt lat="45.98884" lon="4.82233">
        <ele>236</ele>
        <time>2018-06-24T09:54:18Z</time>
      </trkpt>
      <trkpt lat="45.9888" lon="4.82226">
        <ele>236</ele>
        <time>2018-06-24T09:54:19Z</time>
      </trkpt>
      <trkpt lat="45.98877" lon="4.8222">
        <ele>236</ele>
        <time>2018-06-24T09:54:20Z</time>
      </trkpt>
      <trkpt lat="45.98874" lon="4.82213">
        <ele>236</ele>
        <time>2018-06-24T09:54:21Z</time>
      </trkpt>
      <trkpt lat="45.98872" lon="4.82206">
        <ele>236</ele>
        <time>2018-06-24T09:54:22Z</time>
      </trkpt>
      <trkpt lat="45.98868" lon="4.82198">
        <ele>236</ele>
        <time>2018-06-24T09:54:23Z</time>
      </trkpt>
      <trkpt lat="45.98865" lon="4.82191">
        <ele>236</ele>
        <time>2018-06-24T09:54:24Z</time>
      </trkpt>
      <trkpt lat="45.98864" lon="4.82183">
        <ele>236</ele>
        <time>2018-06-24T09:54:25Z</time>
      </trkpt>
      <trkpt lat="45.98861" lon="4.82174">
        <ele>236</ele>
        <time>2018-06-24T09:54:26Z</time>
      </trkpt>
      <trkpt lat="45.98858" lon="4.82166">
        <ele>236</ele>
        <time>2018-06-24T09:54:27Z</time>
      </trkpt>
      <trkpt lat="45.98856" lon="4.82158">
        <ele>236</ele>
        <time>2018-06-24T09:54:28Z</time>
      </trkpt>
      <trkpt lat="45.98853" lon="4.8215">
        <ele>236</ele>
        <time>2018-06-24T09:54:29Z</time>
      </trkpt>
      <trkpt lat="45.98852" lon="4.82141">
        <ele>236</ele>
        <time>2018-06-24T09:54:30Z</time>
      </trkpt>
      <trkpt lat="45.9885" lon="4.82131">
        <ele>235</ele>
        <time>2018-06-24T09:54:31Z</time>
      </trkpt>
      <trkpt lat="45.98848" lon="4.82122">
        <ele>235</ele>
        <time>2018-06-24T09:54:32Z</time>
      </trkpt>
      <trkpt lat="45.98846" lon="4.82114">
        <ele>235</ele>
        <time>2018-06-24T09:54:33Z</time>
      </trkpt>
      <trkpt lat="45.98844" lon="4.82105">
        <ele>235</ele>
        <time>2018-06-24T09:54:34Z</time>
      </trkpt>
      <trkpt lat="45.98843" lon="4.82095">
        <ele>236</ele>
        <time>2018-06-24T09:54:35Z</time>
      </trkpt>
      <trkpt lat="45.98843" lon="4.82086">
        <ele>236</ele>
        <time>2018-06-24T09:54:36Z</time>
      </trkpt>
      <trkpt lat="45.98841" lon="4.82077">
        <ele>236</ele>
        <time>2018-06-24T09:54:37Z</time>
      </trkpt>
      <trkpt lat="45.98839" lon="4.82068">
        <ele>236</ele>
        <time>2018-06-24T09:54:38Z</time>
      </trkpt>
      <trkpt lat="45.98838" lon="4.8206">
        <ele>236</ele>
        <time>2018-06-24T09:54:39Z</time>
      </trkpt>
      <trkpt lat="45.98837" lon="4.82052">
        <ele>236</ele>
        <time>2018-06-24T09:54:40Z</time>
      </trkpt>
      <trkpt lat="45.98835" lon="4.82044">
        <ele>236</ele>
        <time>2018-06-24T09:54:41Z</time>
      </trkpt>
      <trkpt lat="45.98835" lon="4.82036">
        <ele>236</ele>
        <time>2018-06-24T09:54:42Z</time>
      </trkpt>
      <trkpt lat="45.98834" lon="4.82028">
        <ele>236</ele>
        <time>2018-06-24T09:54:43Z</time>
      </trkpt>
      <trkpt lat="45.98833" lon="4.82021">
        <ele>238</ele>
        <time>2018-06-24T09:54:44Z</time>
      </trkpt>
      <trkpt lat="45.98832" lon="4.82013">
        <ele>238</ele>
        <time>2018-06-24T09:54:45Z</time>
      </trkpt>
      <trkpt lat="45.98833" lon="4.82005">
        <ele>238</ele>
        <time>2018-06-24T09:54:46Z</time>
      </trkpt>
      <trkpt lat="45.98832" lon="4.81998">
        <ele>238</ele>
        <time>2018-06-24T09:54:47Z</time>
      </trkpt>
      <trkpt lat="45.9883" lon="4.8199">
        <ele>238</ele>
        <time>2018-06-24T09:54:48Z</time>
      </trkpt>
      <trkpt lat="45.9883" lon="4.81983">
        <ele>238</ele>
        <time>2018-06-24T09:54:49Z</time>
      </trkpt>
      <trkpt lat="45.98829" lon="4.81975">
        <ele>238</ele>
        <time>2018-06-24T09:54:50Z</time>
      </trkpt>
      <trkpt lat="45.98828" lon="4.81969">
        <ele>239</ele>
        <time>2018-06-24T09:54:51Z</time>
      </trkpt>
      <trkpt lat="45.98827" lon="4.81961">
        <ele>239</ele>
        <time>2018-06-24T09:54:52Z</time>
      </trkpt>
      <trkpt lat="45.98826" lon="4.81954">
        <ele>239</ele>
        <time>2018-06-24T09:54:53Z</time>
      </trkpt>
      <trkpt lat="45.98825" lon="4.81946">
        <ele>239</ele>
        <time>2018-06-24T09:54:54Z</time>
      </trkpt>
      <trkpt lat="45.98823" lon="4.81938">
        <ele>239</ele>
        <time>2018-06-24T09:54:55Z</time>
      </trkpt>
      <trkpt lat="45.9882" lon="4.81929">
        <ele>239</ele>
        <time>2018-06-24T09:54:56Z</time>
      </trkpt>
      <trkpt lat="45.98819" lon="4.81921">
        <ele>239</ele>
        <time>2018-06-24T09:54:57Z</time>
      </trkpt>
      <trkpt lat="45.98817" lon="4.81913">
        <ele>239</ele>
        <time>2018-06-24T09:54:58Z</time>
      </trkpt>
      <trkpt lat="45.98816" lon="4.81905">
        <ele>239</ele>
        <time>2018-06-24T09:54:59Z</time>
      </trkpt>
      <trkpt lat="45.98814" lon="4.81897">
        <ele>239</ele>
        <time>2018-06-24T09:55:00Z</time>
      </trkpt>
      <trkpt lat="45.98812" lon="4.81889">
        <ele>239</ele>
        <time>2018-06-24T09:55:01Z</time>
      </trkpt>
      <trkpt lat="45.9881" lon="4.81883">
        <ele>239</ele>
        <time>2018-06-24T09:55:02Z</time>
      </trkpt>
      <trkpt lat="45.98807" lon="4.81877">
        <ele>239</ele>
        <time>2018-06-24T09:55:03Z</time>
      </trkpt>
      <trkpt lat="45.98805" lon="4.81871">
        <ele>239</ele>
        <time>2018-06-24T09:55:04Z</time>
      </trkpt>
      <trkpt lat="45.98803" lon="4.81865">
        <ele>239</ele>
        <time>2018-06-24T09:55:05Z</time>
      </trkpt>
      <trkpt lat="45.98801" lon="4.8186">
        <ele>239</ele>
        <time>2018-06-24T09:55:06Z</time>
      </trkpt>
      <trkpt lat="45.98797" lon="4.81848">
        <ele>239</ele>
        <time>2018-06-24T09:55:08Z</time>
      </trkpt>
      <trkpt lat="45.98795" lon="4.81843">
        <ele>239</ele>
        <time>2018-06-24T09:55:09Z</time>
      </trkpt>
      <trkpt lat="45.98793" lon="4.81836">
        <ele>239</ele>
        <time>2018-06-24T09:55:10Z</time>
      </trkpt>
      <trkpt lat="45.98791" lon="4.8183">
        <ele>240</ele>
        <time>2018-06-24T09:55:11Z</time>
      </trkpt>
      <trkpt lat="45.98785" lon="4.81826">
        <ele>240</ele>
        <time>2018-06-24T09:55:12Z</time>
      </trkpt>
      <trkpt lat="45.98782" lon="4.81819">
        <ele>240</ele>
        <time>2018-06-24T09:55:13Z</time>
      </trkpt>
      <trkpt lat="45.98781" lon="4.81812">
        <ele>240</ele>
        <time>2018-06-24T09:55:14Z</time>
      </trkpt>
      <trkpt lat="45.98778" lon="4.81807">
        <ele>240</ele>
        <time>2018-06-24T09:55:15Z</time>
      </trkpt>
      <trkpt lat="45.98772" lon="4.81797">
        <ele>241</ele>
        <time>2018-06-24T09:55:17Z</time>
      </trkpt>
      <trkpt lat="45.9877" lon="4.81792">
        <ele>241</ele>
        <time>2018-06-24T09:55:18Z</time>
      </trkpt>
      <trkpt lat="45.98767" lon="4.81786">
        <ele>241</ele>
        <time>2018-06-24T09:55:19Z</time>
      </trkpt>
      <trkpt lat="45.98766" lon="4.81779">
        <ele>241</ele>
        <time>2018-06-24T09:55:20Z</time>
      </trkpt>
      <trkpt lat="45.98763" lon="4.81774">
        <ele>241</ele>
        <time>2018-06-24T09:55:21Z</time>
      </trkpt>
      <trkpt lat="45.98759" lon="4.81769">
        <ele>241</ele>
        <time>2018-06-24T09:55:22Z</time>
      </trkpt>
      <trkpt lat="45.98752" lon="4.81762">
        <ele>241</ele>
        <time>2018-06-24T09:55:24Z</time>
      </trkpt>
      <trkpt lat="45.9875" lon="4.81755">
        <ele>241</ele>
        <time>2018-06-24T09:55:25Z</time>
      </trkpt>
      <trkpt lat="45.98745" lon="4.81746">
        <ele>240</ele>
        <time>2018-06-24T09:55:27Z</time>
      </trkpt>
      <trkpt lat="45.98742" lon="4.81741">
        <ele>240</ele>
        <time>2018-06-24T09:55:28Z</time>
      </trkpt>
      <trkpt lat="45.98737" lon="4.81731">
        <ele>240</ele>
        <time>2018-06-24T09:55:30Z</time>
      </trkpt>
      <trkpt lat="45.98733" lon="4.81727">
        <ele>239</ele>
        <time>2018-06-24T09:55:31Z</time>
      </trkpt>
      <trkpt lat="45.98728" lon="4.81725">
        <ele>239</ele>
        <time>2018-06-24T09:55:32Z</time>
      </trkpt>
      <trkpt lat="45.98722" lon="4.81724">
        <ele>239</ele>
        <time>2018-06-24T09:55:33Z</time>
      </trkpt>
      <trkpt lat="45.98714" lon="4.81726">
        <ele>239</ele>
        <time>2018-06-24T09:55:35Z</time>
      </trkpt>
      <trkpt lat="45.9871" lon="4.81727">
        <ele>239</ele>
        <time>2018-06-24T09:55:36Z</time>
      </trkpt>
      <trkpt lat="45.98704" lon="4.81727">
        <ele>239</ele>
        <time>2018-06-24T09:55:37Z</time>
      </trkpt>
      <trkpt lat="45.987" lon="4.81729">
        <ele>239</ele>
        <time>2018-06-24T09:55:38Z</time>
      </trkpt>
      <trkpt lat="45.98698" lon="4.81729">
        <ele>239</ele>
        <time>2018-06-24T09:55:39Z</time>
      </trkpt>
      <trkpt lat="45.98691" lon="4.81733">
        <ele>238</ele>
        <time>2018-06-24T09:55:40Z</time>
      </trkpt>
      <trkpt lat="45.98683" lon="4.81735">
        <ele>238</ele>
        <time>2018-06-24T09:55:42Z</time>
      </trkpt>
      <trkpt lat="45.98679" lon="4.81735">
        <ele>238</ele>
        <time>2018-06-24T09:55:43Z</time>
      </trkpt>
      <trkpt lat="45.98673" lon="4.81737">
        <ele>238</ele>
        <time>2018-06-24T09:55:44Z</time>
      </trkpt>
      <trkpt lat="45.98669" lon="4.81739">
        <ele>238</ele>
        <time>2018-06-24T09:55:45Z</time>
      </trkpt>
      <trkpt lat="45.98665" lon="4.81741">
        <ele>238</ele>
        <time>2018-06-24T09:55:46Z</time>
      </trkpt>
      <trkpt lat="45.9866" lon="4.81742">
        <ele>237</ele>
        <time>2018-06-24T09:55:47Z</time>
      </trkpt>
      <trkpt lat="45.98653" lon="4.81743">
        <ele>237</ele>
        <time>2018-06-24T09:55:48Z</time>
      </trkpt>
      <trkpt lat="45.98649" lon="4.81745">
        <ele>237</ele>
        <time>2018-06-24T09:55:49Z</time>
      </trkpt>
      <trkpt lat="45.98643" lon="4.81747">
        <ele>237</ele>
        <time>2018-06-24T09:55:50Z</time>
      </trkpt>
      <trkpt lat="45.98637" lon="4.81747">
        <ele>237</ele>
        <time>2018-06-24T09:55:51Z</time>
      </trkpt>
      <trkpt lat="45.9863" lon="4.81749">
        <ele>237</ele>
        <time>2018-06-24T09:55:52Z</time>
      </trkpt>
      <trkpt lat="45.98625" lon="4.8175">
        <ele>237</ele>
        <time>2018-06-24T09:55:53Z</time>
      </trkpt>
      <trkpt lat="45.9862" lon="4.81753">
        <ele>238</ele>
        <time>2018-06-24T09:55:54Z</time>
      </trkpt>
      <trkpt lat="45.98615" lon="4.81755">
        <ele>238</ele>
        <time>2018-06-24T09:55:55Z</time>
      </trkpt>
      <trkpt lat="45.98609" lon="4.81757">
        <ele>238</ele>
        <time>2018-06-24T09:55:56Z</time>
      </trkpt>
      <trkpt lat="45.98603" lon="4.8176">
        <ele>238</ele>
        <time>2018-06-24T09:55:57Z</time>
      </trkpt>
      <trkpt lat="45.98598" lon="4.81765">
        <ele>238</ele>
        <time>2018-06-24T09:55:58Z</time>
      </trkpt>
      <trkpt lat="45.98593" lon="4.81767">
        <ele>238</ele>
        <time>2018-06-24T09:55:59Z</time>
      </trkpt>
      <trkpt lat="45.98588" lon="4.81771">
        <ele>238</ele>
        <time>2018-06-24T09:56:00Z</time>
      </trkpt>
      <trkpt lat="45.98583" lon="4.81775">
        <ele>237</ele>
        <time>2018-06-24T09:56:01Z</time>
      </trkpt>
      <trkpt lat="45.98579" lon="4.81781">
        <ele>238</ele>
        <time>2018-06-24T09:56:02Z</time>
      </trkpt>
      <trkpt lat="45.98575" lon="4.81787">
        <ele>238</ele>
        <time>2018-06-24T09:56:03Z</time>
      </trkpt>
      <trkpt lat="45.98571" lon="4.81792">
        <ele>238</ele>
        <time>2018-06-24T09:56:04Z</time>
      </trkpt>
      <trkpt lat="45.98567" lon="4.81795">
        <ele>238</ele>
        <time>2018-06-24T09:56:05Z</time>
      </trkpt>
      <trkpt lat="45.98561" lon="4.81799">
        <ele>238</ele>
        <time>2018-06-24T09:56:06Z</time>
      </trkpt>
      <trkpt lat="45.98555" lon="4.81801">
        <ele>238</ele>
        <time>2018-06-24T09:56:07Z</time>
      </trkpt>
      <trkpt lat="45.98551" lon="4.81799">
        <ele>238</ele>
        <time>2018-06-24T09:56:08Z</time>
      </trkpt>
      <trkpt lat="45.98546" lon="4.81797">
        <ele>238</ele>
        <time>2018-06-24T09:56:09Z</time>
      </trkpt>
      <trkpt lat="45.98541" lon="4.81793">
        <ele>238</ele>
        <time>2018-06-24T09:56:10Z</time>
      </trkpt>
      <trkpt lat="45.98537" lon="4.81786">
        <ele>238</ele>
        <time>2018-06-24T09:56:11Z</time>
      </trkpt>
      <trkpt lat="45.98534" lon="4.8178">
        <ele>238</ele>
        <time>2018-06-24T09:56:12Z</time>
      </trkpt>
      <trkpt lat="45.98531" lon="4.81775">
        <ele>238</ele>
        <time>2018-06-24T09:56:13Z</time>
      </trkpt>
      <trkpt lat="45.98524" lon="4.81767">
        <ele>238</ele>
        <time>2018-06-24T09:56:15Z</time>
      </trkpt>
      <trkpt lat="45.9852" lon="4.81763">
        <ele>237</ele>
        <time>2018-06-24T09:56:16Z</time>
      </trkpt>
      <trkpt lat="45.98516" lon="4.81758">
        <ele>237</ele>
        <time>2018-06-24T09:56:17Z</time>
      </trkpt>
      <trkpt lat="45.98512" lon="4.81754">
        <ele>237</ele>
        <time>2018-06-24T09:56:18Z</time>
      </trkpt>
      <trkpt lat="45.98505" lon="4.81747">
        <ele>237</ele>
        <time>2018-06-24T09:56:20Z</time>
      </trkpt>
      <trkpt lat="45.98501" lon="4.81744">
        <ele>237</ele>
        <time>2018-06-24T09:56:21Z</time>
      </trkpt>
      <trkpt lat="45.98495" lon="4.81737">
        <ele>238</ele>
        <time>2018-06-24T09:56:23Z</time>
      </trkpt>
      <trkpt lat="45.98491" lon="4.81734">
        <ele>238</ele>
        <time>2018-06-24T09:56:24Z</time>
      </trkpt>
      <trkpt lat="45.98486" lon="4.81728">
        <ele>238</ele>
        <time>2018-06-24T09:56:26Z</time>
      </trkpt>
      <trkpt lat="45.98482" lon="4.81724">
        <ele>238</ele>
        <time>2018-06-24T09:56:27Z</time>
      </trkpt>
      <trkpt lat="45.98476" lon="4.81716">
        <ele>238</ele>
        <time>2018-06-24T09:56:29Z</time>
      </trkpt>
      <trkpt lat="45.98475" lon="4.81714">
        <ele>238</ele>
        <time>2018-06-24T09:56:30Z</time>
      </trkpt>
      <trkpt lat="45.9847" lon="4.81706">
        <ele>239</ele>
        <time>2018-06-24T09:56:33Z</time>
      </trkpt>
      <trkpt lat="45.98468" lon="4.81703">
        <ele>239</ele>
        <time>2018-06-24T09:56:34Z</time>
      </trkpt>
      <trkpt lat="45.98463" lon="4.81696">
        <ele>239</ele>
        <time>2018-06-24T09:56:36Z</time>
      </trkpt>
      <trkpt lat="45.98458" lon="4.81686">
        <ele>239</ele>
        <time>2018-06-24T09:56:37Z</time>
      </trkpt>
      <trkpt lat="45.98452" lon="4.81678">
        <ele>239</ele>
        <time>2018-06-24T09:56:39Z</time>
      </trkpt>
      <trkpt lat="45.98449" lon="4.81674">
        <ele>239</ele>
        <time>2018-06-24T09:56:40Z</time>
      </trkpt>
      <trkpt lat="45.98441" lon="4.81668">
        <ele>240</ele>
        <time>2018-06-24T09:56:42Z</time>
      </trkpt>
      <trkpt lat="45.98437" lon="4.81666">
        <ele>239</ele>
        <time>2018-06-24T09:56:43Z</time>
      </trkpt>
      <trkpt lat="45.98433" lon="4.81664">
        <ele>239</ele>
        <time>2018-06-24T09:56:44Z</time>
      </trkpt>
      <trkpt lat="45.98428" lon="4.81663">
        <ele>239</ele>
        <time>2018-06-24T09:56:45Z</time>
      </trkpt>
      <trkpt lat="45.98422" lon="4.81663">
        <ele>240</ele>
        <time>2018-06-24T09:56:46Z</time>
      </trkpt>
      <trkpt lat="45.98417" lon="4.81663">
        <ele>240</ele>
        <time>2018-06-24T09:56:47Z</time>
      </trkpt>
      <trkpt lat="45.98413" lon="4.81664">
        <ele>241</ele>
        <time>2018-06-24T09:56:48Z</time>
      </trkpt>
      <trkpt lat="45.98408" lon="4.81665">
        <ele>241</ele>
        <time>2018-06-24T09:56:49Z</time>
      </trkpt>
      <trkpt lat="45.98403" lon="4.81666">
        <ele>242</ele>
        <time>2018-06-24T09:56:50Z</time>
      </trkpt>
      <trkpt lat="45.98397" lon="4.81668">
        <ele>243</ele>
        <time>2018-06-24T09:56:51Z</time>
      </trkpt>
      <trkpt lat="45.98392" lon="4.81669">
        <ele>243</ele>
        <time>2018-06-24T09:56:52Z</time>
      </trkpt>
      <trkpt lat="45.98388" lon="4.81671">
        <ele>243</ele>
        <time>2018-06-24T09:56:53Z</time>
      </trkpt>
      <trkpt lat="45.98383" lon="4.81672">
        <ele>243</ele>
        <time>2018-06-24T09:56:54Z</time>
      </trkpt>
      <trkpt lat="45.98378" lon="4.81672">
        <ele>244</ele>
        <time>2018-06-24T09:56:55Z</time>
      </trkpt>
      <trkpt lat="45.98373" lon="4.81673">
        <ele>244</ele>
        <time>2018-06-24T09:56:56Z</time>
      </trkpt>
      <trkpt lat="45.98367" lon="4.81673">
        <ele>244</ele>
        <time>2018-06-24T09:56:57Z</time>
      </trkpt>
      <trkpt lat="45.98362" lon="4.81674">
        <ele>244</ele>
        <time>2018-06-24T09:56:58Z</time>
      </trkpt>
      <trkpt lat="45.98357" lon="4.81674">
        <ele>245</ele>
        <time>2018-06-24T09:56:59Z</time>
      </trkpt>
      <trkpt lat="45.98352" lon="4.81673">
        <ele>245</ele>
        <time>2018-06-24T09:57:00Z</time>
      </trkpt>
      <trkpt lat="45.98347" lon="4.81672">
        <ele>245</ele>
        <time>2018-06-24T09:57:01Z</time>
      </trkpt>
      <trkpt lat="45.98338" lon="4.81667">
        <ele>246</ele>
        <time>2018-06-24T09:57:03Z</time>
      </trkpt>
      <trkpt lat="45.98335" lon="4.81665">
        <ele>246</ele>
        <time>2018-06-24T09:57:04Z</time>
      </trkpt>
      <trkpt lat="45.98326" lon="4.8166">
        <ele>246</ele>
        <time>2018-06-24T09:57:06Z</time>
      </trkpt>
      <trkpt lat="45.98322" lon="4.81657">
        <ele>246</ele>
        <time>2018-06-24T09:57:07Z</time>
      </trkpt>
      <trkpt lat="45.98318" lon="4.81652">
        <ele>246</ele>
        <time>2018-06-24T09:57:08Z</time>
      </trkpt>
      <trkpt lat="45.98314" lon="4.81648">
        <ele>246</ele>
        <time>2018-06-24T09:57:09Z</time>
      </trkpt>
      <trkpt lat="45.98309" lon="4.81644">
        <ele>246</ele>
        <time>2018-06-24T09:57:10Z</time>
      </trkpt>
      <trkpt lat="45.98305" lon="4.8164">
        <ele>246</ele>
        <time>2018-06-24T09:57:11Z</time>
      </trkpt>
      <trkpt lat="45.98301" lon="4.81636">
        <ele>246</ele>
        <time>2018-06-24T09:57:12Z</time>
      </trkpt>
      <trkpt lat="45.98298" lon="4.81631">
        <ele>246</ele>
        <time>2018-06-24T09:57:13Z</time>
      </trkpt>
      <trkpt lat="45.98294" lon="4.81626">
        <ele>246</ele>
        <time>2018-06-24T09:57:14Z</time>
      </trkpt>
      <trkpt lat="45.9829" lon="4.81621">
        <ele>246</ele>
        <time>2018-06-24T09:57:15Z</time>
      </trkpt>
      <trkpt lat="45.98286" lon="4.81616">
        <ele>247</ele>
        <time>2018-06-24T09:57:16Z</time>
      </trkpt>
      <trkpt lat="45.98283" lon="4.8161">
        <ele>247</ele>
        <time>2018-06-24T09:57:17Z</time>
      </trkpt>
      <trkpt lat="45.98281" lon="4.81604">
        <ele>247</ele>
        <time>2018-06-24T09:57:18Z</time>
      </trkpt>
      <trkpt lat="45.98279" lon="4.81597">
        <ele>247</ele>
        <time>2018-06-24T09:57:19Z</time>
      </trkpt>
      <trkpt lat="45.98277" lon="4.81591">
        <ele>247</ele>
        <time>2018-06-24T09:57:20Z</time>
      </trkpt>
      <trkpt lat="45.98274" lon="4.81585">
        <ele>247</ele>
        <time>2018-06-24T09:57:21Z</time>
      </trkpt>
      <trkpt lat="45.98272" lon="4.81579">
        <ele>247</ele>
        <time>2018-06-24T09:57:22Z</time>
      </trkpt>
      <trkpt lat="45.9827" lon="4.81572">
        <ele>247</ele>
        <time>2018-06-24T09:57:23Z</time>
      </trkpt>
      <trkpt lat="45.98267" lon="4.81562">
        <ele>247</ele>
        <time>2018-06-24T09:57:25Z</time>
      </trkpt>
      <trkpt lat="45.98266" lon="4.81555">
        <ele>247</ele>
        <time>2018-06-24T09:57:26Z</time>
      </trkpt>
      <trkpt lat="45.98264" lon="4.81549">
        <ele>247</ele>
        <time>2018-06-24T09:57:27Z</time>
      </trkpt>
      <trkpt lat="45.98262" lon="4.81543">
        <ele>247</ele>
        <time>2018-06-24T09:57:28Z</time>
      </trkpt>
      <trkpt lat="45.9826" lon="4.81537">
        <ele>247</ele>
        <time>2018-06-24T09:57:29Z</time>
      </trkpt>
      <trkpt lat="45.98258" lon="4.8153">
        <ele>247</ele>
        <time>2018-06-24T09:57:30Z</time>
      </trkpt>
      <trkpt lat="45.98256" lon="4.81523">
        <ele>247</ele>
        <time>2018-06-24T09:57:31Z</time>
      </trkpt>
      <trkpt lat="45.98254" lon="4.81516">
        <ele>247</ele>
        <time>2018-06-24T09:57:32Z</time>
      </trkpt>
      <trkpt lat="45.98252" lon="4.8151">
        <ele>248</ele>
        <time>2018-06-24T09:57:33Z</time>
      </trkpt>
      <trkpt lat="45.98251" lon="4.81503">
        <ele>249</ele>
        <time>2018-06-24T09:57:34Z</time>
      </trkpt>
      <trkpt lat="45.98248" lon="4.81497">
        <ele>249</ele>
        <time>2018-06-24T09:57:35Z</time>
      </trkpt>
      <trkpt lat="45.98246" lon="4.81491">
        <ele>249</ele>
        <time>2018-06-24T09:57:36Z</time>
      </trkpt>
      <trkpt lat="45.98244" lon="4.81485">
        <ele>249</ele>
        <time>2018-06-24T09:57:37Z</time>
      </trkpt>
      <trkpt lat="45.98242" lon="4.81479">
        <ele>249</ele>
        <time>2018-06-24T09:57:38Z</time>
      </trkpt>
      <trkpt lat="45.9824" lon="4.81473">
        <ele>249</ele>
        <time>2018-06-24T09:57:39Z</time>
      </trkpt>
      <trkpt lat="45.98238" lon="4.81467">
        <ele>249</ele>
        <time>2018-06-24T09:57:40Z</time>
      </trkpt>
      <trkpt lat="45.98235" lon="4.81455">
        <ele>249</ele>
        <time>2018-06-24T09:57:42Z</time>
      </trkpt>
      <trkpt lat="45.98234" lon="4.81448">
        <ele>249</ele>
        <time>2018-06-24T09:57:43Z</time>
      </trkpt>
      <trkpt lat="45.9823" lon="4.81438">
        <ele>249</ele>
        <time>2018-06-24T09:57:45Z</time>
      </trkpt>
      <trkpt lat="45.98228" lon="4.81432">
        <ele>249</ele>
        <time>2018-06-24T09:57:46Z</time>
      </trkpt>
      <trkpt lat="45.98226" lon="4.81424">
        <ele>248</ele>
        <time>2018-06-24T09:57:47Z</time>
      </trkpt>
      <trkpt lat="45.98224" lon="4.81417">
        <ele>249</ele>
        <time>2018-06-24T09:57:48Z</time>
      </trkpt>
      <trkpt lat="45.98221" lon="4.8141">
        <ele>248</ele>
        <time>2018-06-24T09:57:49Z</time>
      </trkpt>
      <trkpt lat="45.9822" lon="4.81404">
        <ele>248</ele>
        <time>2018-06-24T09:57:50Z</time>
      </trkpt>
      <trkpt lat="45.98217" lon="4.81397">
        <ele>248</ele>
        <time>2018-06-24T09:57:51Z</time>
      </trkpt>
      <trkpt lat="45.98215" lon="4.81391">
        <ele>248</ele>
        <time>2018-06-24T09:57:52Z</time>
      </trkpt>
      <trkpt lat="45.98213" lon="4.81385">
        <ele>248</ele>
        <time>2018-06-24T09:57:53Z</time>
      </trkpt>
      <trkpt lat="45.98212" lon="4.81378">
        <ele>248</ele>
        <time>2018-06-24T09:57:54Z</time>
      </trkpt>
      <trkpt lat="45.98211" lon="4.8137">
        <ele>248</ele>
        <time>2018-06-24T09:57:55Z</time>
      </trkpt>
      <trkpt lat="45.98209" lon="4.81363">
        <ele>248</ele>
        <time>2018-06-24T09:57:56Z</time>
      </trkpt>
      <trkpt lat="45.98207" lon="4.81357">
        <ele>248</ele>
        <time>2018-06-24T09:57:57Z</time>
      </trkpt>
      <trkpt lat="45.98205" lon="4.81351">
        <ele>248</ele>
        <time>2018-06-24T09:57:58Z</time>
      </trkpt>
      <trkpt lat="45.98203" lon="4.81344">
        <ele>248</ele>
        <time>2018-06-24T09:57:59Z</time>
      </trkpt>
      <trkpt lat="45.98201" lon="4.81336">
        <ele>248</ele>
        <time>2018-06-24T09:58:00Z</time>
      </trkpt>
      <trkpt lat="45.982" lon="4.81329">
        <ele>247</ele>
        <time>2018-06-24T09:58:01Z</time>
      </trkpt>
      <trkpt lat="45.98197" lon="4.81322">
        <ele>247</ele>
        <time>2018-06-24T09:58:02Z</time>
      </trkpt>
      <trkpt lat="45.98195" lon="4.81314">
        <ele>247</ele>
        <time>2018-06-24T09:58:03Z</time>
      </trkpt>
      <trkpt lat="45.98195" lon="4.81307">
        <ele>247</ele>
        <time>2018-06-24T09:58:04Z</time>
      </trkpt>
      <trkpt lat="45.98194" lon="4.813">
        <ele>247</ele>
        <time>2018-06-24T09:58:05Z</time>
      </trkpt>
      <trkpt lat="45.98192" lon="4.81293">
        <ele>247</ele>
        <time>2018-06-24T09:58:06Z</time>
      </trkpt>
      <trkpt lat="45.9819" lon="4.81285">
        <ele>247</ele>
        <time>2018-06-24T09:58:07Z</time>
      </trkpt>
      <trkpt lat="45.98189" lon="4.81278">
        <ele>247</ele>
        <time>2018-06-24T09:58:08Z</time>
      </trkpt>
      <trkpt lat="45.98188" lon="4.81271">
        <ele>247</ele>
        <time>2018-06-24T09:58:09Z</time>
      </trkpt>
      <trkpt lat="45.98186" lon="4.81263">
        <ele>247</ele>
        <time>2018-06-24T09:58:10Z</time>
      </trkpt>
      <trkpt lat="45.98185" lon="4.81255">
        <ele>247</ele>
        <time>2018-06-24T09:58:11Z</time>
      </trkpt>
      <trkpt lat="45.98183" lon="4.81247">
        <ele>247</ele>
        <time>2018-06-24T09:58:12Z</time>
      </trkpt>
      <trkpt lat="45.98182" lon="4.81239">
        <ele>246</ele>
        <time>2018-06-24T09:58:13Z</time>
      </trkpt>
      <trkpt lat="45.9818" lon="4.81231">
        <ele>246</ele>
        <time>2018-06-24T09:58:14Z</time>
      </trkpt>
      <trkpt lat="45.9818" lon="4.81223">
        <ele>246</ele>
        <time>2018-06-24T09:58:15Z</time>
      </trkpt>
      <trkpt lat="45.98179" lon="4.81214">
        <ele>246</ele>
        <time>2018-06-24T09:58:16Z</time>
      </trkpt>
      <trkpt lat="45.98177" lon="4.81205">
        <ele>245</ele>
        <time>2018-06-24T09:58:17Z</time>
      </trkpt>
      <trkpt lat="45.98176" lon="4.81197">
        <ele>245</ele>
        <time>2018-06-24T09:58:18Z</time>
      </trkpt>
      <trkpt lat="45.98175" lon="4.81189">
        <ele>245</ele>
        <time>2018-06-24T09:58:19Z</time>
      </trkpt>
      <trkpt lat="45.98174" lon="4.81182">
        <ele>245</ele>
        <time>2018-06-24T09:58:20Z</time>
      </trkpt>
      <trkpt lat="45.98172" lon="4.81174">
        <ele>245</ele>
        <time>2018-06-24T09:58:21Z</time>
      </trkpt>
      <trkpt lat="45.9817" lon="4.81165">
        <ele>245</ele>
        <time>2018-06-24T09:58:22Z</time>
      </trkpt>
      <trkpt lat="45.98166" lon="4.81156">
        <ele>245</ele>
        <time>2018-06-24T09:58:23Z</time>
      </trkpt>
      <trkpt lat="45.98163" lon="4.81147">
        <ele>245</ele>
        <time>2018-06-24T09:58:24Z</time>
      </trkpt>
      <trkpt lat="45.98159" lon="4.81138">
        <ele>245</ele>
        <time>2018-06-24T09:58:25Z</time>
      </trkpt>
      <trkpt lat="45.98155" lon="4.81131">
        <ele>245</ele>
        <time>2018-06-24T09:58:26Z</time>
      </trkpt>
      <trkpt lat="45.98152" lon="4.81123">
        <ele>245</ele>
        <time>2018-06-24T09:58:27Z</time>
      </trkpt>
      <trkpt lat="45.98149" lon="4.81115">
        <ele>245</ele>
        <time>2018-06-24T09:58:28Z</time>
      </trkpt>
      <trkpt lat="45.98146" lon="4.81107">
        <ele>245</ele>
        <time>2018-06-24T09:58:29Z</time>
      </trkpt>
      <trkpt lat="45.98143" lon="4.81099">
        <ele>245</ele>
        <time>2018-06-24T09:58:30Z</time>
      </trkpt>
      <trkpt lat="45.9814" lon="4.81091">
        <ele>245</ele>
        <time>2018-06-24T09:58:31Z</time>
      </trkpt>
      <trkpt lat="45.98137" lon="4.81083">
        <ele>243</ele>
        <time>2018-06-24T09:58:32Z</time>
      </trkpt>
      <trkpt lat="45.98134" lon="4.81074">
        <ele>243</ele>
        <time>2018-06-24T09:58:33Z</time>
      </trkpt>
      <trkpt lat="45.98132" lon="4.81067">
        <ele>243</ele>
        <time>2018-06-24T09:58:34Z</time>
      </trkpt>
      <trkpt lat="45.98129" lon="4.8106">
        <ele>243</ele>
        <time>2018-06-24T09:58:35Z</time>
      </trkpt>
      <trkpt lat="45.98126" lon="4.81051">
        <ele>242</ele>
        <time>2018-06-24T09:58:36Z</time>
      </trkpt>
      <trkpt lat="45.98123" lon="4.81044">
        <ele>242</ele>
        <time>2018-06-24T09:58:37Z</time>
      </trkpt>
      <trkpt lat="45.98121" lon="4.81036">
        <ele>242</ele>
        <time>2018-06-24T09:58:38Z</time>
      </trkpt>
      <trkpt lat="45.98118" lon="4.81029">
        <ele>242</ele>
        <time>2018-06-24T09:58:39Z</time>
      </trkpt>
      <trkpt lat="45.98116" lon="4.81021">
        <ele>242</ele>
        <time>2018-06-24T09:58:40Z</time>
      </trkpt>
      <trkpt lat="45.98113" lon="4.81013">
        <ele>242</ele>
        <time>2018-06-24T09:58:41Z</time>
      </trkpt>
      <trkpt lat="45.98111" lon="4.81006">
        <ele>242</ele>
        <time>2018-06-24T09:58:42Z</time>
      </trkpt>
      <trkpt lat="45.98108" lon="4.80999">
        <ele>239</ele>
        <time>2018-06-24T09:58:43Z</time>
      </trkpt>
      <trkpt lat="45.98106" lon="4.80992">
        <ele>239</ele>
        <time>2018-06-24T09:58:44Z</time>
      </trkpt>
      <trkpt lat="45.98103" lon="4.80985">
        <ele>239</ele>
        <time>2018-06-24T09:58:45Z</time>
      </trkpt>
      <trkpt lat="45.98102" lon="4.8098">
        <ele>239</ele>
        <time>2018-06-24T09:58:46Z</time>
      </trkpt>
      <trkpt lat="45.98101" lon="4.80973">
        <ele>239</ele>
        <time>2018-06-24T09:58:47Z</time>
      </trkpt>
      <trkpt lat="45.98099" lon="4.80966">
        <ele>239</ele>
        <time>2018-06-24T09:58:48Z</time>
      </trkpt>
      <trkpt lat="45.98097" lon="4.80958">
        <ele>238</ele>
        <time>2018-06-24T09:58:49Z</time>
      </trkpt>
      <trkpt lat="45.98096" lon="4.80949">
        <ele>238</ele>
        <time>2018-06-24T09:58:50Z</time>
      </trkpt>
      <trkpt lat="45.98092" lon="4.80939">
        <ele>238</ele>
        <time>2018-06-24T09:58:51Z</time>
      </trkpt>
      <trkpt lat="45.9809" lon="4.80928">
        <ele>238</ele>
        <time>2018-06-24T09:58:52Z</time>
      </trkpt>
      <trkpt lat="45.98088" lon="4.80917">
        <ele>239</ele>
        <time>2018-06-24T09:58:53Z</time>
      </trkpt>
      <trkpt lat="45.98085" lon="4.80906">
        <ele>237</ele>
        <time>2018-06-24T09:58:54Z</time>
      </trkpt>
      <trkpt lat="45.98082" lon="4.80894">
        <ele>238</ele>
        <time>2018-06-24T09:58:55Z</time>
      </trkpt>
      <trkpt lat="45.98079" lon="4.80883">
        <ele>237</ele>
        <time>2018-06-24T09:58:56Z</time>
      </trkpt>
      <trkpt lat="45.98076" lon="4.8087">
        <ele>237</ele>
        <time>2018-06-24T09:58:57Z</time>
      </trkpt>
      <trkpt lat="45.98074" lon="4.80859">
        <ele>236</ele>
        <time>2018-06-24T09:58:58Z</time>
      </trkpt>
      <trkpt lat="45.98069" lon="4.80846">
        <ele>236</ele>
        <time>2018-06-24T09:58:59Z</time>
      </trkpt>
      <trkpt lat="45.98066" lon="4.80834">
        <ele>236</ele>
        <time>2018-06-24T09:59:00Z</time>
      </trkpt>
      <trkpt lat="45.98065" lon="4.80823">
        <ele>234</ele>
        <time>2018-06-24T09:59:01Z</time>
      </trkpt>
      <trkpt lat="45.98066" lon="4.8081">
        <ele>234</ele>
        <time>2018-06-24T09:59:02Z</time>
      </trkpt>
      <trkpt lat="45.98063" lon="4.80799">
        <ele>233</ele>
        <time>2018-06-24T09:59:03Z</time>
      </trkpt>
      <trkpt lat="45.98059" lon="4.80788">
        <ele>233</ele>
        <time>2018-06-24T09:59:04Z</time>
      </trkpt>
      <trkpt lat="45.98059" lon="4.80779">
        <ele>233</ele>
        <time>2018-06-24T09:59:05Z</time>
      </trkpt>
      <trkpt lat="45.98056" lon="4.8077">
        <ele>233</ele>
        <time>2018-06-24T09:59:06Z</time>
      </trkpt>
      <trkpt lat="45.98053" lon="4.80761">
        <ele>233</ele>
        <time>2018-06-24T09:59:07Z</time>
      </trkpt>
      <trkpt lat="45.98048" lon="4.8075">
        <ele>231</ele>
        <time>2018-06-24T09:59:08Z</time>
      </trkpt>
      <trkpt lat="45.98046" lon="4.80742">
        <ele>231</ele>
        <time>2018-06-24T09:59:09Z</time>
      </trkpt>
      <trkpt lat="45.98043" lon="4.80733">
        <ele>231</ele>
        <time>2018-06-24T09:59:10Z</time>
      </trkpt>
      <trkpt lat="45.9804" lon="4.80721">
        <ele>231</ele>
        <time>2018-06-24T09:59:12Z</time>
      </trkpt>
      <trkpt lat="45.98039" lon="4.80716">
        <ele>231</ele>
        <time>2018-06-24T09:59:13Z</time>
      </trkpt>
      <trkpt lat="45.98042" lon="4.80706">
        <ele>230</ele>
        <time>2018-06-24T09:59:16Z</time>
      </trkpt>
      <trkpt lat="45.98044" lon="4.80702">
        <ele>230</ele>
        <time>2018-06-24T09:59:17Z</time>
      </trkpt>
      <trkpt lat="45.98052" lon="4.80695">
        <ele>230</ele>
        <time>2018-06-24T09:59:18Z</time>
      </trkpt>
      <trkpt lat="45.98057" lon="4.80695">
        <ele>230</ele>
        <time>2018-06-24T09:59:19Z</time>
      </trkpt>
      <trkpt lat="45.98063" lon="4.80695">
        <ele>230</ele>
        <time>2018-06-24T09:59:20Z</time>
      </trkpt>
      <trkpt lat="45.98069" lon="4.80694">
        <ele>230</ele>
        <time>2018-06-24T09:59:21Z</time>
      </trkpt>
      <trkpt lat="45.98075" lon="4.80693">
        <ele>230</ele>
        <time>2018-06-24T09:59:22Z</time>
      </trkpt>
      <trkpt lat="45.98081" lon="4.80693">
        <ele>230</ele>
        <time>2018-06-24T09:59:23Z</time>
      </trkpt>
      <trkpt lat="45.98086" lon="4.80692">
        <ele>228</ele>
        <time>2018-06-24T09:59:24Z</time>
      </trkpt>
      <trkpt lat="45.98092" lon="4.80692">
        <ele>228</ele>
        <time>2018-06-24T09:59:25Z</time>
      </trkpt>
      <trkpt lat="45.98099" lon="4.80692">
        <ele>228</ele>
        <time>2018-06-24T09:59:26Z</time>
      </trkpt>
      <trkpt lat="45.98106" lon="4.80693">
        <ele>228</ele>
        <time>2018-06-24T09:59:27Z</time>
      </trkpt>
      <trkpt lat="45.98112" lon="4.80693">
        <ele>228</ele>
        <time>2018-06-24T09:59:28Z</time>
      </trkpt>
      <trkpt lat="45.98118" lon="4.80692">
        <ele>228</ele>
        <time>2018-06-24T09:59:29Z</time>
      </trkpt>
      <trkpt lat="45.98125" lon="4.80692">
        <ele>228</ele>
        <time>2018-06-24T09:59:30Z</time>
      </trkpt>
      <trkpt lat="45.98132" lon="4.80692">
        <ele>228</ele>
        <time>2018-06-24T09:59:31Z</time>
      </trkpt>
      <trkpt lat="45.98138" lon="4.80692">
        <ele>228</ele>
        <time>2018-06-24T09:59:32Z</time>
      </trkpt>
      <trkpt lat="45.98146" lon="4.80692">
        <ele>228</ele>
        <time>2018-06-24T09:59:33Z</time>
      </trkpt>
      <trkpt lat="45.98153" lon="4.80692">
        <ele>228</ele>
        <time>2018-06-24T09:59:34Z</time>
      </trkpt>
      <trkpt lat="45.9816" lon="4.80692">
        <ele>227</ele>
        <time>2018-06-24T09:59:35Z</time>
      </trkpt>
      <trkpt lat="45.98167" lon="4.8069">
        <ele>225</ele>
        <time>2018-06-24T09:59:36Z</time>
      </trkpt>
      <trkpt lat="45.98175" lon="4.80687">
        <ele>225</ele>
        <time>2018-06-24T09:59:37Z</time>
      </trkpt>
      <trkpt lat="45.98182" lon="4.80686">
        <ele>225</ele>
        <time>2018-06-24T09:59:38Z</time>
      </trkpt>
      <trkpt lat="45.98189" lon="4.80685">
        <ele>225</ele>
        <time>2018-06-24T09:59:39Z</time>
      </trkpt>
      <trkpt lat="45.98196" lon="4.80683">
        <ele>225</ele>
        <time>2018-06-24T09:59:40Z</time>
      </trkpt>
      <trkpt lat="45.98202" lon="4.80683">
        <ele>225</ele>
        <time>2018-06-24T09:59:41Z</time>
      </trkpt>
      <trkpt lat="45.98209" lon="4.80681">
        <ele>224</ele>
        <time>2018-06-24T09:59:42Z</time>
      </trkpt>
      <trkpt lat="45.98215" lon="4.80677">
        <ele>224</ele>
        <time>2018-06-24T09:59:43Z</time>
      </trkpt>
      <trkpt lat="45.9822" lon="4.80674">
        <ele>224</ele>
        <time>2018-06-24T09:59:44Z</time>
      </trkpt>
      <trkpt lat="45.98227" lon="4.80667">
        <ele>224</ele>
        <time>2018-06-24T09:59:45Z</time>
      </trkpt>
      <trkpt lat="45.98232" lon="4.80662">
        <ele>223</ele>
        <time>2018-06-24T09:59:46Z</time>
      </trkpt>
      <trkpt lat="45.98237" lon="4.80655">
        <ele>223</ele>
        <time>2018-06-24T09:59:47Z</time>
      </trkpt>
      <trkpt lat="45.98239" lon="4.80645">
        <ele>223</ele>
        <time>2018-06-24T09:59:48Z</time>
      </trkpt>
      <trkpt lat="45.98242" lon="4.80636">
        <ele>223</ele>
        <time>2018-06-24T09:59:49Z</time>
      </trkpt>
      <trkpt lat="45.98245" lon="4.80627">
        <ele>224</ele>
        <time>2018-06-24T09:59:50Z</time>
      </trkpt>
      <trkpt lat="45.98248" lon="4.80618">
        <ele>224</ele>
        <time>2018-06-24T09:59:51Z</time>
      </trkpt>
      <trkpt lat="45.98253" lon="4.80608">
        <ele>224</ele>
        <time>2018-06-24T09:59:52Z</time>
      </trkpt>
      <trkpt lat="45.98255" lon="4.80599">
        <ele>224</ele>
        <time>2018-06-24T09:59:53Z</time>
      </trkpt>
      <trkpt lat="45.98259" lon="4.80589">
        <ele>224</ele>
        <time>2018-06-24T09:59:54Z</time>
      </trkpt>
      <trkpt lat="45.9826" lon="4.80579">
        <ele>224</ele>
        <time>2018-06-24T09:59:55Z</time>
      </trkpt>
      <trkpt lat="45.98265" lon="4.8057">
        <ele>224</ele>
        <time>2018-06-24T09:59:56Z</time>
      </trkpt>
      <trkpt lat="45.98267" lon="4.80561">
        <ele>224</ele>
        <time>2018-06-24T09:59:57Z</time>
      </trkpt>
      <trkpt lat="45.98269" lon="4.80553">
        <ele>224</ele>
        <time>2018-06-24T09:59:58Z</time>
      </trkpt>
      <trkpt lat="45.9827" lon="4.80545">
        <ele>224</ele>
        <time>2018-06-24T09:59:59Z</time>
      </trkpt>
      <trkpt lat="45.98273" lon="4.80538">
        <ele>224</ele>
        <time>2018-06-24T10:00:00Z</time>
      </trkpt>
      <trkpt lat="45.98276" lon="4.8053">
        <ele>224</ele>
        <time>2018-06-24T10:00:01Z</time>
      </trkpt>
      <trkpt lat="45.98278" lon="4.80522">
        <ele>224</ele>
        <time>2018-06-24T10:00:02Z</time>
      </trkpt>
      <trkpt lat="45.98279" lon="4.80514">
        <ele>224</ele>
        <time>2018-06-24T10:00:03Z</time>
      </trkpt>
      <trkpt lat="45.98281" lon="4.80505">
        <ele>224</ele>
        <time>2018-06-24T10:00:04Z</time>
      </trkpt>
      <trkpt lat="45.98282" lon="4.80497">
        <ele>223</ele>
        <time>2018-06-24T10:00:05Z</time>
      </trkpt>
      <trkpt lat="45.98282" lon="4.80489">
        <ele>223</ele>
        <time>2018-06-24T10:00:06Z</time>
      </trkpt>
      <trkpt lat="45.98286" lon="4.80478">
        <ele>224</ele>
        <time>2018-06-24T10:00:07Z</time>
      </trkpt>
      <trkpt lat="45.9829" lon="4.80473">
        <ele>224</ele>
        <time>2018-06-24T10:00:08Z</time>
      </trkpt>
      <trkpt lat="45.98293" lon="4.80469">
        <ele>224</ele>
        <time>2018-06-24T10:00:09Z</time>
      </trkpt>
      <trkpt lat="45.98294" lon="4.80459">
        <ele>224</ele>
        <time>2018-06-24T10:00:10Z</time>
      </trkpt>
      <trkpt lat="45.98295" lon="4.8045">
        <ele>224</ele>
        <time>2018-06-24T10:00:11Z</time>
      </trkpt>
      <trkpt lat="45.98296" lon="4.80442">
        <ele>224</ele>
        <time>2018-06-24T10:00:12Z</time>
      </trkpt>
      <trkpt lat="45.98298" lon="4.80434">
        <ele>224</ele>
        <time>2018-06-24T10:00:13Z</time>
      </trkpt>
      <trkpt lat="45.98299" lon="4.80426">
        <ele>224</ele>
        <time>2018-06-24T10:00:14Z</time>
      </trkpt>
      <trkpt lat="45.98302" lon="4.80418">
        <ele>225</ele>
        <time>2018-06-24T10:00:15Z</time>
      </trkpt>
      <trkpt lat="45.98304" lon="4.80413">
        <ele>225</ele>
        <time>2018-06-24T10:00:16Z</time>
      </trkpt>
      <trkpt lat="45.98306" lon="4.80406">
        <ele>225</ele>
        <time>2018-06-24T10:00:17Z</time>
      </trkpt>
      <trkpt lat="45.98308" lon="4.804">
        <ele>225</ele>
        <time>2018-06-24T10:00:18Z</time>
      </trkpt>
      <trkpt lat="45.98309" lon="4.80392">
        <ele>225</ele>
        <time>2018-06-24T10:00:19Z</time>
      </trkpt>
      <trkpt lat="45.9831" lon="4.80386">
        <ele>225</ele>
        <time>2018-06-24T10:00:20Z</time>
      </trkpt>
      <trkpt lat="45.98313" lon="4.8038">
        <ele>225</ele>
        <time>2018-06-24T10:00:21Z</time>
      </trkpt>
      <trkpt lat="45.98313" lon="4.80369">
        <ele>225</ele>
        <time>2018-06-24T10:00:24Z</time>
      </trkpt>
      <trkpt lat="45.98315" lon="4.80353">
        <ele>226</ele>
        <time>2018-06-24T10:00:25Z</time>
      </trkpt>
      <trkpt lat="45.98317" lon="4.80347">
        <ele>227</ele>
        <time>2018-06-24T10:00:26Z</time>
      </trkpt>
      <trkpt lat="45.98318" lon="4.8034">
        <ele>227</ele>
        <time>2018-06-24T10:00:27Z</time>
      </trkpt>
      <trkpt lat="45.98319" lon="4.80334">
        <ele>227</ele>
        <time>2018-06-24T10:00:28Z</time>
      </trkpt>
      <trkpt lat="45.98321" lon="4.80325">
        <ele>228</ele>
        <time>2018-06-24T10:00:29Z</time>
      </trkpt>
      <trkpt lat="45.98323" lon="4.80315">
        <ele>227</ele>
        <time>2018-06-24T10:00:31Z</time>
      </trkpt>
      <trkpt lat="45.98324" lon="4.8031">
        <ele>227</ele>
        <time>2018-06-24T10:00:32Z</time>
      </trkpt>
      <trkpt lat="45.98324" lon="4.80308">
        <ele>227</ele>
        <time>2018-06-24T10:00:33Z</time>
      </trkpt>
      <trkpt lat="45.98328" lon="4.80298">
        <ele>227</ele>
        <time>2018-06-24T10:00:34Z</time>
      </trkpt>
      <trkpt lat="45.9833" lon="4.8029">
        <ele>227</ele>
        <time>2018-06-24T10:00:35Z</time>
      </trkpt>
      <trkpt lat="45.98331" lon="4.80284">
        <ele>227</ele>
        <time>2018-06-24T10:00:36Z</time>
      </trkpt>
      <trkpt lat="45.98332" lon="4.80276">
        <ele>227</ele>
        <time>2018-06-24T10:00:37Z</time>
      </trkpt>
      <trkpt lat="45.98333" lon="4.80271">
        <ele>228</ele>
        <time>2018-06-24T10:00:38Z</time>
      </trkpt>
      <trkpt lat="45.98333" lon="4.80266">
        <ele>228</ele>
        <time>2018-06-24T10:00:40Z</time>
      </trkpt>
      <trkpt lat="45.98338" lon="4.80256">
        <ele>230</ele>
        <time>2018-06-24T10:00:41Z</time>
      </trkpt>
      <trkpt lat="45.98338" lon="4.80245">
        <ele>230</ele>
        <time>2018-06-24T10:00:43Z</time>
      </trkpt>
      <trkpt lat="45.98343" lon="4.8024">
        <ele>230</ele>
        <time>2018-06-24T10:00:44Z</time>
      </trkpt>
      <trkpt lat="45.98342" lon="4.80234">
        <ele>230</ele>
        <time>2018-06-24T10:00:46Z</time>
      </trkpt>
      <trkpt lat="45.98342" lon="4.80223">
        <ele>230</ele>
        <time>2018-06-24T10:00:47Z</time>
      </trkpt>
      <trkpt lat="45.9834" lon="4.80217">
        <ele>230</ele>
        <time>2018-06-24T10:00:48Z</time>
      </trkpt>
      <trkpt lat="45.98339" lon="4.80209">
        <ele>230</ele>
        <time>2018-06-24T10:00:49Z</time>
      </trkpt>
      <trkpt lat="45.98338" lon="4.80206">
        <ele>230</ele>
        <time>2018-06-24T10:00:50Z</time>
      </trkpt>
      <trkpt lat="45.98335" lon="4.80196">
        <ele>230</ele>
        <time>2018-06-24T10:00:51Z</time>
      </trkpt>
      <trkpt lat="45.98332" lon="4.80191">
        <ele>227</ele>
        <time>2018-06-24T10:00:52Z</time>
      </trkpt>
      <trkpt lat="45.9833" lon="4.80185">
        <ele>227</ele>
        <time>2018-06-24T10:00:53Z</time>
      </trkpt>
      <trkpt lat="45.98327" lon="4.80178">
        <ele>227</ele>
        <time>2018-06-24T10:00:54Z</time>
      </trkpt>
      <trkpt lat="45.98324" lon="4.80171">
        <ele>227</ele>
        <time>2018-06-24T10:00:55Z</time>
      </trkpt>
      <trkpt lat="45.98321" lon="4.80163">
        <ele>228</ele>
        <time>2018-06-24T10:00:56Z</time>
      </trkpt>
      <trkpt lat="45.98318" lon="4.80156">
        <ele>228</ele>
        <time>2018-06-24T10:00:57Z</time>
      </trkpt>
      <trkpt lat="45.98316" lon="4.80149">
        <ele>228</ele>
        <time>2018-06-24T10:00:58Z</time>
      </trkpt>
      <trkpt lat="45.98314" lon="4.80142">
        <ele>228</ele>
        <time>2018-06-24T10:00:59Z</time>
      </trkpt>
      <trkpt lat="45.98311" lon="4.80136">
        <ele>228</ele>
        <time>2018-06-24T10:01:00Z</time>
      </trkpt>
      <trkpt lat="45.98309" lon="4.80129">
        <ele>228</ele>
        <time>2018-06-24T10:01:01Z</time>
      </trkpt>
      <trkpt lat="45.98306" lon="4.80123">
        <ele>228</ele>
        <time>2018-06-24T10:01:02Z</time>
      </trkpt>
      <trkpt lat="45.98306" lon="4.80117">
        <ele>228</ele>
        <time>2018-06-24T10:01:03Z</time>
      </trkpt>
      <trkpt lat="45.98304" lon="4.80105">
        <ele>229</ele>
        <time>2018-06-24T10:01:05Z</time>
      </trkpt>
      <trkpt lat="45.98301" lon="4.80098">
        <ele>229</ele>
        <time>2018-06-24T10:01:06Z</time>
      </trkpt>
      <trkpt lat="45.98296" lon="4.8009">
        <ele>228</ele>
        <time>2018-06-24T10:01:07Z</time>
      </trkpt>
      <trkpt lat="45.98294" lon="4.80084">
        <ele>228</ele>
        <time>2018-06-24T10:01:08Z</time>
      </trkpt>
      <trkpt lat="45.98292" lon="4.80077">
        <ele>229</ele>
        <time>2018-06-24T10:01:09Z</time>
      </trkpt>
      <trkpt lat="45.98289" lon="4.80071">
        <ele>229</ele>
        <time>2018-06-24T10:01:10Z</time>
      </trkpt>
      <trkpt lat="45.98286" lon="4.80064">
        <ele>229</ele>
        <time>2018-06-24T10:01:11Z</time>
      </trkpt>
      <trkpt lat="45.98284" lon="4.80057">
        <ele>229</ele>
        <time>2018-06-24T10:01:12Z</time>
      </trkpt>
      <trkpt lat="45.98281" lon="4.80051">
        <ele>229</ele>
        <time>2018-06-24T10:01:13Z</time>
      </trkpt>
      <trkpt lat="45.98278" lon="4.80043">
        <ele>229</ele>
        <time>2018-06-24T10:01:14Z</time>
      </trkpt>
      <trkpt lat="45.98277" lon="4.80036">
        <ele>229</ele>
        <time>2018-06-24T10:01:15Z</time>
      </trkpt>
      <trkpt lat="45.98274" lon="4.80029">
        <ele>229</ele>
        <time>2018-06-24T10:01:16Z</time>
      </trkpt>
      <trkpt lat="45.98273" lon="4.80022">
        <ele>229</ele>
        <time>2018-06-24T10:01:17Z</time>
      </trkpt>
      <trkpt lat="45.98269" lon="4.80014">
        <ele>228</ele>
        <time>2018-06-24T10:01:18Z</time>
      </trkpt>
      <trkpt lat="45.98266" lon="4.80007">
        <ele>228</ele>
        <time>2018-06-24T10:01:19Z</time>
      </trkpt>
      <trkpt lat="45.98262" lon="4.79998">
        <ele>228</ele>
        <time>2018-06-24T10:01:20Z</time>
      </trkpt>
      <trkpt lat="45.98259" lon="4.7999">
        <ele>228</ele>
        <time>2018-06-24T10:01:21Z</time>
      </trkpt>
      <trkpt lat="45.98256" lon="4.79983">
        <ele>228</ele>
        <time>2018-06-24T10:01:22Z</time>
      </trkpt>
      <trkpt lat="45.98253" lon="4.79975">
        <ele>228</ele>
        <time>2018-06-24T10:01:23Z</time>
      </trkpt>
      <trkpt lat="45.98251" lon="4.79968">
        <ele>228</ele>
        <time>2018-06-24T10:01:24Z</time>
      </trkpt>
      <trkpt lat="45.98248" lon="4.7996">
        <ele>225</ele>
        <time>2018-06-24T10:01:25Z</time>
      </trkpt>
      <trkpt lat="45.98246" lon="4.79955">
        <ele>225</ele>
        <time>2018-06-24T10:01:26Z</time>
      </trkpt>
      <trkpt lat="45.98244" lon="4.79948">
        <ele>225</ele>
        <time>2018-06-24T10:01:27Z</time>
      </trkpt>
      <trkpt lat="45.98243" lon="4.79941">
        <ele>225</ele>
        <time>2018-06-24T10:01:28Z</time>
      </trkpt>
      <trkpt lat="45.9824" lon="4.79934">
        <ele>225</ele>
        <time>2018-06-24T10:01:29Z</time>
      </trkpt>
      <trkpt lat="45.98238" lon="4.79927">
        <ele>225</ele>
        <time>2018-06-24T10:01:30Z</time>
      </trkpt>
      <trkpt lat="45.98235" lon="4.7992">
        <ele>225</ele>
        <time>2018-06-24T10:01:31Z</time>
      </trkpt>
      <trkpt lat="45.98234" lon="4.79913">
        <ele>225</ele>
        <time>2018-06-24T10:01:32Z</time>
      </trkpt>
      <trkpt lat="45.98233" lon="4.79906">
        <ele>225</ele>
        <time>2018-06-24T10:01:33Z</time>
      </trkpt>
      <trkpt lat="45.9823" lon="4.79899">
        <ele>225</ele>
        <time>2018-06-24T10:01:34Z</time>
      </trkpt>
      <trkpt lat="45.98228" lon="4.79893">
        <ele>225</ele>
        <time>2018-06-24T10:01:35Z</time>
      </trkpt>
      <trkpt lat="45.98225" lon="4.79888">
        <ele>225</ele>
        <time>2018-06-24T10:01:36Z</time>
      </trkpt>
      <trkpt lat="45.98223" lon="4.79881">
        <ele>225</ele>
        <time>2018-06-24T10:01:37Z</time>
      </trkpt>
      <trkpt lat="45.98222" lon="4.79874">
        <ele>225</ele>
        <time>2018-06-24T10:01:38Z</time>
      </trkpt>
      <trkpt lat="45.98218" lon="4.7987">
        <ele>225</ele>
        <time>2018-06-24T10:01:39Z</time>
      </trkpt>
      <trkpt lat="45.98214" lon="4.79862">
        <ele>225</ele>
        <time>2018-06-24T10:01:40Z</time>
      </trkpt>
      <trkpt lat="45.98214" lon="4.79852">
        <ele>225</ele>
        <time>2018-06-24T10:01:42Z</time>
      </trkpt>
      <trkpt lat="45.98211" lon="4.79846">
        <ele>225</ele>
        <time>2018-06-24T10:01:43Z</time>
      </trkpt>
      <trkpt lat="45.98209" lon="4.79839">
        <ele>225</ele>
        <time>2018-06-24T10:01:44Z</time>
      </trkpt>
      <trkpt lat="45.98207" lon="4.79834">
        <ele>225</ele>
        <time>2018-06-24T10:01:45Z</time>
      </trkpt>
      <trkpt lat="45.98204" lon="4.79828">
        <ele>226</ele>
        <time>2018-06-24T10:01:46Z</time>
      </trkpt>
      <trkpt lat="45.98202" lon="4.79821">
        <ele>226</ele>
        <time>2018-06-24T10:01:47Z</time>
      </trkpt>
      <trkpt lat="45.98199" lon="4.79815">
        <ele>226</ele>
        <time>2018-06-24T10:01:48Z</time>
      </trkpt>
      <trkpt lat="45.98197" lon="4.7981">
        <ele>226</ele>
        <time>2018-06-24T10:01:49Z</time>
      </trkpt>
      <trkpt lat="45.98195" lon="4.79804">
        <ele>226</ele>
        <time>2018-06-24T10:01:50Z</time>
      </trkpt>
      <trkpt lat="45.98194" lon="4.79797">
        <ele>226</ele>
        <time>2018-06-24T10:01:51Z</time>
      </trkpt>
      <trkpt lat="45.9819" lon="4.79786">
        <ele>226</ele>
        <time>2018-06-24T10:01:53Z</time>
      </trkpt>
      <trkpt lat="45.98192" lon="4.79781">
        <ele>226</ele>
        <time>2018-06-24T10:01:54Z</time>
      </trkpt>
      <trkpt lat="45.98192" lon="4.79769">
        <ele>226</ele>
        <time>2018-06-24T10:01:56Z</time>
      </trkpt>
      <trkpt lat="45.98192" lon="4.79763">
        <ele>226</ele>
        <time>2018-06-24T10:01:57Z</time>
      </trkpt>
      <trkpt lat="45.98192" lon="4.79757">
        <ele>226</ele>
        <time>2018-06-24T10:01:58Z</time>
      </trkpt>
      <trkpt lat="45.98189" lon="4.7975">
        <ele>227</ele>
        <time>2018-06-24T10:01:59Z</time>
      </trkpt>
      <trkpt lat="45.98186" lon="4.7974">
        <ele>228</ele>
        <time>2018-06-24T10:02:01Z</time>
      </trkpt>
      <trkpt lat="45.98182" lon="4.79739">
        <ele>227</ele>
        <time>2018-06-24T10:02:02Z</time>
      </trkpt>
      <trkpt lat="45.98177" lon="4.79738">
        <ele>227</ele>
        <time>2018-06-24T10:02:03Z</time>
      </trkpt>
      <trkpt lat="45.98172" lon="4.7974">
        <ele>227</ele>
        <time>2018-06-24T10:02:04Z</time>
      </trkpt>
      <trkpt lat="45.98167" lon="4.79744">
        <ele>227</ele>
        <time>2018-06-24T10:02:05Z</time>
      </trkpt>
      <trkpt lat="45.98161" lon="4.79748">
        <ele>226</ele>
        <time>2018-06-24T10:02:06Z</time>
      </trkpt>
      <trkpt lat="45.98155" lon="4.79751">
        <ele>225</ele>
        <time>2018-06-24T10:02:07Z</time>
      </trkpt>
      <trkpt lat="45.98148" lon="4.79753">
        <ele>225</ele>
        <time>2018-06-24T10:02:08Z</time>
      </trkpt>
      <trkpt lat="45.98141" lon="4.79755">
        <ele>225</ele>
        <time>2018-06-24T10:02:09Z</time>
      </trkpt>
      <trkpt lat="45.98135" lon="4.79756">
        <ele>224</ele>
        <time>2018-06-24T10:02:10Z</time>
      </trkpt>
      <trkpt lat="45.98128" lon="4.79757">
        <ele>224</ele>
        <time>2018-06-24T10:02:11Z</time>
      </trkpt>
      <trkpt lat="45.98121" lon="4.79758">
        <ele>224</ele>
        <time>2018-06-24T10:02:12Z</time>
      </trkpt>
      <trkpt lat="45.98115" lon="4.79761">
        <ele>224</ele>
        <time>2018-06-24T10:02:13Z</time>
      </trkpt>
      <trkpt lat="45.98107" lon="4.79762">
        <ele>224</ele>
        <time>2018-06-24T10:02:14Z</time>
      </trkpt>
      <trkpt lat="45.981" lon="4.79763">
        <ele>223</ele>
        <time>2018-06-24T10:02:15Z</time>
      </trkpt>
      <trkpt lat="45.98093" lon="4.79764">
        <ele>223</ele>
        <time>2018-06-24T10:02:16Z</time>
      </trkpt>
      <trkpt lat="45.98085" lon="4.79766">
        <ele>223</ele>
        <time>2018-06-24T10:02:17Z</time>
      </trkpt>
      <trkpt lat="45.98079" lon="4.79769">
        <ele>223</ele>
        <time>2018-06-24T10:02:18Z</time>
      </trkpt>
      <trkpt lat="45.98071" lon="4.7977">
        <ele>223</ele>
        <time>2018-06-24T10:02:19Z</time>
      </trkpt>
      <trkpt lat="45.98064" lon="4.7977">
        <ele>223</ele>
        <time>2018-06-24T10:02:20Z</time>
      </trkpt>
      <trkpt lat="45.98057" lon="4.79771">
        <ele>223</ele>
        <time>2018-06-24T10:02:21Z</time>
      </trkpt>
      <trkpt lat="45.9805" lon="4.79772">
        <ele>223</ele>
        <time>2018-06-24T10:02:22Z</time>
      </trkpt>
      <trkpt lat="45.98043" lon="4.79773">
        <ele>223</ele>
        <time>2018-06-24T10:02:23Z</time>
      </trkpt>
      <trkpt lat="45.98036" lon="4.79773">
        <ele>223</ele>
        <time>2018-06-24T10:02:24Z</time>
      </trkpt>
      <trkpt lat="45.98028" lon="4.79774">
        <ele>223</ele>
        <time>2018-06-24T10:02:25Z</time>
      </trkpt>
      <trkpt lat="45.98022" lon="4.79774">
        <ele>223</ele>
        <time>2018-06-24T10:02:26Z</time>
      </trkpt>
      <trkpt lat="45.98015" lon="4.79775">
        <ele>223</ele>
        <time>2018-06-24T10:02:27Z</time>
      </trkpt>
      <trkpt lat="45.98009" lon="4.79776">
        <ele>223</ele>
        <time>2018-06-24T10:02:28Z</time>
      </trkpt>
      <trkpt lat="45.98002" lon="4.79777">
        <ele>223</ele>
        <time>2018-06-24T10:02:29Z</time>
      </trkpt>
      <trkpt lat="45.97995" lon="4.79777">
        <ele>224</ele>
        <time>2018-06-24T10:02:30Z</time>
      </trkpt>
      <trkpt lat="45.97989" lon="4.79778">
        <ele>224</ele>
        <time>2018-06-24T10:02:31Z</time>
      </trkpt>
      <trkpt lat="45.97982" lon="4.79779">
        <ele>224</ele>
        <time>2018-06-24T10:02:32Z</time>
      </trkpt>
      <trkpt lat="45.97975" lon="4.7978">
        <ele>224</ele>
        <time>2018-06-24T10:02:33Z</time>
      </trkpt>
      <trkpt lat="45.97968" lon="4.79781">
        <ele>224</ele>
        <time>2018-06-24T10:02:34Z</time>
      </trkpt>
      <trkpt lat="45.97961" lon="4.79782">
        <ele>224</ele>
        <time>2018-06-24T10:02:35Z</time>
      </trkpt>
      <trkpt lat="45.97955" lon="4.79783">
        <ele>224</ele>
        <time>2018-06-24T10:02:36Z</time>
      </trkpt>
      <trkpt lat="45.97947" lon="4.79784">
        <ele>224</ele>
        <time>2018-06-24T10:02:37Z</time>
      </trkpt>
      <trkpt lat="45.9794" lon="4.79785">
        <ele>224</ele>
        <time>2018-06-24T10:02:38Z</time>
      </trkpt>
      <trkpt lat="45.97934" lon="4.79786">
        <ele>224</ele>
        <time>2018-06-24T10:02:39Z</time>
      </trkpt>
      <trkpt lat="45.97929" lon="4.79786">
        <ele>224</ele>
        <time>2018-06-24T10:02:40Z</time>
      </trkpt>
      <trkpt lat="45.97922" lon="4.79787">
        <ele>225</ele>
        <time>2018-06-24T10:02:41Z</time>
      </trkpt>
      <trkpt lat="45.97916" lon="4.79789">
        <ele>225</ele>
        <time>2018-06-24T10:02:42Z</time>
      </trkpt>
      <trkpt lat="45.9791" lon="4.7979">
        <ele>225</ele>
        <time>2018-06-24T10:02:43Z</time>
      </trkpt>
      <trkpt lat="45.97904" lon="4.7979">
        <ele>225</ele>
        <time>2018-06-24T10:02:44Z</time>
      </trkpt>
      <trkpt lat="45.97899" lon="4.79791">
        <ele>224</ele>
        <time>2018-06-24T10:02:45Z</time>
      </trkpt>
      <trkpt lat="45.97892" lon="4.79791">
        <ele>224</ele>
        <time>2018-06-24T10:02:46Z</time>
      </trkpt>
      <trkpt lat="45.97884" lon="4.79793">
        <ele>224</ele>
        <time>2018-06-24T10:02:47Z</time>
      </trkpt>
      <trkpt lat="45.97876" lon="4.79796">
        <ele>224</ele>
        <time>2018-06-24T10:02:48Z</time>
      </trkpt>
      <trkpt lat="45.97868" lon="4.79797">
        <ele>224</ele>
        <time>2018-06-24T10:02:49Z</time>
      </trkpt>
      <trkpt lat="45.97861" lon="4.79798">
        <ele>224</ele>
        <time>2018-06-24T10:02:50Z</time>
      </trkpt>
      <trkpt lat="45.97854" lon="4.798">
        <ele>224</ele>
        <time>2018-06-24T10:02:51Z</time>
      </trkpt>
      <trkpt lat="45.97847" lon="4.79801">
        <ele>224</ele>
        <time>2018-06-24T10:02:52Z</time>
      </trkpt>
      <trkpt lat="45.97841" lon="4.79803">
        <ele>224</ele>
        <time>2018-06-24T10:02:53Z</time>
      </trkpt>
      <trkpt lat="45.97836" lon="4.79803">
        <ele>224</ele>
        <time>2018-06-24T10:02:54Z</time>
      </trkpt>
      <trkpt lat="45.97829" lon="4.79804">
        <ele>223</ele>
        <time>2018-06-24T10:02:55Z</time>
      </trkpt>
      <trkpt lat="45.97822" lon="4.79808">
        <ele>223</ele>
        <time>2018-06-24T10:02:56Z</time>
      </trkpt>
      <trkpt lat="45.97816" lon="4.79809">
        <ele>223</ele>
        <time>2018-06-24T10:02:57Z</time>
      </trkpt>
      <trkpt lat="45.9781" lon="4.79811">
        <ele>223</ele>
        <time>2018-06-24T10:02:58Z</time>
      </trkpt>
      <trkpt lat="45.97804" lon="4.79812">
        <ele>223</ele>
        <time>2018-06-24T10:02:59Z</time>
      </trkpt>
      <trkpt lat="45.97798" lon="4.79813">
        <ele>223</ele>
        <time>2018-06-24T10:03:00Z</time>
      </trkpt>
      <trkpt lat="45.97793" lon="4.79814">
        <ele>223</ele>
        <time>2018-06-24T10:03:01Z</time>
      </trkpt>
      <trkpt lat="45.97787" lon="4.79815">
        <ele>223</ele>
        <time>2018-06-24T10:03:02Z</time>
      </trkpt>
      <trkpt lat="45.9778" lon="4.79815">
        <ele>223</ele>
        <time>2018-06-24T10:03:03Z</time>
      </trkpt>
      <trkpt lat="45.97775" lon="4.79817">
        <ele>223</ele>
        <time>2018-06-24T10:03:04Z</time>
      </trkpt>
      <trkpt lat="45.97768" lon="4.79818">
        <ele>223</ele>
        <time>2018-06-24T10:03:05Z</time>
      </trkpt>
      <trkpt lat="45.97762" lon="4.79818">
        <ele>223</ele>
        <time>2018-06-24T10:03:06Z</time>
      </trkpt>
      <trkpt lat="45.97756" lon="4.79818">
        <ele>223</ele>
        <time>2018-06-24T10:03:07Z</time>
      </trkpt>
      <trkpt lat="45.97751" lon="4.79818">
        <ele>223</ele>
        <time>2018-06-24T10:03:08Z</time>
      </trkpt>
      <trkpt lat="45.97745" lon="4.79821">
        <ele>223</ele>
        <time>2018-06-24T10:03:09Z</time>
      </trkpt>
      <trkpt lat="45.9774" lon="4.79823">
        <ele>223</ele>
        <time>2018-06-24T10:03:10Z</time>
      </trkpt>
      <trkpt lat="45.97734" lon="4.79822">
        <ele>223</ele>
        <time>2018-06-24T10:03:11Z</time>
      </trkpt>
      <trkpt lat="45.97728" lon="4.79824">
        <ele>223</ele>
        <time>2018-06-24T10:03:12Z</time>
      </trkpt>
      <trkpt lat="45.97722" lon="4.79824">
        <ele>223</ele>
        <time>2018-06-24T10:03:13Z</time>
      </trkpt>
      <trkpt lat="45.97716" lon="4.79826">
        <ele>223</ele>
        <time>2018-06-24T10:03:14Z</time>
      </trkpt>
      <trkpt lat="45.97709" lon="4.79828">
        <ele>223</ele>
        <time>2018-06-24T10:03:15Z</time>
      </trkpt>
      <trkpt lat="45.97702" lon="4.79829">
        <ele>223</ele>
        <time>2018-06-24T10:03:16Z</time>
      </trkpt>
      <trkpt lat="45.97696" lon="4.7983">
        <ele>223</ele>
        <time>2018-06-24T10:03:17Z</time>
      </trkpt>
      <trkpt lat="45.97689" lon="4.79832">
        <ele>223</ele>
        <time>2018-06-24T10:03:18Z</time>
      </trkpt>
      <trkpt lat="45.97682" lon="4.79833">
        <ele>223</ele>
        <time>2018-06-24T10:03:19Z</time>
      </trkpt>
      <trkpt lat="45.97676" lon="4.79835">
        <ele>221</ele>
        <time>2018-06-24T10:03:20Z</time>
      </trkpt>
      <trkpt lat="45.97671" lon="4.79836">
        <ele>222</ele>
        <time>2018-06-24T10:03:21Z</time>
      </trkpt>
      <trkpt lat="45.97665" lon="4.79838">
        <ele>222</ele>
        <time>2018-06-24T10:03:22Z</time>
      </trkpt>
      <trkpt lat="45.97659" lon="4.79841">
        <ele>221</ele>
        <time>2018-06-24T10:03:23Z</time>
      </trkpt>
      <trkpt lat="45.97653" lon="4.79843">
        <ele>221</ele>
        <time>2018-06-24T10:03:24Z</time>
      </trkpt>
      <trkpt lat="45.97647" lon="4.79844">
        <ele>221</ele>
        <time>2018-06-24T10:03:25Z</time>
      </trkpt>
      <trkpt lat="45.9764" lon="4.79847">
        <ele>221</ele>
        <time>2018-06-24T10:03:26Z</time>
      </trkpt>
      <trkpt lat="45.97635" lon="4.79848">
        <ele>221</ele>
        <time>2018-06-24T10:03:27Z</time>
      </trkpt>
      <trkpt lat="45.97629" lon="4.7985">
        <ele>221</ele>
        <time>2018-06-24T10:03:28Z</time>
      </trkpt>
      <trkpt lat="45.97624" lon="4.79853">
        <ele>221</ele>
        <time>2018-06-24T10:03:29Z</time>
      </trkpt>
      <trkpt lat="45.97616" lon="4.79856">
        <ele>221</ele>
        <time>2018-06-24T10:03:30Z</time>
      </trkpt>
      <trkpt lat="45.97609" lon="4.79858">
        <ele>221</ele>
        <time>2018-06-24T10:03:31Z</time>
      </trkpt>
      <trkpt lat="45.97602" lon="4.79861">
        <ele>221</ele>
        <time>2018-06-24T10:03:32Z</time>
      </trkpt>
      <trkpt lat="45.97596" lon="4.79864">
        <ele>221</ele>
        <time>2018-06-24T10:03:33Z</time>
      </trkpt>
      <trkpt lat="45.97589" lon="4.79867">
        <ele>221</ele>
        <time>2018-06-24T10:03:34Z</time>
      </trkpt>
      <trkpt lat="45.97582" lon="4.79869">
        <ele>222</ele>
        <time>2018-06-24T10:03:35Z</time>
      </trkpt>
      <trkpt lat="45.97576" lon="4.79871">
        <ele>222</ele>
        <time>2018-06-24T10:03:36Z</time>
      </trkpt>
      <trkpt lat="45.97569" lon="4.79873">
        <ele>222</ele>
        <time>2018-06-24T10:03:37Z</time>
      </trkpt>
      <trkpt lat="45.97562" lon="4.79875">
        <ele>222</ele>
        <time>2018-06-24T10:03:38Z</time>
      </trkpt>
      <trkpt lat="45.97555" lon="4.79877">
        <ele>222</ele>
        <time>2018-06-24T10:03:39Z</time>
      </trkpt>
      <trkpt lat="45.97549" lon="4.79879">
        <ele>222</ele>
        <time>2018-06-24T10:03:40Z</time>
      </trkpt>
      <trkpt lat="45.97542" lon="4.7988">
        <ele>222</ele>
        <time>2018-06-24T10:03:41Z</time>
      </trkpt>
      <trkpt lat="45.97534" lon="4.79882">
        <ele>222</ele>
        <time>2018-06-24T10:03:42Z</time>
      </trkpt>
      <trkpt lat="45.97526" lon="4.79882">
        <ele>222</ele>
        <time>2018-06-24T10:03:43Z</time>
      </trkpt>
      <trkpt lat="45.97516" lon="4.79883">
        <ele>222</ele>
        <time>2018-06-24T10:03:44Z</time>
      </trkpt>
      <trkpt lat="45.97507" lon="4.79884">
        <ele>221</ele>
        <time>2018-06-24T10:03:45Z</time>
      </trkpt>
      <trkpt lat="45.97498" lon="4.79885">
        <ele>221</ele>
        <time>2018-06-24T10:03:46Z</time>
      </trkpt>
      <trkpt lat="45.97489" lon="4.79886">
        <ele>221</ele>
        <time>2018-06-24T10:03:47Z</time>
      </trkpt>
      <trkpt lat="45.97479" lon="4.79886">
        <ele>221</ele>
        <time>2018-06-24T10:03:48Z</time>
      </trkpt>
      <trkpt lat="45.97471" lon="4.79886">
        <ele>221</ele>
        <time>2018-06-24T10:03:49Z</time>
      </trkpt>
      <trkpt lat="45.97461" lon="4.79885">
        <ele>221</ele>
        <time>2018-06-24T10:03:50Z</time>
      </trkpt>
      <trkpt lat="45.97452" lon="4.79886">
        <ele>221</ele>
        <time>2018-06-24T10:03:51Z</time>
      </trkpt>
      <trkpt lat="45.97443" lon="4.79885">
        <ele>220</ele>
        <time>2018-06-24T10:03:52Z</time>
      </trkpt>
      <trkpt lat="45.97434" lon="4.79886">
        <ele>220</ele>
        <time>2018-06-24T10:03:53Z</time>
      </trkpt>
      <trkpt lat="45.97425" lon="4.79887">
        <ele>220</ele>
        <time>2018-06-24T10:03:54Z</time>
      </trkpt>
      <trkpt lat="45.97417" lon="4.79888">
        <ele>220</ele>
        <time>2018-06-24T10:03:55Z</time>
      </trkpt>
      <trkpt lat="45.97407" lon="4.7989">
        <ele>218</ele>
        <time>2018-06-24T10:03:56Z</time>
      </trkpt>
      <trkpt lat="45.97399" lon="4.79891">
        <ele>218</ele>
        <time>2018-06-24T10:03:57Z</time>
      </trkpt>
      <trkpt lat="45.9739" lon="4.79893">
        <ele>217</ele>
        <time>2018-06-24T10:03:58Z</time>
      </trkpt>
      <trkpt lat="45.9738" lon="4.79895">
        <ele>217</ele>
        <time>2018-06-24T10:03:59Z</time>
      </trkpt>
      <trkpt lat="45.97372" lon="4.79896">
        <ele>217</ele>
        <time>2018-06-24T10:04:00Z</time>
      </trkpt>
      <trkpt lat="45.97363" lon="4.79898">
        <ele>217</ele>
        <time>2018-06-24T10:04:01Z</time>
      </trkpt>
      <trkpt lat="45.97353" lon="4.79899">
        <ele>216</ele>
        <time>2018-06-24T10:04:02Z</time>
      </trkpt>
      <trkpt lat="45.97345" lon="4.799">
        <ele>216</ele>
        <time>2018-06-24T10:04:03Z</time>
      </trkpt>
      <trkpt lat="45.97336" lon="4.79901">
        <ele>215</ele>
        <time>2018-06-24T10:04:04Z</time>
      </trkpt>
      <trkpt lat="45.97325" lon="4.79903">
        <ele>213</ele>
        <time>2018-06-24T10:04:05Z</time>
      </trkpt>
      <trkpt lat="45.97316" lon="4.79904">
        <ele>214</ele>
        <time>2018-06-24T10:04:06Z</time>
      </trkpt>
      <trkpt lat="45.97308" lon="4.79905">
        <ele>213</ele>
        <time>2018-06-24T10:04:07Z</time>
      </trkpt>
      <trkpt lat="45.97298" lon="4.79909">
        <ele>213</ele>
        <time>2018-06-24T10:04:08Z</time>
      </trkpt>
      <trkpt lat="45.9729" lon="4.79911">
        <ele>213</ele>
        <time>2018-06-24T10:04:09Z</time>
      </trkpt>
      <trkpt lat="45.97285" lon="4.79913">
        <ele>213</ele>
        <time>2018-06-24T10:04:10Z</time>
      </trkpt>
      <trkpt lat="45.97277" lon="4.79914">
        <ele>213</ele>
        <time>2018-06-24T10:04:11Z</time>
      </trkpt>
      <trkpt lat="45.97271" lon="4.79915">
        <ele>213</ele>
        <time>2018-06-24T10:04:12Z</time>
      </trkpt>
      <trkpt lat="45.97262" lon="4.79914">
        <ele>213</ele>
        <time>2018-06-24T10:04:14Z</time>
      </trkpt>
      <trkpt lat="45.97258" lon="4.79913">
        <ele>212</ele>
        <time>2018-06-24T10:04:15Z</time>
      </trkpt>
      <trkpt lat="45.97257" lon="4.79906">
        <ele>213</ele>
        <time>2018-06-24T10:04:16Z</time>
      </trkpt>
      <trkpt lat="45.97255" lon="4.79899">
        <ele>213</ele>
        <time>2018-06-24T10:04:17Z</time>
      </trkpt>
      <trkpt lat="45.97253" lon="4.79892">
        <ele>213</ele>
        <time>2018-06-24T10:04:18Z</time>
      </trkpt>
      <trkpt lat="45.97253" lon="4.79884">
        <ele>213</ele>
        <time>2018-06-24T10:04:19Z</time>
      </trkpt>
      <trkpt lat="45.97251" lon="4.79876">
        <ele>213</ele>
        <time>2018-06-24T10:04:20Z</time>
      </trkpt>
      <trkpt lat="45.97248" lon="4.79867">
        <ele>211</ele>
        <time>2018-06-24T10:04:21Z</time>
      </trkpt>
      <trkpt lat="45.97246" lon="4.79857">
        <ele>211</ele>
        <time>2018-06-24T10:04:22Z</time>
      </trkpt>
      <trkpt lat="45.97247" lon="4.79849">
        <ele>211</ele>
        <time>2018-06-24T10:04:23Z</time>
      </trkpt>
      <trkpt lat="45.97246" lon="4.7984">
        <ele>212</ele>
        <time>2018-06-24T10:04:24Z</time>
      </trkpt>
      <trkpt lat="45.97247" lon="4.79832">
        <ele>212</ele>
        <time>2018-06-24T10:04:25Z</time>
      </trkpt>
      <trkpt lat="45.97247" lon="4.79823">
        <ele>211</ele>
        <time>2018-06-24T10:04:26Z</time>
      </trkpt>
      <trkpt lat="45.97247" lon="4.79814">
        <ele>211</ele>
        <time>2018-06-24T10:04:27Z</time>
      </trkpt>
      <trkpt lat="45.97248" lon="4.79806">
        <ele>210</ele>
        <time>2018-06-24T10:04:28Z</time>
      </trkpt>
      <trkpt lat="45.97248" lon="4.79797">
        <ele>210</ele>
        <time>2018-06-24T10:04:29Z</time>
      </trkpt>
      <trkpt lat="45.97249" lon="4.79789">
        <ele>210</ele>
        <time>2018-06-24T10:04:30Z</time>
      </trkpt>
      <trkpt lat="45.97249" lon="4.79781">
        <ele>210</ele>
        <time>2018-06-24T10:04:31Z</time>
      </trkpt>
      <trkpt lat="45.97251" lon="4.79774">
        <ele>212</ele>
        <time>2018-06-24T10:04:32Z</time>
      </trkpt>
      <trkpt lat="45.9725" lon="4.79766">
        <ele>209</ele>
        <time>2018-06-24T10:04:33Z</time>
      </trkpt>
      <trkpt lat="45.97248" lon="4.79758">
        <ele>209</ele>
        <time>2018-06-24T10:04:34Z</time>
      </trkpt>
      <trkpt lat="45.97249" lon="4.7975">
        <ele>209</ele>
        <time>2018-06-24T10:04:35Z</time>
      </trkpt>
      <trkpt lat="45.97251" lon="4.79741">
        <ele>211</ele>
        <time>2018-06-24T10:04:36Z</time>
      </trkpt>
      <trkpt lat="45.97252" lon="4.79732">
        <ele>211</ele>
        <time>2018-06-24T10:04:37Z</time>
      </trkpt>
      <trkpt lat="45.97253" lon="4.79723">
        <ele>212</ele>
        <time>2018-06-24T10:04:38Z</time>
      </trkpt>
      <trkpt lat="45.97254" lon="4.79715">
        <ele>212</ele>
        <time>2018-06-24T10:04:39Z</time>
      </trkpt>
      <trkpt lat="45.97254" lon="4.79707">
        <ele>212</ele>
        <time>2018-06-24T10:04:40Z</time>
      </trkpt>
      <trkpt lat="45.97255" lon="4.79698">
        <ele>212</ele>
        <time>2018-06-24T10:04:41Z</time>
      </trkpt>
      <trkpt lat="45.97256" lon="4.79691">
        <ele>212</ele>
        <time>2018-06-24T10:04:42Z</time>
      </trkpt>
      <trkpt lat="45.97257" lon="4.79683">
        <ele>211</ele>
        <time>2018-06-24T10:04:43Z</time>
      </trkpt>
      <trkpt lat="45.97258" lon="4.79676">
        <ele>210</ele>
        <time>2018-06-24T10:04:44Z</time>
      </trkpt>
      <trkpt lat="45.97264" lon="4.79671">
        <ele>211</ele>
        <time>2018-06-24T10:04:45Z</time>
      </trkpt>
      <trkpt lat="45.97265" lon="4.79663">
        <ele>211</ele>
        <time>2018-06-24T10:04:46Z</time>
      </trkpt>
      <trkpt lat="45.97266" lon="4.79655">
        <ele>212</ele>
        <time>2018-06-24T10:04:47Z</time>
      </trkpt>
      <trkpt lat="45.97266" lon="4.79646">
        <ele>212</ele>
        <time>2018-06-24T10:04:48Z</time>
      </trkpt>
      <trkpt lat="45.97265" lon="4.79637">
        <ele>213</ele>
        <time>2018-06-24T10:04:49Z</time>
      </trkpt>
      <trkpt lat="45.97265" lon="4.79629">
        <ele>213</ele>
        <time>2018-06-24T10:04:50Z</time>
      </trkpt>
      <trkpt lat="45.97265" lon="4.79621">
        <ele>213</ele>
        <time>2018-06-24T10:04:51Z</time>
      </trkpt>
      <trkpt lat="45.97266" lon="4.79612">
        <ele>213</ele>
        <time>2018-06-24T10:04:52Z</time>
      </trkpt>
      <trkpt lat="45.97266" lon="4.79604">
        <ele>213</ele>
        <time>2018-06-24T10:04:53Z</time>
      </trkpt>
      <trkpt lat="45.97264" lon="4.79595">
        <ele>213</ele>
        <time>2018-06-24T10:04:54Z</time>
      </trkpt>
      <trkpt lat="45.97262" lon="4.79585">
        <ele>212</ele>
        <time>2018-06-24T10:04:55Z</time>
      </trkpt>
      <trkpt lat="45.97261" lon="4.79577">
        <ele>212</ele>
        <time>2018-06-24T10:04:56Z</time>
      </trkpt>
      <trkpt lat="45.9726" lon="4.7957">
        <ele>213</ele>
        <time>2018-06-24T10:04:57Z</time>
      </trkpt>
      <trkpt lat="45.97259" lon="4.79563">
        <ele>213</ele>
        <time>2018-06-24T10:04:58Z</time>
      </trkpt>
      <trkpt lat="45.97258" lon="4.79556">
        <ele>214</ele>
        <time>2018-06-24T10:04:59Z</time>
      </trkpt>
      <trkpt lat="45.97258" lon="4.79545">
        <ele>214</ele>
        <time>2018-06-24T10:05:01Z</time>
      </trkpt>
      <trkpt lat="45.97256" lon="4.79538">
        <ele>214</ele>
        <time>2018-06-24T10:05:02Z</time>
      </trkpt>
      <trkpt lat="45.97256" lon="4.79528">
        <ele>214</ele>
        <time>2018-06-24T10:05:04Z</time>
      </trkpt>
      <trkpt lat="45.97256" lon="4.79522">
        <ele>214</ele>
        <time>2018-06-24T10:05:05Z</time>
      </trkpt>
      <trkpt lat="45.97252" lon="4.79513">
        <ele>213</ele>
        <time>2018-06-24T10:05:06Z</time>
      </trkpt>
      <trkpt lat="45.97253" lon="4.79507">
        <ele>212</ele>
        <time>2018-06-24T10:05:07Z</time>
      </trkpt>
      <trkpt lat="45.97252" lon="4.795">
        <ele>211</ele>
        <time>2018-06-24T10:05:08Z</time>
      </trkpt>
      <trkpt lat="45.9725" lon="4.79492">
        <ele>210</ele>
        <time>2018-06-24T10:05:09Z</time>
      </trkpt>
      <trkpt lat="45.97247" lon="4.79484">
        <ele>210</ele>
        <time>2018-06-24T10:05:10Z</time>
      </trkpt>
      <trkpt lat="45.97245" lon="4.79476">
        <ele>209</ele>
        <time>2018-06-24T10:05:11Z</time>
      </trkpt>
      <trkpt lat="45.97243" lon="4.79468">
        <ele>209</ele>
        <time>2018-06-24T10:05:12Z</time>
      </trkpt>
      <trkpt lat="45.97239" lon="4.7946">
        <ele>209</ele>
        <time>2018-06-24T10:05:13Z</time>
      </trkpt>
      <trkpt lat="45.97238" lon="4.79453">
        <ele>209</ele>
        <time>2018-06-24T10:05:14Z</time>
      </trkpt>
      <trkpt lat="45.97235" lon="4.79446">
        <ele>209</ele>
        <time>2018-06-24T10:05:15Z</time>
      </trkpt>
      <trkpt lat="45.97231" lon="4.79438">
        <ele>209</ele>
        <time>2018-06-24T10:05:16Z</time>
      </trkpt>
      <trkpt lat="45.97228" lon="4.7943">
        <ele>209</ele>
        <time>2018-06-24T10:05:17Z</time>
      </trkpt>
      <trkpt lat="45.97225" lon="4.79421">
        <ele>209</ele>
        <time>2018-06-24T10:05:18Z</time>
      </trkpt>
      <trkpt lat="45.97221" lon="4.79413">
        <ele>208</ele>
        <time>2018-06-24T10:05:19Z</time>
      </trkpt>
      <trkpt lat="45.97218" lon="4.79405">
        <ele>208</ele>
        <time>2018-06-24T10:05:20Z</time>
      </trkpt>
      <trkpt lat="45.97214" lon="4.79398">
        <ele>208</ele>
        <time>2018-06-24T10:05:21Z</time>
      </trkpt>
      <trkpt lat="45.97211" lon="4.7939">
        <ele>208</ele>
        <time>2018-06-24T10:05:22Z</time>
      </trkpt>
      <trkpt lat="45.97208" lon="4.79383">
        <ele>208</ele>
        <time>2018-06-24T10:05:23Z</time>
      </trkpt>
      <trkpt lat="45.97205" lon="4.79375">
        <ele>208</ele>
        <time>2018-06-24T10:05:24Z</time>
      </trkpt>
      <trkpt lat="45.97201" lon="4.79367">
        <ele>208</ele>
        <time>2018-06-24T10:05:25Z</time>
      </trkpt>
      <trkpt lat="45.97198" lon="4.79359">
        <ele>207</ele>
        <time>2018-06-24T10:05:26Z</time>
      </trkpt>
      <trkpt lat="45.97195" lon="4.79352">
        <ele>207</ele>
        <time>2018-06-24T10:05:27Z</time>
      </trkpt>
      <trkpt lat="45.97192" lon="4.79345">
        <ele>207</ele>
        <time>2018-06-24T10:05:28Z</time>
      </trkpt>
      <trkpt lat="45.97189" lon="4.79339">
        <ele>207</ele>
        <time>2018-06-24T10:05:29Z</time>
      </trkpt>
      <trkpt lat="45.97186" lon="4.79333">
        <ele>207</ele>
        <time>2018-06-24T10:05:30Z</time>
      </trkpt>
      <trkpt lat="45.97183" lon="4.79325">
        <ele>207</ele>
        <time>2018-06-24T10:05:31Z</time>
      </trkpt>
      <trkpt lat="45.9718" lon="4.79317">
        <ele>207</ele>
        <time>2018-06-24T10:05:32Z</time>
      </trkpt>
      <trkpt lat="45.97177" lon="4.7931">
        <ele>207</ele>
        <time>2018-06-24T10:05:33Z</time>
      </trkpt>
      <trkpt lat="45.97174" lon="4.79302">
        <ele>207</ele>
        <time>2018-06-24T10:05:34Z</time>
      </trkpt>
      <trkpt lat="45.97171" lon="4.79294">
        <ele>207</ele>
        <time>2018-06-24T10:05:35Z</time>
      </trkpt>
      <trkpt lat="45.97167" lon="4.79285">
        <ele>207</ele>
        <time>2018-06-24T10:05:36Z</time>
      </trkpt>
      <trkpt lat="45.97164" lon="4.79276">
        <ele>204</ele>
        <time>2018-06-24T10:05:37Z</time>
      </trkpt>
      <trkpt lat="45.97161" lon="4.79268">
        <ele>204</ele>
        <time>2018-06-24T10:05:38Z</time>
      </trkpt>
      <trkpt lat="45.97157" lon="4.7926">
        <ele>205</ele>
        <time>2018-06-24T10:05:39Z</time>
      </trkpt>
      <trkpt lat="45.97154" lon="4.79252">
        <ele>205</ele>
        <time>2018-06-24T10:05:40Z</time>
      </trkpt>
      <trkpt lat="45.97151" lon="4.79244">
        <ele>205</ele>
        <time>2018-06-24T10:05:41Z</time>
      </trkpt>
      <trkpt lat="45.97148" lon="4.79235">
        <ele>205</ele>
        <time>2018-06-24T10:05:42Z</time>
      </trkpt>
      <trkpt lat="45.97145" lon="4.79227">
        <ele>205</ele>
        <time>2018-06-24T10:05:43Z</time>
      </trkpt>
      <trkpt lat="45.97142" lon="4.7922">
        <ele>206</ele>
        <time>2018-06-24T10:05:44Z</time>
      </trkpt>
      <trkpt lat="45.97139" lon="4.79213">
        <ele>206</ele>
        <time>2018-06-24T10:05:45Z</time>
      </trkpt>
      <trkpt lat="45.97135" lon="4.79206">
        <ele>206</ele>
        <time>2018-06-24T10:05:46Z</time>
      </trkpt>
      <trkpt lat="45.97131" lon="4.79198">
        <ele>206</ele>
        <time>2018-06-24T10:05:47Z</time>
      </trkpt>
      <trkpt lat="45.97129" lon="4.79191">
        <ele>206</ele>
        <time>2018-06-24T10:05:48Z</time>
      </trkpt>
      <trkpt lat="45.97126" lon="4.79183">
        <ele>206</ele>
        <time>2018-06-24T10:05:49Z</time>
      </trkpt>
      <trkpt lat="45.97123" lon="4.79177">
        <ele>206</ele>
        <time>2018-06-24T10:05:50Z</time>
      </trkpt>
      <trkpt lat="45.9712" lon="4.79169">
        <ele>206</ele>
        <time>2018-06-24T10:05:51Z</time>
      </trkpt>
      <trkpt lat="45.97117" lon="4.79163">
        <ele>207</ele>
        <time>2018-06-24T10:05:52Z</time>
      </trkpt>
      <trkpt lat="45.97114" lon="4.79155">
        <ele>207</ele>
        <time>2018-06-24T10:05:53Z</time>
      </trkpt>
      <trkpt lat="45.97111" lon="4.79148">
        <ele>207</ele>
        <time>2018-06-24T10:05:54Z</time>
      </trkpt>
      <trkpt lat="45.97106" lon="4.7914">
        <ele>206</ele>
        <time>2018-06-24T10:05:55Z</time>
      </trkpt>
      <trkpt lat="45.97103" lon="4.79134">
        <ele>206</ele>
        <time>2018-06-24T10:05:56Z</time>
      </trkpt>
      <trkpt lat="45.97099" lon="4.79127">
        <ele>206</ele>
        <time>2018-06-24T10:05:57Z</time>
      </trkpt>
      <trkpt lat="45.97095" lon="4.7912">
        <ele>206</ele>
        <time>2018-06-24T10:05:58Z</time>
      </trkpt>
      <trkpt lat="45.97094" lon="4.79113">
        <ele>206</ele>
        <time>2018-06-24T10:05:59Z</time>
      </trkpt>
      <trkpt lat="45.97091" lon="4.79105">
        <ele>206</ele>
        <time>2018-06-24T10:06:00Z</time>
      </trkpt>
      <trkpt lat="45.9709" lon="4.79097">
        <ele>205</ele>
        <time>2018-06-24T10:06:01Z</time>
      </trkpt>
      <trkpt lat="45.97088" lon="4.79089">
        <ele>205</ele>
        <time>2018-06-24T10:06:02Z</time>
      </trkpt>
      <trkpt lat="45.97086" lon="4.79081">
        <ele>205</ele>
        <time>2018-06-24T10:06:03Z</time>
      </trkpt>
      <trkpt lat="45.97083" lon="4.79074">
        <ele>204</ele>
        <time>2018-06-24T10:06:04Z</time>
      </trkpt>
      <trkpt lat="45.97081" lon="4.79066">
        <ele>204</ele>
        <time>2018-06-24T10:06:05Z</time>
      </trkpt>
      <trkpt lat="45.9708" lon="4.79059">
        <ele>204</ele>
        <time>2018-06-24T10:06:06Z</time>
      </trkpt>
      <trkpt lat="45.97077" lon="4.79051">
        <ele>203</ele>
        <time>2018-06-24T10:06:07Z</time>
      </trkpt>
      <trkpt lat="45.97077" lon="4.79045">
        <ele>204</ele>
        <time>2018-06-24T10:06:08Z</time>
      </trkpt>
      <trkpt lat="45.97074" lon="4.79038">
        <ele>204</ele>
        <time>2018-06-24T10:06:09Z</time>
      </trkpt>
      <trkpt lat="45.97073" lon="4.79032">
        <ele>204</ele>
        <time>2018-06-24T10:06:10Z</time>
      </trkpt>
      <trkpt lat="45.97071" lon="4.79024">
        <ele>204</ele>
        <time>2018-06-24T10:06:11Z</time>
      </trkpt>
      <trkpt lat="45.97069" lon="4.79017">
        <ele>204</ele>
        <time>2018-06-24T10:06:12Z</time>
      </trkpt>
      <trkpt lat="45.97066" lon="4.79009">
        <ele>204</ele>
        <time>2018-06-24T10:06:13Z</time>
      </trkpt>
      <trkpt lat="45.97066" lon="4.79002">
        <ele>204</ele>
        <time>2018-06-24T10:06:14Z</time>
      </trkpt>
      <trkpt lat="45.97062" lon="4.78995">
        <ele>205</ele>
        <time>2018-06-24T10:06:15Z</time>
      </trkpt>
      <trkpt lat="45.97059" lon="4.78987">
        <ele>205</ele>
        <time>2018-06-24T10:06:16Z</time>
      </trkpt>
      <trkpt lat="45.97057" lon="4.78981">
        <ele>205</ele>
        <time>2018-06-24T10:06:17Z</time>
      </trkpt>
      <trkpt lat="45.97053" lon="4.78974">
        <ele>205</ele>
        <time>2018-06-24T10:06:18Z</time>
      </trkpt>
      <trkpt lat="45.9705" lon="4.78967">
        <ele>205</ele>
        <time>2018-06-24T10:06:19Z</time>
      </trkpt>
      <trkpt lat="45.97047" lon="4.7896">
        <ele>205</ele>
        <time>2018-06-24T10:06:20Z</time>
      </trkpt>
      <trkpt lat="45.97043" lon="4.78954">
        <ele>205</ele>
        <time>2018-06-24T10:06:21Z</time>
      </trkpt>
      <trkpt lat="45.97039" lon="4.78947">
        <ele>205</ele>
        <time>2018-06-24T10:06:22Z</time>
      </trkpt>
      <trkpt lat="45.97036" lon="4.78941">
        <ele>205</ele>
        <time>2018-06-24T10:06:23Z</time>
      </trkpt>
      <trkpt lat="45.97033" lon="4.78935">
        <ele>205</ele>
        <time>2018-06-24T10:06:24Z</time>
      </trkpt>
      <trkpt lat="45.97029" lon="4.78928">
        <ele>205</ele>
        <time>2018-06-24T10:06:25Z</time>
      </trkpt>
      <trkpt lat="45.97024" lon="4.78922">
        <ele>205</ele>
        <time>2018-06-24T10:06:26Z</time>
      </trkpt>
      <trkpt lat="45.97019" lon="4.78916">
        <ele>206</ele>
        <time>2018-06-24T10:06:27Z</time>
      </trkpt>
      <trkpt lat="45.97015" lon="4.78909">
        <ele>206</ele>
        <time>2018-06-24T10:06:28Z</time>
      </trkpt>
      <trkpt lat="45.9701" lon="4.78904">
        <ele>206</ele>
        <time>2018-06-24T10:06:29Z</time>
      </trkpt>
      <trkpt lat="45.97005" lon="4.78898">
        <ele>206</ele>
        <time>2018-06-24T10:06:30Z</time>
      </trkpt>
      <trkpt lat="45.97002" lon="4.78893">
        <ele>207</ele>
        <time>2018-06-24T10:06:31Z</time>
      </trkpt>
      <trkpt lat="45.96997" lon="4.78887">
        <ele>203</ele>
        <time>2018-06-24T10:06:32Z</time>
      </trkpt>
      <trkpt lat="45.96992" lon="4.78881">
        <ele>203</ele>
        <time>2018-06-24T10:06:33Z</time>
      </trkpt>
      <trkpt lat="45.96988" lon="4.78875">
        <ele>203</ele>
        <time>2018-06-24T10:06:34Z</time>
      </trkpt>
      <trkpt lat="45.96983" lon="4.7887">
        <ele>203</ele>
        <time>2018-06-24T10:06:35Z</time>
      </trkpt>
      <trkpt lat="45.96979" lon="4.78864">
        <ele>203</ele>
        <time>2018-06-24T10:06:36Z</time>
      </trkpt>
      <trkpt lat="45.96974" lon="4.78859">
        <ele>203</ele>
        <time>2018-06-24T10:06:37Z</time>
      </trkpt>
      <trkpt lat="45.96969" lon="4.78854">
        <ele>203</ele>
        <time>2018-06-24T10:06:38Z</time>
      </trkpt>
      <trkpt lat="45.96963" lon="4.78848">
        <ele>203</ele>
        <time>2018-06-24T10:06:39Z</time>
      </trkpt>
      <trkpt lat="45.96958" lon="4.78843">
        <ele>203</ele>
        <time>2018-06-24T10:06:40Z</time>
      </trkpt>
      <trkpt lat="45.96954" lon="4.78838">
        <ele>203</ele>
        <time>2018-06-24T10:06:41Z</time>
      </trkpt>
      <trkpt lat="45.96949" lon="4.78833">
        <ele>203</ele>
        <time>2018-06-24T10:06:42Z</time>
      </trkpt>
      <trkpt lat="45.96944" lon="4.78826">
        <ele>203</ele>
        <time>2018-06-24T10:06:43Z</time>
      </trkpt>
      <trkpt lat="45.9694" lon="4.78819">
        <ele>203</ele>
        <time>2018-06-24T10:06:44Z</time>
      </trkpt>
      <trkpt lat="45.96936" lon="4.78813">
        <ele>203</ele>
        <time>2018-06-24T10:06:45Z</time>
      </trkpt>
      <trkpt lat="45.96931" lon="4.78805">
        <ele>203</ele>
        <time>2018-06-24T10:06:46Z</time>
      </trkpt>
      <trkpt lat="45.96928" lon="4.78797">
        <ele>203</ele>
        <time>2018-06-24T10:06:47Z</time>
      </trkpt>
      <trkpt lat="45.96924" lon="4.78789">
        <ele>203</ele>
        <time>2018-06-24T10:06:48Z</time>
      </trkpt>
      <trkpt lat="45.96921" lon="4.78782">
        <ele>203</ele>
        <time>2018-06-24T10:06:49Z</time>
      </trkpt>
      <trkpt lat="45.96917" lon="4.78774">
        <ele>203</ele>
        <time>2018-06-24T10:06:50Z</time>
      </trkpt>
      <trkpt lat="45.96913" lon="4.78767">
        <ele>202</ele>
        <time>2018-06-24T10:06:51Z</time>
      </trkpt>
      <trkpt lat="45.9691" lon="4.78759">
        <ele>202</ele>
        <time>2018-06-24T10:06:52Z</time>
      </trkpt>
      <trkpt lat="45.96906" lon="4.78751">
        <ele>202</ele>
        <time>2018-06-24T10:06:53Z</time>
      </trkpt>
      <trkpt lat="45.96903" lon="4.78744">
        <ele>203</ele>
        <time>2018-06-24T10:06:54Z</time>
      </trkpt>
      <trkpt lat="45.969" lon="4.78737">
        <ele>202</ele>
        <time>2018-06-24T10:06:55Z</time>
      </trkpt>
      <trkpt lat="45.96896" lon="4.78729">
        <ele>202</ele>
        <time>2018-06-24T10:06:56Z</time>
      </trkpt>
      <trkpt lat="45.96894" lon="4.78722">
        <ele>202</ele>
        <time>2018-06-24T10:06:57Z</time>
      </trkpt>
      <trkpt lat="45.9689" lon="4.78715">
        <ele>202</ele>
        <time>2018-06-24T10:06:58Z</time>
      </trkpt>
      <trkpt lat="45.96886" lon="4.78708">
        <ele>202</ele>
        <time>2018-06-24T10:06:59Z</time>
      </trkpt>
      <trkpt lat="45.96884" lon="4.78701">
        <ele>202</ele>
        <time>2018-06-24T10:07:00Z</time>
      </trkpt>
      <trkpt lat="45.9688" lon="4.78693">
        <ele>202</ele>
        <time>2018-06-24T10:07:01Z</time>
      </trkpt>
      <trkpt lat="45.96876" lon="4.78686">
        <ele>202</ele>
        <time>2018-06-24T10:07:02Z</time>
      </trkpt>
      <trkpt lat="45.96873" lon="4.7868">
        <ele>202</ele>
        <time>2018-06-24T10:07:03Z</time>
      </trkpt>
      <trkpt lat="45.96869" lon="4.78673">
        <ele>202</ele>
        <time>2018-06-24T10:07:04Z</time>
      </trkpt>
      <trkpt lat="45.96866" lon="4.78664">
        <ele>203</ele>
        <time>2018-06-24T10:07:05Z</time>
      </trkpt>
      <trkpt lat="45.96862" lon="4.78656">
        <ele>203</ele>
        <time>2018-06-24T10:07:06Z</time>
      </trkpt>
      <trkpt lat="45.96859" lon="4.78649">
        <ele>203</ele>
        <time>2018-06-24T10:07:07Z</time>
      </trkpt>
      <trkpt lat="45.96856" lon="4.7864">
        <ele>203</ele>
        <time>2018-06-24T10:07:08Z</time>
      </trkpt>
      <trkpt lat="45.96849" lon="4.78633">
        <ele>203</ele>
        <time>2018-06-24T10:07:09Z</time>
      </trkpt>
      <trkpt lat="45.96846" lon="4.78623">
        <ele>203</ele>
        <time>2018-06-24T10:07:10Z</time>
      </trkpt>
      <trkpt lat="45.96842" lon="4.78616">
        <ele>203</ele>
        <time>2018-06-24T10:07:11Z</time>
      </trkpt>
      <trkpt lat="45.96839" lon="4.78607">
        <ele>203</ele>
        <time>2018-06-24T10:07:12Z</time>
      </trkpt>
      <trkpt lat="45.96836" lon="4.78598">
        <ele>203</ele>
        <time>2018-06-24T10:07:13Z</time>
      </trkpt>
      <trkpt lat="45.96834" lon="4.7859">
        <ele>203</ele>
        <time>2018-06-24T10:07:14Z</time>
      </trkpt>
      <trkpt lat="45.96829" lon="4.78583">
        <ele>203</ele>
        <time>2018-06-24T10:07:15Z</time>
      </trkpt>
      <trkpt lat="45.96825" lon="4.78576">
        <ele>203</ele>
        <time>2018-06-24T10:07:16Z</time>
      </trkpt>
      <trkpt lat="45.96822" lon="4.78569">
        <ele>203</ele>
        <time>2018-06-24T10:07:17Z</time>
      </trkpt>
      <trkpt lat="45.96817" lon="4.78563">
        <ele>203</ele>
        <time>2018-06-24T10:07:18Z</time>
      </trkpt>
      <trkpt lat="45.96812" lon="4.78556">
        <ele>203</ele>
        <time>2018-06-24T10:07:19Z</time>
      </trkpt>
      <trkpt lat="45.96809" lon="4.78547">
        <ele>203</ele>
        <time>2018-06-24T10:07:20Z</time>
      </trkpt>
      <trkpt lat="45.96804" lon="4.7854">
        <ele>203</ele>
        <time>2018-06-24T10:07:21Z</time>
      </trkpt>
      <trkpt lat="45.968" lon="4.78533">
        <ele>203</ele>
        <time>2018-06-24T10:07:22Z</time>
      </trkpt>
      <trkpt lat="45.96793" lon="4.78525">
        <ele>203</ele>
        <time>2018-06-24T10:07:23Z</time>
      </trkpt>
      <trkpt lat="45.9679" lon="4.78517">
        <ele>203</ele>
        <time>2018-06-24T10:07:24Z</time>
      </trkpt>
      <trkpt lat="45.96785" lon="4.7851">
        <ele>203</ele>
        <time>2018-06-24T10:07:25Z</time>
      </trkpt>
      <trkpt lat="45.9678" lon="4.78503">
        <ele>203</ele>
        <time>2018-06-24T10:07:26Z</time>
      </trkpt>
      <trkpt lat="45.96775" lon="4.78496">
        <ele>205</ele>
        <time>2018-06-24T10:07:27Z</time>
      </trkpt>
      <trkpt lat="45.96771" lon="4.7849">
        <ele>205</ele>
        <time>2018-06-24T10:07:28Z</time>
      </trkpt>
      <trkpt lat="45.96765" lon="4.78484">
        <ele>205</ele>
        <time>2018-06-24T10:07:29Z</time>
      </trkpt>
      <trkpt lat="45.9676" lon="4.78477">
        <ele>205</ele>
        <time>2018-06-24T10:07:30Z</time>
      </trkpt>
      <trkpt lat="45.96756" lon="4.78472">
        <ele>205</ele>
        <time>2018-06-24T10:07:31Z</time>
      </trkpt>
      <trkpt lat="45.9675" lon="4.78466">
        <ele>203</ele>
        <time>2018-06-24T10:07:32Z</time>
      </trkpt>
      <trkpt lat="45.96745" lon="4.7846">
        <ele>203</ele>
        <time>2018-06-24T10:07:33Z</time>
      </trkpt>
      <trkpt lat="45.96739" lon="4.78456">
        <ele>203</ele>
        <time>2018-06-24T10:07:34Z</time>
      </trkpt>
      <trkpt lat="45.96733" lon="4.7845">
        <ele>203</ele>
        <time>2018-06-24T10:07:35Z</time>
      </trkpt>
      <trkpt lat="45.96729" lon="4.78446">
        <ele>203</ele>
        <time>2018-06-24T10:07:36Z</time>
      </trkpt>
      <trkpt lat="45.96724" lon="4.7844">
        <ele>203</ele>
        <time>2018-06-24T10:07:37Z</time>
      </trkpt>
      <trkpt lat="45.9672" lon="4.78434">
        <ele>203</ele>
        <time>2018-06-24T10:07:38Z</time>
      </trkpt>
      <trkpt lat="45.96714" lon="4.78427">
        <ele>203</ele>
        <time>2018-06-24T10:07:39Z</time>
      </trkpt>
      <trkpt lat="45.9671" lon="4.78421">
        <ele>203</ele>
        <time>2018-06-24T10:07:40Z</time>
      </trkpt>
      <trkpt lat="45.96706" lon="4.78417">
        <ele>205</ele>
        <time>2018-06-24T10:07:41Z</time>
      </trkpt>
      <trkpt lat="45.96701" lon="4.78412">
        <ele>205</ele>
        <time>2018-06-24T10:07:42Z</time>
      </trkpt>
      <trkpt lat="45.96696" lon="4.78407">
        <ele>205</ele>
        <time>2018-06-24T10:07:43Z</time>
      </trkpt>
      <trkpt lat="45.9669" lon="4.78402">
        <ele>205</ele>
        <time>2018-06-24T10:07:44Z</time>
      </trkpt>
      <trkpt lat="45.96685" lon="4.78397">
        <ele>205</ele>
        <time>2018-06-24T10:07:45Z</time>
      </trkpt>
      <trkpt lat="45.9668" lon="4.78392">
        <ele>205</ele>
        <time>2018-06-24T10:07:46Z</time>
      </trkpt>
      <trkpt lat="45.96674" lon="4.78387">
        <ele>205</ele>
        <time>2018-06-24T10:07:47Z</time>
      </trkpt>
      <trkpt lat="45.96668" lon="4.78382">
        <ele>205</ele>
        <time>2018-06-24T10:07:48Z</time>
      </trkpt>
      <trkpt lat="45.96663" lon="4.78378">
        <ele>202</ele>
        <time>2018-06-24T10:07:49Z</time>
      </trkpt>
      <trkpt lat="45.96658" lon="4.78374">
        <ele>202</ele>
        <time>2018-06-24T10:07:50Z</time>
      </trkpt>
      <trkpt lat="45.96653" lon="4.78369">
        <ele>202</ele>
        <time>2018-06-24T10:07:51Z</time>
      </trkpt>
      <trkpt lat="45.96647" lon="4.78363">
        <ele>202</ele>
        <time>2018-06-24T10:07:52Z</time>
      </trkpt>
      <trkpt lat="45.96642" lon="4.78357">
        <ele>202</ele>
        <time>2018-06-24T10:07:53Z</time>
      </trkpt>
      <trkpt lat="45.96637" lon="4.78352">
        <ele>202</ele>
        <time>2018-06-24T10:07:54Z</time>
      </trkpt>
      <trkpt lat="45.96632" lon="4.78347">
        <ele>202</ele>
        <time>2018-06-24T10:07:55Z</time>
      </trkpt>
      <trkpt lat="45.96626" lon="4.78342">
        <ele>201</ele>
        <time>2018-06-24T10:07:56Z</time>
      </trkpt>
      <trkpt lat="45.96621" lon="4.78337">
        <ele>201</ele>
        <time>2018-06-24T10:07:57Z</time>
      </trkpt>
      <trkpt lat="45.96616" lon="4.78332">
        <ele>204</ele>
        <time>2018-06-24T10:07:58Z</time>
      </trkpt>
      <trkpt lat="45.9661" lon="4.78327">
        <ele>204</ele>
        <time>2018-06-24T10:07:59Z</time>
      </trkpt>
      <trkpt lat="45.96604" lon="4.78322">
        <ele>203</ele>
        <time>2018-06-24T10:08:00Z</time>
      </trkpt>
      <trkpt lat="45.96599" lon="4.78317">
        <ele>203</ele>
        <time>2018-06-24T10:08:01Z</time>
      </trkpt>
      <trkpt lat="45.96594" lon="4.78311">
        <ele>203</ele>
        <time>2018-06-24T10:08:02Z</time>
      </trkpt>
      <trkpt lat="45.96589" lon="4.78305">
        <ele>204</ele>
        <time>2018-06-24T10:08:03Z</time>
      </trkpt>
      <trkpt lat="45.96582" lon="4.78301">
        <ele>200</ele>
        <time>2018-06-24T10:08:04Z</time>
      </trkpt>
      <trkpt lat="45.96577" lon="4.78296">
        <ele>200</ele>
        <time>2018-06-24T10:08:05Z</time>
      </trkpt>
      <trkpt lat="45.96571" lon="4.78291">
        <ele>200</ele>
        <time>2018-06-24T10:08:06Z</time>
      </trkpt>
      <trkpt lat="45.96567" lon="4.78285">
        <ele>201</ele>
        <time>2018-06-24T10:08:07Z</time>
      </trkpt>
      <trkpt lat="45.96562" lon="4.78278">
        <ele>201</ele>
        <time>2018-06-24T10:08:08Z</time>
      </trkpt>
      <trkpt lat="45.96558" lon="4.78272">
        <ele>201</ele>
        <time>2018-06-24T10:08:09Z</time>
      </trkpt>
      <trkpt lat="45.96554" lon="4.78265">
        <ele>201</ele>
        <time>2018-06-24T10:08:10Z</time>
      </trkpt>
      <trkpt lat="45.9655" lon="4.78259">
        <ele>201</ele>
        <time>2018-06-24T10:08:11Z</time>
      </trkpt>
      <trkpt lat="45.96545" lon="4.78252">
        <ele>201</ele>
        <time>2018-06-24T10:08:12Z</time>
      </trkpt>
      <trkpt lat="45.96541" lon="4.78244">
        <ele>205</ele>
        <time>2018-06-24T10:08:13Z</time>
      </trkpt>
      <trkpt lat="45.96536" lon="4.78237">
        <ele>205</ele>
        <time>2018-06-24T10:08:14Z</time>
      </trkpt>
      <trkpt lat="45.96531" lon="4.78229">
        <ele>205</ele>
        <time>2018-06-24T10:08:15Z</time>
      </trkpt>
      <trkpt lat="45.96528" lon="4.78221">
        <ele>205</ele>
        <time>2018-06-24T10:08:16Z</time>
      </trkpt>
      <trkpt lat="45.96524" lon="4.78213">
        <ele>206</ele>
        <time>2018-06-24T10:08:17Z</time>
      </trkpt>
      <trkpt lat="45.96519" lon="4.78207">
        <ele>206</ele>
        <time>2018-06-24T10:08:18Z</time>
      </trkpt>
      <trkpt lat="45.96515" lon="4.78201">
        <ele>206</ele>
        <time>2018-06-24T10:08:19Z</time>
      </trkpt>
      <trkpt lat="45.96511" lon="4.78197">
        <ele>206</ele>
        <time>2018-06-24T10:08:20Z</time>
      </trkpt>
      <trkpt lat="45.96505" lon="4.78192">
        <ele>206</ele>
        <time>2018-06-24T10:08:21Z</time>
      </trkpt>
      <trkpt lat="45.965" lon="4.78189">
        <ele>201</ele>
        <time>2018-06-24T10:08:22Z</time>
      </trkpt>
      <trkpt lat="45.96495" lon="4.78187">
        <ele>202</ele>
        <time>2018-06-24T10:08:23Z</time>
      </trkpt>
      <trkpt lat="45.96487" lon="4.78184">
        <ele>201</ele>
        <time>2018-06-24T10:08:24Z</time>
      </trkpt>
      <trkpt lat="45.96482" lon="4.78181">
        <ele>201</ele>
        <time>2018-06-24T10:08:25Z</time>
      </trkpt>
      <trkpt lat="45.96476" lon="4.78178">
        <ele>201</ele>
        <time>2018-06-24T10:08:26Z</time>
      </trkpt>
      <trkpt lat="45.96471" lon="4.78172">
        <ele>201</ele>
        <time>2018-06-24T10:08:27Z</time>
      </trkpt>
      <trkpt lat="45.96466" lon="4.78167">
        <ele>205</ele>
        <time>2018-06-24T10:08:28Z</time>
      </trkpt>
      <trkpt lat="45.9646" lon="4.78162">
        <ele>204</ele>
        <time>2018-06-24T10:08:29Z</time>
      </trkpt>
      <trkpt lat="45.96454" lon="4.78157">
        <ele>204</ele>
        <time>2018-06-24T10:08:30Z</time>
      </trkpt>
      <trkpt lat="45.96449" lon="4.78152">
        <ele>204</ele>
        <time>2018-06-24T10:08:31Z</time>
      </trkpt>
      <trkpt lat="45.96443" lon="4.78147">
        <ele>204</ele>
        <time>2018-06-24T10:08:32Z</time>
      </trkpt>
      <trkpt lat="45.96438" lon="4.78142">
        <ele>204</ele>
        <time>2018-06-24T10:08:33Z</time>
      </trkpt>
      <trkpt lat="45.96431" lon="4.78136">
        <ele>204</ele>
        <time>2018-06-24T10:08:34Z</time>
      </trkpt>
      <trkpt lat="45.96426" lon="4.78132">
        <ele>204</ele>
        <time>2018-06-24T10:08:35Z</time>
      </trkpt>
      <trkpt lat="45.9642" lon="4.78126">
        <ele>204</ele>
        <time>2018-06-24T10:08:36Z</time>
      </trkpt>
      <trkpt lat="45.96415" lon="4.78121">
        <ele>200</ele>
        <time>2018-06-24T10:08:37Z</time>
      </trkpt>
      <trkpt lat="45.9641" lon="4.78117">
        <ele>200</ele>
        <time>2018-06-24T10:08:38Z</time>
      </trkpt>
      <trkpt lat="45.96406" lon="4.78113">
        <ele>200</ele>
        <time>2018-06-24T10:08:39Z</time>
      </trkpt>
      <trkpt lat="45.964" lon="4.78109">
        <ele>200</ele>
        <time>2018-06-24T10:08:40Z</time>
      </trkpt>
      <trkpt lat="45.96396" lon="4.78104">
        <ele>200</ele>
        <time>2018-06-24T10:08:41Z</time>
      </trkpt>
      <trkpt lat="45.96392" lon="4.781">
        <ele>200</ele>
        <time>2018-06-24T10:08:42Z</time>
      </trkpt>
      <trkpt lat="45.96387" lon="4.78095">
        <ele>200</ele>
        <time>2018-06-24T10:08:43Z</time>
      </trkpt>
      <trkpt lat="45.9638" lon="4.7809">
        <ele>200</ele>
        <time>2018-06-24T10:08:44Z</time>
      </trkpt>
      <trkpt lat="45.96375" lon="4.78086">
        <ele>200</ele>
        <time>2018-06-24T10:08:45Z</time>
      </trkpt>
      <trkpt lat="45.96371" lon="4.78081">
        <ele>203</ele>
        <time>2018-06-24T10:08:46Z</time>
      </trkpt>
      <trkpt lat="45.96367" lon="4.78075">
        <ele>203</ele>
        <time>2018-06-24T10:08:47Z</time>
      </trkpt>
      <trkpt lat="45.96363" lon="4.7807">
        <ele>202</ele>
        <time>2018-06-24T10:08:48Z</time>
      </trkpt>
      <trkpt lat="45.96358" lon="4.78064">
        <ele>202</ele>
        <time>2018-06-24T10:08:49Z</time>
      </trkpt>
      <trkpt lat="45.96353" lon="4.78059">
        <ele>202</ele>
        <time>2018-06-24T10:08:50Z</time>
      </trkpt>
      <trkpt lat="45.96348" lon="4.78053">
        <ele>203</ele>
        <time>2018-06-24T10:08:51Z</time>
      </trkpt>
      <trkpt lat="45.96344" lon="4.78048">
        <ele>203</ele>
        <time>2018-06-24T10:08:52Z</time>
      </trkpt>
      <trkpt lat="45.96339" lon="4.78041">
        <ele>203</ele>
        <time>2018-06-24T10:08:53Z</time>
      </trkpt>
      <trkpt lat="45.96334" lon="4.78036">
        <ele>203</ele>
        <time>2018-06-24T10:08:54Z</time>
      </trkpt>
      <trkpt lat="45.96329" lon="4.7803">
        <ele>200</ele>
        <time>2018-06-24T10:08:55Z</time>
      </trkpt>
      <trkpt lat="45.96325" lon="4.78025">
        <ele>201</ele>
        <time>2018-06-24T10:08:56Z</time>
      </trkpt>
      <trkpt lat="45.96319" lon="4.78019">
        <ele>201</ele>
        <time>2018-06-24T10:08:57Z</time>
      </trkpt>
      <trkpt lat="45.96314" lon="4.78014">
        <ele>201</ele>
        <time>2018-06-24T10:08:58Z</time>
      </trkpt>
      <trkpt lat="45.96308" lon="4.78009">
        <ele>200</ele>
        <time>2018-06-24T10:08:59Z</time>
      </trkpt>
      <trkpt lat="45.96303" lon="4.78003">
        <ele>200</ele>
        <time>2018-06-24T10:09:00Z</time>
      </trkpt>
      <trkpt lat="45.96296" lon="4.77998">
        <ele>204</ele>
        <time>2018-06-24T10:09:01Z</time>
      </trkpt>
      <trkpt lat="45.96291" lon="4.77993">
        <ele>204</ele>
        <time>2018-06-24T10:09:02Z</time>
      </trkpt>
      <trkpt lat="45.96286" lon="4.77989">
        <ele>204</ele>
        <time>2018-06-24T10:09:03Z</time>
      </trkpt>
      <trkpt lat="45.9628" lon="4.77985">
        <ele>204</ele>
        <time>2018-06-24T10:09:04Z</time>
      </trkpt>
      <trkpt lat="45.96274" lon="4.7798">
        <ele>203</ele>
        <time>2018-06-24T10:09:05Z</time>
      </trkpt>
      <trkpt lat="45.96268" lon="4.77974">
        <ele>204</ele>
        <time>2018-06-24T10:09:06Z</time>
      </trkpt>
      <trkpt lat="45.96266" lon="4.77971">
        <ele>204</ele>
        <time>2018-06-24T10:09:07Z</time>
      </trkpt>
      <trkpt lat="45.9626" lon="4.77966">
        <ele>204</ele>
        <time>2018-06-24T10:09:08Z</time>
      </trkpt>
      <trkpt lat="45.96256" lon="4.77961">
        <ele>204</ele>
        <time>2018-06-24T10:09:09Z</time>
      </trkpt>
      <trkpt lat="45.96249" lon="4.77956">
        <ele>200</ele>
        <time>2018-06-24T10:09:10Z</time>
      </trkpt>
      <trkpt lat="45.96244" lon="4.77951">
        <ele>200</ele>
        <time>2018-06-24T10:09:11Z</time>
      </trkpt>
      <trkpt lat="45.9624" lon="4.77947">
        <ele>200</ele>
        <time>2018-06-24T10:09:12Z</time>
      </trkpt>
      <trkpt lat="45.96235" lon="4.77943">
        <ele>200</ele>
        <time>2018-06-24T10:09:13Z</time>
      </trkpt>
      <trkpt lat="45.96231" lon="4.77936">
        <ele>201</ele>
        <time>2018-06-24T10:09:14Z</time>
      </trkpt>
      <trkpt lat="45.96223" lon="4.77931">
        <ele>200</ele>
        <time>2018-06-24T10:09:15Z</time>
      </trkpt>
      <trkpt lat="45.96218" lon="4.77923">
        <ele>200</ele>
        <time>2018-06-24T10:09:16Z</time>
      </trkpt>
      <trkpt lat="45.96214" lon="4.77917">
        <ele>203</ele>
        <time>2018-06-24T10:09:17Z</time>
      </trkpt>
      <trkpt lat="45.96209" lon="4.7791">
        <ele>202</ele>
        <time>2018-06-24T10:09:18Z</time>
      </trkpt>
      <trkpt lat="45.96206" lon="4.77903">
        <ele>202</ele>
        <time>2018-06-24T10:09:19Z</time>
      </trkpt>
      <trkpt lat="45.96201" lon="4.77896">
        <ele>202</ele>
        <time>2018-06-24T10:09:20Z</time>
      </trkpt>
      <trkpt lat="45.96197" lon="4.7789">
        <ele>202</ele>
        <time>2018-06-24T10:09:21Z</time>
      </trkpt>
      <trkpt lat="45.96193" lon="4.77883">
        <ele>202</ele>
        <time>2018-06-24T10:09:22Z</time>
      </trkpt>
      <trkpt lat="45.9619" lon="4.77876">
        <ele>202</ele>
        <time>2018-06-24T10:09:23Z</time>
      </trkpt>
      <trkpt lat="45.96186" lon="4.7787">
        <ele>202</ele>
        <time>2018-06-24T10:09:24Z</time>
      </trkpt>
      <trkpt lat="45.96182" lon="4.77863">
        <ele>201</ele>
        <time>2018-06-24T10:09:25Z</time>
      </trkpt>
      <trkpt lat="45.96178" lon="4.77857">
        <ele>201</ele>
        <time>2018-06-24T10:09:26Z</time>
      </trkpt>
      <trkpt lat="45.96175" lon="4.77851">
        <ele>201</ele>
        <time>2018-06-24T10:09:27Z</time>
      </trkpt>
      <trkpt lat="45.96171" lon="4.77845">
        <ele>200</ele>
        <time>2018-06-24T10:09:28Z</time>
      </trkpt>
      <trkpt lat="45.96168" lon="4.77839">
        <ele>200</ele>
        <time>2018-06-24T10:09:29Z</time>
      </trkpt>
      <trkpt lat="45.96165" lon="4.77834">
        <ele>199</ele>
        <time>2018-06-24T10:09:30Z</time>
      </trkpt>
      <trkpt lat="45.96161" lon="4.77828">
        <ele>199</ele>
        <time>2018-06-24T10:09:31Z</time>
      </trkpt>
      <trkpt lat="45.96157" lon="4.77822">
        <ele>198</ele>
        <time>2018-06-24T10:09:32Z</time>
      </trkpt>
      <trkpt lat="45.96153" lon="4.77815">
        <ele>198</ele>
        <time>2018-06-24T10:09:33Z</time>
      </trkpt>
      <trkpt lat="45.96149" lon="4.77808">
        <ele>198</ele>
        <time>2018-06-24T10:09:34Z</time>
      </trkpt>
      <trkpt lat="45.96144" lon="4.77802">
        <ele>198</ele>
        <time>2018-06-24T10:09:35Z</time>
      </trkpt>
      <trkpt lat="45.9614" lon="4.77796">
        <ele>198</ele>
        <time>2018-06-24T10:09:36Z</time>
      </trkpt>
      <trkpt lat="45.96137" lon="4.7779">
        <ele>198</ele>
        <time>2018-06-24T10:09:37Z</time>
      </trkpt>
      <trkpt lat="45.96133" lon="4.77783">
        <ele>198</ele>
        <time>2018-06-24T10:09:38Z</time>
      </trkpt>
      <trkpt lat="45.96129" lon="4.77777">
        <ele>198</ele>
        <time>2018-06-24T10:09:39Z</time>
      </trkpt>
      <trkpt lat="45.96125" lon="4.77771">
        <ele>198</ele>
        <time>2018-06-24T10:09:40Z</time>
      </trkpt>
      <trkpt lat="45.96121" lon="4.77765">
        <ele>197</ele>
        <time>2018-06-24T10:09:41Z</time>
      </trkpt>
      <trkpt lat="45.96116" lon="4.77758">
        <ele>197</ele>
        <time>2018-06-24T10:09:42Z</time>
      </trkpt>
      <trkpt lat="45.96113" lon="4.77751">
        <ele>197</ele>
        <time>2018-06-24T10:09:43Z</time>
      </trkpt>
      <trkpt lat="45.96109" lon="4.77744">
        <ele>199</ele>
        <time>2018-06-24T10:09:44Z</time>
      </trkpt>
      <trkpt lat="45.96104" lon="4.77737">
        <ele>199</ele>
        <time>2018-06-24T10:09:45Z</time>
      </trkpt>
      <trkpt lat="45.961" lon="4.7773">
        <ele>199</ele>
        <time>2018-06-24T10:09:46Z</time>
      </trkpt>
      <trkpt lat="45.96096" lon="4.77722">
        <ele>199</ele>
        <time>2018-06-24T10:09:47Z</time>
      </trkpt>
      <trkpt lat="45.96091" lon="4.77715">
        <ele>199</ele>
        <time>2018-06-24T10:09:48Z</time>
      </trkpt>
      <trkpt lat="45.96086" lon="4.77708">
        <ele>200</ele>
        <time>2018-06-24T10:09:49Z</time>
      </trkpt>
      <trkpt lat="45.96081" lon="4.777">
        <ele>197</ele>
        <time>2018-06-24T10:09:50Z</time>
      </trkpt>
      <trkpt lat="45.96077" lon="4.77693">
        <ele>197</ele>
        <time>2018-06-24T10:09:51Z</time>
      </trkpt>
      <trkpt lat="45.96072" lon="4.77687">
        <ele>198</ele>
        <time>2018-06-24T10:09:52Z</time>
      </trkpt>
      <trkpt lat="45.96068" lon="4.7768">
        <ele>198</ele>
        <time>2018-06-24T10:09:53Z</time>
      </trkpt>
      <trkpt lat="45.96063" lon="4.77674">
        <ele>198</ele>
        <time>2018-06-24T10:09:54Z</time>
      </trkpt>
      <trkpt lat="45.96058" lon="4.77666">
        <ele>200</ele>
        <time>2018-06-24T10:09:55Z</time>
      </trkpt>
      <trkpt lat="45.96053" lon="4.7766">
        <ele>200</ele>
        <time>2018-06-24T10:09:56Z</time>
      </trkpt>
      <trkpt lat="45.96048" lon="4.77654">
        <ele>200</ele>
        <time>2018-06-24T10:09:57Z</time>
      </trkpt>
      <trkpt lat="45.96043" lon="4.77647">
        <ele>199</ele>
        <time>2018-06-24T10:09:58Z</time>
      </trkpt>
      <trkpt lat="45.96039" lon="4.77641">
        <ele>199</ele>
        <time>2018-06-24T10:09:59Z</time>
      </trkpt>
      <trkpt lat="45.96033" lon="4.77635">
        <ele>199</ele>
        <time>2018-06-24T10:10:00Z</time>
      </trkpt>
      <trkpt lat="45.96028" lon="4.77628">
        <ele>199</ele>
        <time>2018-06-24T10:10:01Z</time>
      </trkpt>
      <trkpt lat="45.96023" lon="4.77622">
        <ele>199</ele>
        <time>2018-06-24T10:10:02Z</time>
      </trkpt>
      <trkpt lat="45.96017" lon="4.77616">
        <ele>199</ele>
        <time>2018-06-24T10:10:03Z</time>
      </trkpt>
      <trkpt lat="45.96013" lon="4.7761">
        <ele>199</ele>
        <time>2018-06-24T10:10:04Z</time>
      </trkpt>
      <trkpt lat="45.96009" lon="4.77604">
        <ele>199</ele>
        <time>2018-06-24T10:10:05Z</time>
      </trkpt>
      <trkpt lat="45.96004" lon="4.77599">
        <ele>198</ele>
        <time>2018-06-24T10:10:06Z</time>
      </trkpt>
      <trkpt lat="45.96" lon="4.77595">
        <ele>198</ele>
        <time>2018-06-24T10:10:07Z</time>
      </trkpt>
      <trkpt lat="45.95995" lon="4.77589">
        <ele>196</ele>
        <time>2018-06-24T10:10:08Z</time>
      </trkpt>
      <trkpt lat="45.95993" lon="4.77582">
        <ele>196</ele>
        <time>2018-06-24T10:10:09Z</time>
      </trkpt>
      <trkpt lat="45.95989" lon="4.77576">
        <ele>196</ele>
        <time>2018-06-24T10:10:10Z</time>
      </trkpt>
      <trkpt lat="45.95987" lon="4.77569">
        <ele>196</ele>
        <time>2018-06-24T10:10:11Z</time>
      </trkpt>
      <trkpt lat="45.95984" lon="4.77563">
        <ele>196</ele>
        <time>2018-06-24T10:10:12Z</time>
      </trkpt>
      <trkpt lat="45.9598" lon="4.77556">
        <ele>196</ele>
        <time>2018-06-24T10:10:13Z</time>
      </trkpt>
      <trkpt lat="45.95977" lon="4.77551">
        <ele>195</ele>
        <time>2018-06-24T10:10:14Z</time>
      </trkpt>
      <trkpt lat="45.95974" lon="4.77544">
        <ele>195</ele>
        <time>2018-06-24T10:10:15Z</time>
      </trkpt>
      <trkpt lat="45.95969" lon="4.77539">
        <ele>195</ele>
        <time>2018-06-24T10:10:16Z</time>
      </trkpt>
      <trkpt lat="45.95967" lon="4.77532">
        <ele>195</ele>
        <time>2018-06-24T10:10:17Z</time>
      </trkpt>
      <trkpt lat="45.95965" lon="4.77526">
        <ele>195</ele>
        <time>2018-06-24T10:10:18Z</time>
      </trkpt>
      <trkpt lat="45.95961" lon="4.77519">
        <ele>195</ele>
        <time>2018-06-24T10:10:19Z</time>
      </trkpt>
      <trkpt lat="45.95958" lon="4.77512">
        <ele>195</ele>
        <time>2018-06-24T10:10:20Z</time>
      </trkpt>
      <trkpt lat="45.95955" lon="4.77504">
        <ele>195</ele>
        <time>2018-06-24T10:10:21Z</time>
      </trkpt>
      <trkpt lat="45.95952" lon="4.77495">
        <ele>195</ele>
        <time>2018-06-24T10:10:22Z</time>
      </trkpt>
      <trkpt lat="45.95949" lon="4.77487">
        <ele>195</ele>
        <time>2018-06-24T10:10:23Z</time>
      </trkpt>
      <trkpt lat="45.95946" lon="4.77478">
        <ele>195</ele>
        <time>2018-06-24T10:10:24Z</time>
      </trkpt>
      <trkpt lat="45.95943" lon="4.77468">
        <ele>195</ele>
        <time>2018-06-24T10:10:25Z</time>
      </trkpt>
      <trkpt lat="45.95941" lon="4.77458">
        <ele>195</ele>
        <time>2018-06-24T10:10:26Z</time>
      </trkpt>
      <trkpt lat="45.95937" lon="4.77448">
        <ele>195</ele>
        <time>2018-06-24T10:10:27Z</time>
      </trkpt>
      <trkpt lat="45.95934" lon="4.77439">
        <ele>195</ele>
        <time>2018-06-24T10:10:28Z</time>
      </trkpt>
      <trkpt lat="45.95933" lon="4.77429">
        <ele>195</ele>
        <time>2018-06-24T10:10:29Z</time>
      </trkpt>
      <trkpt lat="45.95927" lon="4.7742">
        <ele>195</ele>
        <time>2018-06-24T10:10:30Z</time>
      </trkpt>
      <trkpt lat="45.95924" lon="4.77411">
        <ele>195</ele>
        <time>2018-06-24T10:10:31Z</time>
      </trkpt>
      <trkpt lat="45.9592" lon="4.77402">
        <ele>195</ele>
        <time>2018-06-24T10:10:32Z</time>
      </trkpt>
      <trkpt lat="45.95917" lon="4.77392">
        <ele>196</ele>
        <time>2018-06-24T10:10:33Z</time>
      </trkpt>
      <trkpt lat="45.95914" lon="4.77384">
        <ele>193</ele>
        <time>2018-06-24T10:10:34Z</time>
      </trkpt>
      <trkpt lat="45.9591" lon="4.77376">
        <ele>193</ele>
        <time>2018-06-24T10:10:35Z</time>
      </trkpt>
      <trkpt lat="45.95907" lon="4.77368">
        <ele>193</ele>
        <time>2018-06-24T10:10:36Z</time>
      </trkpt>
      <trkpt lat="45.95905" lon="4.77359">
        <ele>193</ele>
        <time>2018-06-24T10:10:37Z</time>
      </trkpt>
      <trkpt lat="45.95903" lon="4.77352">
        <ele>193</ele>
        <time>2018-06-24T10:10:38Z</time>
      </trkpt>
      <trkpt lat="45.959" lon="4.77344">
        <ele>193</ele>
        <time>2018-06-24T10:10:39Z</time>
      </trkpt>
      <trkpt lat="45.95898" lon="4.77335">
        <ele>193</ele>
        <time>2018-06-24T10:10:40Z</time>
      </trkpt>
      <trkpt lat="45.95895" lon="4.77326">
        <ele>193</ele>
        <time>2018-06-24T10:10:41Z</time>
      </trkpt>
      <trkpt lat="45.95891" lon="4.77316">
        <ele>193</ele>
        <time>2018-06-24T10:10:42Z</time>
      </trkpt>
      <trkpt lat="45.95889" lon="4.77307">
        <ele>193</ele>
        <time>2018-06-24T10:10:43Z</time>
      </trkpt>
      <trkpt lat="45.95886" lon="4.77298">
        <ele>193</ele>
        <time>2018-06-24T10:10:44Z</time>
      </trkpt>
      <trkpt lat="45.95884" lon="4.77287">
        <ele>193</ele>
        <time>2018-06-24T10:10:45Z</time>
      </trkpt>
      <trkpt lat="45.95881" lon="4.77277">
        <ele>193</ele>
        <time>2018-06-24T10:10:46Z</time>
      </trkpt>
      <trkpt lat="45.95877" lon="4.77267">
        <ele>193</ele>
        <time>2018-06-24T10:10:47Z</time>
      </trkpt>
      <trkpt lat="45.95874" lon="4.77258">
        <ele>193</ele>
        <time>2018-06-24T10:10:48Z</time>
      </trkpt>
      <trkpt lat="45.95874" lon="4.77248">
        <ele>193</ele>
        <time>2018-06-24T10:10:49Z</time>
      </trkpt>
      <trkpt lat="45.95871" lon="4.77239">
        <ele>193</ele>
        <time>2018-06-24T10:10:50Z</time>
      </trkpt>
      <trkpt lat="45.9587" lon="4.77229">
        <ele>193</ele>
        <time>2018-06-24T10:10:51Z</time>
      </trkpt>
      <trkpt lat="45.95868" lon="4.7722">
        <ele>193</ele>
        <time>2018-06-24T10:10:52Z</time>
      </trkpt>
      <trkpt lat="45.95864" lon="4.77211">
        <ele>193</ele>
        <time>2018-06-24T10:10:53Z</time>
      </trkpt>
      <trkpt lat="45.95862" lon="4.77202">
        <ele>192</ele>
        <time>2018-06-24T10:10:54Z</time>
      </trkpt>
      <trkpt lat="45.95858" lon="4.77193">
        <ele>192</ele>
        <time>2018-06-24T10:10:55Z</time>
      </trkpt>
      <trkpt lat="45.95856" lon="4.77184">
        <ele>192</ele>
        <time>2018-06-24T10:10:56Z</time>
      </trkpt>
      <trkpt lat="45.95853" lon="4.77174">
        <ele>192</ele>
        <time>2018-06-24T10:10:57Z</time>
      </trkpt>
      <trkpt lat="45.95853" lon="4.77166">
        <ele>192</ele>
        <time>2018-06-24T10:10:58Z</time>
      </trkpt>
      <trkpt lat="45.95851" lon="4.77157">
        <ele>192</ele>
        <time>2018-06-24T10:10:59Z</time>
      </trkpt>
      <trkpt lat="45.9585" lon="4.77148">
        <ele>192</ele>
        <time>2018-06-24T10:11:00Z</time>
      </trkpt>
      <trkpt lat="45.95847" lon="4.77138">
        <ele>193</ele>
        <time>2018-06-24T10:11:01Z</time>
      </trkpt>
      <trkpt lat="45.95845" lon="4.77129">
        <ele>193</ele>
        <time>2018-06-24T10:11:02Z</time>
      </trkpt>
      <trkpt lat="45.95843" lon="4.77119">
        <ele>193</ele>
        <time>2018-06-24T10:11:03Z</time>
      </trkpt>
      <trkpt lat="45.9584" lon="4.77109">
        <ele>193</ele>
        <time>2018-06-24T10:11:04Z</time>
      </trkpt>
      <trkpt lat="45.95839" lon="4.77102">
        <ele>193</ele>
        <time>2018-06-24T10:11:05Z</time>
      </trkpt>
      <trkpt lat="45.95836" lon="4.77093">
        <ele>193</ele>
        <time>2018-06-24T10:11:06Z</time>
      </trkpt>
      <trkpt lat="45.95832" lon="4.77083">
        <ele>192</ele>
        <time>2018-06-24T10:11:07Z</time>
      </trkpt>
      <trkpt lat="45.95829" lon="4.77075">
        <ele>191</ele>
        <time>2018-06-24T10:11:08Z</time>
      </trkpt>
      <trkpt lat="45.95825" lon="4.77067">
        <ele>191</ele>
        <time>2018-06-24T10:11:09Z</time>
      </trkpt>
      <trkpt lat="45.95823" lon="4.77059">
        <ele>190</ele>
        <time>2018-06-24T10:11:10Z</time>
      </trkpt>
      <trkpt lat="45.95818" lon="4.77052">
        <ele>190</ele>
        <time>2018-06-24T10:11:11Z</time>
      </trkpt>
      <trkpt lat="45.95815" lon="4.77044">
        <ele>190</ele>
        <time>2018-06-24T10:11:12Z</time>
      </trkpt>
      <trkpt lat="45.95812" lon="4.77037">
        <ele>190</ele>
        <time>2018-06-24T10:11:13Z</time>
      </trkpt>
      <trkpt lat="45.95808" lon="4.77029">
        <ele>190</ele>
        <time>2018-06-24T10:11:14Z</time>
      </trkpt>
      <trkpt lat="45.95807" lon="4.77021">
        <ele>190</ele>
        <time>2018-06-24T10:11:15Z</time>
      </trkpt>
      <trkpt lat="45.95804" lon="4.77013">
        <ele>190</ele>
        <time>2018-06-24T10:11:16Z</time>
      </trkpt>
      <trkpt lat="45.95801" lon="4.77006">
        <ele>190</ele>
        <time>2018-06-24T10:11:17Z</time>
      </trkpt>
      <trkpt lat="45.958" lon="4.76997">
        <ele>189</ele>
        <time>2018-06-24T10:11:18Z</time>
      </trkpt>
      <trkpt lat="45.95803" lon="4.76987">
        <ele>189</ele>
        <time>2018-06-24T10:11:19Z</time>
      </trkpt>
      <trkpt lat="45.95803" lon="4.76978">
        <ele>189</ele>
        <time>2018-06-24T10:11:20Z</time>
      </trkpt>
      <trkpt lat="45.95805" lon="4.76969">
        <ele>189</ele>
        <time>2018-06-24T10:11:21Z</time>
      </trkpt>
      <trkpt lat="45.95807" lon="4.7696">
        <ele>189</ele>
        <time>2018-06-24T10:11:22Z</time>
      </trkpt>
      <trkpt lat="45.95808" lon="4.7695">
        <ele>189</ele>
        <time>2018-06-24T10:11:23Z</time>
      </trkpt>
      <trkpt lat="45.9581" lon="4.76941">
        <ele>189</ele>
        <time>2018-06-24T10:11:24Z</time>
      </trkpt>
      <trkpt lat="45.95811" lon="4.76932">
        <ele>189</ele>
        <time>2018-06-24T10:11:25Z</time>
      </trkpt>
      <trkpt lat="45.95814" lon="4.76923">
        <ele>189</ele>
        <time>2018-06-24T10:11:26Z</time>
      </trkpt>
      <trkpt lat="45.95815" lon="4.76914">
        <ele>189</ele>
        <time>2018-06-24T10:11:27Z</time>
      </trkpt>
      <trkpt lat="45.95817" lon="4.76905">
        <ele>189</ele>
        <time>2018-06-24T10:11:28Z</time>
      </trkpt>
      <trkpt lat="45.95819" lon="4.76896">
        <ele>189</ele>
        <time>2018-06-24T10:11:29Z</time>
      </trkpt>
      <trkpt lat="45.95821" lon="4.76888">
        <ele>189</ele>
        <time>2018-06-24T10:11:30Z</time>
      </trkpt>
      <trkpt lat="45.95822" lon="4.76879">
        <ele>189</ele>
        <time>2018-06-24T10:11:31Z</time>
      </trkpt>
      <trkpt lat="45.95824" lon="4.76871">
        <ele>189</ele>
        <time>2018-06-24T10:11:32Z</time>
      </trkpt>
      <trkpt lat="45.95826" lon="4.76863">
        <ele>189</ele>
        <time>2018-06-24T10:11:33Z</time>
      </trkpt>
      <trkpt lat="45.95827" lon="4.76855">
        <ele>189</ele>
        <time>2018-06-24T10:11:34Z</time>
      </trkpt>
      <trkpt lat="45.95829" lon="4.76847">
        <ele>190</ele>
        <time>2018-06-24T10:11:35Z</time>
      </trkpt>
      <trkpt lat="45.9583" lon="4.76841">
        <ele>190</ele>
        <time>2018-06-24T10:11:36Z</time>
      </trkpt>
      <trkpt lat="45.95831" lon="4.76833">
        <ele>190</ele>
        <time>2018-06-24T10:11:37Z</time>
      </trkpt>
      <trkpt lat="45.95832" lon="4.76827">
        <ele>190</ele>
        <time>2018-06-24T10:11:38Z</time>
      </trkpt>
      <trkpt lat="45.95834" lon="4.76821">
        <ele>190</ele>
        <time>2018-06-24T10:11:39Z</time>
      </trkpt>
      <trkpt lat="45.95835" lon="4.76808">
        <ele>190</ele>
        <time>2018-06-24T10:11:41Z</time>
      </trkpt>
      <trkpt lat="45.95836" lon="4.76802">
        <ele>191</ele>
        <time>2018-06-24T10:11:42Z</time>
      </trkpt>
      <trkpt lat="45.95837" lon="4.76795">
        <ele>191</ele>
        <time>2018-06-24T10:11:43Z</time>
      </trkpt>
      <trkpt lat="45.95838" lon="4.76789">
        <ele>191</ele>
        <time>2018-06-24T10:11:44Z</time>
      </trkpt>
      <trkpt lat="45.95836" lon="4.76783">
        <ele>191</ele>
        <time>2018-06-24T10:11:45Z</time>
      </trkpt>
      <trkpt lat="45.95835" lon="4.76776">
        <ele>191</ele>
        <time>2018-06-24T10:11:46Z</time>
      </trkpt>
      <trkpt lat="45.95833" lon="4.76769">
        <ele>190</ele>
        <time>2018-06-24T10:11:47Z</time>
      </trkpt>
      <trkpt lat="45.95831" lon="4.76762">
        <ele>191</ele>
        <time>2018-06-24T10:11:48Z</time>
      </trkpt>
      <trkpt lat="45.95828" lon="4.76754">
        <ele>191</ele>
        <time>2018-06-24T10:11:49Z</time>
      </trkpt>
      <trkpt lat="45.95826" lon="4.76745">
        <ele>190</ele>
        <time>2018-06-24T10:11:50Z</time>
      </trkpt>
      <trkpt lat="45.95824" lon="4.76736">
        <ele>190</ele>
        <time>2018-06-24T10:11:51Z</time>
      </trkpt>
      <trkpt lat="45.95823" lon="4.76727">
        <ele>190</ele>
        <time>2018-06-24T10:11:52Z</time>
      </trkpt>
      <trkpt lat="45.95821" lon="4.76718">
        <ele>189</ele>
        <time>2018-06-24T10:11:53Z</time>
      </trkpt>
      <trkpt lat="45.9582" lon="4.76708">
        <ele>189</ele>
        <time>2018-06-24T10:11:54Z</time>
      </trkpt>
      <trkpt lat="45.95819" lon="4.76699">
        <ele>189</ele>
        <time>2018-06-24T10:11:55Z</time>
      </trkpt>
      <trkpt lat="45.95817" lon="4.76691">
        <ele>189</ele>
        <time>2018-06-24T10:11:56Z</time>
      </trkpt>
      <trkpt lat="45.95815" lon="4.76683">
        <ele>189</ele>
        <time>2018-06-24T10:11:57Z</time>
      </trkpt>
      <trkpt lat="45.95814" lon="4.76675">
        <ele>189</ele>
        <time>2018-06-24T10:11:58Z</time>
      </trkpt>
      <trkpt lat="45.95813" lon="4.76667">
        <ele>189</ele>
        <time>2018-06-24T10:11:59Z</time>
      </trkpt>
      <trkpt lat="45.95813" lon="4.76659">
        <ele>188</ele>
        <time>2018-06-24T10:12:00Z</time>
      </trkpt>
      <trkpt lat="45.95811" lon="4.76651">
        <ele>188</ele>
        <time>2018-06-24T10:12:01Z</time>
      </trkpt>
      <trkpt lat="45.9581" lon="4.76644">
        <ele>188</ele>
        <time>2018-06-24T10:12:02Z</time>
      </trkpt>
      <trkpt lat="45.95809" lon="4.76637">
        <ele>188</ele>
        <time>2018-06-24T10:12:03Z</time>
      </trkpt>
      <trkpt lat="45.95807" lon="4.7663">
        <ele>188</ele>
        <time>2018-06-24T10:12:04Z</time>
      </trkpt>
      <trkpt lat="45.95807" lon="4.76624">
        <ele>188</ele>
        <time>2018-06-24T10:12:05Z</time>
      </trkpt>
      <trkpt lat="45.95807" lon="4.76616">
        <ele>188</ele>
        <time>2018-06-24T10:12:06Z</time>
      </trkpt>
      <trkpt lat="45.95806" lon="4.76609">
        <ele>188</ele>
        <time>2018-06-24T10:12:07Z</time>
      </trkpt>
      <trkpt lat="45.95805" lon="4.76602">
        <ele>188</ele>
        <time>2018-06-24T10:12:08Z</time>
      </trkpt>
      <trkpt lat="45.95805" lon="4.76592">
        <ele>188</ele>
        <time>2018-06-24T10:12:09Z</time>
      </trkpt>
      <trkpt lat="45.95803" lon="4.76584">
        <ele>187</ele>
        <time>2018-06-24T10:12:10Z</time>
      </trkpt>
      <trkpt lat="45.95803" lon="4.76576">
        <ele>187</ele>
        <time>2018-06-24T10:12:11Z</time>
      </trkpt>
      <trkpt lat="45.95801" lon="4.76567">
        <ele>187</ele>
        <time>2018-06-24T10:12:12Z</time>
      </trkpt>
      <trkpt lat="45.95799" lon="4.76558">
        <ele>187</ele>
        <time>2018-06-24T10:12:13Z</time>
      </trkpt>
      <trkpt lat="45.95798" lon="4.76549">
        <ele>187</ele>
        <time>2018-06-24T10:12:14Z</time>
      </trkpt>
      <trkpt lat="45.95796" lon="4.7654">
        <ele>187</ele>
        <time>2018-06-24T10:12:15Z</time>
      </trkpt>
      <trkpt lat="45.95795" lon="4.76531">
        <ele>187</ele>
        <time>2018-06-24T10:12:16Z</time>
      </trkpt>
      <trkpt lat="45.95795" lon="4.76524">
        <ele>187</ele>
        <time>2018-06-24T10:12:17Z</time>
      </trkpt>
      <trkpt lat="45.95793" lon="4.76516">
        <ele>187</ele>
        <time>2018-06-24T10:12:18Z</time>
      </trkpt>
      <trkpt lat="45.95791" lon="4.76507">
        <ele>187</ele>
        <time>2018-06-24T10:12:19Z</time>
      </trkpt>
      <trkpt lat="45.9579" lon="4.765">
        <ele>186</ele>
        <time>2018-06-24T10:12:20Z</time>
      </trkpt>
      <trkpt lat="45.95788" lon="4.76493">
        <ele>186</ele>
        <time>2018-06-24T10:12:21Z</time>
      </trkpt>
      <trkpt lat="45.95788" lon="4.76486">
        <ele>186</ele>
        <time>2018-06-24T10:12:22Z</time>
      </trkpt>
      <trkpt lat="45.95786" lon="4.76478">
        <ele>186</ele>
        <time>2018-06-24T10:12:23Z</time>
      </trkpt>
      <trkpt lat="45.95785" lon="4.76471">
        <ele>186</ele>
        <time>2018-06-24T10:12:24Z</time>
      </trkpt>
      <trkpt lat="45.95785" lon="4.76463">
        <ele>186</ele>
        <time>2018-06-24T10:12:25Z</time>
      </trkpt>
      <trkpt lat="45.95783" lon="4.76455">
        <ele>186</ele>
        <time>2018-06-24T10:12:26Z</time>
      </trkpt>
      <trkpt lat="45.95782" lon="4.76447">
        <ele>186</ele>
        <time>2018-06-24T10:12:27Z</time>
      </trkpt>
      <trkpt lat="45.95782" lon="4.76439">
        <ele>186</ele>
        <time>2018-06-24T10:12:28Z</time>
      </trkpt>
      <trkpt lat="45.9578" lon="4.76429">
        <ele>186</ele>
        <time>2018-06-24T10:12:29Z</time>
      </trkpt>
      <trkpt lat="45.95779" lon="4.76421">
        <ele>186</ele>
        <time>2018-06-24T10:12:30Z</time>
      </trkpt>
      <trkpt lat="45.95778" lon="4.76413">
        <ele>186</ele>
        <time>2018-06-24T10:12:31Z</time>
      </trkpt>
      <trkpt lat="45.95777" lon="4.76404">
        <ele>186</ele>
        <time>2018-06-24T10:12:32Z</time>
      </trkpt>
      <trkpt lat="45.95777" lon="4.76395">
        <ele>186</ele>
        <time>2018-06-24T10:12:33Z</time>
      </trkpt>
      <trkpt lat="45.95776" lon="4.76387">
        <ele>186</ele>
        <time>2018-06-24T10:12:34Z</time>
      </trkpt>
      <trkpt lat="45.95776" lon="4.76379">
        <ele>186</ele>
        <time>2018-06-24T10:12:35Z</time>
      </trkpt>
      <trkpt lat="45.95776" lon="4.76371">
        <ele>186</ele>
        <time>2018-06-24T10:12:36Z</time>
      </trkpt>
      <trkpt lat="45.95775" lon="4.76362">
        <ele>186</ele>
        <time>2018-06-24T10:12:37Z</time>
      </trkpt>
      <trkpt lat="45.95777" lon="4.76354">
        <ele>186</ele>
        <time>2018-06-24T10:12:38Z</time>
      </trkpt>
      <trkpt lat="45.95776" lon="4.76346">
        <ele>186</ele>
        <time>2018-06-24T10:12:39Z</time>
      </trkpt>
      <trkpt lat="45.95776" lon="4.76336">
        <ele>186</ele>
        <time>2018-06-24T10:12:40Z</time>
      </trkpt>
      <trkpt lat="45.95775" lon="4.76327">
        <ele>185</ele>
        <time>2018-06-24T10:12:41Z</time>
      </trkpt>
      <trkpt lat="45.95774" lon="4.76318">
        <ele>186</ele>
        <time>2018-06-24T10:12:42Z</time>
      </trkpt>
      <trkpt lat="45.95774" lon="4.7631">
        <ele>186</ele>
        <time>2018-06-24T10:12:43Z</time>
      </trkpt>
      <trkpt lat="45.95773" lon="4.76301">
        <ele>186</ele>
        <time>2018-06-24T10:12:44Z</time>
      </trkpt>
      <trkpt lat="45.95773" lon="4.76293">
        <ele>186</ele>
        <time>2018-06-24T10:12:45Z</time>
      </trkpt>
      <trkpt lat="45.95774" lon="4.76285">
        <ele>186</ele>
        <time>2018-06-24T10:12:46Z</time>
      </trkpt>
      <trkpt lat="45.95773" lon="4.76277">
        <ele>186</ele>
        <time>2018-06-24T10:12:47Z</time>
      </trkpt>
      <trkpt lat="45.95772" lon="4.76269">
        <ele>186</ele>
        <time>2018-06-24T10:12:48Z</time>
      </trkpt>
      <trkpt lat="45.95773" lon="4.7626">
        <ele>186</ele>
        <time>2018-06-24T10:12:49Z</time>
      </trkpt>
      <trkpt lat="45.95772" lon="4.76252">
        <ele>186</ele>
        <time>2018-06-24T10:12:50Z</time>
      </trkpt>
      <trkpt lat="45.95772" lon="4.76245">
        <ele>186</ele>
        <time>2018-06-24T10:12:51Z</time>
      </trkpt>
      <trkpt lat="45.9577" lon="4.76236">
        <ele>186</ele>
        <time>2018-06-24T10:12:52Z</time>
      </trkpt>
      <trkpt lat="45.95769" lon="4.76229">
        <ele>186</ele>
        <time>2018-06-24T10:12:53Z</time>
      </trkpt>
      <trkpt lat="45.95769" lon="4.7622">
        <ele>186</ele>
        <time>2018-06-24T10:12:54Z</time>
      </trkpt>
      <trkpt lat="45.95769" lon="4.76212">
        <ele>186</ele>
        <time>2018-06-24T10:12:55Z</time>
      </trkpt>
      <trkpt lat="45.95769" lon="4.76204">
        <ele>186</ele>
        <time>2018-06-24T10:12:56Z</time>
      </trkpt>
      <trkpt lat="45.95769" lon="4.76195">
        <ele>186</ele>
        <time>2018-06-24T10:12:57Z</time>
      </trkpt>
      <trkpt lat="45.95768" lon="4.76187">
        <ele>186</ele>
        <time>2018-06-24T10:12:58Z</time>
      </trkpt>
      <trkpt lat="45.95768" lon="4.76179">
        <ele>186</ele>
        <time>2018-06-24T10:12:59Z</time>
      </trkpt>
      <trkpt lat="45.95766" lon="4.7617">
        <ele>186</ele>
        <time>2018-06-24T10:13:00Z</time>
      </trkpt>
      <trkpt lat="45.95767" lon="4.76163">
        <ele>186</ele>
        <time>2018-06-24T10:13:01Z</time>
      </trkpt>
      <trkpt lat="45.95765" lon="4.76154">
        <ele>186</ele>
        <time>2018-06-24T10:13:02Z</time>
      </trkpt>
      <trkpt lat="45.95764" lon="4.76146">
        <ele>186</ele>
        <time>2018-06-24T10:13:03Z</time>
      </trkpt>
      <trkpt lat="45.95764" lon="4.76138">
        <ele>186</ele>
        <time>2018-06-24T10:13:04Z</time>
      </trkpt>
      <trkpt lat="45.95762" lon="4.7613">
        <ele>186</ele>
        <time>2018-06-24T10:13:05Z</time>
      </trkpt>
      <trkpt lat="45.95761" lon="4.76122">
        <ele>186</ele>
        <time>2018-06-24T10:13:06Z</time>
      </trkpt>
      <trkpt lat="45.95759" lon="4.76114">
        <ele>186</ele>
        <time>2018-06-24T10:13:07Z</time>
      </trkpt>
      <trkpt lat="45.95758" lon="4.76106">
        <ele>186</ele>
        <time>2018-06-24T10:13:08Z</time>
      </trkpt>
      <trkpt lat="45.95759" lon="4.76099">
        <ele>186</ele>
        <time>2018-06-24T10:13:09Z</time>
      </trkpt>
      <trkpt lat="45.95761" lon="4.76092">
        <ele>186</ele>
        <time>2018-06-24T10:13:10Z</time>
      </trkpt>
      <trkpt lat="45.95754" lon="4.76084">
        <ele>185</ele>
        <time>2018-06-24T10:13:11Z</time>
      </trkpt>
      <trkpt lat="45.95752" lon="4.76076">
        <ele>186</ele>
        <time>2018-06-24T10:13:12Z</time>
      </trkpt>
      <trkpt lat="45.95751" lon="4.76069">
        <ele>186</ele>
        <time>2018-06-24T10:13:13Z</time>
      </trkpt>
      <trkpt lat="45.95749" lon="4.7606">
        <ele>185</ele>
        <time>2018-06-24T10:13:14Z</time>
      </trkpt>
      <trkpt lat="45.95745" lon="4.76053">
        <ele>184</ele>
        <time>2018-06-24T10:13:15Z</time>
      </trkpt>
      <trkpt lat="45.95742" lon="4.76046">
        <ele>184</ele>
        <time>2018-06-24T10:13:16Z</time>
      </trkpt>
      <trkpt lat="45.95739" lon="4.76039">
        <ele>185</ele>
        <time>2018-06-24T10:13:17Z</time>
      </trkpt>
      <trkpt lat="45.95735" lon="4.76031">
        <ele>185</ele>
        <time>2018-06-24T10:13:18Z</time>
      </trkpt>
      <trkpt lat="45.95732" lon="4.76024">
        <ele>185</ele>
        <time>2018-06-24T10:13:19Z</time>
      </trkpt>
      <trkpt lat="45.95729" lon="4.76017">
        <ele>185</ele>
        <time>2018-06-24T10:13:20Z</time>
      </trkpt>
      <trkpt lat="45.95725" lon="4.7601">
        <ele>185</ele>
        <time>2018-06-24T10:13:21Z</time>
      </trkpt>
      <trkpt lat="45.95722" lon="4.76002">
        <ele>185</ele>
        <time>2018-06-24T10:13:22Z</time>
      </trkpt>
      <trkpt lat="45.95717" lon="4.75995">
        <ele>185</ele>
        <time>2018-06-24T10:13:23Z</time>
      </trkpt>
      <trkpt lat="45.95713" lon="4.75988">
        <ele>185</ele>
        <time>2018-06-24T10:13:24Z</time>
      </trkpt>
      <trkpt lat="45.9571" lon="4.7598">
        <ele>185</ele>
        <time>2018-06-24T10:13:25Z</time>
      </trkpt>
      <trkpt lat="45.95705" lon="4.75973">
        <ele>185</ele>
        <time>2018-06-24T10:13:26Z</time>
      </trkpt>
      <trkpt lat="45.95702" lon="4.75965">
        <ele>185</ele>
        <time>2018-06-24T10:13:27Z</time>
      </trkpt>
      <trkpt lat="45.95697" lon="4.75958">
        <ele>185</ele>
        <time>2018-06-24T10:13:28Z</time>
      </trkpt>
      <trkpt lat="45.95693" lon="4.7595">
        <ele>185</ele>
        <time>2018-06-24T10:13:29Z</time>
      </trkpt>
      <trkpt lat="45.9569" lon="4.75943">
        <ele>185</ele>
        <time>2018-06-24T10:13:30Z</time>
      </trkpt>
      <trkpt lat="45.95686" lon="4.75936">
        <ele>185</ele>
        <time>2018-06-24T10:13:31Z</time>
      </trkpt>
      <trkpt lat="45.95683" lon="4.75929">
        <ele>185</ele>
        <time>2018-06-24T10:13:32Z</time>
      </trkpt>
      <trkpt lat="45.9568" lon="4.75922">
        <ele>185</ele>
        <time>2018-06-24T10:13:33Z</time>
      </trkpt>
      <trkpt lat="45.95677" lon="4.75914">
        <ele>185</ele>
        <time>2018-06-24T10:13:34Z</time>
      </trkpt>
      <trkpt lat="45.95674" lon="4.75907">
        <ele>185</ele>
        <time>2018-06-24T10:13:35Z</time>
      </trkpt>
      <trkpt lat="45.95672" lon="4.759">
        <ele>185</ele>
        <time>2018-06-24T10:13:36Z</time>
      </trkpt>
      <trkpt lat="45.95669" lon="4.75893">
        <ele>186</ele>
        <time>2018-06-24T10:13:37Z</time>
      </trkpt>
      <trkpt lat="45.95667" lon="4.75886">
        <ele>184</ele>
        <time>2018-06-24T10:13:38Z</time>
      </trkpt>
      <trkpt lat="45.95664" lon="4.75879">
        <ele>184</ele>
        <time>2018-06-24T10:13:39Z</time>
      </trkpt>
      <trkpt lat="45.95662" lon="4.75871">
        <ele>184</ele>
        <time>2018-06-24T10:13:40Z</time>
      </trkpt>
      <trkpt lat="45.9566" lon="4.75864">
        <ele>184</ele>
        <time>2018-06-24T10:13:41Z</time>
      </trkpt>
      <trkpt lat="45.95658" lon="4.75856">
        <ele>184</ele>
        <time>2018-06-24T10:13:42Z</time>
      </trkpt>
      <trkpt lat="45.95657" lon="4.75848">
        <ele>185</ele>
        <time>2018-06-24T10:13:43Z</time>
      </trkpt>
      <trkpt lat="45.95655" lon="4.7584">
        <ele>185</ele>
        <time>2018-06-24T10:13:44Z</time>
      </trkpt>
      <trkpt lat="45.95653" lon="4.75832">
        <ele>186</ele>
        <time>2018-06-24T10:13:45Z</time>
      </trkpt>
      <trkpt lat="45.95652" lon="4.75825">
        <ele>185</ele>
        <time>2018-06-24T10:13:46Z</time>
      </trkpt>
      <trkpt lat="45.95649" lon="4.75818">
        <ele>185</ele>
        <time>2018-06-24T10:13:47Z</time>
      </trkpt>
      <trkpt lat="45.95648" lon="4.7581">
        <ele>185</ele>
        <time>2018-06-24T10:13:48Z</time>
      </trkpt>
      <trkpt lat="45.95646" lon="4.75802">
        <ele>185</ele>
        <time>2018-06-24T10:13:49Z</time>
      </trkpt>
      <trkpt lat="45.95647" lon="4.75795">
        <ele>185</ele>
        <time>2018-06-24T10:13:50Z</time>
      </trkpt>
      <trkpt lat="45.95646" lon="4.75788">
        <ele>186</ele>
        <time>2018-06-24T10:13:51Z</time>
      </trkpt>
      <trkpt lat="45.95644" lon="4.7578">
        <ele>186</ele>
        <time>2018-06-24T10:13:52Z</time>
      </trkpt>
      <trkpt lat="45.95643" lon="4.75773">
        <ele>186</ele>
        <time>2018-06-24T10:13:53Z</time>
      </trkpt>
      <trkpt lat="45.95642" lon="4.75766">
        <ele>186</ele>
        <time>2018-06-24T10:13:54Z</time>
      </trkpt>
      <trkpt lat="45.95641" lon="4.75759">
        <ele>186</ele>
        <time>2018-06-24T10:13:55Z</time>
      </trkpt>
      <trkpt lat="45.9564" lon="4.75752">
        <ele>186</ele>
        <time>2018-06-24T10:13:56Z</time>
      </trkpt>
      <trkpt lat="45.95638" lon="4.75744">
        <ele>187</ele>
        <time>2018-06-24T10:13:57Z</time>
      </trkpt>
      <trkpt lat="45.95637" lon="4.75737">
        <ele>187</ele>
        <time>2018-06-24T10:13:58Z</time>
      </trkpt>
      <trkpt lat="45.95638" lon="4.75731">
        <ele>187</ele>
        <time>2018-06-24T10:13:59Z</time>
      </trkpt>
      <trkpt lat="45.95635" lon="4.75723">
        <ele>187</ele>
        <time>2018-06-24T10:14:00Z</time>
      </trkpt>
      <trkpt lat="45.95635" lon="4.75716">
        <ele>187</ele>
        <time>2018-06-24T10:14:01Z</time>
      </trkpt>
      <trkpt lat="45.95633" lon="4.75709">
        <ele>187</ele>
        <time>2018-06-24T10:14:02Z</time>
      </trkpt>
      <trkpt lat="45.95632" lon="4.75701">
        <ele>187</ele>
        <time>2018-06-24T10:14:03Z</time>
      </trkpt>
      <trkpt lat="45.95631" lon="4.75694">
        <ele>187</ele>
        <time>2018-06-24T10:14:04Z</time>
      </trkpt>
      <trkpt lat="45.9563" lon="4.75686">
        <ele>187</ele>
        <time>2018-06-24T10:14:05Z</time>
      </trkpt>
      <trkpt lat="45.95629" lon="4.75679">
        <ele>187</ele>
        <time>2018-06-24T10:14:06Z</time>
      </trkpt>
      <trkpt lat="45.95627" lon="4.75673">
        <ele>187</ele>
        <time>2018-06-24T10:14:07Z</time>
      </trkpt>
      <trkpt lat="45.95626" lon="4.75666">
        <ele>188</ele>
        <time>2018-06-24T10:14:08Z</time>
      </trkpt>
      <trkpt lat="45.95623" lon="4.7566">
        <ele>188</ele>
        <time>2018-06-24T10:14:09Z</time>
      </trkpt>
      <trkpt lat="45.95623" lon="4.75653">
        <ele>188</ele>
        <time>2018-06-24T10:14:10Z</time>
      </trkpt>
      <trkpt lat="45.95621" lon="4.75645">
        <ele>188</ele>
        <time>2018-06-24T10:14:11Z</time>
      </trkpt>
      <trkpt lat="45.9562" lon="4.75638">
        <ele>188</ele>
        <time>2018-06-24T10:14:12Z</time>
      </trkpt>
      <trkpt lat="45.95618" lon="4.75631">
        <ele>188</ele>
        <time>2018-06-24T10:14:13Z</time>
      </trkpt>
      <trkpt lat="45.95616" lon="4.75624">
        <ele>188</ele>
        <time>2018-06-24T10:14:14Z</time>
      </trkpt>
      <trkpt lat="45.95613" lon="4.75617">
        <ele>188</ele>
        <time>2018-06-24T10:14:15Z</time>
      </trkpt>
      <trkpt lat="45.9561" lon="4.7561">
        <ele>188</ele>
        <time>2018-06-24T10:14:16Z</time>
      </trkpt>
      <trkpt lat="45.95608" lon="4.75603">
        <ele>188</ele>
        <time>2018-06-24T10:14:17Z</time>
      </trkpt>
      <trkpt lat="45.95606" lon="4.75597">
        <ele>187</ele>
        <time>2018-06-24T10:14:18Z</time>
      </trkpt>
      <trkpt lat="45.95603" lon="4.7559">
        <ele>187</ele>
        <time>2018-06-24T10:14:19Z</time>
      </trkpt>
      <trkpt lat="45.956" lon="4.75584">
        <ele>187</ele>
        <time>2018-06-24T10:14:20Z</time>
      </trkpt>
      <trkpt lat="45.95598" lon="4.75578">
        <ele>188</ele>
        <time>2018-06-24T10:14:21Z</time>
      </trkpt>
      <trkpt lat="45.95595" lon="4.75572">
        <ele>188</ele>
        <time>2018-06-24T10:14:22Z</time>
      </trkpt>
      <trkpt lat="45.95589" lon="4.75564">
        <ele>188</ele>
        <time>2018-06-24T10:14:23Z</time>
      </trkpt>
      <trkpt lat="45.95587" lon="4.75558">
        <ele>188</ele>
        <time>2018-06-24T10:14:24Z</time>
      </trkpt>
      <trkpt lat="45.95583" lon="4.75553">
        <ele>186</ele>
        <time>2018-06-24T10:14:25Z</time>
      </trkpt>
      <trkpt lat="45.95579" lon="4.75547">
        <ele>186</ele>
        <time>2018-06-24T10:14:26Z</time>
      </trkpt>
      <trkpt lat="45.95574" lon="4.75542">
        <ele>186</ele>
        <time>2018-06-24T10:14:27Z</time>
      </trkpt>
      <trkpt lat="45.9557" lon="4.75536">
        <ele>186</ele>
        <time>2018-06-24T10:14:28Z</time>
      </trkpt>
      <trkpt lat="45.95565" lon="4.75531">
        <ele>186</ele>
        <time>2018-06-24T10:14:29Z</time>
      </trkpt>
      <trkpt lat="45.95561" lon="4.75525">
        <ele>186</ele>
        <time>2018-06-24T10:14:30Z</time>
      </trkpt>
      <trkpt lat="45.95556" lon="4.75519">
        <ele>186</ele>
        <time>2018-06-24T10:14:31Z</time>
      </trkpt>
      <trkpt lat="45.95553" lon="4.75513">
        <ele>186</ele>
        <time>2018-06-24T10:14:32Z</time>
      </trkpt>
      <trkpt lat="45.95549" lon="4.75507">
        <ele>186</ele>
        <time>2018-06-24T10:14:33Z</time>
      </trkpt>
      <trkpt lat="45.95545" lon="4.75502">
        <ele>186</ele>
        <time>2018-06-24T10:14:34Z</time>
      </trkpt>
      <trkpt lat="45.95543" lon="4.75495">
        <ele>187</ele>
        <time>2018-06-24T10:14:35Z</time>
      </trkpt>
      <trkpt lat="45.95541" lon="4.75488">
        <ele>187</ele>
        <time>2018-06-24T10:14:36Z</time>
      </trkpt>
      <trkpt lat="45.9554" lon="4.75481">
        <ele>187</ele>
        <time>2018-06-24T10:14:37Z</time>
      </trkpt>
      <trkpt lat="45.95541" lon="4.75473">
        <ele>187</ele>
        <time>2018-06-24T10:14:38Z</time>
      </trkpt>
      <trkpt lat="45.9554" lon="4.75466">
        <ele>187</ele>
        <time>2018-06-24T10:14:39Z</time>
      </trkpt>
      <trkpt lat="45.95537" lon="4.75459">
        <ele>187</ele>
        <time>2018-06-24T10:14:40Z</time>
      </trkpt>
      <trkpt lat="45.95535" lon="4.75452">
        <ele>187</ele>
        <time>2018-06-24T10:14:41Z</time>
      </trkpt>
      <trkpt lat="45.9553" lon="4.75446">
        <ele>187</ele>
        <time>2018-06-24T10:14:42Z</time>
      </trkpt>
      <trkpt lat="45.95526" lon="4.75441">
        <ele>187</ele>
        <time>2018-06-24T10:14:43Z</time>
      </trkpt>
      <trkpt lat="45.95521" lon="4.75435">
        <ele>187</ele>
        <time>2018-06-24T10:14:44Z</time>
      </trkpt>
      <trkpt lat="45.95518" lon="4.75426">
        <ele>187</ele>
        <time>2018-06-24T10:14:45Z</time>
      </trkpt>
      <trkpt lat="45.95514" lon="4.75418">
        <ele>186</ele>
        <time>2018-06-24T10:14:46Z</time>
      </trkpt>
      <trkpt lat="45.95512" lon="4.7541">
        <ele>187</ele>
        <time>2018-06-24T10:14:47Z</time>
      </trkpt>
      <trkpt lat="45.95509" lon="4.75402">
        <ele>187</ele>
        <time>2018-06-24T10:14:48Z</time>
      </trkpt>
      <trkpt lat="45.95507" lon="4.75395">
        <ele>188</ele>
        <time>2018-06-24T10:14:49Z</time>
      </trkpt>
      <trkpt lat="45.95504" lon="4.75387">
        <ele>188</ele>
        <time>2018-06-24T10:14:50Z</time>
      </trkpt>
      <trkpt lat="45.95502" lon="4.7538">
        <ele>188</ele>
        <time>2018-06-24T10:14:51Z</time>
      </trkpt>
      <trkpt lat="45.95498" lon="4.75374">
        <ele>185</ele>
        <time>2018-06-24T10:14:52Z</time>
      </trkpt>
      <trkpt lat="45.95494" lon="4.75367">
        <ele>186</ele>
        <time>2018-06-24T10:14:53Z</time>
      </trkpt>
      <trkpt lat="45.9549" lon="4.7536">
        <ele>186</ele>
        <time>2018-06-24T10:14:54Z</time>
      </trkpt>
      <trkpt lat="45.95487" lon="4.75353">
        <ele>186</ele>
        <time>2018-06-24T10:14:55Z</time>
      </trkpt>
      <trkpt lat="45.95483" lon="4.75347">
        <ele>186</ele>
        <time>2018-06-24T10:14:56Z</time>
      </trkpt>
      <trkpt lat="45.95479" lon="4.7534">
        <ele>186</ele>
        <time>2018-06-24T10:14:57Z</time>
      </trkpt>
      <trkpt lat="45.95476" lon="4.75333">
        <ele>188</ele>
        <time>2018-06-24T10:14:58Z</time>
      </trkpt>
      <trkpt lat="45.95473" lon="4.75326">
        <ele>188</ele>
        <time>2018-06-24T10:14:59Z</time>
      </trkpt>
      <trkpt lat="45.95469" lon="4.7532">
        <ele>188</ele>
        <time>2018-06-24T10:15:00Z</time>
      </trkpt>
      <trkpt lat="45.95465" lon="4.75314">
        <ele>188</ele>
        <time>2018-06-24T10:15:01Z</time>
      </trkpt>
      <trkpt lat="45.95462" lon="4.75308">
        <ele>188</ele>
        <time>2018-06-24T10:15:02Z</time>
      </trkpt>
      <trkpt lat="45.95459" lon="4.75302">
        <ele>188</ele>
        <time>2018-06-24T10:15:03Z</time>
      </trkpt>
      <trkpt lat="45.95456" lon="4.75296">
        <ele>188</ele>
        <time>2018-06-24T10:15:04Z</time>
      </trkpt>
      <trkpt lat="45.95452" lon="4.75291">
        <ele>188</ele>
        <time>2018-06-24T10:15:05Z</time>
      </trkpt>
      <trkpt lat="45.9545" lon="4.75285">
        <ele>188</ele>
        <time>2018-06-24T10:15:06Z</time>
      </trkpt>
      <trkpt lat="45.95445" lon="4.75279">
        <ele>189</ele>
        <time>2018-06-24T10:15:07Z</time>
      </trkpt>
      <trkpt lat="45.95443" lon="4.75273">
        <ele>189</ele>
        <time>2018-06-24T10:15:08Z</time>
      </trkpt>
      <trkpt lat="45.9544" lon="4.75268">
        <ele>189</ele>
        <time>2018-06-24T10:15:09Z</time>
      </trkpt>
      <trkpt lat="45.95437" lon="4.75261">
        <ele>189</ele>
        <time>2018-06-24T10:15:10Z</time>
      </trkpt>
      <trkpt lat="45.95434" lon="4.75254">
        <ele>189</ele>
        <time>2018-06-24T10:15:11Z</time>
      </trkpt>
      <trkpt lat="45.9543" lon="4.75248">
        <ele>190</ele>
        <time>2018-06-24T10:15:12Z</time>
      </trkpt>
      <trkpt lat="45.95428" lon="4.75242">
        <ele>190</ele>
        <time>2018-06-24T10:15:13Z</time>
      </trkpt>
      <trkpt lat="45.95424" lon="4.75237">
        <ele>190</ele>
        <time>2018-06-24T10:15:14Z</time>
      </trkpt>
      <trkpt lat="45.9542" lon="4.7523">
        <ele>190</ele>
        <time>2018-06-24T10:15:15Z</time>
      </trkpt>
      <trkpt lat="45.95417" lon="4.75224">
        <ele>191</ele>
        <time>2018-06-24T10:15:16Z</time>
      </trkpt>
      <trkpt lat="45.95413" lon="4.75219">
        <ele>189</ele>
        <time>2018-06-24T10:15:17Z</time>
      </trkpt>
      <trkpt lat="45.9541" lon="4.75213">
        <ele>189</ele>
        <time>2018-06-24T10:15:18Z</time>
      </trkpt>
      <trkpt lat="45.95408" lon="4.75207">
        <ele>189</ele>
        <time>2018-06-24T10:15:19Z</time>
      </trkpt>
      <trkpt lat="45.95405" lon="4.75201">
        <ele>189</ele>
        <time>2018-06-24T10:15:20Z</time>
      </trkpt>
      <trkpt lat="45.95402" lon="4.75194">
        <ele>189</ele>
        <time>2018-06-24T10:15:21Z</time>
      </trkpt>
      <trkpt lat="45.95398" lon="4.75188">
        <ele>189</ele>
        <time>2018-06-24T10:15:22Z</time>
      </trkpt>
      <trkpt lat="45.95395" lon="4.75183">
        <ele>189</ele>
        <time>2018-06-24T10:15:23Z</time>
      </trkpt>
      <trkpt lat="45.95392" lon="4.75177">
        <ele>189</ele>
        <time>2018-06-24T10:15:24Z</time>
      </trkpt>
      <trkpt lat="45.95388" lon="4.75172">
        <ele>189</ele>
        <time>2018-06-24T10:15:25Z</time>
      </trkpt>
      <trkpt lat="45.95385" lon="4.75167">
        <ele>191</ele>
        <time>2018-06-24T10:15:26Z</time>
      </trkpt>
      <trkpt lat="45.95381" lon="4.75162">
        <ele>191</ele>
        <time>2018-06-24T10:15:27Z</time>
      </trkpt>
      <trkpt lat="45.95378" lon="4.75156">
        <ele>191</ele>
        <time>2018-06-24T10:15:28Z</time>
      </trkpt>
      <trkpt lat="45.95376" lon="4.75149">
        <ele>191</ele>
        <time>2018-06-24T10:15:29Z</time>
      </trkpt>
      <trkpt lat="45.95372" lon="4.75143">
        <ele>191</ele>
        <time>2018-06-24T10:15:30Z</time>
      </trkpt>
      <trkpt lat="45.95369" lon="4.75137">
        <ele>191</ele>
        <time>2018-06-24T10:15:31Z</time>
      </trkpt>
      <trkpt lat="45.95364" lon="4.75134">
        <ele>191</ele>
        <time>2018-06-24T10:15:32Z</time>
      </trkpt>
      <trkpt lat="45.95361" lon="4.75128">
        <ele>191</ele>
        <time>2018-06-24T10:15:33Z</time>
      </trkpt>
      <trkpt lat="45.95357" lon="4.75123">
        <ele>191</ele>
        <time>2018-06-24T10:15:34Z</time>
      </trkpt>
      <trkpt lat="45.95352" lon="4.75118">
        <ele>191</ele>
        <time>2018-06-24T10:15:35Z</time>
      </trkpt>
      <trkpt lat="45.95349" lon="4.75112">
        <ele>192</ele>
        <time>2018-06-24T10:15:36Z</time>
      </trkpt>
      <trkpt lat="45.95346" lon="4.75107">
        <ele>192</ele>
        <time>2018-06-24T10:15:37Z</time>
      </trkpt>
      <trkpt lat="45.95343" lon="4.75101">
        <ele>192</ele>
        <time>2018-06-24T10:15:38Z</time>
      </trkpt>
      <trkpt lat="45.95339" lon="4.75096">
        <ele>192</ele>
        <time>2018-06-24T10:15:39Z</time>
      </trkpt>
      <trkpt lat="45.95335" lon="4.7509">
        <ele>193</ele>
        <time>2018-06-24T10:15:40Z</time>
      </trkpt>
      <trkpt lat="45.95332" lon="4.75085">
        <ele>193</ele>
        <time>2018-06-24T10:15:41Z</time>
      </trkpt>
      <trkpt lat="45.95328" lon="4.7508">
        <ele>193</ele>
        <time>2018-06-24T10:15:42Z</time>
      </trkpt>
      <trkpt lat="45.95323" lon="4.75069">
        <ele>192</ele>
        <time>2018-06-24T10:15:44Z</time>
      </trkpt>
      <trkpt lat="45.95319" lon="4.75064">
        <ele>192</ele>
        <time>2018-06-24T10:15:45Z</time>
      </trkpt>
      <trkpt lat="45.95316" lon="4.75059">
        <ele>192</ele>
        <time>2018-06-24T10:15:46Z</time>
      </trkpt>
      <trkpt lat="45.95312" lon="4.75053">
        <ele>192</ele>
        <time>2018-06-24T10:15:47Z</time>
      </trkpt>
      <trkpt lat="45.95309" lon="4.75047">
        <ele>192</ele>
        <time>2018-06-24T10:15:48Z</time>
      </trkpt>
      <trkpt lat="45.95305" lon="4.75042">
        <ele>192</ele>
        <time>2018-06-24T10:15:49Z</time>
      </trkpt>
      <trkpt lat="45.95302" lon="4.75037">
        <ele>192</ele>
        <time>2018-06-24T10:15:50Z</time>
      </trkpt>
      <trkpt lat="45.95299" lon="4.75032">
        <ele>191</ele>
        <time>2018-06-24T10:15:51Z</time>
      </trkpt>
      <trkpt lat="45.95295" lon="4.75026">
        <ele>191</ele>
        <time>2018-06-24T10:15:52Z</time>
      </trkpt>
      <trkpt lat="45.95292" lon="4.75022">
        <ele>191</ele>
        <time>2018-06-24T10:15:53Z</time>
      </trkpt>
      <trkpt lat="45.95289" lon="4.75016">
        <ele>191</ele>
        <time>2018-06-24T10:15:54Z</time>
      </trkpt>
      <trkpt lat="45.95285" lon="4.75011">
        <ele>191</ele>
        <time>2018-06-24T10:15:55Z</time>
      </trkpt>
      <trkpt lat="45.95282" lon="4.75005">
        <ele>191</ele>
        <time>2018-06-24T10:15:56Z</time>
      </trkpt>
      <trkpt lat="45.9528" lon="4.75001">
        <ele>191</ele>
        <time>2018-06-24T10:15:57Z</time>
      </trkpt>
      <trkpt lat="45.95277" lon="4.74996">
        <ele>192</ele>
        <time>2018-06-24T10:15:58Z</time>
      </trkpt>
      <trkpt lat="45.95274" lon="4.7499">
        <ele>192</ele>
        <time>2018-06-24T10:15:59Z</time>
      </trkpt>
      <trkpt lat="45.9527" lon="4.74985">
        <ele>192</ele>
        <time>2018-06-24T10:16:00Z</time>
      </trkpt>
      <trkpt lat="45.95267" lon="4.74979">
        <ele>192</ele>
        <time>2018-06-24T10:16:01Z</time>
      </trkpt>
      <trkpt lat="45.95263" lon="4.74973">
        <ele>192</ele>
        <time>2018-06-24T10:16:02Z</time>
      </trkpt>
      <trkpt lat="45.95259" lon="4.74968">
        <ele>192</ele>
        <time>2018-06-24T10:16:03Z</time>
      </trkpt>
      <trkpt lat="45.95256" lon="4.74963">
        <ele>192</ele>
        <time>2018-06-24T10:16:04Z</time>
      </trkpt>
      <trkpt lat="45.95253" lon="4.74957">
        <ele>192</ele>
        <time>2018-06-24T10:16:05Z</time>
      </trkpt>
      <trkpt lat="45.9525" lon="4.74952">
        <ele>192</ele>
        <time>2018-06-24T10:16:06Z</time>
      </trkpt>
      <trkpt lat="45.95247" lon="4.74947">
        <ele>192</ele>
        <time>2018-06-24T10:16:07Z</time>
      </trkpt>
      <trkpt lat="45.95243" lon="4.74941">
        <ele>192</ele>
        <time>2018-06-24T10:16:08Z</time>
      </trkpt>
      <trkpt lat="45.95239" lon="4.74936">
        <ele>192</ele>
        <time>2018-06-24T10:16:09Z</time>
      </trkpt>
      <trkpt lat="45.95235" lon="4.74929">
        <ele>192</ele>
        <time>2018-06-24T10:16:10Z</time>
      </trkpt>
      <trkpt lat="45.95231" lon="4.74924">
        <ele>192</ele>
        <time>2018-06-24T10:16:11Z</time>
      </trkpt>
      <trkpt lat="45.95228" lon="4.7492">
        <ele>192</ele>
        <time>2018-06-24T10:16:12Z</time>
      </trkpt>
      <trkpt lat="45.95225" lon="4.74913">
        <ele>193</ele>
        <time>2018-06-24T10:16:13Z</time>
      </trkpt>
      <trkpt lat="45.95221" lon="4.74908">
        <ele>193</ele>
        <time>2018-06-24T10:16:14Z</time>
      </trkpt>
      <trkpt lat="45.95217" lon="4.74903">
        <ele>193</ele>
        <time>2018-06-24T10:16:15Z</time>
      </trkpt>
      <trkpt lat="45.95214" lon="4.74897">
        <ele>193</ele>
        <time>2018-06-24T10:16:16Z</time>
      </trkpt>
      <trkpt lat="45.9521" lon="4.74891">
        <ele>193</ele>
        <time>2018-06-24T10:16:17Z</time>
      </trkpt>
      <trkpt lat="45.95204" lon="4.74882">
        <ele>194</ele>
        <time>2018-06-24T10:16:19Z</time>
      </trkpt>
      <trkpt lat="45.95201" lon="4.74876">
        <ele>194</ele>
        <time>2018-06-24T10:16:20Z</time>
      </trkpt>
      <trkpt lat="45.95197" lon="4.74871">
        <ele>194</ele>
        <time>2018-06-24T10:16:21Z</time>
      </trkpt>
      <trkpt lat="45.95194" lon="4.74865">
        <ele>194</ele>
        <time>2018-06-24T10:16:22Z</time>
      </trkpt>
      <trkpt lat="45.95191" lon="4.74859">
        <ele>194</ele>
        <time>2018-06-24T10:16:23Z</time>
      </trkpt>
      <trkpt lat="45.95188" lon="4.74853">
        <ele>194</ele>
        <time>2018-06-24T10:16:24Z</time>
      </trkpt>
      <trkpt lat="45.95184" lon="4.74847">
        <ele>194</ele>
        <time>2018-06-24T10:16:25Z</time>
      </trkpt>
      <trkpt lat="45.9518" lon="4.74842">
        <ele>194</ele>
        <time>2018-06-24T10:16:26Z</time>
      </trkpt>
      <trkpt lat="45.95177" lon="4.74836">
        <ele>194</ele>
        <time>2018-06-24T10:16:27Z</time>
      </trkpt>
      <trkpt lat="45.95174" lon="4.7483">
        <ele>194</ele>
        <time>2018-06-24T10:16:28Z</time>
      </trkpt>
      <trkpt lat="45.95171" lon="4.74825">
        <ele>194</ele>
        <time>2018-06-24T10:16:29Z</time>
      </trkpt>
      <trkpt lat="45.95167" lon="4.74819">
        <ele>194</ele>
        <time>2018-06-24T10:16:30Z</time>
      </trkpt>
      <trkpt lat="45.95163" lon="4.74814">
        <ele>194</ele>
        <time>2018-06-24T10:16:31Z</time>
      </trkpt>
      <trkpt lat="45.95159" lon="4.74807">
        <ele>194</ele>
        <time>2018-06-24T10:16:32Z</time>
      </trkpt>
      <trkpt lat="45.95156" lon="4.74801">
        <ele>194</ele>
        <time>2018-06-24T10:16:33Z</time>
      </trkpt>
      <trkpt lat="45.95151" lon="4.74795">
        <ele>194</ele>
        <time>2018-06-24T10:16:34Z</time>
      </trkpt>
      <trkpt lat="45.95148" lon="4.74789">
        <ele>194</ele>
        <time>2018-06-24T10:16:35Z</time>
      </trkpt>
      <trkpt lat="45.95144" lon="4.74784">
        <ele>194</ele>
        <time>2018-06-24T10:16:36Z</time>
      </trkpt>
      <trkpt lat="45.95141" lon="4.74778">
        <ele>194</ele>
        <time>2018-06-24T10:16:37Z</time>
      </trkpt>
      <trkpt lat="45.95138" lon="4.74773">
        <ele>194</ele>
        <time>2018-06-24T10:16:38Z</time>
      </trkpt>
      <trkpt lat="45.95134" lon="4.74767">
        <ele>194</ele>
        <time>2018-06-24T10:16:39Z</time>
      </trkpt>
      <trkpt lat="45.95131" lon="4.74762">
        <ele>194</ele>
        <time>2018-06-24T10:16:40Z</time>
      </trkpt>
      <trkpt lat="45.95127" lon="4.74756">
        <ele>194</ele>
        <time>2018-06-24T10:16:41Z</time>
      </trkpt>
      <trkpt lat="45.95123" lon="4.7475">
        <ele>194</ele>
        <time>2018-06-24T10:16:42Z</time>
      </trkpt>
      <trkpt lat="45.95119" lon="4.74743">
        <ele>194</ele>
        <time>2018-06-24T10:16:43Z</time>
      </trkpt>
      <trkpt lat="45.95116" lon="4.74737">
        <ele>194</ele>
        <time>2018-06-24T10:16:44Z</time>
      </trkpt>
      <trkpt lat="45.95112" lon="4.74731">
        <ele>194</ele>
        <time>2018-06-24T10:16:45Z</time>
      </trkpt>
      <trkpt lat="45.95108" lon="4.74725">
        <ele>194</ele>
        <time>2018-06-24T10:16:46Z</time>
      </trkpt>
      <trkpt lat="45.95105" lon="4.74719">
        <ele>194</ele>
        <time>2018-06-24T10:16:47Z</time>
      </trkpt>
      <trkpt lat="45.95101" lon="4.74713">
        <ele>194</ele>
        <time>2018-06-24T10:16:48Z</time>
      </trkpt>
      <trkpt lat="45.95097" lon="4.74707">
        <ele>194</ele>
        <time>2018-06-24T10:16:49Z</time>
      </trkpt>
      <trkpt lat="45.95095" lon="4.74702">
        <ele>194</ele>
        <time>2018-06-24T10:16:50Z</time>
      </trkpt>
      <trkpt lat="45.95089" lon="4.74694">
        <ele>194</ele>
        <time>2018-06-24T10:16:52Z</time>
      </trkpt>
      <trkpt lat="45.95085" lon="4.74689">
        <ele>195</ele>
        <time>2018-06-24T10:16:53Z</time>
      </trkpt>
      <trkpt lat="45.95082" lon="4.74682">
        <ele>194</ele>
        <time>2018-06-24T10:16:54Z</time>
      </trkpt>
      <trkpt lat="45.95079" lon="4.74676">
        <ele>194</ele>
        <time>2018-06-24T10:16:55Z</time>
      </trkpt>
      <trkpt lat="45.95076" lon="4.7467">
        <ele>195</ele>
        <time>2018-06-24T10:16:56Z</time>
      </trkpt>
      <trkpt lat="45.95073" lon="4.74663">
        <ele>195</ele>
        <time>2018-06-24T10:16:57Z</time>
      </trkpt>
      <trkpt lat="45.95069" lon="4.74656">
        <ele>195</ele>
        <time>2018-06-24T10:16:58Z</time>
      </trkpt>
      <trkpt lat="45.95065" lon="4.7465">
        <ele>195</ele>
        <time>2018-06-24T10:16:59Z</time>
      </trkpt>
      <trkpt lat="45.95061" lon="4.74644">
        <ele>194</ele>
        <time>2018-06-24T10:17:00Z</time>
      </trkpt>
      <trkpt lat="45.95058" lon="4.74638">
        <ele>194</ele>
        <time>2018-06-24T10:17:01Z</time>
      </trkpt>
      <trkpt lat="45.95055" lon="4.74631">
        <ele>194</ele>
        <time>2018-06-24T10:17:02Z</time>
      </trkpt>
      <trkpt lat="45.9505" lon="4.74624">
        <ele>194</ele>
        <time>2018-06-24T10:17:03Z</time>
      </trkpt>
      <trkpt lat="45.95047" lon="4.74617">
        <ele>194</ele>
        <time>2018-06-24T10:17:04Z</time>
      </trkpt>
      <trkpt lat="45.95043" lon="4.74611">
        <ele>194</ele>
        <time>2018-06-24T10:17:05Z</time>
      </trkpt>
      <trkpt lat="45.95039" lon="4.74605">
        <ele>194</ele>
        <time>2018-06-24T10:17:06Z</time>
      </trkpt>
      <trkpt lat="45.95037" lon="4.74598">
        <ele>194</ele>
        <time>2018-06-24T10:17:07Z</time>
      </trkpt>
      <trkpt lat="45.95033" lon="4.74591">
        <ele>194</ele>
        <time>2018-06-24T10:17:08Z</time>
      </trkpt>
      <trkpt lat="45.9503" lon="4.74584">
        <ele>194</ele>
        <time>2018-06-24T10:17:09Z</time>
      </trkpt>
      <trkpt lat="45.95027" lon="4.74578">
        <ele>194</ele>
        <time>2018-06-24T10:17:10Z</time>
      </trkpt>
      <trkpt lat="45.95023" lon="4.74571">
        <ele>194</ele>
        <time>2018-06-24T10:17:11Z</time>
      </trkpt>
      <trkpt lat="45.95019" lon="4.74565">
        <ele>194</ele>
        <time>2018-06-24T10:17:12Z</time>
      </trkpt>
      <trkpt lat="45.95015" lon="4.74558">
        <ele>194</ele>
        <time>2018-06-24T10:17:13Z</time>
      </trkpt>
      <trkpt lat="45.95012" lon="4.74552">
        <ele>194</ele>
        <time>2018-06-24T10:17:14Z</time>
      </trkpt>
      <trkpt lat="45.95008" lon="4.74545">
        <ele>194</ele>
        <time>2018-06-24T10:17:15Z</time>
      </trkpt>
      <trkpt lat="45.95004" lon="4.74539">
        <ele>194</ele>
        <time>2018-06-24T10:17:16Z</time>
      </trkpt>
      <trkpt lat="45.95" lon="4.74531">
        <ele>193</ele>
        <time>2018-06-24T10:17:17Z</time>
      </trkpt>
      <trkpt lat="45.94996" lon="4.74524">
        <ele>193</ele>
        <time>2018-06-24T10:17:18Z</time>
      </trkpt>
      <trkpt lat="45.94993" lon="4.74516">
        <ele>193</ele>
        <time>2018-06-24T10:17:19Z</time>
      </trkpt>
      <trkpt lat="45.94991" lon="4.74509">
        <ele>193</ele>
        <time>2018-06-24T10:17:20Z</time>
      </trkpt>
      <trkpt lat="45.94987" lon="4.74501">
        <ele>193</ele>
        <time>2018-06-24T10:17:21Z</time>
      </trkpt>
      <trkpt lat="45.94983" lon="4.74493">
        <ele>193</ele>
        <time>2018-06-24T10:17:22Z</time>
      </trkpt>
      <trkpt lat="45.9498" lon="4.74485">
        <ele>193</ele>
        <time>2018-06-24T10:17:23Z</time>
      </trkpt>
      <trkpt lat="45.94975" lon="4.74478">
        <ele>193</ele>
        <time>2018-06-24T10:17:24Z</time>
      </trkpt>
      <trkpt lat="45.94971" lon="4.7447">
        <ele>193</ele>
        <time>2018-06-24T10:17:25Z</time>
      </trkpt>
      <trkpt lat="45.94967" lon="4.74463">
        <ele>193</ele>
        <time>2018-06-24T10:17:26Z</time>
      </trkpt>
      <trkpt lat="45.94963" lon="4.74455">
        <ele>192</ele>
        <time>2018-06-24T10:17:27Z</time>
      </trkpt>
      <trkpt lat="45.94958" lon="4.74448">
        <ele>192</ele>
        <time>2018-06-24T10:17:28Z</time>
      </trkpt>
      <trkpt lat="45.94954" lon="4.7444">
        <ele>192</ele>
        <time>2018-06-24T10:17:29Z</time>
      </trkpt>
      <trkpt lat="45.9495" lon="4.74432">
        <ele>192</ele>
        <time>2018-06-24T10:17:30Z</time>
      </trkpt>
      <trkpt lat="45.94945" lon="4.74424">
        <ele>192</ele>
        <time>2018-06-24T10:17:31Z</time>
      </trkpt>
      <trkpt lat="45.9494" lon="4.74415">
        <ele>192</ele>
        <time>2018-06-24T10:17:32Z</time>
      </trkpt>
      <trkpt lat="45.94933" lon="4.74405">
        <ele>192</ele>
        <time>2018-06-24T10:17:33Z</time>
      </trkpt>
      <trkpt lat="45.94929" lon="4.74396">
        <ele>192</ele>
        <time>2018-06-24T10:17:34Z</time>
      </trkpt>
      <trkpt lat="45.94925" lon="4.74388">
        <ele>192</ele>
        <time>2018-06-24T10:17:35Z</time>
      </trkpt>
      <trkpt lat="45.94922" lon="4.7438">
        <ele>192</ele>
        <time>2018-06-24T10:17:36Z</time>
      </trkpt>
      <trkpt lat="45.94918" lon="4.74371">
        <ele>192</ele>
        <time>2018-06-24T10:17:37Z</time>
      </trkpt>
      <trkpt lat="45.94914" lon="4.74363">
        <ele>191</ele>
        <time>2018-06-24T10:17:38Z</time>
      </trkpt>
      <trkpt lat="45.9491" lon="4.74355">
        <ele>191</ele>
        <time>2018-06-24T10:17:39Z</time>
      </trkpt>
      <trkpt lat="45.94904" lon="4.74346">
        <ele>191</ele>
        <time>2018-06-24T10:17:40Z</time>
      </trkpt>
      <trkpt lat="45.94899" lon="4.74338">
        <ele>191</ele>
        <time>2018-06-24T10:17:41Z</time>
      </trkpt>
      <trkpt lat="45.94895" lon="4.7433">
        <ele>191</ele>
        <time>2018-06-24T10:17:42Z</time>
      </trkpt>
      <trkpt lat="45.94891" lon="4.74323">
        <ele>191</ele>
        <time>2018-06-24T10:17:43Z</time>
      </trkpt>
      <trkpt lat="45.94888" lon="4.74315">
        <ele>191</ele>
        <time>2018-06-24T10:17:44Z</time>
      </trkpt>
      <trkpt lat="45.94884" lon="4.74307">
        <ele>191</ele>
        <time>2018-06-24T10:17:45Z</time>
      </trkpt>
      <trkpt lat="45.94881" lon="4.743">
        <ele>191</ele>
        <time>2018-06-24T10:17:46Z</time>
      </trkpt>
      <trkpt lat="45.94878" lon="4.74294">
        <ele>191</ele>
        <time>2018-06-24T10:17:47Z</time>
      </trkpt>
      <trkpt lat="45.94874" lon="4.74285">
        <ele>191</ele>
        <time>2018-06-24T10:17:48Z</time>
      </trkpt>
      <trkpt lat="45.94871" lon="4.74277">
        <ele>191</ele>
        <time>2018-06-24T10:17:49Z</time>
      </trkpt>
      <trkpt lat="45.94868" lon="4.7427">
        <ele>191</ele>
        <time>2018-06-24T10:17:50Z</time>
      </trkpt>
      <trkpt lat="45.94864" lon="4.74263">
        <ele>190</ele>
        <time>2018-06-24T10:17:51Z</time>
      </trkpt>
      <trkpt lat="45.9486" lon="4.74255">
        <ele>190</ele>
        <time>2018-06-24T10:17:52Z</time>
      </trkpt>
      <trkpt lat="45.94856" lon="4.74248">
        <ele>190</ele>
        <time>2018-06-24T10:17:53Z</time>
      </trkpt>
      <trkpt lat="45.94853" lon="4.74241">
        <ele>190</ele>
        <time>2018-06-24T10:17:54Z</time>
      </trkpt>
      <trkpt lat="45.9485" lon="4.74235">
        <ele>190</ele>
        <time>2018-06-24T10:17:55Z</time>
      </trkpt>
      <trkpt lat="45.94846" lon="4.74228">
        <ele>190</ele>
        <time>2018-06-24T10:17:56Z</time>
      </trkpt>
      <trkpt lat="45.94841" lon="4.7422">
        <ele>190</ele>
        <time>2018-06-24T10:17:57Z</time>
      </trkpt>
      <trkpt lat="45.94836" lon="4.74213">
        <ele>190</ele>
        <time>2018-06-24T10:17:58Z</time>
      </trkpt>
      <trkpt lat="45.94832" lon="4.74205">
        <ele>189</ele>
        <time>2018-06-24T10:17:59Z</time>
      </trkpt>
      <trkpt lat="45.94828" lon="4.74198">
        <ele>189</ele>
        <time>2018-06-24T10:18:00Z</time>
      </trkpt>
      <trkpt lat="45.94824" lon="4.7419">
        <ele>189</ele>
        <time>2018-06-24T10:18:01Z</time>
      </trkpt>
      <trkpt lat="45.94818" lon="4.74182">
        <ele>189</ele>
        <time>2018-06-24T10:18:02Z</time>
      </trkpt>
      <trkpt lat="45.94813" lon="4.74175">
        <ele>189</ele>
        <time>2018-06-24T10:18:03Z</time>
      </trkpt>
      <trkpt lat="45.9481" lon="4.74168">
        <ele>189</ele>
        <time>2018-06-24T10:18:04Z</time>
      </trkpt>
      <trkpt lat="45.94805" lon="4.7416">
        <ele>189</ele>
        <time>2018-06-24T10:18:05Z</time>
      </trkpt>
      <trkpt lat="45.94801" lon="4.74153">
        <ele>189</ele>
        <time>2018-06-24T10:18:06Z</time>
      </trkpt>
      <trkpt lat="45.94798" lon="4.74146">
        <ele>189</ele>
        <time>2018-06-24T10:18:07Z</time>
      </trkpt>
      <trkpt lat="45.94795" lon="4.74138">
        <ele>189</ele>
        <time>2018-06-24T10:18:08Z</time>
      </trkpt>
      <trkpt lat="45.9479" lon="4.74131">
        <ele>189</ele>
        <time>2018-06-24T10:18:09Z</time>
      </trkpt>
      <trkpt lat="45.94785" lon="4.74123">
        <ele>189</ele>
        <time>2018-06-24T10:18:10Z</time>
      </trkpt>
      <trkpt lat="45.94781" lon="4.74117">
        <ele>189</ele>
        <time>2018-06-24T10:18:11Z</time>
      </trkpt>
      <trkpt lat="45.94776" lon="4.74111">
        <ele>189</ele>
        <time>2018-06-24T10:18:12Z</time>
      </trkpt>
      <trkpt lat="45.94772" lon="4.74105">
        <ele>189</ele>
        <time>2018-06-24T10:18:13Z</time>
      </trkpt>
      <trkpt lat="45.9477" lon="4.74099">
        <ele>189</ele>
        <time>2018-06-24T10:18:14Z</time>
      </trkpt>
      <trkpt lat="45.94764" lon="4.74092">
        <ele>189</ele>
        <time>2018-06-24T10:18:15Z</time>
      </trkpt>
      <trkpt lat="45.94759" lon="4.74087">
        <ele>189</ele>
        <time>2018-06-24T10:18:16Z</time>
      </trkpt>
      <trkpt lat="45.94755" lon="4.74081">
        <ele>189</ele>
        <time>2018-06-24T10:18:17Z</time>
      </trkpt>
      <trkpt lat="45.9475" lon="4.74074">
        <ele>189</ele>
        <time>2018-06-24T10:18:18Z</time>
      </trkpt>
      <trkpt lat="45.94746" lon="4.74068">
        <ele>188</ele>
        <time>2018-06-24T10:18:19Z</time>
      </trkpt>
      <trkpt lat="45.9474" lon="4.74062">
        <ele>188</ele>
        <time>2018-06-24T10:18:20Z</time>
      </trkpt>
      <trkpt lat="45.94736" lon="4.74056">
        <ele>188</ele>
        <time>2018-06-24T10:18:21Z</time>
      </trkpt>
      <trkpt lat="45.94732" lon="4.74051">
        <ele>188</ele>
        <time>2018-06-24T10:18:22Z</time>
      </trkpt>
      <trkpt lat="45.94727" lon="4.74044">
        <ele>188</ele>
        <time>2018-06-24T10:18:23Z</time>
      </trkpt>
      <trkpt lat="45.94723" lon="4.74039">
        <ele>187</ele>
        <time>2018-06-24T10:18:24Z</time>
      </trkpt>
      <trkpt lat="45.94718" lon="4.74034">
        <ele>187</ele>
        <time>2018-06-24T10:18:25Z</time>
      </trkpt>
      <trkpt lat="45.94714" lon="4.74028">
        <ele>187</ele>
        <time>2018-06-24T10:18:26Z</time>
      </trkpt>
      <trkpt lat="45.94709" lon="4.74023">
        <ele>187</ele>
        <time>2018-06-24T10:18:27Z</time>
      </trkpt>
      <trkpt lat="45.94705" lon="4.74017">
        <ele>187</ele>
        <time>2018-06-24T10:18:28Z</time>
      </trkpt>
      <trkpt lat="45.94702" lon="4.7401">
        <ele>187</ele>
        <time>2018-06-24T10:18:29Z</time>
      </trkpt>
      <trkpt lat="45.94698" lon="4.74005">
        <ele>187</ele>
        <time>2018-06-24T10:18:30Z</time>
      </trkpt>
      <trkpt lat="45.94693" lon="4.74">
        <ele>187</ele>
        <time>2018-06-24T10:18:31Z</time>
      </trkpt>
      <trkpt lat="45.94689" lon="4.73992">
        <ele>187</ele>
        <time>2018-06-24T10:18:32Z</time>
      </trkpt>
      <trkpt lat="45.94684" lon="4.73985">
        <ele>187</ele>
        <time>2018-06-24T10:18:33Z</time>
      </trkpt>
      <trkpt lat="45.94679" lon="4.73978">
        <ele>187</ele>
        <time>2018-06-24T10:18:34Z</time>
      </trkpt>
      <trkpt lat="45.94674" lon="4.7397">
        <ele>187</ele>
        <time>2018-06-24T10:18:35Z</time>
      </trkpt>
      <trkpt lat="45.94669" lon="4.73964">
        <ele>187</ele>
        <time>2018-06-24T10:18:36Z</time>
      </trkpt>
      <trkpt lat="45.94665" lon="4.73958">
        <ele>187</ele>
        <time>2018-06-24T10:18:37Z</time>
      </trkpt>
      <trkpt lat="45.9466" lon="4.73953">
        <ele>187</ele>
        <time>2018-06-24T10:18:38Z</time>
      </trkpt>
      <trkpt lat="45.94655" lon="4.73946">
        <ele>187</ele>
        <time>2018-06-24T10:18:39Z</time>
      </trkpt>
      <trkpt lat="45.94651" lon="4.73939">
        <ele>187</ele>
        <time>2018-06-24T10:18:40Z</time>
      </trkpt>
      <trkpt lat="45.94646" lon="4.73934">
        <ele>187</ele>
        <time>2018-06-24T10:18:41Z</time>
      </trkpt>
      <trkpt lat="45.94641" lon="4.73928">
        <ele>187</ele>
        <time>2018-06-24T10:18:42Z</time>
      </trkpt>
      <trkpt lat="45.94636" lon="4.73923">
        <ele>187</ele>
        <time>2018-06-24T10:18:43Z</time>
      </trkpt>
      <trkpt lat="45.94632" lon="4.73917">
        <ele>187</ele>
        <time>2018-06-24T10:18:44Z</time>
      </trkpt>
      <trkpt lat="45.94628" lon="4.73911">
        <ele>187</ele>
        <time>2018-06-24T10:18:45Z</time>
      </trkpt>
      <trkpt lat="45.94623" lon="4.73905">
        <ele>187</ele>
        <time>2018-06-24T10:18:46Z</time>
      </trkpt>
      <trkpt lat="45.94618" lon="4.73899">
        <ele>187</ele>
        <time>2018-06-24T10:18:47Z</time>
      </trkpt>
      <trkpt lat="45.94612" lon="4.73895">
        <ele>187</ele>
        <time>2018-06-24T10:18:48Z</time>
      </trkpt>
      <trkpt lat="45.94608" lon="4.73889">
        <ele>187</ele>
        <time>2018-06-24T10:18:49Z</time>
      </trkpt>
      <trkpt lat="45.94603" lon="4.73884">
        <ele>187</ele>
        <time>2018-06-24T10:18:50Z</time>
      </trkpt>
      <trkpt lat="45.94598" lon="4.73878">
        <ele>187</ele>
        <time>2018-06-24T10:18:51Z</time>
      </trkpt>
      <trkpt lat="45.94593" lon="4.73873">
        <ele>187</ele>
        <time>2018-06-24T10:18:52Z</time>
      </trkpt>
      <trkpt lat="45.94588" lon="4.73867">
        <ele>187</ele>
        <time>2018-06-24T10:18:53Z</time>
      </trkpt>
      <trkpt lat="45.94583" lon="4.73862">
        <ele>186</ele>
        <time>2018-06-24T10:18:54Z</time>
      </trkpt>
      <trkpt lat="45.94579" lon="4.73857">
        <ele>186</ele>
        <time>2018-06-24T10:18:55Z</time>
      </trkpt>
      <trkpt lat="45.94574" lon="4.73851">
        <ele>186</ele>
        <time>2018-06-24T10:18:56Z</time>
      </trkpt>
      <trkpt lat="45.94569" lon="4.73846">
        <ele>186</ele>
        <time>2018-06-24T10:18:57Z</time>
      </trkpt>
      <trkpt lat="45.94564" lon="4.73841">
        <ele>186</ele>
        <time>2018-06-24T10:18:58Z</time>
      </trkpt>
      <trkpt lat="45.94559" lon="4.73836">
        <ele>186</ele>
        <time>2018-06-24T10:18:59Z</time>
      </trkpt>
      <trkpt lat="45.94554" lon="4.73831">
        <ele>186</ele>
        <time>2018-06-24T10:19:00Z</time>
      </trkpt>
      <trkpt lat="45.94548" lon="4.73826">
        <ele>186</ele>
        <time>2018-06-24T10:19:01Z</time>
      </trkpt>
      <trkpt lat="45.94542" lon="4.73821">
        <ele>186</ele>
        <time>2018-06-24T10:19:02Z</time>
      </trkpt>
      <trkpt lat="45.94537" lon="4.73816">
        <ele>186</ele>
        <time>2018-06-24T10:19:03Z</time>
      </trkpt>
      <trkpt lat="45.94531" lon="4.7381">
        <ele>186</ele>
        <time>2018-06-24T10:19:04Z</time>
      </trkpt>
      <trkpt lat="45.94526" lon="4.73805">
        <ele>186</ele>
        <time>2018-06-24T10:19:05Z</time>
      </trkpt>
      <trkpt lat="45.94521" lon="4.738">
        <ele>186</ele>
        <time>2018-06-24T10:19:06Z</time>
      </trkpt>
      <trkpt lat="45.94517" lon="4.73793">
        <ele>186</ele>
        <time>2018-06-24T10:19:07Z</time>
      </trkpt>
      <trkpt lat="45.94513" lon="4.73788">
        <ele>186</ele>
        <time>2018-06-24T10:19:08Z</time>
      </trkpt>
      <trkpt lat="45.94508" lon="4.73783">
        <ele>186</ele>
        <time>2018-06-24T10:19:09Z</time>
      </trkpt>
      <trkpt lat="45.94502" lon="4.73778">
        <ele>186</ele>
        <time>2018-06-24T10:19:10Z</time>
      </trkpt>
      <trkpt lat="45.94498" lon="4.73772">
        <ele>186</ele>
        <time>2018-06-24T10:19:11Z</time>
      </trkpt>
      <trkpt lat="45.94495" lon="4.73764">
        <ele>186</ele>
        <time>2018-06-24T10:19:12Z</time>
      </trkpt>
      <trkpt lat="45.94493" lon="4.73757">
        <ele>186</ele>
        <time>2018-06-24T10:19:13Z</time>
      </trkpt>
      <trkpt lat="45.94491" lon="4.73749">
        <ele>186</ele>
        <time>2018-06-24T10:19:14Z</time>
      </trkpt>
      <trkpt lat="45.94489" lon="4.73742">
        <ele>186</ele>
        <time>2018-06-24T10:19:15Z</time>
      </trkpt>
      <trkpt lat="45.9449" lon="4.73734">
        <ele>186</ele>
        <time>2018-06-24T10:19:16Z</time>
      </trkpt>
      <trkpt lat="45.94491" lon="4.73725">
        <ele>186</ele>
        <time>2018-06-24T10:19:17Z</time>
      </trkpt>
      <trkpt lat="45.94492" lon="4.73717">
        <ele>186</ele>
        <time>2018-06-24T10:19:18Z</time>
      </trkpt>
      <trkpt lat="45.94494" lon="4.73708">
        <ele>186</ele>
        <time>2018-06-24T10:19:19Z</time>
      </trkpt>
      <trkpt lat="45.94495" lon="4.73699">
        <ele>186</ele>
        <time>2018-06-24T10:19:20Z</time>
      </trkpt>
      <trkpt lat="45.94497" lon="4.73691">
        <ele>186</ele>
        <time>2018-06-24T10:19:21Z</time>
      </trkpt>
      <trkpt lat="45.94496" lon="4.73683">
        <ele>186</ele>
        <time>2018-06-24T10:19:22Z</time>
      </trkpt>
      <trkpt lat="45.94497" lon="4.73674">
        <ele>185</ele>
        <time>2018-06-24T10:19:23Z</time>
      </trkpt>
      <trkpt lat="45.94499" lon="4.73665">
        <ele>185</ele>
        <time>2018-06-24T10:19:24Z</time>
      </trkpt>
      <trkpt lat="45.94499" lon="4.73657">
        <ele>185</ele>
        <time>2018-06-24T10:19:25Z</time>
      </trkpt>
      <trkpt lat="45.945" lon="4.73649">
        <ele>185</ele>
        <time>2018-06-24T10:19:26Z</time>
      </trkpt>
      <trkpt lat="45.94501" lon="4.73641">
        <ele>184</ele>
        <time>2018-06-24T10:19:27Z</time>
      </trkpt>
      <trkpt lat="45.94504" lon="4.73633">
        <ele>184</ele>
        <time>2018-06-24T10:19:28Z</time>
      </trkpt>
      <trkpt lat="45.94502" lon="4.73623">
        <ele>184</ele>
        <time>2018-06-24T10:19:29Z</time>
      </trkpt>
      <trkpt lat="45.94502" lon="4.73614">
        <ele>184</ele>
        <time>2018-06-24T10:19:30Z</time>
      </trkpt>
      <trkpt lat="45.94505" lon="4.73605">
        <ele>184</ele>
        <time>2018-06-24T10:19:31Z</time>
      </trkpt>
      <trkpt lat="45.94506" lon="4.73596">
        <ele>184</ele>
        <time>2018-06-24T10:19:32Z</time>
      </trkpt>
      <trkpt lat="45.94506" lon="4.73587">
        <ele>185</ele>
        <time>2018-06-24T10:19:33Z</time>
      </trkpt>
      <trkpt lat="45.94507" lon="4.73578">
        <ele>184</ele>
        <time>2018-06-24T10:19:34Z</time>
      </trkpt>
      <trkpt lat="45.94508" lon="4.73569">
        <ele>184</ele>
        <time>2018-06-24T10:19:35Z</time>
      </trkpt>
      <trkpt lat="45.94508" lon="4.73559">
        <ele>184</ele>
        <time>2018-06-24T10:19:36Z</time>
      </trkpt>
      <trkpt lat="45.94508" lon="4.7355">
        <ele>183</ele>
        <time>2018-06-24T10:19:37Z</time>
      </trkpt>
      <trkpt lat="45.94508" lon="4.73541">
        <ele>183</ele>
        <time>2018-06-24T10:19:38Z</time>
      </trkpt>
      <trkpt lat="45.94508" lon="4.73532">
        <ele>183</ele>
        <time>2018-06-24T10:19:39Z</time>
      </trkpt>
      <trkpt lat="45.94508" lon="4.73522">
        <ele>183</ele>
        <time>2018-06-24T10:19:40Z</time>
      </trkpt>
      <trkpt lat="45.9451" lon="4.73512">
        <ele>183</ele>
        <time>2018-06-24T10:19:41Z</time>
      </trkpt>
      <trkpt lat="45.9451" lon="4.73503">
        <ele>183</ele>
        <time>2018-06-24T10:19:42Z</time>
      </trkpt>
      <trkpt lat="45.94509" lon="4.73492">
        <ele>182</ele>
        <time>2018-06-24T10:19:43Z</time>
      </trkpt>
      <trkpt lat="45.94509" lon="4.73483">
        <ele>182</ele>
        <time>2018-06-24T10:19:44Z</time>
      </trkpt>
      <trkpt lat="45.94506" lon="4.73472">
        <ele>182</ele>
        <time>2018-06-24T10:19:45Z</time>
      </trkpt>
      <trkpt lat="45.94505" lon="4.73462">
        <ele>181</ele>
        <time>2018-06-24T10:19:46Z</time>
      </trkpt>
      <trkpt lat="45.94505" lon="4.73452">
        <ele>181</ele>
        <time>2018-06-24T10:19:47Z</time>
      </trkpt>
      <trkpt lat="45.94505" lon="4.73442">
        <ele>181</ele>
        <time>2018-06-24T10:19:48Z</time>
      </trkpt>
      <trkpt lat="45.94504" lon="4.73431">
        <ele>180</ele>
        <time>2018-06-24T10:19:49Z</time>
      </trkpt>
      <trkpt lat="45.94503" lon="4.73421">
        <ele>180</ele>
        <time>2018-06-24T10:19:50Z</time>
      </trkpt>
      <trkpt lat="45.94503" lon="4.7341">
        <ele>180</ele>
        <time>2018-06-24T10:19:51Z</time>
      </trkpt>
      <trkpt lat="45.94503" lon="4.73399">
        <ele>179</ele>
        <time>2018-06-24T10:19:52Z</time>
      </trkpt>
      <trkpt lat="45.94502" lon="4.73388">
        <ele>179</ele>
        <time>2018-06-24T10:19:53Z</time>
      </trkpt>
      <trkpt lat="45.94499" lon="4.73377">
        <ele>179</ele>
        <time>2018-06-24T10:19:54Z</time>
      </trkpt>
      <trkpt lat="45.94498" lon="4.73366">
        <ele>179</ele>
        <time>2018-06-24T10:19:55Z</time>
      </trkpt>
      <trkpt lat="45.94497" lon="4.73356">
        <ele>178</ele>
        <time>2018-06-24T10:19:56Z</time>
      </trkpt>
      <trkpt lat="45.94496" lon="4.73345">
        <ele>178</ele>
        <time>2018-06-24T10:19:57Z</time>
      </trkpt>
      <trkpt lat="45.94497" lon="4.73334">
        <ele>177</ele>
        <time>2018-06-24T10:19:58Z</time>
      </trkpt>
      <trkpt lat="45.94496" lon="4.73324">
        <ele>177</ele>
        <time>2018-06-24T10:19:59Z</time>
      </trkpt>
      <trkpt lat="45.94495" lon="4.73312">
        <ele>177</ele>
        <time>2018-06-24T10:20:00Z</time>
      </trkpt>
      <trkpt lat="45.94494" lon="4.73301">
        <ele>177</ele>
        <time>2018-06-24T10:20:01Z</time>
      </trkpt>
      <trkpt lat="45.9449" lon="4.7329">
        <ele>177</ele>
        <time>2018-06-24T10:20:02Z</time>
      </trkpt>
      <trkpt lat="45.94488" lon="4.73279">
        <ele>177</ele>
        <time>2018-06-24T10:20:03Z</time>
      </trkpt>
      <trkpt lat="45.94492" lon="4.73269">
        <ele>177</ele>
        <time>2018-06-24T10:20:04Z</time>
      </trkpt>
      <trkpt lat="45.94491" lon="4.73258">
        <ele>176</ele>
        <time>2018-06-24T10:20:05Z</time>
      </trkpt>
      <trkpt lat="45.9449" lon="4.73247">
        <ele>176</ele>
        <time>2018-06-24T10:20:06Z</time>
      </trkpt>
      <trkpt lat="45.94489" lon="4.73237">
        <ele>175</ele>
        <time>2018-06-24T10:20:07Z</time>
      </trkpt>
      <trkpt lat="45.94488" lon="4.73226">
        <ele>175</ele>
        <time>2018-06-24T10:20:08Z</time>
      </trkpt>
      <trkpt lat="45.94487" lon="4.73214">
        <ele>175</ele>
        <time>2018-06-24T10:20:09Z</time>
      </trkpt>
      <trkpt lat="45.94485" lon="4.73203">
        <ele>175</ele>
        <time>2018-06-24T10:20:10Z</time>
      </trkpt>
      <trkpt lat="45.94484" lon="4.73193">
        <ele>174</ele>
        <time>2018-06-24T10:20:11Z</time>
      </trkpt>
      <trkpt lat="45.94483" lon="4.73182">
        <ele>174</ele>
        <time>2018-06-24T10:20:12Z</time>
      </trkpt>
      <trkpt lat="45.94481" lon="4.73172">
        <ele>174</ele>
        <time>2018-06-24T10:20:13Z</time>
      </trkpt>
      <trkpt lat="45.9448" lon="4.73161">
        <ele>173</ele>
        <time>2018-06-24T10:20:14Z</time>
      </trkpt>
      <trkpt lat="45.94478" lon="4.7315">
        <ele>173</ele>
        <time>2018-06-24T10:20:15Z</time>
      </trkpt>
      <trkpt lat="45.94477" lon="4.73141">
        <ele>172</ele>
        <time>2018-06-24T10:20:16Z</time>
      </trkpt>
      <trkpt lat="45.94476" lon="4.73131">
        <ele>172</ele>
        <time>2018-06-24T10:20:17Z</time>
      </trkpt>
      <trkpt lat="45.94477" lon="4.73123">
        <ele>172</ele>
        <time>2018-06-24T10:20:18Z</time>
      </trkpt>
      <trkpt lat="45.94476" lon="4.73113">
        <ele>172</ele>
        <time>2018-06-24T10:20:19Z</time>
      </trkpt>
      <trkpt lat="45.94475" lon="4.73104">
        <ele>172</ele>
        <time>2018-06-24T10:20:20Z</time>
      </trkpt>
      <trkpt lat="45.94474" lon="4.73096">
        <ele>172</ele>
        <time>2018-06-24T10:20:21Z</time>
      </trkpt>
      <trkpt lat="45.94473" lon="4.73087">
        <ele>172</ele>
        <time>2018-06-24T10:20:22Z</time>
      </trkpt>
      <trkpt lat="45.94471" lon="4.73078">
        <ele>170</ele>
        <time>2018-06-24T10:20:23Z</time>
      </trkpt>
      <trkpt lat="45.9447" lon="4.7307">
        <ele>170</ele>
        <time>2018-06-24T10:20:24Z</time>
      </trkpt>
      <trkpt lat="45.94467" lon="4.73062">
        <ele>170</ele>
        <time>2018-06-24T10:20:25Z</time>
      </trkpt>
      <trkpt lat="45.94466" lon="4.73056">
        <ele>170</ele>
        <time>2018-06-24T10:20:26Z</time>
      </trkpt>
      <trkpt lat="45.94466" lon="4.73049">
        <ele>170</ele>
        <time>2018-06-24T10:20:27Z</time>
      </trkpt>
      <trkpt lat="45.94465" lon="4.73036">
        <ele>170</ele>
        <time>2018-06-24T10:20:29Z</time>
      </trkpt>
      <trkpt lat="45.94464" lon="4.73029">
        <ele>170</ele>
        <time>2018-06-24T10:20:30Z</time>
      </trkpt>
      <trkpt lat="45.9446" lon="4.7302">
        <ele>169</ele>
        <time>2018-06-24T10:20:31Z</time>
      </trkpt>
      <trkpt lat="45.94459" lon="4.73014">
        <ele>169</ele>
        <time>2018-06-24T10:20:32Z</time>
      </trkpt>
      <trkpt lat="45.94458" lon="4.73008">
        <ele>169</ele>
        <time>2018-06-24T10:20:33Z</time>
      </trkpt>
      <trkpt lat="45.94455" lon="4.73">
        <ele>169</ele>
        <time>2018-06-24T10:20:34Z</time>
      </trkpt>
      <trkpt lat="45.94454" lon="4.72988">
        <ele>167</ele>
        <time>2018-06-24T10:20:36Z</time>
      </trkpt>
      <trkpt lat="45.94452" lon="4.72983">
        <ele>167</ele>
        <time>2018-06-24T10:20:37Z</time>
      </trkpt>
      <trkpt lat="45.94449" lon="4.72976">
        <ele>167</ele>
        <time>2018-06-24T10:20:38Z</time>
      </trkpt>
      <trkpt lat="45.94449" lon="4.7297">
        <ele>167</ele>
        <time>2018-06-24T10:20:39Z</time>
      </trkpt>
      <trkpt lat="45.94448" lon="4.72958">
        <ele>167</ele>
        <time>2018-06-24T10:20:41Z</time>
      </trkpt>
      <trkpt lat="45.94448" lon="4.72951">
        <ele>167</ele>
        <time>2018-06-24T10:20:42Z</time>
      </trkpt>
      <trkpt lat="45.94447" lon="4.72939">
        <ele>167</ele>
        <time>2018-06-24T10:20:44Z</time>
      </trkpt>
      <trkpt lat="45.94447" lon="4.72933">
        <ele>167</ele>
        <time>2018-06-24T10:20:45Z</time>
      </trkpt>
      <trkpt lat="45.94446" lon="4.72922">
        <ele>167</ele>
        <time>2018-06-24T10:20:47Z</time>
      </trkpt>
      <trkpt lat="45.94445" lon="4.72915">
        <ele>166</ele>
        <time>2018-06-24T10:20:48Z</time>
      </trkpt>
      <trkpt lat="45.94444" lon="4.72903">
        <ele>166</ele>
        <time>2018-06-24T10:20:50Z</time>
      </trkpt>
      <trkpt lat="45.94443" lon="4.72896">
        <ele>166</ele>
        <time>2018-06-24T10:20:51Z</time>
      </trkpt>
      <trkpt lat="45.94442" lon="4.72889">
        <ele>166</ele>
        <time>2018-06-24T10:20:52Z</time>
      </trkpt>
      <trkpt lat="45.94442" lon="4.72881">
        <ele>166</ele>
        <time>2018-06-24T10:20:53Z</time>
      </trkpt>
      <trkpt lat="45.94441" lon="4.72874">
        <ele>166</ele>
        <time>2018-06-24T10:20:54Z</time>
      </trkpt>
      <trkpt lat="45.9444" lon="4.72866">
        <ele>166</ele>
        <time>2018-06-24T10:20:55Z</time>
      </trkpt>
      <trkpt lat="45.94437" lon="4.72857">
        <ele>166</ele>
        <time>2018-06-24T10:20:56Z</time>
      </trkpt>
      <trkpt lat="45.94439" lon="4.72849">
        <ele>166</ele>
        <time>2018-06-24T10:20:57Z</time>
      </trkpt>
      <trkpt lat="45.94436" lon="4.7284">
        <ele>166</ele>
        <time>2018-06-24T10:20:58Z</time>
      </trkpt>
      <trkpt lat="45.94435" lon="4.72831">
        <ele>167</ele>
        <time>2018-06-24T10:20:59Z</time>
      </trkpt>
      <trkpt lat="45.94432" lon="4.72821">
        <ele>167</ele>
        <time>2018-06-24T10:21:00Z</time>
      </trkpt>
      <trkpt lat="45.94434" lon="4.72812">
        <ele>167</ele>
        <time>2018-06-24T10:21:01Z</time>
      </trkpt>
      <trkpt lat="45.94431" lon="4.72801">
        <ele>167</ele>
        <time>2018-06-24T10:21:02Z</time>
      </trkpt>
      <trkpt lat="45.94429" lon="4.72791">
        <ele>168</ele>
        <time>2018-06-24T10:21:03Z</time>
      </trkpt>
      <trkpt lat="45.94426" lon="4.7278">
        <ele>168</ele>
        <time>2018-06-24T10:21:04Z</time>
      </trkpt>
      <trkpt lat="45.94423" lon="4.7277">
        <ele>169</ele>
        <time>2018-06-24T10:21:05Z</time>
      </trkpt>
      <trkpt lat="45.94423" lon="4.72761">
        <ele>169</ele>
        <time>2018-06-24T10:21:06Z</time>
      </trkpt>
      <trkpt lat="45.94422" lon="4.72751">
        <ele>170</ele>
        <time>2018-06-24T10:21:07Z</time>
      </trkpt>
      <trkpt lat="45.94419" lon="4.72741">
        <ele>171</ele>
        <time>2018-06-24T10:21:08Z</time>
      </trkpt>
      <trkpt lat="45.94417" lon="4.7273">
        <ele>172</ele>
        <time>2018-06-24T10:21:09Z</time>
      </trkpt>
      <trkpt lat="45.94415" lon="4.7272">
        <ele>172</ele>
        <time>2018-06-24T10:21:10Z</time>
      </trkpt>
      <trkpt lat="45.94414" lon="4.72709">
        <ele>172</ele>
        <time>2018-06-24T10:21:11Z</time>
      </trkpt>
      <trkpt lat="45.94415" lon="4.72699">
        <ele>172</ele>
        <time>2018-06-24T10:21:12Z</time>
      </trkpt>
      <trkpt lat="45.94414" lon="4.72689">
        <ele>173</ele>
        <time>2018-06-24T10:21:13Z</time>
      </trkpt>
      <trkpt lat="45.94411" lon="4.72679">
        <ele>173</ele>
        <time>2018-06-24T10:21:14Z</time>
      </trkpt>
      <trkpt lat="45.94411" lon="4.72669">
        <ele>174</ele>
        <time>2018-06-24T10:21:15Z</time>
      </trkpt>
      <trkpt lat="45.94408" lon="4.7266">
        <ele>174</ele>
        <time>2018-06-24T10:21:16Z</time>
      </trkpt>
      <trkpt lat="45.94408" lon="4.7265">
        <ele>174</ele>
        <time>2018-06-24T10:21:17Z</time>
      </trkpt>
      <trkpt lat="45.94407" lon="4.72641">
        <ele>174</ele>
        <time>2018-06-24T10:21:18Z</time>
      </trkpt>
      <trkpt lat="45.94405" lon="4.72632">
        <ele>174</ele>
        <time>2018-06-24T10:21:19Z</time>
      </trkpt>
      <trkpt lat="45.94405" lon="4.72623">
        <ele>173</ele>
        <time>2018-06-24T10:21:20Z</time>
      </trkpt>
      <trkpt lat="45.94403" lon="4.72614">
        <ele>173</ele>
        <time>2018-06-24T10:21:21Z</time>
      </trkpt>
      <trkpt lat="45.94399" lon="4.72604">
        <ele>173</ele>
        <time>2018-06-24T10:21:22Z</time>
      </trkpt>
      <trkpt lat="45.94397" lon="4.72596">
        <ele>173</ele>
        <time>2018-06-24T10:21:23Z</time>
      </trkpt>
      <trkpt lat="45.94396" lon="4.72587">
        <ele>173</ele>
        <time>2018-06-24T10:21:24Z</time>
      </trkpt>
      <trkpt lat="45.94396" lon="4.72579">
        <ele>173</ele>
        <time>2018-06-24T10:21:25Z</time>
      </trkpt>
      <trkpt lat="45.94395" lon="4.7257">
        <ele>173</ele>
        <time>2018-06-24T10:21:26Z</time>
      </trkpt>
      <trkpt lat="45.94394" lon="4.72563">
        <ele>173</ele>
        <time>2018-06-24T10:21:27Z</time>
      </trkpt>
      <trkpt lat="45.94393" lon="4.72556">
        <ele>173</ele>
        <time>2018-06-24T10:21:28Z</time>
      </trkpt>
      <trkpt lat="45.94391" lon="4.72548">
        <ele>173</ele>
        <time>2018-06-24T10:21:29Z</time>
      </trkpt>
      <trkpt lat="45.94391" lon="4.7254">
        <ele>174</ele>
        <time>2018-06-24T10:21:30Z</time>
      </trkpt>
      <trkpt lat="45.94389" lon="4.72533">
        <ele>174</ele>
        <time>2018-06-24T10:21:31Z</time>
      </trkpt>
      <trkpt lat="45.94387" lon="4.72526">
        <ele>174</ele>
        <time>2018-06-24T10:21:32Z</time>
      </trkpt>
      <trkpt lat="45.94384" lon="4.72517">
        <ele>174</ele>
        <time>2018-06-24T10:21:33Z</time>
      </trkpt>
      <trkpt lat="45.94381" lon="4.72509">
        <ele>174</ele>
        <time>2018-06-24T10:21:34Z</time>
      </trkpt>
      <trkpt lat="45.94379" lon="4.725">
        <ele>173</ele>
        <time>2018-06-24T10:21:35Z</time>
      </trkpt>
      <trkpt lat="45.94375" lon="4.7249">
        <ele>173</ele>
        <time>2018-06-24T10:21:36Z</time>
      </trkpt>
      <trkpt lat="45.94372" lon="4.72483">
        <ele>173</ele>
        <time>2018-06-24T10:21:37Z</time>
      </trkpt>
      <trkpt lat="45.9437" lon="4.72475">
        <ele>173</ele>
        <time>2018-06-24T10:21:38Z</time>
      </trkpt>
      <trkpt lat="45.94366" lon="4.72466">
        <ele>173</ele>
        <time>2018-06-24T10:21:39Z</time>
      </trkpt>
      <trkpt lat="45.94363" lon="4.72458">
        <ele>173</ele>
        <time>2018-06-24T10:21:40Z</time>
      </trkpt>
      <trkpt lat="45.94361" lon="4.72451">
        <ele>173</ele>
        <time>2018-06-24T10:21:41Z</time>
      </trkpt>
      <trkpt lat="45.94359" lon="4.72443">
        <ele>173</ele>
        <time>2018-06-24T10:21:42Z</time>
      </trkpt>
      <trkpt lat="45.94355" lon="4.72436">
        <ele>173</ele>
        <time>2018-06-24T10:21:43Z</time>
      </trkpt>
      <trkpt lat="45.94353" lon="4.7243">
        <ele>173</ele>
        <time>2018-06-24T10:21:44Z</time>
      </trkpt>
      <trkpt lat="45.94347" lon="4.72422">
        <ele>173</ele>
        <time>2018-06-24T10:21:45Z</time>
      </trkpt>
      <trkpt lat="45.94343" lon="4.72416">
        <ele>173</ele>
        <time>2018-06-24T10:21:46Z</time>
      </trkpt>
      <trkpt lat="45.94342" lon="4.72408">
        <ele>173</ele>
        <time>2018-06-24T10:21:47Z</time>
      </trkpt>
      <trkpt lat="45.94337" lon="4.72403">
        <ele>173</ele>
        <time>2018-06-24T10:21:48Z</time>
      </trkpt>
      <trkpt lat="45.94333" lon="4.72395">
        <ele>172</ele>
        <time>2018-06-24T10:21:49Z</time>
      </trkpt>
      <trkpt lat="45.9433" lon="4.72388">
        <ele>172</ele>
        <time>2018-06-24T10:21:50Z</time>
      </trkpt>
      <trkpt lat="45.94326" lon="4.7238">
        <ele>172</ele>
        <time>2018-06-24T10:21:51Z</time>
      </trkpt>
      <trkpt lat="45.94322" lon="4.72372">
        <ele>172</ele>
        <time>2018-06-24T10:21:52Z</time>
      </trkpt>
      <trkpt lat="45.94317" lon="4.72363">
        <ele>172</ele>
        <time>2018-06-24T10:21:53Z</time>
      </trkpt>
      <trkpt lat="45.94315" lon="4.72356">
        <ele>172</ele>
        <time>2018-06-24T10:21:54Z</time>
      </trkpt>
      <trkpt lat="45.94311" lon="4.72347">
        <ele>172</ele>
        <time>2018-06-24T10:21:55Z</time>
      </trkpt>
      <trkpt lat="45.94308" lon="4.72339">
        <ele>172</ele>
        <time>2018-06-24T10:21:56Z</time>
      </trkpt>
      <trkpt lat="45.94306" lon="4.72331">
        <ele>171</ele>
        <time>2018-06-24T10:21:57Z</time>
      </trkpt>
      <trkpt lat="45.94304" lon="4.72322">
        <ele>171</ele>
        <time>2018-06-24T10:21:58Z</time>
      </trkpt>
      <trkpt lat="45.943" lon="4.72316">
        <ele>171</ele>
        <time>2018-06-24T10:21:59Z</time>
      </trkpt>
      <trkpt lat="45.94297" lon="4.72308">
        <ele>171</ele>
        <time>2018-06-24T10:22:00Z</time>
      </trkpt>
      <trkpt lat="45.94294" lon="4.723">
        <ele>171</ele>
        <time>2018-06-24T10:22:01Z</time>
      </trkpt>
      <trkpt lat="45.9429" lon="4.72292">
        <ele>171</ele>
        <time>2018-06-24T10:22:02Z</time>
      </trkpt>
      <trkpt lat="45.94287" lon="4.72286">
        <ele>171</ele>
        <time>2018-06-24T10:22:03Z</time>
      </trkpt>
      <trkpt lat="45.94283" lon="4.7228">
        <ele>171</ele>
        <time>2018-06-24T10:22:04Z</time>
      </trkpt>
      <trkpt lat="45.94279" lon="4.72276">
        <ele>171</ele>
        <time>2018-06-24T10:22:05Z</time>
      </trkpt>
      <trkpt lat="45.94275" lon="4.72274">
        <ele>171</ele>
        <time>2018-06-24T10:22:06Z</time>
      </trkpt>
      <trkpt lat="45.94269" lon="4.72272">
        <ele>171</ele>
        <time>2018-06-24T10:22:07Z</time>
      </trkpt>
      <trkpt lat="45.94263" lon="4.72272">
        <ele>171</ele>
        <time>2018-06-24T10:22:08Z</time>
      </trkpt>
      <trkpt lat="45.9426" lon="4.72273">
        <ele>171</ele>
        <time>2018-06-24T10:22:09Z</time>
      </trkpt>
      <trkpt lat="45.94254" lon="4.72275">
        <ele>171</ele>
        <time>2018-06-24T10:22:10Z</time>
      </trkpt>
      <trkpt lat="45.94244" lon="4.7228">
        <ele>171</ele>
        <time>2018-06-24T10:22:11Z</time>
      </trkpt>
      <trkpt lat="45.94239" lon="4.72281">
        <ele>171</ele>
        <time>2018-06-24T10:22:12Z</time>
      </trkpt>
      <trkpt lat="45.94232" lon="4.72283">
        <ele>171</ele>
        <time>2018-06-24T10:22:13Z</time>
      </trkpt>
      <trkpt lat="45.94227" lon="4.72285">
        <ele>171</ele>
        <time>2018-06-24T10:22:14Z</time>
      </trkpt>
      <trkpt lat="45.94221" lon="4.72287">
        <ele>171</ele>
        <time>2018-06-24T10:22:15Z</time>
      </trkpt>
      <trkpt lat="45.94216" lon="4.72288">
        <ele>171</ele>
        <time>2018-06-24T10:22:16Z</time>
      </trkpt>
      <trkpt lat="45.9421" lon="4.72289">
        <ele>171</ele>
        <time>2018-06-24T10:22:17Z</time>
      </trkpt>
      <trkpt lat="45.94204" lon="4.72289">
        <ele>171</ele>
        <time>2018-06-24T10:22:18Z</time>
      </trkpt>
      <trkpt lat="45.94199" lon="4.72289">
        <ele>171</ele>
        <time>2018-06-24T10:22:19Z</time>
      </trkpt>
      <trkpt lat="45.94194" lon="4.72288">
        <ele>171</ele>
        <time>2018-06-24T10:22:20Z</time>
      </trkpt>
      <trkpt lat="45.94189" lon="4.72286">
        <ele>171</ele>
        <time>2018-06-24T10:22:21Z</time>
      </trkpt>
      <trkpt lat="45.94184" lon="4.72286">
        <ele>171</ele>
        <time>2018-06-24T10:22:22Z</time>
      </trkpt>
      <trkpt lat="45.94178" lon="4.72285">
        <ele>171</ele>
        <time>2018-06-24T10:22:23Z</time>
      </trkpt>
      <trkpt lat="45.94172" lon="4.72284">
        <ele>171</ele>
        <time>2018-06-24T10:22:24Z</time>
      </trkpt>
      <trkpt lat="45.94166" lon="4.72284">
        <ele>171</ele>
        <time>2018-06-24T10:22:25Z</time>
      </trkpt>
      <trkpt lat="45.9416" lon="4.72283">
        <ele>171</ele>
        <time>2018-06-24T10:22:26Z</time>
      </trkpt>
      <trkpt lat="45.94154" lon="4.7228">
        <ele>171</ele>
        <time>2018-06-24T10:22:27Z</time>
      </trkpt>
      <trkpt lat="45.94147" lon="4.72278">
        <ele>171</ele>
        <time>2018-06-24T10:22:28Z</time>
      </trkpt>
      <trkpt lat="45.94142" lon="4.72274">
        <ele>171</ele>
        <time>2018-06-24T10:22:29Z</time>
      </trkpt>
      <trkpt lat="45.94136" lon="4.72272">
        <ele>171</ele>
        <time>2018-06-24T10:22:30Z</time>
      </trkpt>
      <trkpt lat="45.94131" lon="4.72268">
        <ele>171</ele>
        <time>2018-06-24T10:22:31Z</time>
      </trkpt>
      <trkpt lat="45.94126" lon="4.72266">
        <ele>171</ele>
        <time>2018-06-24T10:22:32Z</time>
      </trkpt>
      <trkpt lat="45.9412" lon="4.72264">
        <ele>171</ele>
        <time>2018-06-24T10:22:33Z</time>
      </trkpt>
      <trkpt lat="45.94114" lon="4.72263">
        <ele>171</ele>
        <time>2018-06-24T10:22:34Z</time>
      </trkpt>
      <trkpt lat="45.94109" lon="4.72263">
        <ele>171</ele>
        <time>2018-06-24T10:22:35Z</time>
      </trkpt>
      <trkpt lat="45.94103" lon="4.72262">
        <ele>171</ele>
        <time>2018-06-24T10:22:36Z</time>
      </trkpt>
      <trkpt lat="45.941" lon="4.72263">
        <ele>171</ele>
        <time>2018-06-24T10:22:37Z</time>
      </trkpt>
      <trkpt lat="45.94094" lon="4.72264">
        <ele>171</ele>
        <time>2018-06-24T10:22:38Z</time>
      </trkpt>
      <trkpt lat="45.94087" lon="4.72267">
        <ele>171</ele>
        <time>2018-06-24T10:22:39Z</time>
      </trkpt>
      <trkpt lat="45.94081" lon="4.72269">
        <ele>171</ele>
        <time>2018-06-24T10:22:40Z</time>
      </trkpt>
      <trkpt lat="45.94077" lon="4.72272">
        <ele>171</ele>
        <time>2018-06-24T10:22:41Z</time>
      </trkpt>
      <trkpt lat="45.94072" lon="4.72276">
        <ele>171</ele>
        <time>2018-06-24T10:22:42Z</time>
      </trkpt>
      <trkpt lat="45.94068" lon="4.72283">
        <ele>171</ele>
        <time>2018-06-24T10:22:43Z</time>
      </trkpt>
      <trkpt lat="45.94062" lon="4.72289">
        <ele>171</ele>
        <time>2018-06-24T10:22:44Z</time>
      </trkpt>
      <trkpt lat="45.94057" lon="4.72295">
        <ele>171</ele>
        <time>2018-06-24T10:22:45Z</time>
      </trkpt>
      <trkpt lat="45.94052" lon="4.72301">
        <ele>171</ele>
        <time>2018-06-24T10:22:46Z</time>
      </trkpt>
      <trkpt lat="45.94049" lon="4.72307">
        <ele>171</ele>
        <time>2018-06-24T10:22:47Z</time>
      </trkpt>
      <trkpt lat="45.94044" lon="4.72313">
        <ele>171</ele>
        <time>2018-06-24T10:22:48Z</time>
      </trkpt>
      <trkpt lat="45.94039" lon="4.72319">
        <ele>171</ele>
        <time>2018-06-24T10:22:49Z</time>
      </trkpt>
      <trkpt lat="45.94034" lon="4.72325">
        <ele>171</ele>
        <time>2018-06-24T10:22:50Z</time>
      </trkpt>
      <trkpt lat="45.9403" lon="4.72332">
        <ele>171</ele>
        <time>2018-06-24T10:22:51Z</time>
      </trkpt>
      <trkpt lat="45.94024" lon="4.72338">
        <ele>171</ele>
        <time>2018-06-24T10:22:52Z</time>
      </trkpt>
      <trkpt lat="45.94019" lon="4.72344">
        <ele>171</ele>
        <time>2018-06-24T10:22:53Z</time>
      </trkpt>
      <trkpt lat="45.94014" lon="4.72349">
        <ele>171</ele>
        <time>2018-06-24T10:22:54Z</time>
      </trkpt>
      <trkpt lat="45.9401" lon="4.72357">
        <ele>171</ele>
        <time>2018-06-24T10:22:55Z</time>
      </trkpt>
      <trkpt lat="45.94005" lon="4.72363">
        <ele>171</ele>
        <time>2018-06-24T10:22:56Z</time>
      </trkpt>
      <trkpt lat="45.94001" lon="4.72367">
        <ele>171</ele>
        <time>2018-06-24T10:22:57Z</time>
      </trkpt>
      <trkpt lat="45.93996" lon="4.72373">
        <ele>171</ele>
        <time>2018-06-24T10:22:58Z</time>
      </trkpt>
      <trkpt lat="45.93992" lon="4.72379">
        <ele>171</ele>
        <time>2018-06-24T10:22:59Z</time>
      </trkpt>
      <trkpt lat="45.93988" lon="4.72385">
        <ele>171</ele>
        <time>2018-06-24T10:23:00Z</time>
      </trkpt>
      <trkpt lat="45.93983" lon="4.72391">
        <ele>171</ele>
        <time>2018-06-24T10:23:01Z</time>
      </trkpt>
      <trkpt lat="45.93978" lon="4.72396">
        <ele>171</ele>
        <time>2018-06-24T10:23:02Z</time>
      </trkpt>
      <trkpt lat="45.93973" lon="4.72401">
        <ele>171</ele>
        <time>2018-06-24T10:23:03Z</time>
      </trkpt>
      <trkpt lat="45.93968" lon="4.72407">
        <ele>171</ele>
        <time>2018-06-24T10:23:04Z</time>
      </trkpt>
      <trkpt lat="45.93964" lon="4.72413">
        <ele>171</ele>
        <time>2018-06-24T10:23:05Z</time>
      </trkpt>
      <trkpt lat="45.93958" lon="4.72415">
        <ele>171</ele>
        <time>2018-06-24T10:23:06Z</time>
      </trkpt>
      <trkpt lat="45.93954" lon="4.72421">
        <ele>171</ele>
        <time>2018-06-24T10:23:07Z</time>
      </trkpt>
      <trkpt lat="45.93949" lon="4.72426">
        <ele>171</ele>
        <time>2018-06-24T10:23:08Z</time>
      </trkpt>
      <trkpt lat="45.93945" lon="4.72432">
        <ele>171</ele>
        <time>2018-06-24T10:23:09Z</time>
      </trkpt>
      <trkpt lat="45.93941" lon="4.72438">
        <ele>171</ele>
        <time>2018-06-24T10:23:10Z</time>
      </trkpt>
      <trkpt lat="45.93936" lon="4.72443">
        <ele>171</ele>
        <time>2018-06-24T10:23:11Z</time>
      </trkpt>
      <trkpt lat="45.93933" lon="4.72448">
        <ele>171</ele>
        <time>2018-06-24T10:23:12Z</time>
      </trkpt>
      <trkpt lat="45.93928" lon="4.72453">
        <ele>171</ele>
        <time>2018-06-24T10:23:13Z</time>
      </trkpt>
      <trkpt lat="45.93924" lon="4.72459">
        <ele>171</ele>
        <time>2018-06-24T10:23:14Z</time>
      </trkpt>
      <trkpt lat="45.9392" lon="4.72464">
        <ele>171</ele>
        <time>2018-06-24T10:23:15Z</time>
      </trkpt>
      <trkpt lat="45.93915" lon="4.72468">
        <ele>172</ele>
        <time>2018-06-24T10:23:16Z</time>
      </trkpt>
      <trkpt lat="45.93911" lon="4.72473">
        <ele>172</ele>
        <time>2018-06-24T10:23:17Z</time>
      </trkpt>
      <trkpt lat="45.93911" lon="4.72481">
        <ele>172</ele>
        <time>2018-06-24T10:23:18Z</time>
      </trkpt>
      <trkpt lat="45.93907" lon="4.72486">
        <ele>172</ele>
        <time>2018-06-24T10:23:19Z</time>
      </trkpt>
      <trkpt lat="45.93904" lon="4.72491">
        <ele>172</ele>
        <time>2018-06-24T10:23:20Z</time>
      </trkpt>
      <trkpt lat="45.939" lon="4.72496">
        <ele>172</ele>
        <time>2018-06-24T10:23:21Z</time>
      </trkpt>
      <trkpt lat="45.93895" lon="4.725">
        <ele>172</ele>
        <time>2018-06-24T10:23:22Z</time>
      </trkpt>
      <trkpt lat="45.93891" lon="4.72505">
        <ele>173</ele>
        <time>2018-06-24T10:23:23Z</time>
      </trkpt>
      <trkpt lat="45.93887" lon="4.72509">
        <ele>173</ele>
        <time>2018-06-24T10:23:24Z</time>
      </trkpt>
      <trkpt lat="45.93884" lon="4.72514">
        <ele>173</ele>
        <time>2018-06-24T10:23:25Z</time>
      </trkpt>
      <trkpt lat="45.93875" lon="4.72517">
        <ele>173</ele>
        <time>2018-06-24T10:23:27Z</time>
      </trkpt>
      <trkpt lat="45.93871" lon="4.72515">
        <ele>173</ele>
        <time>2018-06-24T10:23:28Z</time>
      </trkpt>
      <trkpt lat="45.9387" lon="4.72515">
        <ele>173</ele>
        <time>2018-06-24T10:23:29Z</time>
      </trkpt>
      <trkpt lat="45.93818" lon="4.72463">
        <ele>172</ele>
        <time>2018-06-24T10:23:39Z</time>
      </trkpt>
      <trkpt lat="45.93811" lon="4.72458">
        <ele>172</ele>
        <time>2018-06-24T10:23:40Z</time>
      </trkpt>
      <trkpt lat="45.93807" lon="4.72454">
        <ele>172</ele>
        <time>2018-06-24T10:23:41Z</time>
      </trkpt>
      <trkpt lat="45.93801" lon="4.72445">
        <ele>172</ele>
        <time>2018-06-24T10:23:44Z</time>
      </trkpt>
      <trkpt lat="45.93797" lon="4.7244">
        <ele>172</ele>
        <time>2018-06-24T10:23:45Z</time>
      </trkpt>
      <trkpt lat="45.93792" lon="4.72431">
        <ele>172</ele>
        <time>2018-06-24T10:23:47Z</time>
      </trkpt>
      <trkpt lat="45.93789" lon="4.72427">
        <ele>172</ele>
        <time>2018-06-24T10:23:48Z</time>
      </trkpt>
      <trkpt lat="45.93783" lon="4.72423">
        <ele>172</ele>
        <time>2018-06-24T10:23:49Z</time>
      </trkpt>
      <trkpt lat="45.93777" lon="4.72418">
        <ele>171</ele>
        <time>2018-06-24T10:23:50Z</time>
      </trkpt>
      <trkpt lat="45.93774" lon="4.72415">
        <ele>171</ele>
        <time>2018-06-24T10:23:51Z</time>
      </trkpt>
      <trkpt lat="45.93767" lon="4.7241">
        <ele>171</ele>
        <time>2018-06-24T10:23:52Z</time>
      </trkpt>
      <trkpt lat="45.93761" lon="4.72406">
        <ele>171</ele>
        <time>2018-06-24T10:23:53Z</time>
      </trkpt>
      <trkpt lat="45.93755" lon="4.72402">
        <ele>171</ele>
        <time>2018-06-24T10:23:54Z</time>
      </trkpt>
      <trkpt lat="45.9375" lon="4.72397">
        <ele>171</ele>
        <time>2018-06-24T10:23:55Z</time>
      </trkpt>
      <trkpt lat="45.93745" lon="4.72393">
        <ele>171</ele>
        <time>2018-06-24T10:23:56Z</time>
      </trkpt>
      <trkpt lat="45.93742" lon="4.72389">
        <ele>171</ele>
        <time>2018-06-24T10:23:57Z</time>
      </trkpt>
      <trkpt lat="45.93737" lon="4.72384">
        <ele>171</ele>
        <time>2018-06-24T10:23:58Z</time>
      </trkpt>
      <trkpt lat="45.93732" lon="4.7238">
        <ele>171</ele>
        <time>2018-06-24T10:23:59Z</time>
      </trkpt>
      <trkpt lat="45.93727" lon="4.72375">
        <ele>171</ele>
        <time>2018-06-24T10:24:00Z</time>
      </trkpt>
      <trkpt lat="45.93722" lon="4.72371">
        <ele>172</ele>
        <time>2018-06-24T10:24:01Z</time>
      </trkpt>
      <trkpt lat="45.93719" lon="4.72366">
        <ele>172</ele>
        <time>2018-06-24T10:24:02Z</time>
      </trkpt>
      <trkpt lat="45.93714" lon="4.72362">
        <ele>172</ele>
        <time>2018-06-24T10:24:03Z</time>
      </trkpt>
      <trkpt lat="45.93708" lon="4.72359">
        <ele>172</ele>
        <time>2018-06-24T10:24:04Z</time>
      </trkpt>
      <trkpt lat="45.93704" lon="4.72354">
        <ele>171</ele>
        <time>2018-06-24T10:24:05Z</time>
      </trkpt>
      <trkpt lat="45.93686" lon="4.72336">
        <ele>171</ele>
        <time>2018-06-24T10:24:09Z</time>
      </trkpt>
      <trkpt lat="45.9368" lon="4.72328">
        <ele>171</ele>
        <time>2018-06-24T10:24:11Z</time>
      </trkpt>
      <trkpt lat="45.93679" lon="4.72324">
        <ele>171</ele>
        <time>2018-06-24T10:24:12Z</time>
      </trkpt>
      <trkpt lat="45.93674" lon="4.7232">
        <ele>171</ele>
        <time>2018-06-24T10:24:13Z</time>
      </trkpt>
      <trkpt lat="45.93669" lon="4.72316">
        <ele>172</ele>
        <time>2018-06-24T10:24:14Z</time>
      </trkpt>
      <trkpt lat="45.93664" lon="4.72311">
        <ele>172</ele>
        <time>2018-06-24T10:24:15Z</time>
      </trkpt>
      <trkpt lat="45.93659" lon="4.72306">
        <ele>172</ele>
        <time>2018-06-24T10:24:16Z</time>
      </trkpt>
      <trkpt lat="45.93654" lon="4.72301">
        <ele>172</ele>
        <time>2018-06-24T10:24:17Z</time>
      </trkpt>
      <trkpt lat="45.9365" lon="4.72296">
        <ele>172</ele>
        <time>2018-06-24T10:24:18Z</time>
      </trkpt>
      <trkpt lat="45.93644" lon="4.72291">
        <ele>172</ele>
        <time>2018-06-24T10:24:19Z</time>
      </trkpt>
      <trkpt lat="45.9364" lon="4.72286">
        <ele>172</ele>
        <time>2018-06-24T10:24:20Z</time>
      </trkpt>
      <trkpt lat="45.93636" lon="4.72281">
        <ele>172</ele>
        <time>2018-06-24T10:24:21Z</time>
      </trkpt>
      <trkpt lat="45.93631" lon="4.72279">
        <ele>172</ele>
        <time>2018-06-24T10:24:22Z</time>
      </trkpt>
      <trkpt lat="45.93626" lon="4.72274">
        <ele>172</ele>
        <time>2018-06-24T10:24:23Z</time>
      </trkpt>
      <trkpt lat="45.93621" lon="4.7227">
        <ele>172</ele>
        <time>2018-06-24T10:24:24Z</time>
      </trkpt>
      <trkpt lat="45.93613" lon="4.72264">
        <ele>172</ele>
        <time>2018-06-24T10:24:25Z</time>
      </trkpt>
      <trkpt lat="45.93608" lon="4.7226">
        <ele>173</ele>
        <time>2018-06-24T10:24:26Z</time>
      </trkpt>
      <trkpt lat="45.93604" lon="4.72256">
        <ele>173</ele>
        <time>2018-06-24T10:24:27Z</time>
      </trkpt>
      <trkpt lat="45.93598" lon="4.72252">
        <ele>173</ele>
        <time>2018-06-24T10:24:28Z</time>
      </trkpt>
      <trkpt lat="45.93596" lon="4.72248">
        <ele>173</ele>
        <time>2018-06-24T10:24:29Z</time>
      </trkpt>
      <trkpt lat="45.93592" lon="4.72245">
        <ele>173</ele>
        <time>2018-06-24T10:24:30Z</time>
      </trkpt>
      <trkpt lat="45.93587" lon="4.72241">
        <ele>173</ele>
        <time>2018-06-24T10:24:31Z</time>
      </trkpt>
      <trkpt lat="45.93581" lon="4.72236">
        <ele>173</ele>
        <time>2018-06-24T10:24:32Z</time>
      </trkpt>
      <trkpt lat="45.93577" lon="4.72234">
        <ele>173</ele>
        <time>2018-06-24T10:24:33Z</time>
      </trkpt>
      <trkpt lat="45.9357" lon="4.72231">
        <ele>173</ele>
        <time>2018-06-24T10:24:37Z</time>
      </trkpt>
      <trkpt lat="45.93569" lon="4.72229">
        <ele>173</ele>
        <time>2018-06-24T10:24:38Z</time>
      </trkpt>
      <trkpt lat="45.93562" lon="4.72221">
        <ele>173</ele>
        <time>2018-06-24T10:24:50Z</time>
      </trkpt>
      <trkpt lat="45.93561" lon="4.72221">
        <ele>173</ele>
        <time>2018-06-24T10:24:51Z</time>
      </trkpt>
      <trkpt lat="45.93555" lon="4.72216">
        <ele>173</ele>
        <time>2018-06-24T10:25:05Z</time>
      </trkpt>
      <trkpt lat="45.93552" lon="4.72217">
        <ele>173</ele>
        <time>2018-06-24T10:25:06Z</time>
      </trkpt>
      <trkpt lat="45.93546" lon="4.72225">
        <ele>172</ele>
        <time>2018-06-24T10:25:09Z</time>
      </trkpt>
      <trkpt lat="45.93544" lon="4.72228">
        <ele>172</ele>
        <time>2018-06-24T10:25:10Z</time>
      </trkpt>
      <trkpt lat="45.9354" lon="4.72237">
        <ele>172</ele>
        <time>2018-06-24T10:25:13Z</time>
      </trkpt>
      <trkpt lat="45.93539" lon="4.72241">
        <ele>172</ele>
        <time>2018-06-24T10:25:14Z</time>
      </trkpt>
      <trkpt lat="45.93536" lon="4.7225">
        <ele>172</ele>
        <time>2018-06-24T10:25:16Z</time>
      </trkpt>
      <trkpt lat="45.93532" lon="4.72261">
        <ele>172</ele>
        <time>2018-06-24T10:25:17Z</time>
      </trkpt>
      <trkpt lat="45.93528" lon="4.72271">
        <ele>172</ele>
        <time>2018-06-24T10:25:19Z</time>
      </trkpt>
      <trkpt lat="45.93525" lon="4.7228">
        <ele>172</ele>
        <time>2018-06-24T10:25:20Z</time>
      </trkpt>
      <trkpt lat="45.93522" lon="4.72287">
        <ele>172</ele>
        <time>2018-06-24T10:25:21Z</time>
      </trkpt>
      <trkpt lat="45.93519" lon="4.72292">
        <ele>172</ele>
        <time>2018-06-24T10:25:22Z</time>
      </trkpt>
      <trkpt lat="45.93515" lon="4.72298">
        <ele>172</ele>
        <time>2018-06-24T10:25:23Z</time>
      </trkpt>
      <trkpt lat="45.93511" lon="4.72304">
        <ele>173</ele>
        <time>2018-06-24T10:25:24Z</time>
      </trkpt>
      <trkpt lat="45.93508" lon="4.7231">
        <ele>173</ele>
        <time>2018-06-24T10:25:25Z</time>
      </trkpt>
      <trkpt lat="45.93504" lon="4.72316">
        <ele>173</ele>
        <time>2018-06-24T10:25:26Z</time>
      </trkpt>
      <trkpt lat="45.935" lon="4.72321">
        <ele>173</ele>
        <time>2018-06-24T10:25:27Z</time>
      </trkpt>
      <trkpt lat="45.93496" lon="4.72326">
        <ele>173</ele>
        <time>2018-06-24T10:25:28Z</time>
      </trkpt>
      <trkpt lat="45.93491" lon="4.72331">
        <ele>173</ele>
        <time>2018-06-24T10:25:29Z</time>
      </trkpt>
      <trkpt lat="45.93487" lon="4.72337">
        <ele>173</ele>
        <time>2018-06-24T10:25:30Z</time>
      </trkpt>
      <trkpt lat="45.93483" lon="4.72342">
        <ele>173</ele>
        <time>2018-06-24T10:25:31Z</time>
      </trkpt>
      <trkpt lat="45.9348" lon="4.72347">
        <ele>173</ele>
        <time>2018-06-24T10:25:32Z</time>
      </trkpt>
      <trkpt lat="45.93475" lon="4.72352">
        <ele>173</ele>
        <time>2018-06-24T10:25:33Z</time>
      </trkpt>
      <trkpt lat="45.93471" lon="4.72358">
        <ele>173</ele>
        <time>2018-06-24T10:25:34Z</time>
      </trkpt>
      <trkpt lat="45.93464" lon="4.72365">
        <ele>173</ele>
        <time>2018-06-24T10:25:36Z</time>
      </trkpt>
      <trkpt lat="45.93459" lon="4.72371">
        <ele>173</ele>
        <time>2018-06-24T10:25:37Z</time>
      </trkpt>
      <trkpt lat="45.93455" lon="4.72374">
        <ele>173</ele>
        <time>2018-06-24T10:25:38Z</time>
      </trkpt>
      <trkpt lat="45.93451" lon="4.72378">
        <ele>173</ele>
        <time>2018-06-24T10:25:39Z</time>
      </trkpt>
      <trkpt lat="45.93446" lon="4.72381">
        <ele>173</ele>
        <time>2018-06-24T10:25:40Z</time>
      </trkpt>
      <trkpt lat="45.93441" lon="4.72385">
        <ele>173</ele>
        <time>2018-06-24T10:25:41Z</time>
      </trkpt>
      <trkpt lat="45.93435" lon="4.72394">
        <ele>173</ele>
        <time>2018-06-24T10:25:43Z</time>
      </trkpt>
      <trkpt lat="45.93424" lon="4.72394">
        <ele>174</ele>
        <time>2018-06-24T10:25:44Z</time>
      </trkpt>
      <trkpt lat="45.9342" lon="4.72398">
        <ele>174</ele>
        <time>2018-06-24T10:25:46Z</time>
      </trkpt>
      <trkpt lat="45.93411" lon="4.724">
        <ele>174</ele>
        <time>2018-06-24T10:25:47Z</time>
      </trkpt>
      <trkpt lat="45.93404" lon="4.72399">
        <ele>174</ele>
        <time>2018-06-24T10:25:48Z</time>
      </trkpt>
      <trkpt lat="45.93398" lon="4.72397">
        <ele>174</ele>
        <time>2018-06-24T10:25:49Z</time>
      </trkpt>
      <trkpt lat="45.93391" lon="4.72399">
        <ele>174</ele>
        <time>2018-06-24T10:25:50Z</time>
      </trkpt>
      <trkpt lat="45.93386" lon="4.72404">
        <ele>174</ele>
        <time>2018-06-24T10:25:51Z</time>
      </trkpt>
      <trkpt lat="45.9338" lon="4.72411">
        <ele>174</ele>
        <time>2018-06-24T10:25:53Z</time>
      </trkpt>
      <trkpt lat="45.9338" lon="4.72421">
        <ele>173</ele>
        <time>2018-06-24T10:25:54Z</time>
      </trkpt>
      <trkpt lat="45.93382" lon="4.72429">
        <ele>173</ele>
        <time>2018-06-24T10:25:55Z</time>
      </trkpt>
      <trkpt lat="45.93386" lon="4.72435">
        <ele>173</ele>
        <time>2018-06-24T10:25:56Z</time>
      </trkpt>
      <trkpt lat="45.9339" lon="4.72441">
        <ele>173</ele>
        <time>2018-06-24T10:25:57Z</time>
      </trkpt>
      <trkpt lat="45.93389" lon="4.72449">
        <ele>173</ele>
        <time>2018-06-24T10:25:58Z</time>
      </trkpt>
      <trkpt lat="45.93386" lon="4.72455">
        <ele>173</ele>
        <time>2018-06-24T10:25:59Z</time>
      </trkpt>
      <trkpt lat="45.93383" lon="4.72461">
        <ele>173</ele>
        <time>2018-06-24T10:26:00Z</time>
      </trkpt>
      <trkpt lat="45.93379" lon="4.72468">
        <ele>173</ele>
        <time>2018-06-24T10:26:01Z</time>
      </trkpt>
      <trkpt lat="45.93374" lon="4.72472">
        <ele>173</ele>
        <time>2018-06-24T10:26:02Z</time>
      </trkpt>
      <trkpt lat="45.9337" lon="4.72479">
        <ele>173</ele>
        <time>2018-06-24T10:26:03Z</time>
      </trkpt>
      <trkpt lat="45.93366" lon="4.72484">
        <ele>173</ele>
        <time>2018-06-24T10:26:04Z</time>
      </trkpt>
      <trkpt lat="45.93361" lon="4.72491">
        <ele>173</ele>
        <time>2018-06-24T10:26:05Z</time>
      </trkpt>
      <trkpt lat="45.93358" lon="4.72496">
        <ele>173</ele>
        <time>2018-06-24T10:26:06Z</time>
      </trkpt>
      <trkpt lat="45.93351" lon="4.72502">
        <ele>172</ele>
        <time>2018-06-24T10:26:07Z</time>
      </trkpt>
      <trkpt lat="45.93346" lon="4.72507">
        <ele>172</ele>
        <time>2018-06-24T10:26:08Z</time>
      </trkpt>
      <trkpt lat="45.93342" lon="4.72512">
        <ele>172</ele>
        <time>2018-06-24T10:26:09Z</time>
      </trkpt>
      <trkpt lat="45.93337" lon="4.72517">
        <ele>172</ele>
        <time>2018-06-24T10:26:10Z</time>
      </trkpt>
      <trkpt lat="45.93333" lon="4.72522">
        <ele>172</ele>
        <time>2018-06-24T10:26:11Z</time>
      </trkpt>
      <trkpt lat="45.93329" lon="4.72528">
        <ele>172</ele>
        <time>2018-06-24T10:26:12Z</time>
      </trkpt>
      <trkpt lat="45.93324" lon="4.72534">
        <ele>172</ele>
        <time>2018-06-24T10:26:13Z</time>
      </trkpt>
      <trkpt lat="45.9332" lon="4.7254">
        <ele>172</ele>
        <time>2018-06-24T10:26:14Z</time>
      </trkpt>
      <trkpt lat="45.93316" lon="4.72545">
        <ele>172</ele>
        <time>2018-06-24T10:26:15Z</time>
      </trkpt>
      <trkpt lat="45.93311" lon="4.72549">
        <ele>172</ele>
        <time>2018-06-24T10:26:16Z</time>
      </trkpt>
      <trkpt lat="45.93306" lon="4.72553">
        <ele>172</ele>
        <time>2018-06-24T10:26:17Z</time>
      </trkpt>
      <trkpt lat="45.93302" lon="4.72558">
        <ele>172</ele>
        <time>2018-06-24T10:26:18Z</time>
      </trkpt>
      <trkpt lat="45.93298" lon="4.72562">
        <ele>172</ele>
        <time>2018-06-24T10:26:19Z</time>
      </trkpt>
      <trkpt lat="45.93295" lon="4.72567">
        <ele>172</ele>
        <time>2018-06-24T10:26:20Z</time>
      </trkpt>
      <trkpt lat="45.93289" lon="4.72572">
        <ele>172</ele>
        <time>2018-06-24T10:26:21Z</time>
      </trkpt>
      <trkpt lat="45.93285" lon="4.72578">
        <ele>172</ele>
        <time>2018-06-24T10:26:22Z</time>
      </trkpt>
      <trkpt lat="45.93281" lon="4.72581">
        <ele>171</ele>
        <time>2018-06-24T10:26:23Z</time>
      </trkpt>
      <trkpt lat="45.93277" lon="4.72586">
        <ele>170</ele>
        <time>2018-06-24T10:26:24Z</time>
      </trkpt>
      <trkpt lat="45.93272" lon="4.72591">
        <ele>170</ele>
        <time>2018-06-24T10:26:25Z</time>
      </trkpt>
      <trkpt lat="45.93267" lon="4.72597">
        <ele>170</ele>
        <time>2018-06-24T10:26:26Z</time>
      </trkpt>
      <trkpt lat="45.93262" lon="4.72602">
        <ele>170</ele>
        <time>2018-06-24T10:26:27Z</time>
      </trkpt>
      <trkpt lat="45.93257" lon="4.72609">
        <ele>170</ele>
        <time>2018-06-24T10:26:28Z</time>
      </trkpt>
      <trkpt lat="45.93252" lon="4.72614">
        <ele>170</ele>
        <time>2018-06-24T10:26:29Z</time>
      </trkpt>
      <trkpt lat="45.93247" lon="4.7262">
        <ele>170</ele>
        <time>2018-06-24T10:26:30Z</time>
      </trkpt>
      <trkpt lat="45.93242" lon="4.72625">
        <ele>170</ele>
        <time>2018-06-24T10:26:31Z</time>
      </trkpt>
      <trkpt lat="45.93238" lon="4.7263">
        <ele>170</ele>
        <time>2018-06-24T10:26:32Z</time>
      </trkpt>
      <trkpt lat="45.93235" lon="4.72636">
        <ele>170</ele>
        <time>2018-06-24T10:26:33Z</time>
      </trkpt>
      <trkpt lat="45.93231" lon="4.72641">
        <ele>170</ele>
        <time>2018-06-24T10:26:34Z</time>
      </trkpt>
      <trkpt lat="45.93228" lon="4.72647">
        <ele>170</ele>
        <time>2018-06-24T10:26:35Z</time>
      </trkpt>
      <trkpt lat="45.93224" lon="4.72652">
        <ele>170</ele>
        <time>2018-06-24T10:26:36Z</time>
      </trkpt>
      <trkpt lat="45.9322" lon="4.72656">
        <ele>170</ele>
        <time>2018-06-24T10:26:37Z</time>
      </trkpt>
      <trkpt lat="45.93217" lon="4.7266">
        <ele>170</ele>
        <time>2018-06-24T10:26:38Z</time>
      </trkpt>
      <trkpt lat="45.93212" lon="4.72663">
        <ele>170</ele>
        <time>2018-06-24T10:26:39Z</time>
      </trkpt>
      <trkpt lat="45.93208" lon="4.72668">
        <ele>169</ele>
        <time>2018-06-24T10:26:40Z</time>
      </trkpt>
      <trkpt lat="45.93204" lon="4.72673">
        <ele>169</ele>
        <time>2018-06-24T10:26:41Z</time>
      </trkpt>
      <trkpt lat="45.93199" lon="4.72678">
        <ele>169</ele>
        <time>2018-06-24T10:26:42Z</time>
      </trkpt>
      <trkpt lat="45.93196" lon="4.72683">
        <ele>169</ele>
        <time>2018-06-24T10:26:43Z</time>
      </trkpt>
      <trkpt lat="45.93192" lon="4.72688">
        <ele>169</ele>
        <time>2018-06-24T10:26:44Z</time>
      </trkpt>
      <trkpt lat="45.93188" lon="4.72693">
        <ele>169</ele>
        <time>2018-06-24T10:26:45Z</time>
      </trkpt>
      <trkpt lat="45.93185" lon="4.72699">
        <ele>169</ele>
        <time>2018-06-24T10:26:46Z</time>
      </trkpt>
      <trkpt lat="45.9318" lon="4.72705">
        <ele>169</ele>
        <time>2018-06-24T10:26:47Z</time>
      </trkpt>
      <trkpt lat="45.93175" lon="4.7271">
        <ele>170</ele>
        <time>2018-06-24T10:26:48Z</time>
      </trkpt>
      <trkpt lat="45.9317" lon="4.72716">
        <ele>170</ele>
        <time>2018-06-24T10:26:49Z</time>
      </trkpt>
      <trkpt lat="45.93166" lon="4.72721">
        <ele>170</ele>
        <time>2018-06-24T10:26:50Z</time>
      </trkpt>
      <trkpt lat="45.93161" lon="4.72726">
        <ele>170</ele>
        <time>2018-06-24T10:26:51Z</time>
      </trkpt>
      <trkpt lat="45.93156" lon="4.72732">
        <ele>170</ele>
        <time>2018-06-24T10:26:52Z</time>
      </trkpt>
      <trkpt lat="45.93151" lon="4.72739">
        <ele>170</ele>
        <time>2018-06-24T10:26:53Z</time>
      </trkpt>
      <trkpt lat="45.93146" lon="4.72745">
        <ele>170</ele>
        <time>2018-06-24T10:26:54Z</time>
      </trkpt>
      <trkpt lat="45.9314" lon="4.7275">
        <ele>171</ele>
        <time>2018-06-24T10:26:55Z</time>
      </trkpt>
      <trkpt lat="45.93136" lon="4.72757">
        <ele>171</ele>
        <time>2018-06-24T10:26:56Z</time>
      </trkpt>
      <trkpt lat="45.93134" lon="4.72764">
        <ele>171</ele>
        <time>2018-06-24T10:26:57Z</time>
      </trkpt>
      <trkpt lat="45.93129" lon="4.72769">
        <ele>171</ele>
        <time>2018-06-24T10:26:58Z</time>
      </trkpt>
      <trkpt lat="45.93124" lon="4.72776">
        <ele>171</ele>
        <time>2018-06-24T10:26:59Z</time>
      </trkpt>
      <trkpt lat="45.93118" lon="4.72781">
        <ele>171</ele>
        <time>2018-06-24T10:27:00Z</time>
      </trkpt>
      <trkpt lat="45.93113" lon="4.72788">
        <ele>171</ele>
        <time>2018-06-24T10:27:01Z</time>
      </trkpt>
      <trkpt lat="45.93108" lon="4.72795">
        <ele>171</ele>
        <time>2018-06-24T10:27:02Z</time>
      </trkpt>
      <trkpt lat="45.93103" lon="4.72801">
        <ele>171</ele>
        <time>2018-06-24T10:27:03Z</time>
      </trkpt>
      <trkpt lat="45.93096" lon="4.72806">
        <ele>171</ele>
        <time>2018-06-24T10:27:04Z</time>
      </trkpt>
      <trkpt lat="45.93091" lon="4.72811">
        <ele>172</ele>
        <time>2018-06-24T10:27:05Z</time>
      </trkpt>
      <trkpt lat="45.93086" lon="4.72816">
        <ele>172</ele>
        <time>2018-06-24T10:27:06Z</time>
      </trkpt>
      <trkpt lat="45.93051" lon="4.72858">
        <ele>172</ele>
        <time>2018-06-24T10:27:14Z</time>
      </trkpt>
      <trkpt lat="45.93046" lon="4.72851">
        <ele>172</ele>
        <time>2018-06-24T10:27:15Z</time>
      </trkpt>
      <trkpt lat="45.93041" lon="4.72859">
        <ele>172</ele>
        <time>2018-06-24T10:27:16Z</time>
      </trkpt>
      <trkpt lat="45.93038" lon="4.72864">
        <ele>172</ele>
        <time>2018-06-24T10:27:17Z</time>
      </trkpt>
      <trkpt lat="45.93034" lon="4.72868">
        <ele>172</ele>
        <time>2018-06-24T10:27:18Z</time>
      </trkpt>
      <trkpt lat="45.9303" lon="4.72877">
        <ele>172</ele>
        <time>2018-06-24T10:27:19Z</time>
      </trkpt>
      <trkpt lat="45.93026" lon="4.72882">
        <ele>172</ele>
        <time>2018-06-24T10:27:20Z</time>
      </trkpt>
      <trkpt lat="45.93021" lon="4.72888">
        <ele>172</ele>
        <time>2018-06-24T10:27:21Z</time>
      </trkpt>
      <trkpt lat="45.93016" lon="4.72893">
        <ele>172</ele>
        <time>2018-06-24T10:27:22Z</time>
      </trkpt>
      <trkpt lat="45.93012" lon="4.729">
        <ele>172</ele>
        <time>2018-06-24T10:27:23Z</time>
      </trkpt>
      <trkpt lat="45.93007" lon="4.72905">
        <ele>171</ele>
        <time>2018-06-24T10:27:24Z</time>
      </trkpt>
      <trkpt lat="45.93002" lon="4.72911">
        <ele>171</ele>
        <time>2018-06-24T10:27:25Z</time>
      </trkpt>
      <trkpt lat="45.92998" lon="4.72917">
        <ele>171</ele>
        <time>2018-06-24T10:27:26Z</time>
      </trkpt>
      <trkpt lat="45.92994" lon="4.72921">
        <ele>171</ele>
        <time>2018-06-24T10:27:27Z</time>
      </trkpt>
      <trkpt lat="45.92991" lon="4.72926">
        <ele>171</ele>
        <time>2018-06-24T10:27:28Z</time>
      </trkpt>
      <trkpt lat="45.92987" lon="4.72937">
        <ele>171</ele>
        <time>2018-06-24T10:27:30Z</time>
      </trkpt>
      <trkpt lat="45.92983" lon="4.72942">
        <ele>171</ele>
        <time>2018-06-24T10:27:31Z</time>
      </trkpt>
      <trkpt lat="45.92978" lon="4.72946">
        <ele>171</ele>
        <time>2018-06-24T10:27:32Z</time>
      </trkpt>
      <trkpt lat="45.92974" lon="4.7295">
        <ele>171</ele>
        <time>2018-06-24T10:27:33Z</time>
      </trkpt>
      <trkpt lat="45.92972" lon="4.72955">
        <ele>171</ele>
        <time>2018-06-24T10:27:34Z</time>
      </trkpt>
      <trkpt lat="45.92967" lon="4.72961">
        <ele>171</ele>
        <time>2018-06-24T10:27:35Z</time>
      </trkpt>
      <trkpt lat="45.92962" lon="4.72968">
        <ele>171</ele>
        <time>2018-06-24T10:27:36Z</time>
      </trkpt>
      <trkpt lat="45.92958" lon="4.72973">
        <ele>171</ele>
        <time>2018-06-24T10:27:37Z</time>
      </trkpt>
      <trkpt lat="45.92954" lon="4.72978">
        <ele>171</ele>
        <time>2018-06-24T10:27:38Z</time>
      </trkpt>
      <trkpt lat="45.92949" lon="4.72983">
        <ele>171</ele>
        <time>2018-06-24T10:27:39Z</time>
      </trkpt>
      <trkpt lat="45.92945" lon="4.72988">
        <ele>171</ele>
        <time>2018-06-24T10:27:40Z</time>
      </trkpt>
      <trkpt lat="45.92941" lon="4.72993">
        <ele>171</ele>
        <time>2018-06-24T10:27:41Z</time>
      </trkpt>
      <trkpt lat="45.92937" lon="4.72998">
        <ele>171</ele>
        <time>2018-06-24T10:27:42Z</time>
      </trkpt>
      <trkpt lat="45.92935" lon="4.73004">
        <ele>171</ele>
        <time>2018-06-24T10:27:43Z</time>
      </trkpt>
      <trkpt lat="45.92931" lon="4.7301">
        <ele>171</ele>
        <time>2018-06-24T10:27:44Z</time>
      </trkpt>
      <trkpt lat="45.92926" lon="4.73016">
        <ele>172</ele>
        <time>2018-06-24T10:27:45Z</time>
      </trkpt>
      <trkpt lat="45.92922" lon="4.73021">
        <ele>172</ele>
        <time>2018-06-24T10:27:46Z</time>
      </trkpt>
      <trkpt lat="45.92918" lon="4.73027">
        <ele>172</ele>
        <time>2018-06-24T10:27:47Z</time>
      </trkpt>
      <trkpt lat="45.92914" lon="4.73033">
        <ele>172</ele>
        <time>2018-06-24T10:27:48Z</time>
      </trkpt>
      <trkpt lat="45.92909" lon="4.73038">
        <ele>172</ele>
        <time>2018-06-24T10:27:49Z</time>
      </trkpt>
      <trkpt lat="45.92906" lon="4.73043">
        <ele>172</ele>
        <time>2018-06-24T10:27:50Z</time>
      </trkpt>
      <trkpt lat="45.92903" lon="4.73049">
        <ele>172</ele>
        <time>2018-06-24T10:27:51Z</time>
      </trkpt>
      <trkpt lat="45.92899" lon="4.73055">
        <ele>172</ele>
        <time>2018-06-24T10:27:52Z</time>
      </trkpt>
      <trkpt lat="45.92896" lon="4.73061">
        <ele>172</ele>
        <time>2018-06-24T10:27:53Z</time>
      </trkpt>
      <trkpt lat="45.92893" lon="4.73066">
        <ele>172</ele>
        <time>2018-06-24T10:27:54Z</time>
      </trkpt>
      <trkpt lat="45.92889" lon="4.73071">
        <ele>172</ele>
        <time>2018-06-24T10:27:55Z</time>
      </trkpt>
      <trkpt lat="45.92886" lon="4.73076">
        <ele>172</ele>
        <time>2018-06-24T10:27:56Z</time>
      </trkpt>
      <trkpt lat="45.92882" lon="4.73081">
        <ele>172</ele>
        <time>2018-06-24T10:27:57Z</time>
      </trkpt>
      <trkpt lat="45.92878" lon="4.73086">
        <ele>172</ele>
        <time>2018-06-24T10:27:58Z</time>
      </trkpt>
      <trkpt lat="45.92876" lon="4.73091">
        <ele>172</ele>
        <time>2018-06-24T10:27:59Z</time>
      </trkpt>
      <trkpt lat="45.92871" lon="4.73096">
        <ele>172</ele>
        <time>2018-06-24T10:28:00Z</time>
      </trkpt>
      <trkpt lat="45.92868" lon="4.73102">
        <ele>172</ele>
        <time>2018-06-24T10:28:01Z</time>
      </trkpt>
      <trkpt lat="45.92863" lon="4.7311">
        <ele>171</ele>
        <time>2018-06-24T10:28:03Z</time>
      </trkpt>
      <trkpt lat="45.92858" lon="4.7311">
        <ele>171</ele>
        <time>2018-06-24T10:28:04Z</time>
      </trkpt>
      <trkpt lat="45.92852" lon="4.73103">
        <ele>171</ele>
        <time>2018-06-24T10:28:06Z</time>
      </trkpt>
      <trkpt lat="45.92851" lon="4.73097">
        <ele>171</ele>
        <time>2018-06-24T10:28:07Z</time>
      </trkpt>
      <trkpt lat="45.92849" lon="4.7309">
        <ele>171</ele>
        <time>2018-06-24T10:28:08Z</time>
      </trkpt>
      <trkpt lat="45.92848" lon="4.73083">
        <ele>171</ele>
        <time>2018-06-24T10:28:09Z</time>
      </trkpt>
      <trkpt lat="45.92847" lon="4.73077">
        <ele>171</ele>
        <time>2018-06-24T10:28:10Z</time>
      </trkpt>
      <trkpt lat="45.92846" lon="4.73069">
        <ele>171</ele>
        <time>2018-06-24T10:28:11Z</time>
      </trkpt>
      <trkpt lat="45.92845" lon="4.73062">
        <ele>171</ele>
        <time>2018-06-24T10:28:12Z</time>
      </trkpt>
      <trkpt lat="45.92844" lon="4.73054">
        <ele>171</ele>
        <time>2018-06-24T10:28:13Z</time>
      </trkpt>
      <trkpt lat="45.92842" lon="4.73046">
        <ele>171</ele>
        <time>2018-06-24T10:28:14Z</time>
      </trkpt>
      <trkpt lat="45.92841" lon="4.73037">
        <ele>171</ele>
        <time>2018-06-24T10:28:15Z</time>
      </trkpt>
      <trkpt lat="45.9284" lon="4.73029">
        <ele>171</ele>
        <time>2018-06-24T10:28:16Z</time>
      </trkpt>
      <trkpt lat="45.92839" lon="4.73021">
        <ele>171</ele>
        <time>2018-06-24T10:28:17Z</time>
      </trkpt>
      <trkpt lat="45.92838" lon="4.73013">
        <ele>171</ele>
        <time>2018-06-24T10:28:18Z</time>
      </trkpt>
      <trkpt lat="45.92837" lon="4.73006">
        <ele>170</ele>
        <time>2018-06-24T10:28:19Z</time>
      </trkpt>
      <trkpt lat="45.92835" lon="4.72998">
        <ele>170</ele>
        <time>2018-06-24T10:28:20Z</time>
      </trkpt>
      <trkpt lat="45.92835" lon="4.72991">
        <ele>170</ele>
        <time>2018-06-24T10:28:21Z</time>
      </trkpt>
      <trkpt lat="45.92833" lon="4.72984">
        <ele>170</ele>
        <time>2018-06-24T10:28:22Z</time>
      </trkpt>
      <trkpt lat="45.92834" lon="4.72977">
        <ele>171</ele>
        <time>2018-06-24T10:28:23Z</time>
      </trkpt>
      <trkpt lat="45.92834" lon="4.7297">
        <ele>171</ele>
        <time>2018-06-24T10:28:24Z</time>
      </trkpt>
      <trkpt lat="45.92833" lon="4.72961">
        <ele>170</ele>
        <time>2018-06-24T10:28:25Z</time>
      </trkpt>
      <trkpt lat="45.92832" lon="4.72954">
        <ele>170</ele>
        <time>2018-06-24T10:28:26Z</time>
      </trkpt>
      <trkpt lat="45.92831" lon="4.72946">
        <ele>170</ele>
        <time>2018-06-24T10:28:27Z</time>
      </trkpt>
      <trkpt lat="45.92831" lon="4.72938">
        <ele>170</ele>
        <time>2018-06-24T10:28:28Z</time>
      </trkpt>
      <trkpt lat="45.92832" lon="4.72931">
        <ele>170</ele>
        <time>2018-06-24T10:28:29Z</time>
      </trkpt>
      <trkpt lat="45.92831" lon="4.72922">
        <ele>170</ele>
        <time>2018-06-24T10:28:30Z</time>
      </trkpt>
      <trkpt lat="45.9283" lon="4.72916">
        <ele>170</ele>
        <time>2018-06-24T10:28:31Z</time>
      </trkpt>
      <trkpt lat="45.92831" lon="4.72909">
        <ele>170</ele>
        <time>2018-06-24T10:28:32Z</time>
      </trkpt>
      <trkpt lat="45.92829" lon="4.72902">
        <ele>170</ele>
        <time>2018-06-24T10:28:33Z</time>
      </trkpt>
      <trkpt lat="45.92829" lon="4.72895">
        <ele>170</ele>
        <time>2018-06-24T10:28:34Z</time>
      </trkpt>
      <trkpt lat="45.92828" lon="4.72888">
        <ele>170</ele>
        <time>2018-06-24T10:28:35Z</time>
      </trkpt>
      <trkpt lat="45.92826" lon="4.72882">
        <ele>170</ele>
        <time>2018-06-24T10:28:36Z</time>
      </trkpt>
      <trkpt lat="45.92824" lon="4.72876">
        <ele>170</ele>
        <time>2018-06-24T10:28:37Z</time>
      </trkpt>
      <trkpt lat="45.92823" lon="4.7287">
        <ele>170</ele>
        <time>2018-06-24T10:28:38Z</time>
      </trkpt>
      <trkpt lat="45.92821" lon="4.72862">
        <ele>170</ele>
        <time>2018-06-24T10:28:39Z</time>
      </trkpt>
      <trkpt lat="45.9282" lon="4.72855">
        <ele>170</ele>
        <time>2018-06-24T10:28:40Z</time>
      </trkpt>
      <trkpt lat="45.92818" lon="4.72847">
        <ele>170</ele>
        <time>2018-06-24T10:28:41Z</time>
      </trkpt>
      <trkpt lat="45.92817" lon="4.7284">
        <ele>170</ele>
        <time>2018-06-24T10:28:42Z</time>
      </trkpt>
      <trkpt lat="45.92815" lon="4.72833">
        <ele>171</ele>
        <time>2018-06-24T10:28:43Z</time>
      </trkpt>
      <trkpt lat="45.92813" lon="4.72826">
        <ele>171</ele>
        <time>2018-06-24T10:28:44Z</time>
      </trkpt>
      <trkpt lat="45.92812" lon="4.72819">
        <ele>171</ele>
        <time>2018-06-24T10:28:45Z</time>
      </trkpt>
      <trkpt lat="45.9281" lon="4.72812">
        <ele>171</ele>
        <time>2018-06-24T10:28:46Z</time>
      </trkpt>
      <trkpt lat="45.92808" lon="4.72805">
        <ele>171</ele>
        <time>2018-06-24T10:28:47Z</time>
      </trkpt>
      <trkpt lat="45.92807" lon="4.72796">
        <ele>171</ele>
        <time>2018-06-24T10:28:49Z</time>
      </trkpt>
      <trkpt lat="45.928" lon="4.72789">
        <ele>171</ele>
        <time>2018-06-24T10:28:50Z</time>
      </trkpt>
      <trkpt lat="45.92796" lon="4.72788">
        <ele>171</ele>
        <time>2018-06-24T10:28:51Z</time>
      </trkpt>
      <trkpt lat="45.92791" lon="4.72789">
        <ele>171</ele>
        <time>2018-06-24T10:28:52Z</time>
      </trkpt>
      <trkpt lat="45.92783" lon="4.72794">
        <ele>170</ele>
        <time>2018-06-24T10:28:54Z</time>
      </trkpt>
      <trkpt lat="45.92782" lon="4.72798">
        <ele>170</ele>
        <time>2018-06-24T10:28:55Z</time>
      </trkpt>
      <trkpt lat="45.92777" lon="4.728">
        <ele>170</ele>
        <time>2018-06-24T10:28:56Z</time>
      </trkpt>
      <trkpt lat="45.92774" lon="4.72802">
        <ele>170</ele>
        <time>2018-06-24T10:28:57Z</time>
      </trkpt>
      <trkpt lat="45.92769" lon="4.72806">
        <ele>170</ele>
        <time>2018-06-24T10:28:58Z</time>
      </trkpt>
      <trkpt lat="45.92764" lon="4.7281">
        <ele>170</ele>
        <time>2018-06-24T10:28:59Z</time>
      </trkpt>
      <trkpt lat="45.92758" lon="4.72814">
        <ele>170</ele>
        <time>2018-06-24T10:29:00Z</time>
      </trkpt>
      <trkpt lat="45.92754" lon="4.72818">
        <ele>170</ele>
        <time>2018-06-24T10:29:01Z</time>
      </trkpt>
      <trkpt lat="45.9275" lon="4.72822">
        <ele>169</ele>
        <time>2018-06-24T10:29:02Z</time>
      </trkpt>
      <trkpt lat="45.92745" lon="4.72825">
        <ele>169</ele>
        <time>2018-06-24T10:29:03Z</time>
      </trkpt>
      <trkpt lat="45.92741" lon="4.72829">
        <ele>169</ele>
        <time>2018-06-24T10:29:04Z</time>
      </trkpt>
      <trkpt lat="45.92737" lon="4.7283">
        <ele>169</ele>
        <time>2018-06-24T10:29:05Z</time>
      </trkpt>
      <trkpt lat="45.92732" lon="4.72832">
        <ele>169</ele>
        <time>2018-06-24T10:29:06Z</time>
      </trkpt>
      <trkpt lat="45.92728" lon="4.72836">
        <ele>169</ele>
        <time>2018-06-24T10:29:07Z</time>
      </trkpt>
      <trkpt lat="45.92724" lon="4.72842">
        <ele>169</ele>
        <time>2018-06-24T10:29:08Z</time>
      </trkpt>
      <trkpt lat="45.92719" lon="4.72845">
        <ele>169</ele>
        <time>2018-06-24T10:29:09Z</time>
      </trkpt>
      <trkpt lat="45.92714" lon="4.72848">
        <ele>169</ele>
        <time>2018-06-24T10:29:10Z</time>
      </trkpt>
      <trkpt lat="45.9271" lon="4.72851">
        <ele>169</ele>
        <time>2018-06-24T10:29:11Z</time>
      </trkpt>
      <trkpt lat="45.92706" lon="4.72855">
        <ele>169</ele>
        <time>2018-06-24T10:29:12Z</time>
      </trkpt>
      <trkpt lat="45.92702" lon="4.72858">
        <ele>169</ele>
        <time>2018-06-24T10:29:13Z</time>
      </trkpt>
      <trkpt lat="45.92696" lon="4.72862">
        <ele>169</ele>
        <time>2018-06-24T10:29:14Z</time>
      </trkpt>
      <trkpt lat="45.92691" lon="4.72866">
        <ele>169</ele>
        <time>2018-06-24T10:29:15Z</time>
      </trkpt>
      <trkpt lat="45.92687" lon="4.72869">
        <ele>169</ele>
        <time>2018-06-24T10:29:16Z</time>
      </trkpt>
      <trkpt lat="45.92682" lon="4.72875">
        <ele>170</ele>
        <time>2018-06-24T10:29:17Z</time>
      </trkpt>
      <trkpt lat="45.92677" lon="4.72879">
        <ele>170</ele>
        <time>2018-06-24T10:29:18Z</time>
      </trkpt>
      <trkpt lat="45.92673" lon="4.72883">
        <ele>170</ele>
        <time>2018-06-24T10:29:19Z</time>
      </trkpt>
      <trkpt lat="45.92668" lon="4.72887">
        <ele>170</ele>
        <time>2018-06-24T10:29:20Z</time>
      </trkpt>
      <trkpt lat="45.92662" lon="4.7289">
        <ele>169</ele>
        <time>2018-06-24T10:29:21Z</time>
      </trkpt>
      <trkpt lat="45.92657" lon="4.72894">
        <ele>170</ele>
        <time>2018-06-24T10:29:22Z</time>
      </trkpt>
      <trkpt lat="45.92652" lon="4.72898">
        <ele>170</ele>
        <time>2018-06-24T10:29:23Z</time>
      </trkpt>
      <trkpt lat="45.9265" lon="4.72903">
        <ele>170</ele>
        <time>2018-06-24T10:29:24Z</time>
      </trkpt>
      <trkpt lat="45.92645" lon="4.72907">
        <ele>170</ele>
        <time>2018-06-24T10:29:25Z</time>
      </trkpt>
      <trkpt lat="45.9264" lon="4.72911">
        <ele>169</ele>
        <time>2018-06-24T10:29:26Z</time>
      </trkpt>
      <trkpt lat="45.92635" lon="4.72915">
        <ele>169</ele>
        <time>2018-06-24T10:29:27Z</time>
      </trkpt>
      <trkpt lat="45.9263" lon="4.72918">
        <ele>170</ele>
        <time>2018-06-24T10:29:28Z</time>
      </trkpt>
      <trkpt lat="45.92626" lon="4.72922">
        <ele>170</ele>
        <time>2018-06-24T10:29:29Z</time>
      </trkpt>
      <trkpt lat="45.92621" lon="4.72927">
        <ele>169</ele>
        <time>2018-06-24T10:29:30Z</time>
      </trkpt>
      <trkpt lat="45.92616" lon="4.72931">
        <ele>169</ele>
        <time>2018-06-24T10:29:31Z</time>
      </trkpt>
      <trkpt lat="45.92612" lon="4.72936">
        <ele>169</ele>
        <time>2018-06-24T10:29:32Z</time>
      </trkpt>
      <trkpt lat="45.92606" lon="4.7294">
        <ele>169</ele>
        <time>2018-06-24T10:29:33Z</time>
      </trkpt>
      <trkpt lat="45.92602" lon="4.72945">
        <ele>169</ele>
        <time>2018-06-24T10:29:34Z</time>
      </trkpt>
      <trkpt lat="45.92599" lon="4.72949">
        <ele>169</ele>
        <time>2018-06-24T10:29:35Z</time>
      </trkpt>
      <trkpt lat="45.92593" lon="4.72953">
        <ele>169</ele>
        <time>2018-06-24T10:29:36Z</time>
      </trkpt>
      <trkpt lat="45.92588" lon="4.72958">
        <ele>169</ele>
        <time>2018-06-24T10:29:37Z</time>
      </trkpt>
      <trkpt lat="45.92584" lon="4.72966">
        <ele>169</ele>
        <time>2018-06-24T10:29:38Z</time>
      </trkpt>
      <trkpt lat="45.92578" lon="4.72972">
        <ele>169</ele>
        <time>2018-06-24T10:29:39Z</time>
      </trkpt>
      <trkpt lat="45.92572" lon="4.72976">
        <ele>169</ele>
        <time>2018-06-24T10:29:40Z</time>
      </trkpt>
      <trkpt lat="45.92566" lon="4.72982">
        <ele>169</ele>
        <time>2018-06-24T10:29:41Z</time>
      </trkpt>
      <trkpt lat="45.92562" lon="4.72987">
        <ele>169</ele>
        <time>2018-06-24T10:29:42Z</time>
      </trkpt>
      <trkpt lat="45.92558" lon="4.72992">
        <ele>169</ele>
        <time>2018-06-24T10:29:43Z</time>
      </trkpt>
      <trkpt lat="45.92553" lon="4.72997">
        <ele>169</ele>
        <time>2018-06-24T10:29:44Z</time>
      </trkpt>
      <trkpt lat="45.92548" lon="4.73002">
        <ele>169</ele>
        <time>2018-06-24T10:29:45Z</time>
      </trkpt>
      <trkpt lat="45.92543" lon="4.73006">
        <ele>169</ele>
        <time>2018-06-24T10:29:46Z</time>
      </trkpt>
      <trkpt lat="45.9254" lon="4.73011">
        <ele>169</ele>
        <time>2018-06-24T10:29:47Z</time>
      </trkpt>
      <trkpt lat="45.92534" lon="4.73015">
        <ele>169</ele>
        <time>2018-06-24T10:29:48Z</time>
      </trkpt>
      <trkpt lat="45.92529" lon="4.73021">
        <ele>169</ele>
        <time>2018-06-24T10:29:49Z</time>
      </trkpt>
      <trkpt lat="45.92524" lon="4.73025">
        <ele>169</ele>
        <time>2018-06-24T10:29:50Z</time>
      </trkpt>
      <trkpt lat="45.92519" lon="4.73029">
        <ele>169</ele>
        <time>2018-06-24T10:29:51Z</time>
      </trkpt>
      <trkpt lat="45.92513" lon="4.73034">
        <ele>169</ele>
        <time>2018-06-24T10:29:52Z</time>
      </trkpt>
      <trkpt lat="45.92508" lon="4.73039">
        <ele>169</ele>
        <time>2018-06-24T10:29:53Z</time>
      </trkpt>
      <trkpt lat="45.92503" lon="4.73043">
        <ele>170</ele>
        <time>2018-06-24T10:29:54Z</time>
      </trkpt>
      <trkpt lat="45.92497" lon="4.73047">
        <ele>170</ele>
        <time>2018-06-24T10:29:55Z</time>
      </trkpt>
      <trkpt lat="45.92492" lon="4.73052">
        <ele>170</ele>
        <time>2018-06-24T10:29:56Z</time>
      </trkpt>
      <trkpt lat="45.92487" lon="4.73056">
        <ele>170</ele>
        <time>2018-06-24T10:29:57Z</time>
      </trkpt>
      <trkpt lat="45.92481" lon="4.73061">
        <ele>170</ele>
        <time>2018-06-24T10:29:58Z</time>
      </trkpt>
      <trkpt lat="45.92476" lon="4.73065">
        <ele>170</ele>
        <time>2018-06-24T10:29:59Z</time>
      </trkpt>
      <trkpt lat="45.92471" lon="4.7307">
        <ele>170</ele>
        <time>2018-06-24T10:30:00Z</time>
      </trkpt>
      <trkpt lat="45.92466" lon="4.73073">
        <ele>170</ele>
        <time>2018-06-24T10:30:01Z</time>
      </trkpt>
      <trkpt lat="45.92461" lon="4.73077">
        <ele>170</ele>
        <time>2018-06-24T10:30:02Z</time>
      </trkpt>
      <trkpt lat="45.92457" lon="4.73082">
        <ele>170</ele>
        <time>2018-06-24T10:30:03Z</time>
      </trkpt>
      <trkpt lat="45.92454" lon="4.73086">
        <ele>170</ele>
        <time>2018-06-24T10:30:04Z</time>
      </trkpt>
      <trkpt lat="45.9245" lon="4.73091">
        <ele>170</ele>
        <time>2018-06-24T10:30:05Z</time>
      </trkpt>
      <trkpt lat="45.92444" lon="4.73096">
        <ele>170</ele>
        <time>2018-06-24T10:30:06Z</time>
      </trkpt>
      <trkpt lat="45.9244" lon="4.73099">
        <ele>170</ele>
        <time>2018-06-24T10:30:07Z</time>
      </trkpt>
      <trkpt lat="45.92435" lon="4.73103">
        <ele>170</ele>
        <time>2018-06-24T10:30:08Z</time>
      </trkpt>
      <trkpt lat="45.92431" lon="4.73107">
        <ele>170</ele>
        <time>2018-06-24T10:30:09Z</time>
      </trkpt>
      <trkpt lat="45.92425" lon="4.7311">
        <ele>170</ele>
        <time>2018-06-24T10:30:10Z</time>
      </trkpt>
      <trkpt lat="45.9242" lon="4.73113">
        <ele>170</ele>
        <time>2018-06-24T10:30:11Z</time>
      </trkpt>
      <trkpt lat="45.92416" lon="4.73117">
        <ele>171</ele>
        <time>2018-06-24T10:30:12Z</time>
      </trkpt>
      <trkpt lat="45.92411" lon="4.7312">
        <ele>171</ele>
        <time>2018-06-24T10:30:13Z</time>
      </trkpt>
      <trkpt lat="45.92408" lon="4.73126">
        <ele>171</ele>
        <time>2018-06-24T10:30:14Z</time>
      </trkpt>
      <trkpt lat="45.92406" lon="4.73132">
        <ele>171</ele>
        <time>2018-06-24T10:30:15Z</time>
      </trkpt>
      <trkpt lat="45.92406" lon="4.73139">
        <ele>171</ele>
        <time>2018-06-24T10:30:16Z</time>
      </trkpt>
      <trkpt lat="45.92405" lon="4.73146">
        <ele>171</ele>
        <time>2018-06-24T10:30:17Z</time>
      </trkpt>
      <trkpt lat="45.92404" lon="4.73154">
        <ele>171</ele>
        <time>2018-06-24T10:30:18Z</time>
      </trkpt>
      <trkpt lat="45.92405" lon="4.73162">
        <ele>170</ele>
        <time>2018-06-24T10:30:19Z</time>
      </trkpt>
      <trkpt lat="45.92404" lon="4.7317">
        <ele>171</ele>
        <time>2018-06-24T10:30:20Z</time>
      </trkpt>
      <trkpt lat="45.92405" lon="4.7318">
        <ele>171</ele>
        <time>2018-06-24T10:30:21Z</time>
      </trkpt>
      <trkpt lat="45.92405" lon="4.73188">
        <ele>171</ele>
        <time>2018-06-24T10:30:22Z</time>
      </trkpt>
      <trkpt lat="45.92405" lon="4.73194">
        <ele>171</ele>
        <time>2018-06-24T10:30:23Z</time>
      </trkpt>
      <trkpt lat="45.92405" lon="4.73201">
        <ele>171</ele>
        <time>2018-06-24T10:30:24Z</time>
      </trkpt>
      <trkpt lat="45.92405" lon="4.73209">
        <ele>171</ele>
        <time>2018-06-24T10:30:25Z</time>
      </trkpt>
      <trkpt lat="45.92406" lon="4.73217">
        <ele>171</ele>
        <time>2018-06-24T10:30:26Z</time>
      </trkpt>
      <trkpt lat="45.92406" lon="4.73224">
        <ele>171</ele>
        <time>2018-06-24T10:30:27Z</time>
      </trkpt>
      <trkpt lat="45.92407" lon="4.73232">
        <ele>171</ele>
        <time>2018-06-24T10:30:28Z</time>
      </trkpt>
      <trkpt lat="45.92407" lon="4.73241">
        <ele>171</ele>
        <time>2018-06-24T10:30:29Z</time>
      </trkpt>
      <trkpt lat="45.92408" lon="4.73249">
        <ele>171</ele>
        <time>2018-06-24T10:30:30Z</time>
      </trkpt>
      <trkpt lat="45.92408" lon="4.73257">
        <ele>171</ele>
        <time>2018-06-24T10:30:31Z</time>
      </trkpt>
      <trkpt lat="45.92409" lon="4.73264">
        <ele>171</ele>
        <time>2018-06-24T10:30:32Z</time>
      </trkpt>
      <trkpt lat="45.92409" lon="4.73271">
        <ele>171</ele>
        <time>2018-06-24T10:30:33Z</time>
      </trkpt>
      <trkpt lat="45.92411" lon="4.73278">
        <ele>171</ele>
        <time>2018-06-24T10:30:34Z</time>
      </trkpt>
      <trkpt lat="45.92411" lon="4.73285">
        <ele>171</ele>
        <time>2018-06-24T10:30:35Z</time>
      </trkpt>
      <trkpt lat="45.92412" lon="4.73292">
        <ele>171</ele>
        <time>2018-06-24T10:30:36Z</time>
      </trkpt>
      <trkpt lat="45.92411" lon="4.733">
        <ele>171</ele>
        <time>2018-06-24T10:30:37Z</time>
      </trkpt>
      <trkpt lat="45.92412" lon="4.73307">
        <ele>171</ele>
        <time>2018-06-24T10:30:38Z</time>
      </trkpt>
      <trkpt lat="45.92412" lon="4.73315">
        <ele>171</ele>
        <time>2018-06-24T10:30:39Z</time>
      </trkpt>
      <trkpt lat="45.92412" lon="4.73322">
        <ele>171</ele>
        <time>2018-06-24T10:30:40Z</time>
      </trkpt>
      <trkpt lat="45.92413" lon="4.7333">
        <ele>171</ele>
        <time>2018-06-24T10:30:41Z</time>
      </trkpt>
      <trkpt lat="45.92414" lon="4.73336">
        <ele>171</ele>
        <time>2018-06-24T10:30:42Z</time>
      </trkpt>
      <trkpt lat="45.92415" lon="4.73344">
        <ele>171</ele>
        <time>2018-06-24T10:30:43Z</time>
      </trkpt>
      <trkpt lat="45.92415" lon="4.73352">
        <ele>171</ele>
        <time>2018-06-24T10:30:44Z</time>
      </trkpt>
      <trkpt lat="45.92417" lon="4.7336">
        <ele>171</ele>
        <time>2018-06-24T10:30:45Z</time>
      </trkpt>
      <trkpt lat="45.92419" lon="4.73367">
        <ele>172</ele>
        <time>2018-06-24T10:30:46Z</time>
      </trkpt>
      <trkpt lat="45.92419" lon="4.73375">
        <ele>172</ele>
        <time>2018-06-24T10:30:47Z</time>
      </trkpt>
      <trkpt lat="45.9242" lon="4.73383">
        <ele>172</ele>
        <time>2018-06-24T10:30:48Z</time>
      </trkpt>
      <trkpt lat="45.9242" lon="4.73391">
        <ele>172</ele>
        <time>2018-06-24T10:30:49Z</time>
      </trkpt>
      <trkpt lat="45.92423" lon="4.73398">
        <ele>172</ele>
        <time>2018-06-24T10:30:50Z</time>
      </trkpt>
      <trkpt lat="45.92425" lon="4.73404">
        <ele>172</ele>
        <time>2018-06-24T10:30:51Z</time>
      </trkpt>
      <trkpt lat="45.92429" lon="4.73409">
        <ele>172</ele>
        <time>2018-06-24T10:30:52Z</time>
      </trkpt>
      <trkpt lat="45.92432" lon="4.73414">
        <ele>172</ele>
        <time>2018-06-24T10:30:53Z</time>
      </trkpt>
      <trkpt lat="45.92439" lon="4.73421">
        <ele>173</ele>
        <time>2018-06-24T10:30:55Z</time>
      </trkpt>
      <trkpt lat="45.92443" lon="4.73423">
        <ele>173</ele>
        <time>2018-06-24T10:30:56Z</time>
      </trkpt>
      <trkpt lat="45.92447" lon="4.73429">
        <ele>173</ele>
        <time>2018-06-24T10:30:57Z</time>
      </trkpt>
      <trkpt lat="45.92452" lon="4.73433">
        <ele>173</ele>
        <time>2018-06-24T10:30:58Z</time>
      </trkpt>
      <trkpt lat="45.92454" lon="4.73437">
        <ele>173</ele>
        <time>2018-06-24T10:30:59Z</time>
      </trkpt>
      <trkpt lat="45.92461" lon="4.73441">
        <ele>173</ele>
        <time>2018-06-24T10:31:00Z</time>
      </trkpt>
      <trkpt lat="45.92461" lon="4.73448">
        <ele>173</ele>
        <time>2018-06-24T10:31:01Z</time>
      </trkpt>
      <trkpt lat="45.92463" lon="4.73455">
        <ele>173</ele>
        <time>2018-06-24T10:31:02Z</time>
      </trkpt>
      <trkpt lat="45.92462" lon="4.73461">
        <ele>173</ele>
        <time>2018-06-24T10:31:03Z</time>
      </trkpt>
      <trkpt lat="45.92462" lon="4.73469">
        <ele>173</ele>
        <time>2018-06-24T10:31:04Z</time>
      </trkpt>
      <trkpt lat="45.92466" lon="4.73474">
        <ele>173</ele>
        <time>2018-06-24T10:31:05Z</time>
      </trkpt>
      <trkpt lat="45.92466" lon="4.73481">
        <ele>173</ele>
        <time>2018-06-24T10:31:06Z</time>
      </trkpt>
      <trkpt lat="45.92469" lon="4.73489">
        <ele>173</ele>
        <time>2018-06-24T10:31:07Z</time>
      </trkpt>
      <trkpt lat="45.92469" lon="4.73495">
        <ele>173</ele>
        <time>2018-06-24T10:31:08Z</time>
      </trkpt>
      <trkpt lat="45.92468" lon="4.73507">
        <ele>174</ele>
        <time>2018-06-24T10:31:10Z</time>
      </trkpt>
      <trkpt lat="45.92468" lon="4.73513">
        <ele>174</ele>
        <time>2018-06-24T10:31:11Z</time>
      </trkpt>
      <trkpt lat="45.92468" lon="4.73526">
        <ele>174</ele>
        <time>2018-06-24T10:31:13Z</time>
      </trkpt>
      <trkpt lat="45.92468" lon="4.73531">
        <ele>174</ele>
        <time>2018-06-24T10:31:14Z</time>
      </trkpt>
      <trkpt lat="45.92467" lon="4.73542">
        <ele>173</ele>
        <time>2018-06-24T10:31:17Z</time>
      </trkpt>
      <trkpt lat="45.92467" lon="4.73545">
        <ele>173</ele>
        <time>2018-06-24T10:31:18Z</time>
      </trkpt>
      <trkpt lat="45.92466" lon="4.73553">
        <ele>173</ele>
        <time>2018-06-24T10:31:20Z</time>
      </trkpt>
      <trkpt lat="45.92465" lon="4.73568">
        <ele>173</ele>
        <time>2018-06-24T10:31:21Z</time>
      </trkpt>
      <trkpt lat="45.92467" lon="4.73574">
        <ele>173</ele>
        <time>2018-06-24T10:31:22Z</time>
      </trkpt>
      <trkpt lat="45.92468" lon="4.7358">
        <ele>173</ele>
        <time>2018-06-24T10:31:23Z</time>
      </trkpt>
      <trkpt lat="45.92466" lon="4.73593">
        <ele>174</ele>
        <time>2018-06-24T10:31:25Z</time>
      </trkpt>
      <trkpt lat="45.92468" lon="4.73597">
        <ele>174</ele>
        <time>2018-06-24T10:31:26Z</time>
      </trkpt>
      <trkpt lat="45.92468" lon="4.73605">
        <ele>174</ele>
        <time>2018-06-24T10:31:27Z</time>
      </trkpt>
      <trkpt lat="45.92469" lon="4.73613">
        <ele>174</ele>
        <time>2018-06-24T10:31:28Z</time>
      </trkpt>
      <trkpt lat="45.92468" lon="4.73621">
        <ele>174</ele>
        <time>2018-06-24T10:31:29Z</time>
      </trkpt>
      <trkpt lat="45.92467" lon="4.73628">
        <ele>174</ele>
        <time>2018-06-24T10:31:30Z</time>
      </trkpt>
      <trkpt lat="45.92467" lon="4.73636">
        <ele>174</ele>
        <time>2018-06-24T10:31:31Z</time>
      </trkpt>
      <trkpt lat="45.92466" lon="4.73643">
        <ele>174</ele>
        <time>2018-06-24T10:31:32Z</time>
      </trkpt>
      <trkpt lat="45.92465" lon="4.7365">
        <ele>174</ele>
        <time>2018-06-24T10:31:33Z</time>
      </trkpt>
      <trkpt lat="45.92464" lon="4.73656">
        <ele>174</ele>
        <time>2018-06-24T10:31:34Z</time>
      </trkpt>
      <trkpt lat="45.92464" lon="4.73668">
        <ele>174</ele>
        <time>2018-06-24T10:31:36Z</time>
      </trkpt>
      <trkpt lat="45.92464" lon="4.73674">
        <ele>174</ele>
        <time>2018-06-24T10:31:37Z</time>
      </trkpt>
      <trkpt lat="45.92461" lon="4.73685">
        <ele>174</ele>
        <time>2018-06-24T10:31:39Z</time>
      </trkpt>
      <trkpt lat="45.92459" lon="4.7369">
        <ele>174</ele>
        <time>2018-06-24T10:31:40Z</time>
      </trkpt>
      <trkpt lat="45.92461" lon="4.73702">
        <ele>174</ele>
        <time>2018-06-24T10:31:46Z</time>
      </trkpt>
      <trkpt lat="45.92461" lon="4.73702">
        <ele>174</ele>
        <time>2018-06-24T10:31:47Z</time>
      </trkpt>
      <trkpt lat="45.92463" lon="4.73706">
        <ele>174</ele>
        <time>2018-06-24T10:32:23.846Z</time>
      </trkpt>
    </trkseg>
  </trk>
</gpx>